<?xml version="1.0" encoding="UTF-8" standalone="no" ?>
<gpx xmlns="http://www.topografix.com/GPX/1/1" xmlns:xsi="http://www.w3.org/2001/XMLSchema-instance" xsi:schemaLocation="http://www.topografix.com/GPX/1/1 http://www.topografix.com/GPX/1/1/gpx.xsd" version="1.1" creator="VisuGPX - https://www.visugpx.com">
  <metadata>
    <name>Petite sortie 1000m D+ sur SerreChe</name>
  </metadata>
  <trk>
    <name><![CDATA[Petite sortie 1000m D+ sur SerreChe_1]]></name>
    <trkseg>
      <trkpt lat="44.91764" lon="6.61921">
        <ele>1317.6</ele>
        <time>2022-08-28T14:43:14+0200</time>
      </trkpt>
      <trkpt lat="44.91759" lon="6.61917">
        <ele>1317</ele>
        <time>2022-08-28T14:43:28+0200</time>
      </trkpt>
      <trkpt lat="44.91754" lon="6.61915">
        <ele>1316.4</ele>
        <time>2022-08-28T14:43:30+0200</time>
      </trkpt>
      <trkpt lat="44.9175" lon="6.61914">
        <ele>1315.9</ele>
        <time>2022-08-28T14:43:31+0200</time>
      </trkpt>
      <trkpt lat="44.91744" lon="6.6191">
        <ele>1315</ele>
        <time>2022-08-28T14:43:32+0200</time>
      </trkpt>
      <trkpt lat="44.91738" lon="6.61905">
        <ele>1314</ele>
        <time>2022-08-28T14:43:33+0200</time>
      </trkpt>
      <trkpt lat="44.91732" lon="6.61898">
        <ele>1313.1</ele>
        <time>2022-08-28T14:43:34+0200</time>
      </trkpt>
      <trkpt lat="44.91727" lon="6.61893">
        <ele>1312.6</ele>
        <time>2022-08-28T14:43:36+0200</time>
      </trkpt>
      <trkpt lat="44.91728" lon="6.61886">
        <ele>1312.5</ele>
        <time>2022-08-28T14:43:37+0200</time>
      </trkpt>
      <trkpt lat="44.91731" lon="6.61882">
        <ele>1312.7</ele>
        <time>2022-08-28T14:43:38+0200</time>
      </trkpt>
      <trkpt lat="44.91738" lon="6.61875">
        <ele>1313.1</ele>
        <time>2022-08-28T14:43:40+0200</time>
      </trkpt>
      <trkpt lat="44.91742" lon="6.61872">
        <ele>1313.5</ele>
        <time>2022-08-28T14:43:41+0200</time>
      </trkpt>
      <trkpt lat="44.91747" lon="6.61865">
        <ele>1313.9</ele>
        <time>2022-08-28T14:43:43+0200</time>
      </trkpt>
      <trkpt lat="44.91754" lon="6.61863">
        <ele>1314.5</ele>
        <time>2022-08-28T14:43:45+0200</time>
      </trkpt>
      <trkpt lat="44.91758" lon="6.61858">
        <ele>1314.8</ele>
        <time>2022-08-28T14:43:46+0200</time>
      </trkpt>
      <trkpt lat="44.91762" lon="6.61854">
        <ele>1315</ele>
        <time>2022-08-28T14:43:47+0200</time>
      </trkpt>
      <trkpt lat="44.91765" lon="6.61849">
        <ele>1315.2</ele>
        <time>2022-08-28T14:43:48+0200</time>
      </trkpt>
      <trkpt lat="44.91771" lon="6.61839">
        <ele>1315.4</ele>
        <time>2022-08-28T14:43:50+0200</time>
      </trkpt>
      <trkpt lat="44.91779" lon="6.61834">
        <ele>1316.1</ele>
        <time>2022-08-28T14:43:52+0200</time>
      </trkpt>
      <trkpt lat="44.91783" lon="6.6183">
        <ele>1316.2</ele>
        <time>2022-08-28T14:43:53+0200</time>
      </trkpt>
      <trkpt lat="44.91787" lon="6.61824">
        <ele>1316.1</ele>
        <time>2022-08-28T14:43:55+0200</time>
      </trkpt>
      <trkpt lat="44.91794" lon="6.61815">
        <ele>1316.3</ele>
        <time>2022-08-28T14:43:57+0200</time>
      </trkpt>
      <trkpt lat="44.91798" lon="6.61811">
        <ele>1316.4</ele>
        <time>2022-08-28T14:43:58+0200</time>
      </trkpt>
      <trkpt lat="44.91802" lon="6.61805">
        <ele>1316.6</ele>
        <time>2022-08-28T14:43:59+0200</time>
      </trkpt>
      <trkpt lat="44.91805" lon="6.618">
        <ele>1316.5</ele>
        <time>2022-08-28T14:44:00+0200</time>
      </trkpt>
      <trkpt lat="44.91809" lon="6.61795">
        <ele>1316.6</ele>
        <time>2022-08-28T14:44:01+0200</time>
      </trkpt>
      <trkpt lat="44.91814" lon="6.6179">
        <ele>1316.8</ele>
        <time>2022-08-28T14:44:02+0200</time>
      </trkpt>
      <trkpt lat="44.91819" lon="6.61785">
        <ele>1317</ele>
        <time>2022-08-28T14:44:03+0200</time>
      </trkpt>
      <trkpt lat="44.91823" lon="6.61781">
        <ele>1317.1</ele>
        <time>2022-08-28T14:44:04+0200</time>
      </trkpt>
      <trkpt lat="44.91827" lon="6.61775">
        <ele>1317.1</ele>
        <time>2022-08-28T14:44:05+0200</time>
      </trkpt>
      <trkpt lat="44.91832" lon="6.61772">
        <ele>1317.2</ele>
        <time>2022-08-28T14:44:06+0200</time>
      </trkpt>
      <trkpt lat="44.9184" lon="6.61765">
        <ele>1317.1</ele>
        <time>2022-08-28T14:44:08+0200</time>
      </trkpt>
      <trkpt lat="44.91844" lon="6.61764">
        <ele>1317.3</ele>
        <time>2022-08-28T14:44:09+0200</time>
      </trkpt>
      <trkpt lat="44.91851" lon="6.61758">
        <ele>1317.1</ele>
        <time>2022-08-28T14:44:11+0200</time>
      </trkpt>
      <trkpt lat="44.91854" lon="6.61752">
        <ele>1316.7</ele>
        <time>2022-08-28T14:44:12+0200</time>
      </trkpt>
      <trkpt lat="44.91861" lon="6.61747">
        <ele>1316.7</ele>
        <time>2022-08-28T14:44:13+0200</time>
      </trkpt>
      <trkpt lat="44.91868" lon="6.61744">
        <ele>1316.6</ele>
        <time>2022-08-28T14:44:14+0200</time>
      </trkpt>
      <trkpt lat="44.91874" lon="6.61739">
        <ele>1316.3</ele>
        <time>2022-08-28T14:44:15+0200</time>
      </trkpt>
      <trkpt lat="44.91881" lon="6.61734">
        <ele>1316</ele>
        <time>2022-08-28T14:44:16+0200</time>
      </trkpt>
      <trkpt lat="44.91887" lon="6.61729">
        <ele>1315.7</ele>
        <time>2022-08-28T14:44:17+0200</time>
      </trkpt>
      <trkpt lat="44.91893" lon="6.61723">
        <ele>1315.3</ele>
        <time>2022-08-28T14:44:18+0200</time>
      </trkpt>
      <trkpt lat="44.91899" lon="6.61716">
        <ele>1314.9</ele>
        <time>2022-08-28T14:44:19+0200</time>
      </trkpt>
      <trkpt lat="44.91905" lon="6.61709">
        <ele>1314.6</ele>
        <time>2022-08-28T14:44:20+0200</time>
      </trkpt>
      <trkpt lat="44.91911" lon="6.61702">
        <ele>1314.3</ele>
        <time>2022-08-28T14:44:21+0200</time>
      </trkpt>
      <trkpt lat="44.91918" lon="6.61694">
        <ele>1314</ele>
        <time>2022-08-28T14:44:22+0200</time>
      </trkpt>
      <trkpt lat="44.91924" lon="6.61688">
        <ele>1313.8</ele>
        <time>2022-08-28T14:44:23+0200</time>
      </trkpt>
      <trkpt lat="44.9193" lon="6.61679">
        <ele>1313.7</ele>
        <time>2022-08-28T14:44:24+0200</time>
      </trkpt>
      <trkpt lat="44.91936" lon="6.61671">
        <ele>1313.6</ele>
        <time>2022-08-28T14:44:25+0200</time>
      </trkpt>
      <trkpt lat="44.91943" lon="6.61662">
        <ele>1313.4</ele>
        <time>2022-08-28T14:44:26+0200</time>
      </trkpt>
      <trkpt lat="44.91951" lon="6.61652">
        <ele>1312.3</ele>
        <time>2022-08-28T14:44:27+0200</time>
      </trkpt>
      <trkpt lat="44.91957" lon="6.61642">
        <ele>1311.3</ele>
        <time>2022-08-28T14:44:28+0200</time>
      </trkpt>
      <trkpt lat="44.91966" lon="6.61631">
        <ele>1310.5</ele>
        <time>2022-08-28T14:44:29+0200</time>
      </trkpt>
      <trkpt lat="44.91974" lon="6.61621">
        <ele>1309.7</ele>
        <time>2022-08-28T14:44:30+0200</time>
      </trkpt>
      <trkpt lat="44.91982" lon="6.61609">
        <ele>1308.9</ele>
        <time>2022-08-28T14:44:31+0200</time>
      </trkpt>
      <trkpt lat="44.91991" lon="6.61599">
        <ele>1308.4</ele>
        <time>2022-08-28T14:44:32+0200</time>
      </trkpt>
      <trkpt lat="44.92" lon="6.6159">
        <ele>1308.2</ele>
        <time>2022-08-28T14:44:33+0200</time>
      </trkpt>
      <trkpt lat="44.9201" lon="6.61582">
        <ele>1307.9</ele>
        <time>2022-08-28T14:44:34+0200</time>
      </trkpt>
      <trkpt lat="44.92019" lon="6.61574">
        <ele>1307.6</ele>
        <time>2022-08-28T14:44:35+0200</time>
      </trkpt>
      <trkpt lat="44.92027" lon="6.61564">
        <ele>1307.3</ele>
        <time>2022-08-28T14:44:36+0200</time>
      </trkpt>
      <trkpt lat="44.92034" lon="6.61555">
        <ele>1307.5</ele>
        <time>2022-08-28T14:44:37+0200</time>
      </trkpt>
      <trkpt lat="44.92042" lon="6.61546">
        <ele>1308</ele>
        <time>2022-08-28T14:44:38+0200</time>
      </trkpt>
      <trkpt lat="44.9205" lon="6.61538">
        <ele>1308.6</ele>
        <time>2022-08-28T14:44:39+0200</time>
      </trkpt>
      <trkpt lat="44.92056" lon="6.6153">
        <ele>1309</ele>
        <time>2022-08-28T14:44:40+0200</time>
      </trkpt>
      <trkpt lat="44.92063" lon="6.61522">
        <ele>1309.5</ele>
        <time>2022-08-28T14:44:41+0200</time>
      </trkpt>
      <trkpt lat="44.92068" lon="6.61515">
        <ele>1309.9</ele>
        <time>2022-08-28T14:44:42+0200</time>
      </trkpt>
      <trkpt lat="44.92074" lon="6.61508">
        <ele>1310.3</ele>
        <time>2022-08-28T14:44:43+0200</time>
      </trkpt>
      <trkpt lat="44.92079" lon="6.61501">
        <ele>1310.7</ele>
        <time>2022-08-28T14:44:44+0200</time>
      </trkpt>
      <trkpt lat="44.92084" lon="6.61495">
        <ele>1310.9</ele>
        <time>2022-08-28T14:44:45+0200</time>
      </trkpt>
      <trkpt lat="44.92088" lon="6.61489">
        <ele>1311</ele>
        <time>2022-08-28T14:44:46+0200</time>
      </trkpt>
      <trkpt lat="44.92092" lon="6.61484">
        <ele>1311.2</ele>
        <time>2022-08-28T14:44:47+0200</time>
      </trkpt>
      <trkpt lat="44.92096" lon="6.61478">
        <ele>1311.5</ele>
        <time>2022-08-28T14:44:48+0200</time>
      </trkpt>
      <trkpt lat="44.921" lon="6.61474">
        <ele>1311.9</ele>
        <time>2022-08-28T14:44:49+0200</time>
      </trkpt>
      <trkpt lat="44.92103" lon="6.61469">
        <ele>1312.3</ele>
        <time>2022-08-28T14:44:50+0200</time>
      </trkpt>
      <trkpt lat="44.9211" lon="6.61461">
        <ele>1313.3</ele>
        <time>2022-08-28T14:44:52+0200</time>
      </trkpt>
      <trkpt lat="44.92117" lon="6.61454">
        <ele>1314.4</ele>
        <time>2022-08-28T14:44:54+0200</time>
      </trkpt>
      <trkpt lat="44.92121" lon="6.61448">
        <ele>1315</ele>
        <time>2022-08-28T14:44:56+0200</time>
      </trkpt>
      <trkpt lat="44.92125" lon="6.61441">
        <ele>1315.5</ele>
        <time>2022-08-28T14:44:58+0200</time>
      </trkpt>
      <trkpt lat="44.92131" lon="6.61436">
        <ele>1316.1</ele>
        <time>2022-08-28T14:45:00+0200</time>
      </trkpt>
      <trkpt lat="44.92136" lon="6.6143">
        <ele>1316.7</ele>
        <time>2022-08-28T14:45:02+0200</time>
      </trkpt>
      <trkpt lat="44.9214" lon="6.61424">
        <ele>1317.2</ele>
        <time>2022-08-28T14:45:04+0200</time>
      </trkpt>
      <trkpt lat="44.92146" lon="6.61418">
        <ele>1318.1</ele>
        <time>2022-08-28T14:45:06+0200</time>
      </trkpt>
      <trkpt lat="44.9215" lon="6.61412">
        <ele>1318.6</ele>
        <time>2022-08-28T14:45:08+0200</time>
      </trkpt>
      <trkpt lat="44.92155" lon="6.61403">
        <ele>1319.3</ele>
        <time>2022-08-28T14:45:10+0200</time>
      </trkpt>
      <trkpt lat="44.9216" lon="6.61397">
        <ele>1320</ele>
        <time>2022-08-28T14:45:12+0200</time>
      </trkpt>
      <trkpt lat="44.92165" lon="6.6139">
        <ele>1320.8</ele>
        <time>2022-08-28T14:45:14+0200</time>
      </trkpt>
      <trkpt lat="44.92171" lon="6.61383">
        <ele>1321.6</ele>
        <time>2022-08-28T14:45:16+0200</time>
      </trkpt>
      <trkpt lat="44.92176" lon="6.61377">
        <ele>1322.3</ele>
        <time>2022-08-28T14:45:18+0200</time>
      </trkpt>
      <trkpt lat="44.92181" lon="6.6137">
        <ele>1323</ele>
        <time>2022-08-28T14:45:20+0200</time>
      </trkpt>
      <trkpt lat="44.92186" lon="6.61365">
        <ele>1323.8</ele>
        <time>2022-08-28T14:45:22+0200</time>
      </trkpt>
      <trkpt lat="44.9219" lon="6.61359">
        <ele>1324.4</ele>
        <time>2022-08-28T14:45:24+0200</time>
      </trkpt>
      <trkpt lat="44.92195" lon="6.61354">
        <ele>1325.1</ele>
        <time>2022-08-28T14:45:26+0200</time>
      </trkpt>
      <trkpt lat="44.92199" lon="6.61346">
        <ele>1325.5</ele>
        <time>2022-08-28T14:45:28+0200</time>
      </trkpt>
      <trkpt lat="44.92203" lon="6.61338">
        <ele>1326.2</ele>
        <time>2022-08-28T14:45:30+0200</time>
      </trkpt>
      <trkpt lat="44.92205" lon="6.61329">
        <ele>1326.7</ele>
        <time>2022-08-28T14:45:32+0200</time>
      </trkpt>
      <trkpt lat="44.92207" lon="6.61319">
        <ele>1327.3</ele>
        <time>2022-08-28T14:45:34+0200</time>
      </trkpt>
      <trkpt lat="44.92208" lon="6.6131">
        <ele>1327.8</ele>
        <time>2022-08-28T14:45:36+0200</time>
      </trkpt>
      <trkpt lat="44.9221" lon="6.613">
        <ele>1328.3</ele>
        <time>2022-08-28T14:45:38+0200</time>
      </trkpt>
      <trkpt lat="44.9221" lon="6.61287">
        <ele>1328.6</ele>
        <time>2022-08-28T14:45:40+0200</time>
      </trkpt>
      <trkpt lat="44.9221" lon="6.61281">
        <ele>1328.7</ele>
        <time>2022-08-28T14:45:41+0200</time>
      </trkpt>
      <trkpt lat="44.9221" lon="6.61274">
        <ele>1328.7</ele>
        <time>2022-08-28T14:45:42+0200</time>
      </trkpt>
      <trkpt lat="44.9221" lon="6.61266">
        <ele>1328.8</ele>
        <time>2022-08-28T14:45:43+0200</time>
      </trkpt>
      <trkpt lat="44.9221" lon="6.6126">
        <ele>1328.8</ele>
        <time>2022-08-28T14:45:44+0200</time>
      </trkpt>
      <trkpt lat="44.9221" lon="6.61253">
        <ele>1328.9</ele>
        <time>2022-08-28T14:45:45+0200</time>
      </trkpt>
      <trkpt lat="44.92211" lon="6.61246">
        <ele>1329</ele>
        <time>2022-08-28T14:45:46+0200</time>
      </trkpt>
      <trkpt lat="44.92211" lon="6.61238">
        <ele>1328.7</ele>
        <time>2022-08-28T14:45:47+0200</time>
      </trkpt>
      <trkpt lat="44.92212" lon="6.61229">
        <ele>1328.6</ele>
        <time>2022-08-28T14:45:48+0200</time>
      </trkpt>
      <trkpt lat="44.92212" lon="6.61221">
        <ele>1328.4</ele>
        <time>2022-08-28T14:45:49+0200</time>
      </trkpt>
      <trkpt lat="44.92213" lon="6.61212">
        <ele>1328.2</ele>
        <time>2022-08-28T14:45:50+0200</time>
      </trkpt>
      <trkpt lat="44.92215" lon="6.61204">
        <ele>1328.1</ele>
        <time>2022-08-28T14:45:51+0200</time>
      </trkpt>
      <trkpt lat="44.92219" lon="6.61199">
        <ele>1328.7</ele>
        <time>2022-08-28T14:45:52+0200</time>
      </trkpt>
      <trkpt lat="44.92223" lon="6.61194">
        <ele>1329.1</ele>
        <time>2022-08-28T14:45:53+0200</time>
      </trkpt>
      <trkpt lat="44.92229" lon="6.61187">
        <ele>1329.4</ele>
        <time>2022-08-28T14:45:55+0200</time>
      </trkpt>
      <trkpt lat="44.92233" lon="6.61178">
        <ele>1329.6</ele>
        <time>2022-08-28T14:45:57+0200</time>
      </trkpt>
      <trkpt lat="44.92236" lon="6.61172">
        <ele>1329.8</ele>
        <time>2022-08-28T14:45:58+0200</time>
      </trkpt>
      <trkpt lat="44.92241" lon="6.61162">
        <ele>1330.2</ele>
        <time>2022-08-28T14:46:00+0200</time>
      </trkpt>
      <trkpt lat="44.92244" lon="6.61154">
        <ele>1330.6</ele>
        <time>2022-08-28T14:46:02+0200</time>
      </trkpt>
      <trkpt lat="44.92249" lon="6.61147">
        <ele>1331.1</ele>
        <time>2022-08-28T14:46:04+0200</time>
      </trkpt>
      <trkpt lat="44.92252" lon="6.61139">
        <ele>1331.2</ele>
        <time>2022-08-28T14:46:06+0200</time>
      </trkpt>
      <trkpt lat="44.92256" lon="6.61132">
        <ele>1331.4</ele>
        <time>2022-08-28T14:46:08+0200</time>
      </trkpt>
      <trkpt lat="44.9226" lon="6.61122">
        <ele>1331.5</ele>
        <time>2022-08-28T14:46:10+0200</time>
      </trkpt>
      <trkpt lat="44.92264" lon="6.61112">
        <ele>1331.5</ele>
        <time>2022-08-28T14:46:12+0200</time>
      </trkpt>
      <trkpt lat="44.92267" lon="6.61101">
        <ele>1331.6</ele>
        <time>2022-08-28T14:46:14+0200</time>
      </trkpt>
      <trkpt lat="44.92269" lon="6.61095">
        <ele>1331.9</ele>
        <time>2022-08-28T14:46:15+0200</time>
      </trkpt>
      <trkpt lat="44.9227" lon="6.61089">
        <ele>1332</ele>
        <time>2022-08-28T14:46:16+0200</time>
      </trkpt>
      <trkpt lat="44.92274" lon="6.61077">
        <ele>1332</ele>
        <time>2022-08-28T14:46:18+0200</time>
      </trkpt>
      <trkpt lat="44.92275" lon="6.6107">
        <ele>1331.6</ele>
        <time>2022-08-28T14:46:19+0200</time>
      </trkpt>
      <trkpt lat="44.92277" lon="6.61063">
        <ele>1331.4</ele>
        <time>2022-08-28T14:46:20+0200</time>
      </trkpt>
      <trkpt lat="44.92277" lon="6.61056">
        <ele>1331</ele>
        <time>2022-08-28T14:46:21+0200</time>
      </trkpt>
      <trkpt lat="44.92279" lon="6.61049">
        <ele>1330.9</ele>
        <time>2022-08-28T14:46:22+0200</time>
      </trkpt>
      <trkpt lat="44.92281" lon="6.61041">
        <ele>1330.9</ele>
        <time>2022-08-28T14:46:23+0200</time>
      </trkpt>
      <trkpt lat="44.92284" lon="6.61034">
        <ele>1331.1</ele>
        <time>2022-08-28T14:46:24+0200</time>
      </trkpt>
      <trkpt lat="44.92288" lon="6.61028">
        <ele>1331.5</ele>
        <time>2022-08-28T14:46:25+0200</time>
      </trkpt>
      <trkpt lat="44.9229" lon="6.61021">
        <ele>1331.6</ele>
        <time>2022-08-28T14:46:26+0200</time>
      </trkpt>
      <trkpt lat="44.92291" lon="6.61013">
        <ele>1331.4</ele>
        <time>2022-08-28T14:46:27+0200</time>
      </trkpt>
      <trkpt lat="44.92294" lon="6.61006">
        <ele>1331.6</ele>
        <time>2022-08-28T14:46:28+0200</time>
      </trkpt>
      <trkpt lat="44.92296" lon="6.60998">
        <ele>1331.5</ele>
        <time>2022-08-28T14:46:29+0200</time>
      </trkpt>
      <trkpt lat="44.923" lon="6.60988">
        <ele>1331.8</ele>
        <time>2022-08-28T14:46:31+0200</time>
      </trkpt>
      <trkpt lat="44.92304" lon="6.60978">
        <ele>1332</ele>
        <time>2022-08-28T14:46:34+0200</time>
      </trkpt>
      <trkpt lat="44.92305" lon="6.60972">
        <ele>1331.9</ele>
        <time>2022-08-28T14:46:35+0200</time>
      </trkpt>
      <trkpt lat="44.92308" lon="6.60966">
        <ele>1331.8</ele>
        <time>2022-08-28T14:46:36+0200</time>
      </trkpt>
      <trkpt lat="44.92311" lon="6.60959">
        <ele>1331.6</ele>
        <time>2022-08-28T14:46:37+0200</time>
      </trkpt>
      <trkpt lat="44.92313" lon="6.60952">
        <ele>1331.6</ele>
        <time>2022-08-28T14:46:38+0200</time>
      </trkpt>
      <trkpt lat="44.92316" lon="6.60946">
        <ele>1331.6</ele>
        <time>2022-08-28T14:46:39+0200</time>
      </trkpt>
      <trkpt lat="44.9232" lon="6.6094">
        <ele>1331.9</ele>
        <time>2022-08-28T14:46:40+0200</time>
      </trkpt>
      <trkpt lat="44.92323" lon="6.60935">
        <ele>1332.2</ele>
        <time>2022-08-28T14:46:41+0200</time>
      </trkpt>
      <trkpt lat="44.92326" lon="6.60929">
        <ele>1332.4</ele>
        <time>2022-08-28T14:46:42+0200</time>
      </trkpt>
      <trkpt lat="44.92329" lon="6.60923">
        <ele>1332.6</ele>
        <time>2022-08-28T14:46:43+0200</time>
      </trkpt>
      <trkpt lat="44.92332" lon="6.60917">
        <ele>1332.8</ele>
        <time>2022-08-28T14:46:44+0200</time>
      </trkpt>
      <trkpt lat="44.92335" lon="6.60907">
        <ele>1332.9</ele>
        <time>2022-08-28T14:46:46+0200</time>
      </trkpt>
      <trkpt lat="44.92338" lon="6.60901">
        <ele>1333.1</ele>
        <time>2022-08-28T14:46:47+0200</time>
      </trkpt>
      <trkpt lat="44.92342" lon="6.60895">
        <ele>1333.2</ele>
        <time>2022-08-28T14:46:48+0200</time>
      </trkpt>
      <trkpt lat="44.92344" lon="6.60888">
        <ele>1333.1</ele>
        <time>2022-08-28T14:46:49+0200</time>
      </trkpt>
      <trkpt lat="44.92346" lon="6.60882">
        <ele>1333.1</ele>
        <time>2022-08-28T14:46:50+0200</time>
      </trkpt>
      <trkpt lat="44.92347" lon="6.60874">
        <ele>1332.9</ele>
        <time>2022-08-28T14:46:51+0200</time>
      </trkpt>
      <trkpt lat="44.92351" lon="6.60868">
        <ele>1333.2</ele>
        <time>2022-08-28T14:46:52+0200</time>
      </trkpt>
      <trkpt lat="44.92353" lon="6.60862">
        <ele>1333.2</ele>
        <time>2022-08-28T14:46:53+0200</time>
      </trkpt>
      <trkpt lat="44.92356" lon="6.60854">
        <ele>1333.1</ele>
        <time>2022-08-28T14:46:54+0200</time>
      </trkpt>
      <trkpt lat="44.92358" lon="6.60848">
        <ele>1333.2</ele>
        <time>2022-08-28T14:46:55+0200</time>
      </trkpt>
      <trkpt lat="44.92361" lon="6.60842">
        <ele>1333.3</ele>
        <time>2022-08-28T14:46:56+0200</time>
      </trkpt>
      <trkpt lat="44.92364" lon="6.60835">
        <ele>1333.4</ele>
        <time>2022-08-28T14:46:57+0200</time>
      </trkpt>
      <trkpt lat="44.92367" lon="6.60829">
        <ele>1333.5</ele>
        <time>2022-08-28T14:46:58+0200</time>
      </trkpt>
      <trkpt lat="44.9237" lon="6.60824">
        <ele>1333.5</ele>
        <time>2022-08-28T14:46:59+0200</time>
      </trkpt>
      <trkpt lat="44.92375" lon="6.60813">
        <ele>1333.4</ele>
        <time>2022-08-28T14:47:01+0200</time>
      </trkpt>
      <trkpt lat="44.92377" lon="6.60805">
        <ele>1333.2</ele>
        <time>2022-08-28T14:47:02+0200</time>
      </trkpt>
      <trkpt lat="44.9238" lon="6.60798">
        <ele>1333</ele>
        <time>2022-08-28T14:47:03+0200</time>
      </trkpt>
      <trkpt lat="44.92382" lon="6.60791">
        <ele>1332.9</ele>
        <time>2022-08-28T14:47:04+0200</time>
      </trkpt>
      <trkpt lat="44.92386" lon="6.60784">
        <ele>1333</ele>
        <time>2022-08-28T14:47:05+0200</time>
      </trkpt>
      <trkpt lat="44.9239" lon="6.60778">
        <ele>1333.2</ele>
        <time>2022-08-28T14:47:06+0200</time>
      </trkpt>
      <trkpt lat="44.92393" lon="6.60771">
        <ele>1333.2</ele>
        <time>2022-08-28T14:47:07+0200</time>
      </trkpt>
      <trkpt lat="44.92394" lon="6.60764">
        <ele>1333.2</ele>
        <time>2022-08-28T14:47:08+0200</time>
      </trkpt>
      <trkpt lat="44.92397" lon="6.60758">
        <ele>1333.2</ele>
        <time>2022-08-28T14:47:09+0200</time>
      </trkpt>
      <trkpt lat="44.92399" lon="6.60752">
        <ele>1333.2</ele>
        <time>2022-08-28T14:47:10+0200</time>
      </trkpt>
      <trkpt lat="44.92401" lon="6.60745">
        <ele>1333</ele>
        <time>2022-08-28T14:47:11+0200</time>
      </trkpt>
      <trkpt lat="44.92404" lon="6.60739">
        <ele>1332.9</ele>
        <time>2022-08-28T14:47:12+0200</time>
      </trkpt>
      <trkpt lat="44.92408" lon="6.60732">
        <ele>1332.8</ele>
        <time>2022-08-28T14:47:13+0200</time>
      </trkpt>
      <trkpt lat="44.92411" lon="6.60725">
        <ele>1332.6</ele>
        <time>2022-08-28T14:47:14+0200</time>
      </trkpt>
      <trkpt lat="44.92414" lon="6.60716">
        <ele>1332.2</ele>
        <time>2022-08-28T14:47:15+0200</time>
      </trkpt>
      <trkpt lat="44.92416" lon="6.60707">
        <ele>1331.9</ele>
        <time>2022-08-28T14:47:16+0200</time>
      </trkpt>
      <trkpt lat="44.9242" lon="6.60697">
        <ele>1331.4</ele>
        <time>2022-08-28T14:47:17+0200</time>
      </trkpt>
      <trkpt lat="44.92422" lon="6.60688">
        <ele>1330.8</ele>
        <time>2022-08-28T14:47:18+0200</time>
      </trkpt>
      <trkpt lat="44.92425" lon="6.60678">
        <ele>1330.2</ele>
        <time>2022-08-28T14:47:19+0200</time>
      </trkpt>
      <trkpt lat="44.92429" lon="6.60668">
        <ele>1329.9</ele>
        <time>2022-08-28T14:47:20+0200</time>
      </trkpt>
      <trkpt lat="44.92432" lon="6.60657">
        <ele>1329.4</ele>
        <time>2022-08-28T14:47:21+0200</time>
      </trkpt>
      <trkpt lat="44.92437" lon="6.60646">
        <ele>1329.2</ele>
        <time>2022-08-28T14:47:22+0200</time>
      </trkpt>
      <trkpt lat="44.92441" lon="6.60636">
        <ele>1329.1</ele>
        <time>2022-08-28T14:47:23+0200</time>
      </trkpt>
      <trkpt lat="44.92444" lon="6.60626">
        <ele>1328.6</ele>
        <time>2022-08-28T14:47:24+0200</time>
      </trkpt>
      <trkpt lat="44.92449" lon="6.60618">
        <ele>1328.2</ele>
        <time>2022-08-28T14:47:25+0200</time>
      </trkpt>
      <trkpt lat="44.92453" lon="6.6061">
        <ele>1328.2</ele>
        <time>2022-08-28T14:47:26+0200</time>
      </trkpt>
      <trkpt lat="44.92456" lon="6.60604">
        <ele>1328.4</ele>
        <time>2022-08-28T14:47:27+0200</time>
      </trkpt>
      <trkpt lat="44.92459" lon="6.60598">
        <ele>1328.6</ele>
        <time>2022-08-28T14:47:28+0200</time>
      </trkpt>
      <trkpt lat="44.92463" lon="6.60595">
        <ele>1329.2</ele>
        <time>2022-08-28T14:47:31+0200</time>
      </trkpt>
      <trkpt lat="44.92467" lon="6.60591">
        <ele>1330</ele>
        <time>2022-08-28T14:47:39+0200</time>
      </trkpt>
      <trkpt lat="44.92472" lon="6.60588">
        <ele>1330.9</ele>
        <time>2022-08-28T14:47:46+0200</time>
      </trkpt>
      <trkpt lat="44.92471" lon="6.60581">
        <ele>1330.5</ele>
        <time>2022-08-28T14:47:49+0200</time>
      </trkpt>
      <trkpt lat="44.92477" lon="6.60575">
        <ele>1329.8</ele>
        <time>2022-08-28T14:47:52+0200</time>
      </trkpt>
      <trkpt lat="44.92479" lon="6.60566">
        <ele>1328.9</ele>
        <time>2022-08-28T14:47:53+0200</time>
      </trkpt>
      <trkpt lat="44.92481" lon="6.60558">
        <ele>1328.2</ele>
        <time>2022-08-28T14:47:54+0200</time>
      </trkpt>
      <trkpt lat="44.92484" lon="6.60549">
        <ele>1328.3</ele>
        <time>2022-08-28T14:47:55+0200</time>
      </trkpt>
      <trkpt lat="44.92489" lon="6.60539">
        <ele>1329</ele>
        <time>2022-08-28T14:47:56+0200</time>
      </trkpt>
      <trkpt lat="44.92493" lon="6.6053">
        <ele>1330.2</ele>
        <time>2022-08-28T14:47:57+0200</time>
      </trkpt>
      <trkpt lat="44.92496" lon="6.60521">
        <ele>1330.1</ele>
        <time>2022-08-28T14:47:58+0200</time>
      </trkpt>
      <trkpt lat="44.92499" lon="6.60513">
        <ele>1329.6</ele>
        <time>2022-08-28T14:47:59+0200</time>
      </trkpt>
      <trkpt lat="44.92502" lon="6.60506">
        <ele>1328.9</ele>
        <time>2022-08-28T14:48:00+0200</time>
      </trkpt>
      <trkpt lat="44.92504" lon="6.60499">
        <ele>1328.3</ele>
        <time>2022-08-28T14:48:02+0200</time>
      </trkpt>
      <trkpt lat="44.92506" lon="6.60491">
        <ele>1328.4</ele>
        <time>2022-08-28T14:48:04+0200</time>
      </trkpt>
      <trkpt lat="44.9251" lon="6.60484">
        <ele>1329</ele>
        <time>2022-08-28T14:48:06+0200</time>
      </trkpt>
      <trkpt lat="44.92513" lon="6.60474">
        <ele>1329.8</ele>
        <time>2022-08-28T14:48:08+0200</time>
      </trkpt>
      <trkpt lat="44.92516" lon="6.60467">
        <ele>1330.2</ele>
        <time>2022-08-28T14:48:09+0200</time>
      </trkpt>
      <trkpt lat="44.92519" lon="6.60461">
        <ele>1330.5</ele>
        <time>2022-08-28T14:48:10+0200</time>
      </trkpt>
      <trkpt lat="44.92522" lon="6.60454">
        <ele>1330.7</ele>
        <time>2022-08-28T14:48:11+0200</time>
      </trkpt>
      <trkpt lat="44.92524" lon="6.60448">
        <ele>1330.7</ele>
        <time>2022-08-28T14:48:12+0200</time>
      </trkpt>
      <trkpt lat="44.92526" lon="6.6044">
        <ele>1330.5</ele>
        <time>2022-08-28T14:48:13+0200</time>
      </trkpt>
      <trkpt lat="44.92529" lon="6.60433">
        <ele>1330.2</ele>
        <time>2022-08-28T14:48:14+0200</time>
      </trkpt>
      <trkpt lat="44.92531" lon="6.60427">
        <ele>1330.1</ele>
        <time>2022-08-28T14:48:15+0200</time>
      </trkpt>
      <trkpt lat="44.92534" lon="6.60421">
        <ele>1330.2</ele>
        <time>2022-08-28T14:48:16+0200</time>
      </trkpt>
      <trkpt lat="44.92537" lon="6.60415">
        <ele>1330.6</ele>
        <time>2022-08-28T14:48:17+0200</time>
      </trkpt>
      <trkpt lat="44.92541" lon="6.6041">
        <ele>1331.2</ele>
        <time>2022-08-28T14:48:18+0200</time>
      </trkpt>
      <trkpt lat="44.92545" lon="6.60405">
        <ele>1332</ele>
        <time>2022-08-28T14:48:19+0200</time>
      </trkpt>
      <trkpt lat="44.92551" lon="6.60394">
        <ele>1333</ele>
        <time>2022-08-28T14:48:21+0200</time>
      </trkpt>
      <trkpt lat="44.92554" lon="6.60388">
        <ele>1333.6</ele>
        <time>2022-08-28T14:48:22+0200</time>
      </trkpt>
      <trkpt lat="44.92557" lon="6.60379">
        <ele>1332.7</ele>
        <time>2022-08-28T14:48:24+0200</time>
      </trkpt>
      <trkpt lat="44.92556" lon="6.60371">
        <ele>1331.4</ele>
        <time>2022-08-28T14:48:26+0200</time>
      </trkpt>
      <trkpt lat="44.92555" lon="6.6036">
        <ele>1329.9</ele>
        <time>2022-08-28T14:48:28+0200</time>
      </trkpt>
      <trkpt lat="44.92551" lon="6.60348">
        <ele>1329.4</ele>
        <time>2022-08-28T14:48:30+0200</time>
      </trkpt>
      <trkpt lat="44.92544" lon="6.60341">
        <ele>1328.4</ele>
        <time>2022-08-28T14:48:32+0200</time>
      </trkpt>
      <trkpt lat="44.9254" lon="6.60337">
        <ele>1327.8</ele>
        <time>2022-08-28T14:48:33+0200</time>
      </trkpt>
      <trkpt lat="44.92537" lon="6.60329">
        <ele>1327.3</ele>
        <time>2022-08-28T14:48:34+0200</time>
      </trkpt>
      <trkpt lat="44.92535" lon="6.60318">
        <ele>1326.9</ele>
        <time>2022-08-28T14:48:35+0200</time>
      </trkpt>
      <trkpt lat="44.92531" lon="6.60311">
        <ele>1326.4</ele>
        <time>2022-08-28T14:48:36+0200</time>
      </trkpt>
      <trkpt lat="44.9253" lon="6.60302">
        <ele>1326.1</ele>
        <time>2022-08-28T14:48:37+0200</time>
      </trkpt>
      <trkpt lat="44.92527" lon="6.60292">
        <ele>1325.4</ele>
        <time>2022-08-28T14:48:38+0200</time>
      </trkpt>
      <trkpt lat="44.92524" lon="6.60283">
        <ele>1324.7</ele>
        <time>2022-08-28T14:48:39+0200</time>
      </trkpt>
      <trkpt lat="44.92522" lon="6.60272">
        <ele>1324.3</ele>
        <time>2022-08-28T14:48:40+0200</time>
      </trkpt>
      <trkpt lat="44.92521" lon="6.60261">
        <ele>1324.2</ele>
        <time>2022-08-28T14:48:41+0200</time>
      </trkpt>
      <trkpt lat="44.92522" lon="6.60252">
        <ele>1324.2</ele>
        <time>2022-08-28T14:48:42+0200</time>
      </trkpt>
      <trkpt lat="44.9252" lon="6.60244">
        <ele>1323.5</ele>
        <time>2022-08-28T14:48:43+0200</time>
      </trkpt>
      <trkpt lat="44.92519" lon="6.60234">
        <ele>1322.8</ele>
        <time>2022-08-28T14:48:44+0200</time>
      </trkpt>
      <trkpt lat="44.92519" lon="6.60224">
        <ele>1322.2</ele>
        <time>2022-08-28T14:48:45+0200</time>
      </trkpt>
      <trkpt lat="44.9252" lon="6.60214">
        <ele>1321.9</ele>
        <time>2022-08-28T14:48:46+0200</time>
      </trkpt>
      <trkpt lat="44.92519" lon="6.60203">
        <ele>1321.4</ele>
        <time>2022-08-28T14:48:47+0200</time>
      </trkpt>
      <trkpt lat="44.9252" lon="6.60192">
        <ele>1321</ele>
        <time>2022-08-28T14:48:48+0200</time>
      </trkpt>
      <trkpt lat="44.92518" lon="6.60178">
        <ele>1320.2</ele>
        <time>2022-08-28T14:48:49+0200</time>
      </trkpt>
      <trkpt lat="44.92515" lon="6.60166">
        <ele>1319.1</ele>
        <time>2022-08-28T14:48:50+0200</time>
      </trkpt>
      <trkpt lat="44.92511" lon="6.60153">
        <ele>1318.5</ele>
        <time>2022-08-28T14:48:51+0200</time>
      </trkpt>
      <trkpt lat="44.92509" lon="6.60141">
        <ele>1318.3</ele>
        <time>2022-08-28T14:48:52+0200</time>
      </trkpt>
      <trkpt lat="44.92503" lon="6.60132">
        <ele>1317.7</ele>
        <time>2022-08-28T14:48:53+0200</time>
      </trkpt>
      <trkpt lat="44.92497" lon="6.60122">
        <ele>1317.2</ele>
        <time>2022-08-28T14:48:54+0200</time>
      </trkpt>
      <trkpt lat="44.92488" lon="6.60116">
        <ele>1316.2</ele>
        <time>2022-08-28T14:48:55+0200</time>
      </trkpt>
      <trkpt lat="44.92479" lon="6.60111">
        <ele>1315</ele>
        <time>2022-08-28T14:48:56+0200</time>
      </trkpt>
      <trkpt lat="44.92471" lon="6.60106">
        <ele>1314</ele>
        <time>2022-08-28T14:48:57+0200</time>
      </trkpt>
      <trkpt lat="44.92465" lon="6.601">
        <ele>1314.2</ele>
        <time>2022-08-28T14:48:58+0200</time>
      </trkpt>
      <trkpt lat="44.92461" lon="6.60091">
        <ele>1314.6</ele>
        <time>2022-08-28T14:48:59+0200</time>
      </trkpt>
      <trkpt lat="44.92459" lon="6.60083">
        <ele>1315</ele>
        <time>2022-08-28T14:49:00+0200</time>
      </trkpt>
      <trkpt lat="44.92457" lon="6.60074">
        <ele>1315.4</ele>
        <time>2022-08-28T14:49:01+0200</time>
      </trkpt>
      <trkpt lat="44.92457" lon="6.60067">
        <ele>1315.8</ele>
        <time>2022-08-28T14:49:02+0200</time>
      </trkpt>
      <trkpt lat="44.9246" lon="6.6006">
        <ele>1315.7</ele>
        <time>2022-08-28T14:49:03+0200</time>
      </trkpt>
      <trkpt lat="44.92463" lon="6.60054">
        <ele>1315.5</ele>
        <time>2022-08-28T14:49:04+0200</time>
      </trkpt>
      <trkpt lat="44.92465" lon="6.60048">
        <ele>1315.6</ele>
        <time>2022-08-28T14:49:05+0200</time>
      </trkpt>
      <trkpt lat="44.92467" lon="6.60042">
        <ele>1315.7</ele>
        <time>2022-08-28T14:49:10+0200</time>
      </trkpt>
      <trkpt lat="44.92465" lon="6.60034">
        <ele>1316.5</ele>
        <time>2022-08-28T14:49:13+0200</time>
      </trkpt>
      <trkpt lat="44.92468" lon="6.60024">
        <ele>1316.8</ele>
        <time>2022-08-28T14:49:16+0200</time>
      </trkpt>
      <trkpt lat="44.92471" lon="6.60016">
        <ele>1316.6</ele>
        <time>2022-08-28T14:49:17+0200</time>
      </trkpt>
      <trkpt lat="44.92473" lon="6.60008">
        <ele>1316.7</ele>
        <time>2022-08-28T14:49:18+0200</time>
      </trkpt>
      <trkpt lat="44.92474" lon="6.59999">
        <ele>1317</ele>
        <time>2022-08-28T14:49:20+0200</time>
      </trkpt>
      <trkpt lat="44.92476" lon="6.59992">
        <ele>1317.3</ele>
        <time>2022-08-28T14:49:21+0200</time>
      </trkpt>
      <trkpt lat="44.92479" lon="6.59987">
        <ele>1317.5</ele>
        <time>2022-08-28T14:49:23+0200</time>
      </trkpt>
      <trkpt lat="44.92483" lon="6.59978">
        <ele>1317.8</ele>
        <time>2022-08-28T14:49:25+0200</time>
      </trkpt>
      <trkpt lat="44.92486" lon="6.5997">
        <ele>1318.1</ele>
        <time>2022-08-28T14:49:26+0200</time>
      </trkpt>
      <trkpt lat="44.9249" lon="6.59962">
        <ele>1318.4</ele>
        <time>2022-08-28T14:49:27+0200</time>
      </trkpt>
      <trkpt lat="44.92493" lon="6.59956">
        <ele>1318.4</ele>
        <time>2022-08-28T14:49:28+0200</time>
      </trkpt>
      <trkpt lat="44.92499" lon="6.59948">
        <ele>1318.1</ele>
        <time>2022-08-28T14:49:29+0200</time>
      </trkpt>
      <trkpt lat="44.92504" lon="6.59941">
        <ele>1318.6</ele>
        <time>2022-08-28T14:49:30+0200</time>
      </trkpt>
      <trkpt lat="44.92511" lon="6.5993">
        <ele>1319.6</ele>
        <time>2022-08-28T14:49:32+0200</time>
      </trkpt>
      <trkpt lat="44.92518" lon="6.59921">
        <ele>1320.5</ele>
        <time>2022-08-28T14:49:33+0200</time>
      </trkpt>
      <trkpt lat="44.92522" lon="6.59915">
        <ele>1321.1</ele>
        <time>2022-08-28T14:49:34+0200</time>
      </trkpt>
      <trkpt lat="44.92528" lon="6.59907">
        <ele>1321.3</ele>
        <time>2022-08-28T14:49:35+0200</time>
      </trkpt>
      <trkpt lat="44.92531" lon="6.59901">
        <ele>1321.4</ele>
        <time>2022-08-28T14:49:36+0200</time>
      </trkpt>
      <trkpt lat="44.92537" lon="6.59893">
        <ele>1321.6</ele>
        <time>2022-08-28T14:49:38+0200</time>
      </trkpt>
      <trkpt lat="44.92542" lon="6.59883">
        <ele>1321.5</ele>
        <time>2022-08-28T14:49:40+0200</time>
      </trkpt>
      <trkpt lat="44.92544" lon="6.59875">
        <ele>1321.1</ele>
        <time>2022-08-28T14:49:41+0200</time>
      </trkpt>
      <trkpt lat="44.92547" lon="6.59869">
        <ele>1320.9</ele>
        <time>2022-08-28T14:49:42+0200</time>
      </trkpt>
      <trkpt lat="44.92549" lon="6.59861">
        <ele>1320.2</ele>
        <time>2022-08-28T14:49:43+0200</time>
      </trkpt>
      <trkpt lat="44.92551" lon="6.59855">
        <ele>1320</ele>
        <time>2022-08-28T14:49:44+0200</time>
      </trkpt>
      <trkpt lat="44.92554" lon="6.59847">
        <ele>1319.4</ele>
        <time>2022-08-28T14:49:45+0200</time>
      </trkpt>
      <trkpt lat="44.92558" lon="6.59837">
        <ele>1318.5</ele>
        <time>2022-08-28T14:49:46+0200</time>
      </trkpt>
      <trkpt lat="44.92562" lon="6.59828">
        <ele>1318.4</ele>
        <time>2022-08-28T14:49:47+0200</time>
      </trkpt>
      <trkpt lat="44.92567" lon="6.5982">
        <ele>1318.4</ele>
        <time>2022-08-28T14:49:48+0200</time>
      </trkpt>
      <trkpt lat="44.9257" lon="6.59812">
        <ele>1318.3</ele>
        <time>2022-08-28T14:49:49+0200</time>
      </trkpt>
      <trkpt lat="44.92574" lon="6.59806">
        <ele>1318</ele>
        <time>2022-08-28T14:49:50+0200</time>
      </trkpt>
      <trkpt lat="44.92577" lon="6.598">
        <ele>1318.1</ele>
        <time>2022-08-28T14:49:51+0200</time>
      </trkpt>
      <trkpt lat="44.9258" lon="6.59794">
        <ele>1318.1</ele>
        <time>2022-08-28T14:49:52+0200</time>
      </trkpt>
      <trkpt lat="44.92585" lon="6.59791">
        <ele>1318.1</ele>
        <time>2022-08-28T14:49:53+0200</time>
      </trkpt>
      <trkpt lat="44.92589" lon="6.59786">
        <ele>1318.6</ele>
        <time>2022-08-28T14:49:54+0200</time>
      </trkpt>
      <trkpt lat="44.9259" lon="6.59779">
        <ele>1318.8</ele>
        <time>2022-08-28T14:49:55+0200</time>
      </trkpt>
      <trkpt lat="44.92592" lon="6.59767">
        <ele>1319.6</ele>
        <time>2022-08-28T14:49:56+0200</time>
      </trkpt>
      <trkpt lat="44.92594" lon="6.59758">
        <ele>1320.2</ele>
        <time>2022-08-28T14:49:57+0200</time>
      </trkpt>
      <trkpt lat="44.92599" lon="6.59747">
        <ele>1320.7</ele>
        <time>2022-08-28T14:49:59+0200</time>
      </trkpt>
      <trkpt lat="44.92601" lon="6.59741">
        <ele>1321.2</ele>
        <time>2022-08-28T14:50:00+0200</time>
      </trkpt>
      <trkpt lat="44.92605" lon="6.5973">
        <ele>1321.6</ele>
        <time>2022-08-28T14:50:02+0200</time>
      </trkpt>
      <trkpt lat="44.92607" lon="6.5972">
        <ele>1322</ele>
        <time>2022-08-28T14:50:04+0200</time>
      </trkpt>
      <trkpt lat="44.92609" lon="6.59711">
        <ele>1322.6</ele>
        <time>2022-08-28T14:50:06+0200</time>
      </trkpt>
      <trkpt lat="44.92613" lon="6.59701">
        <ele>1323.2</ele>
        <time>2022-08-28T14:50:08+0200</time>
      </trkpt>
      <trkpt lat="44.92616" lon="6.59696">
        <ele>1323.4</ele>
        <time>2022-08-28T14:50:10+0200</time>
      </trkpt>
      <trkpt lat="44.92621" lon="6.59688">
        <ele>1323.5</ele>
        <time>2022-08-28T14:50:12+0200</time>
      </trkpt>
      <trkpt lat="44.92627" lon="6.59679">
        <ele>1323.7</ele>
        <time>2022-08-28T14:50:14+0200</time>
      </trkpt>
      <trkpt lat="44.92632" lon="6.59671">
        <ele>1323.6</ele>
        <time>2022-08-28T14:50:16+0200</time>
      </trkpt>
      <trkpt lat="44.92637" lon="6.59661">
        <ele>1323.9</ele>
        <time>2022-08-28T14:50:18+0200</time>
      </trkpt>
      <trkpt lat="44.92642" lon="6.59652">
        <ele>1324.5</ele>
        <time>2022-08-28T14:50:20+0200</time>
      </trkpt>
      <trkpt lat="44.92643" lon="6.59647">
        <ele>1324.9</ele>
        <time>2022-08-28T14:50:21+0200</time>
      </trkpt>
      <trkpt lat="44.92646" lon="6.5964">
        <ele>1325.2</ele>
        <time>2022-08-28T14:50:23+0200</time>
      </trkpt>
      <trkpt lat="44.92651" lon="6.5963">
        <ele>1325.5</ele>
        <time>2022-08-28T14:50:25+0200</time>
      </trkpt>
      <trkpt lat="44.92654" lon="6.59621">
        <ele>1325.6</ele>
        <time>2022-08-28T14:50:27+0200</time>
      </trkpt>
      <trkpt lat="44.92656" lon="6.59613">
        <ele>1325.8</ele>
        <time>2022-08-28T14:50:29+0200</time>
      </trkpt>
      <trkpt lat="44.9266" lon="6.59605">
        <ele>1326</ele>
        <time>2022-08-28T14:50:31+0200</time>
      </trkpt>
      <trkpt lat="44.92664" lon="6.59596">
        <ele>1326.2</ele>
        <time>2022-08-28T14:50:33+0200</time>
      </trkpt>
      <trkpt lat="44.92668" lon="6.59588">
        <ele>1326.5</ele>
        <time>2022-08-28T14:50:35+0200</time>
      </trkpt>
      <trkpt lat="44.9267" lon="6.59582">
        <ele>1327</ele>
        <time>2022-08-28T14:50:36+0200</time>
      </trkpt>
      <trkpt lat="44.92673" lon="6.59574">
        <ele>1327.6</ele>
        <time>2022-08-28T14:50:37+0200</time>
      </trkpt>
      <trkpt lat="44.92679" lon="6.59565">
        <ele>1327.7</ele>
        <time>2022-08-28T14:50:39+0200</time>
      </trkpt>
      <trkpt lat="44.92683" lon="6.59559">
        <ele>1327.5</ele>
        <time>2022-08-28T14:50:40+0200</time>
      </trkpt>
      <trkpt lat="44.92687" lon="6.59552">
        <ele>1327.4</ele>
        <time>2022-08-28T14:50:41+0200</time>
      </trkpt>
      <trkpt lat="44.9269" lon="6.59548">
        <ele>1327.3</ele>
        <time>2022-08-28T14:50:42+0200</time>
      </trkpt>
      <trkpt lat="44.92694" lon="6.59541">
        <ele>1327.2</ele>
        <time>2022-08-28T14:50:44+0200</time>
      </trkpt>
      <trkpt lat="44.92697" lon="6.59536">
        <ele>1327.5</ele>
        <time>2022-08-28T14:50:45+0200</time>
      </trkpt>
      <trkpt lat="44.92701" lon="6.59529">
        <ele>1328</ele>
        <time>2022-08-28T14:50:47+0200</time>
      </trkpt>
      <trkpt lat="44.92706" lon="6.59524">
        <ele>1328.4</ele>
        <time>2022-08-28T14:50:49+0200</time>
      </trkpt>
      <trkpt lat="44.9271" lon="6.59519">
        <ele>1328.6</ele>
        <time>2022-08-28T14:50:51+0200</time>
      </trkpt>
      <trkpt lat="44.92713" lon="6.59513">
        <ele>1328.7</ele>
        <time>2022-08-28T14:50:53+0200</time>
      </trkpt>
      <trkpt lat="44.92715" lon="6.59505">
        <ele>1328.9</ele>
        <time>2022-08-28T14:50:55+0200</time>
      </trkpt>
      <trkpt lat="44.92717" lon="6.59498">
        <ele>1328.9</ele>
        <time>2022-08-28T14:50:57+0200</time>
      </trkpt>
      <trkpt lat="44.92721" lon="6.59489">
        <ele>1329.4</ele>
        <time>2022-08-28T14:50:59+0200</time>
      </trkpt>
      <trkpt lat="44.92724" lon="6.59481">
        <ele>1330</ele>
        <time>2022-08-28T14:51:00+0200</time>
      </trkpt>
      <trkpt lat="44.92727" lon="6.59476">
        <ele>1330.5</ele>
        <time>2022-08-28T14:51:01+0200</time>
      </trkpt>
      <trkpt lat="44.92732" lon="6.59466">
        <ele>1331.1</ele>
        <time>2022-08-28T14:51:03+0200</time>
      </trkpt>
      <trkpt lat="44.92736" lon="6.59457">
        <ele>1331.3</ele>
        <time>2022-08-28T14:51:05+0200</time>
      </trkpt>
      <trkpt lat="44.92741" lon="6.59449">
        <ele>1331.2</ele>
        <time>2022-08-28T14:51:07+0200</time>
      </trkpt>
      <trkpt lat="44.92747" lon="6.59441">
        <ele>1330.8</ele>
        <time>2022-08-28T14:51:09+0200</time>
      </trkpt>
      <trkpt lat="44.9275" lon="6.59431">
        <ele>1331.4</ele>
        <time>2022-08-28T14:51:11+0200</time>
      </trkpt>
      <trkpt lat="44.92754" lon="6.59426">
        <ele>1331.9</ele>
        <time>2022-08-28T14:51:13+0200</time>
      </trkpt>
      <trkpt lat="44.92758" lon="6.59418">
        <ele>1332.3</ele>
        <time>2022-08-28T14:51:15+0200</time>
      </trkpt>
      <trkpt lat="44.92764" lon="6.59413">
        <ele>1332.4</ele>
        <time>2022-08-28T14:51:17+0200</time>
      </trkpt>
      <trkpt lat="44.92767" lon="6.59405">
        <ele>1332.8</ele>
        <time>2022-08-28T14:51:19+0200</time>
      </trkpt>
      <trkpt lat="44.92767" lon="6.59394">
        <ele>1333.9</ele>
        <time>2022-08-28T14:51:21+0200</time>
      </trkpt>
      <trkpt lat="44.92765" lon="6.59387">
        <ele>1335</ele>
        <time>2022-08-28T14:51:22+0200</time>
      </trkpt>
      <trkpt lat="44.92762" lon="6.59379">
        <ele>1336.9</ele>
        <time>2022-08-28T14:51:24+0200</time>
      </trkpt>
      <trkpt lat="44.92756" lon="6.59373">
        <ele>1339.2</ele>
        <time>2022-08-28T14:51:27+0200</time>
      </trkpt>
      <trkpt lat="44.92755" lon="6.59366">
        <ele>1340.6</ele>
        <time>2022-08-28T14:51:30+0200</time>
      </trkpt>
      <trkpt lat="44.92751" lon="6.59364">
        <ele>1342.2</ele>
        <time>2022-08-28T14:51:32+0200</time>
      </trkpt>
      <trkpt lat="44.92747" lon="6.59364">
        <ele>1343.6</ele>
        <time>2022-08-28T14:51:35+0200</time>
      </trkpt>
      <trkpt lat="44.92742" lon="6.59364">
        <ele>1345.4</ele>
        <time>2022-08-28T14:51:38+0200</time>
      </trkpt>
      <trkpt lat="44.92737" lon="6.59368">
        <ele>1346.3</ele>
        <time>2022-08-28T14:51:43+0200</time>
      </trkpt>
      <trkpt lat="44.9273" lon="6.59371">
        <ele>1347.9</ele>
        <time>2022-08-28T14:51:46+0200</time>
      </trkpt>
      <trkpt lat="44.92724" lon="6.59376">
        <ele>1348.7</ele>
        <time>2022-08-28T14:51:49+0200</time>
      </trkpt>
      <trkpt lat="44.9272" lon="6.59381">
        <ele>1348.8</ele>
        <time>2022-08-28T14:51:52+0200</time>
      </trkpt>
      <trkpt lat="44.92716" lon="6.59383">
        <ele>1349.9</ele>
        <time>2022-08-28T14:51:54+0200</time>
      </trkpt>
      <trkpt lat="44.92709" lon="6.59387">
        <ele>1351.3</ele>
        <time>2022-08-28T14:51:57+0200</time>
      </trkpt>
      <trkpt lat="44.92705" lon="6.59393">
        <ele>1351.1</ele>
        <time>2022-08-28T14:52:00+0200</time>
      </trkpt>
      <trkpt lat="44.92701" lon="6.59398">
        <ele>1351.1</ele>
        <time>2022-08-28T14:52:02+0200</time>
      </trkpt>
      <trkpt lat="44.92698" lon="6.59404">
        <ele>1350.6</ele>
        <time>2022-08-28T14:52:04+0200</time>
      </trkpt>
      <trkpt lat="44.92695" lon="6.59409">
        <ele>1350</ele>
        <time>2022-08-28T14:52:06+0200</time>
      </trkpt>
      <trkpt lat="44.92692" lon="6.59415">
        <ele>1349.4</ele>
        <time>2022-08-28T14:52:08+0200</time>
      </trkpt>
      <trkpt lat="44.92687" lon="6.59416">
        <ele>1350.9</ele>
        <time>2022-08-28T14:52:10+0200</time>
      </trkpt>
      <trkpt lat="44.92685" lon="6.59422">
        <ele>1350.1</ele>
        <time>2022-08-28T14:52:13+0200</time>
      </trkpt>
      <trkpt lat="44.92682" lon="6.59427">
        <ele>1350.2</ele>
        <time>2022-08-28T14:52:15+0200</time>
      </trkpt>
      <trkpt lat="44.92677" lon="6.5943">
        <ele>1351.1</ele>
        <time>2022-08-28T14:52:17+0200</time>
      </trkpt>
      <trkpt lat="44.92672" lon="6.59431">
        <ele>1352.5</ele>
        <time>2022-08-28T14:52:19+0200</time>
      </trkpt>
      <trkpt lat="44.92667" lon="6.59436">
        <ele>1352.9</ele>
        <time>2022-08-28T14:52:21+0200</time>
      </trkpt>
      <trkpt lat="44.92662" lon="6.5944">
        <ele>1353.8</ele>
        <time>2022-08-28T14:52:23+0200</time>
      </trkpt>
      <trkpt lat="44.92656" lon="6.59444">
        <ele>1355.1</ele>
        <time>2022-08-28T14:52:26+0200</time>
      </trkpt>
      <trkpt lat="44.92653" lon="6.59449">
        <ele>1355.5</ele>
        <time>2022-08-28T14:52:29+0200</time>
      </trkpt>
      <trkpt lat="44.92649" lon="6.59451">
        <ele>1356.9</ele>
        <time>2022-08-28T14:52:31+0200</time>
      </trkpt>
      <trkpt lat="44.92644" lon="6.59453">
        <ele>1358.2</ele>
        <time>2022-08-28T14:52:35+0200</time>
      </trkpt>
      <trkpt lat="44.92639" lon="6.59458">
        <ele>1359</ele>
        <time>2022-08-28T14:52:38+0200</time>
      </trkpt>
      <trkpt lat="44.92634" lon="6.59462">
        <ele>1360.1</ele>
        <time>2022-08-28T14:52:41+0200</time>
      </trkpt>
      <trkpt lat="44.9263" lon="6.59471">
        <ele>1359.9</ele>
        <time>2022-08-28T14:52:43+0200</time>
      </trkpt>
      <trkpt lat="44.92625" lon="6.59477">
        <ele>1360.6</ele>
        <time>2022-08-28T14:52:45+0200</time>
      </trkpt>
      <trkpt lat="44.9262" lon="6.59483">
        <ele>1361.1</ele>
        <time>2022-08-28T14:52:48+0200</time>
      </trkpt>
      <trkpt lat="44.92617" lon="6.59491">
        <ele>1360.6</ele>
        <time>2022-08-28T14:52:51+0200</time>
      </trkpt>
      <trkpt lat="44.92613" lon="6.59497">
        <ele>1360.8</ele>
        <time>2022-08-28T14:52:54+0200</time>
      </trkpt>
      <trkpt lat="44.92611" lon="6.59503">
        <ele>1360.3</ele>
        <time>2022-08-28T14:52:58+0200</time>
      </trkpt>
      <trkpt lat="44.92605" lon="6.59506">
        <ele>1361.9</ele>
        <time>2022-08-28T14:53:01+0200</time>
      </trkpt>
      <trkpt lat="44.92601" lon="6.59508">
        <ele>1363.2</ele>
        <time>2022-08-28T14:53:04+0200</time>
      </trkpt>
      <trkpt lat="44.92596" lon="6.59511">
        <ele>1364.3</ele>
        <time>2022-08-28T14:53:06+0200</time>
      </trkpt>
      <trkpt lat="44.9259" lon="6.59514">
        <ele>1366</ele>
        <time>2022-08-28T14:53:08+0200</time>
      </trkpt>
      <trkpt lat="44.92585" lon="6.59516">
        <ele>1367.6</ele>
        <time>2022-08-28T14:53:10+0200</time>
      </trkpt>
      <trkpt lat="44.92579" lon="6.59516">
        <ele>1369.6</ele>
        <time>2022-08-28T14:53:12+0200</time>
      </trkpt>
      <trkpt lat="44.92573" lon="6.59516">
        <ele>1371.8</ele>
        <time>2022-08-28T14:53:15+0200</time>
      </trkpt>
      <trkpt lat="44.92569" lon="6.5952">
        <ele>1372.8</ele>
        <time>2022-08-28T14:53:17+0200</time>
      </trkpt>
      <trkpt lat="44.92564" lon="6.59522">
        <ele>1373.9</ele>
        <time>2022-08-28T14:53:19+0200</time>
      </trkpt>
      <trkpt lat="44.92559" lon="6.59529">
        <ele>1374.5</ele>
        <time>2022-08-28T14:53:22+0200</time>
      </trkpt>
      <trkpt lat="44.92554" lon="6.59534">
        <ele>1375.5</ele>
        <time>2022-08-28T14:53:24+0200</time>
      </trkpt>
      <trkpt lat="44.92548" lon="6.5954">
        <ele>1376.3</ele>
        <time>2022-08-28T14:53:27+0200</time>
      </trkpt>
      <trkpt lat="44.92542" lon="6.59541">
        <ele>1377.7</ele>
        <time>2022-08-28T14:53:29+0200</time>
      </trkpt>
      <trkpt lat="44.92535" lon="6.5954">
        <ele>1380.1</ele>
        <time>2022-08-28T14:53:32+0200</time>
      </trkpt>
      <trkpt lat="44.9253" lon="6.59544">
        <ele>1380.8</ele>
        <time>2022-08-28T14:53:34+0200</time>
      </trkpt>
      <trkpt lat="44.92525" lon="6.59547">
        <ele>1381.5</ele>
        <time>2022-08-28T14:53:37+0200</time>
      </trkpt>
      <trkpt lat="44.92521" lon="6.59553">
        <ele>1381.7</ele>
        <time>2022-08-28T14:53:39+0200</time>
      </trkpt>
      <trkpt lat="44.92517" lon="6.59556">
        <ele>1382.1</ele>
        <time>2022-08-28T14:53:41+0200</time>
      </trkpt>
      <trkpt lat="44.92513" lon="6.59559">
        <ele>1382.7</ele>
        <time>2022-08-28T14:53:43+0200</time>
      </trkpt>
      <trkpt lat="44.92508" lon="6.59564">
        <ele>1383.1</ele>
        <time>2022-08-28T14:53:45+0200</time>
      </trkpt>
      <trkpt lat="44.92504" lon="6.59567">
        <ele>1383.7</ele>
        <time>2022-08-28T14:53:46+0200</time>
      </trkpt>
      <trkpt lat="44.92499" lon="6.59572">
        <ele>1384.4</ele>
        <time>2022-08-28T14:53:48+0200</time>
      </trkpt>
      <trkpt lat="44.92494" lon="6.59576">
        <ele>1385</ele>
        <time>2022-08-28T14:53:50+0200</time>
      </trkpt>
      <trkpt lat="44.92489" lon="6.59581">
        <ele>1385.2</ele>
        <time>2022-08-28T14:53:52+0200</time>
      </trkpt>
      <trkpt lat="44.92485" lon="6.59586">
        <ele>1385.3</ele>
        <time>2022-08-28T14:53:55+0200</time>
      </trkpt>
      <trkpt lat="44.92479" lon="6.59591">
        <ele>1385.8</ele>
        <time>2022-08-28T14:53:58+0200</time>
      </trkpt>
      <trkpt lat="44.92477" lon="6.59597">
        <ele>1385.5</ele>
        <time>2022-08-28T14:54:00+0200</time>
      </trkpt>
      <trkpt lat="44.92472" lon="6.59602">
        <ele>1385.6</ele>
        <time>2022-08-28T14:54:03+0200</time>
      </trkpt>
      <trkpt lat="44.92466" lon="6.59608">
        <ele>1386.2</ele>
        <time>2022-08-28T14:54:06+0200</time>
      </trkpt>
      <trkpt lat="44.92463" lon="6.59613">
        <ele>1385.9</ele>
        <time>2022-08-28T14:54:08+0200</time>
      </trkpt>
      <trkpt lat="44.92459" lon="6.59619">
        <ele>1386.3</ele>
        <time>2022-08-28T14:54:11+0200</time>
      </trkpt>
      <trkpt lat="44.92454" lon="6.59623">
        <ele>1386.9</ele>
        <time>2022-08-28T14:54:14+0200</time>
      </trkpt>
      <trkpt lat="44.92448" lon="6.59627">
        <ele>1387.7</ele>
        <time>2022-08-28T14:54:17+0200</time>
      </trkpt>
      <trkpt lat="44.92444" lon="6.59631">
        <ele>1388.2</ele>
        <time>2022-08-28T14:54:20+0200</time>
      </trkpt>
      <trkpt lat="44.9244" lon="6.59636">
        <ele>1388.7</ele>
        <time>2022-08-28T14:54:22+0200</time>
      </trkpt>
      <trkpt lat="44.92437" lon="6.59643">
        <ele>1389</ele>
        <time>2022-08-28T14:54:24+0200</time>
      </trkpt>
      <trkpt lat="44.92433" lon="6.59648">
        <ele>1389.7</ele>
        <time>2022-08-28T14:54:26+0200</time>
      </trkpt>
      <trkpt lat="44.9243" lon="6.59654">
        <ele>1390</ele>
        <time>2022-08-28T14:54:29+0200</time>
      </trkpt>
      <trkpt lat="44.92426" lon="6.59655">
        <ele>1391.2</ele>
        <time>2022-08-28T14:54:31+0200</time>
      </trkpt>
      <trkpt lat="44.92421" lon="6.59661">
        <ele>1392.2</ele>
        <time>2022-08-28T14:54:33+0200</time>
      </trkpt>
      <trkpt lat="44.92417" lon="6.59666">
        <ele>1393</ele>
        <time>2022-08-28T14:54:36+0200</time>
      </trkpt>
      <trkpt lat="44.92413" lon="6.59672">
        <ele>1393.8</ele>
        <time>2022-08-28T14:54:38+0200</time>
      </trkpt>
      <trkpt lat="44.9241" lon="6.59679">
        <ele>1394.7</ele>
        <time>2022-08-28T14:54:40+0200</time>
      </trkpt>
      <trkpt lat="44.92407" lon="6.59685">
        <ele>1395.2</ele>
        <time>2022-08-28T14:54:42+0200</time>
      </trkpt>
      <trkpt lat="44.92405" lon="6.59691">
        <ele>1395.4</ele>
        <time>2022-08-28T14:54:44+0200</time>
      </trkpt>
      <trkpt lat="44.92403" lon="6.59699">
        <ele>1395.7</ele>
        <time>2022-08-28T14:54:46+0200</time>
      </trkpt>
      <trkpt lat="44.92401" lon="6.59705">
        <ele>1396</ele>
        <time>2022-08-28T14:54:48+0200</time>
      </trkpt>
      <trkpt lat="44.92398" lon="6.59712">
        <ele>1396.5</ele>
        <time>2022-08-28T14:54:50+0200</time>
      </trkpt>
      <trkpt lat="44.92395" lon="6.59719">
        <ele>1397</ele>
        <time>2022-08-28T14:54:52+0200</time>
      </trkpt>
      <trkpt lat="44.92392" lon="6.59726">
        <ele>1397.7</ele>
        <time>2022-08-28T14:54:54+0200</time>
      </trkpt>
      <trkpt lat="44.92391" lon="6.59736">
        <ele>1397.4</ele>
        <time>2022-08-28T14:54:56+0200</time>
      </trkpt>
      <trkpt lat="44.92388" lon="6.59746">
        <ele>1397.6</ele>
        <time>2022-08-28T14:54:58+0200</time>
      </trkpt>
      <trkpt lat="44.92385" lon="6.59754">
        <ele>1397.7</ele>
        <time>2022-08-28T14:55:00+0200</time>
      </trkpt>
      <trkpt lat="44.92382" lon="6.59762">
        <ele>1397.9</ele>
        <time>2022-08-28T14:55:02+0200</time>
      </trkpt>
      <trkpt lat="44.92379" lon="6.59771">
        <ele>1398.2</ele>
        <time>2022-08-28T14:55:04+0200</time>
      </trkpt>
      <trkpt lat="44.92376" lon="6.59778">
        <ele>1398.7</ele>
        <time>2022-08-28T14:55:06+0200</time>
      </trkpt>
      <trkpt lat="44.92373" lon="6.59786">
        <ele>1398.7</ele>
        <time>2022-08-28T14:55:08+0200</time>
      </trkpt>
      <trkpt lat="44.9237" lon="6.59793">
        <ele>1399.1</ele>
        <time>2022-08-28T14:55:10+0200</time>
      </trkpt>
      <trkpt lat="44.92367" lon="6.598">
        <ele>1399.4</ele>
        <time>2022-08-28T14:55:12+0200</time>
      </trkpt>
      <trkpt lat="44.92364" lon="6.59807">
        <ele>1400</ele>
        <time>2022-08-28T14:55:14+0200</time>
      </trkpt>
      <trkpt lat="44.92358" lon="6.59812">
        <ele>1401</ele>
        <time>2022-08-28T14:55:17+0200</time>
      </trkpt>
      <trkpt lat="44.92353" lon="6.59816">
        <ele>1401.8</ele>
        <time>2022-08-28T14:55:20+0200</time>
      </trkpt>
      <trkpt lat="44.92349" lon="6.59821">
        <ele>1402.3</ele>
        <time>2022-08-28T14:55:22+0200</time>
      </trkpt>
      <trkpt lat="44.92345" lon="6.59824">
        <ele>1403.2</ele>
        <time>2022-08-28T14:55:25+0200</time>
      </trkpt>
      <trkpt lat="44.92342" lon="6.59829">
        <ele>1403</ele>
        <time>2022-08-28T14:55:27+0200</time>
      </trkpt>
      <trkpt lat="44.92337" lon="6.59831">
        <ele>1404.4</ele>
        <time>2022-08-28T14:55:30+0200</time>
      </trkpt>
      <trkpt lat="44.92331" lon="6.59833">
        <ele>1405.6</ele>
        <time>2022-08-28T14:55:32+0200</time>
      </trkpt>
      <trkpt lat="44.92326" lon="6.59835">
        <ele>1406.7</ele>
        <time>2022-08-28T14:55:34+0200</time>
      </trkpt>
      <trkpt lat="44.92321" lon="6.59837">
        <ele>1407.5</ele>
        <time>2022-08-28T14:55:37+0200</time>
      </trkpt>
      <trkpt lat="44.92316" lon="6.59839">
        <ele>1408.2</ele>
        <time>2022-08-28T14:55:39+0200</time>
      </trkpt>
      <trkpt lat="44.92311" lon="6.59842">
        <ele>1409</ele>
        <time>2022-08-28T14:55:41+0200</time>
      </trkpt>
      <trkpt lat="44.92303" lon="6.59842">
        <ele>1410.9</ele>
        <time>2022-08-28T14:55:43+0200</time>
      </trkpt>
      <trkpt lat="44.92299" lon="6.59845">
        <ele>1411.3</ele>
        <time>2022-08-28T14:55:45+0200</time>
      </trkpt>
      <trkpt lat="44.92292" lon="6.59847">
        <ele>1412.5</ele>
        <time>2022-08-28T14:55:47+0200</time>
      </trkpt>
      <trkpt lat="44.92286" lon="6.5985">
        <ele>1413.2</ele>
        <time>2022-08-28T14:55:50+0200</time>
      </trkpt>
      <trkpt lat="44.92279" lon="6.59853">
        <ele>1414.3</ele>
        <time>2022-08-28T14:55:52+0200</time>
      </trkpt>
      <trkpt lat="44.92273" lon="6.59854">
        <ele>1415.3</ele>
        <time>2022-08-28T14:55:54+0200</time>
      </trkpt>
      <trkpt lat="44.92269" lon="6.59858">
        <ele>1415.5</ele>
        <time>2022-08-28T14:55:56+0200</time>
      </trkpt>
      <trkpt lat="44.92265" lon="6.5986">
        <ele>1416.1</ele>
        <time>2022-08-28T14:55:58+0200</time>
      </trkpt>
      <trkpt lat="44.9226" lon="6.59862">
        <ele>1416.7</ele>
        <time>2022-08-28T14:56:01+0200</time>
      </trkpt>
      <trkpt lat="44.92254" lon="6.59864">
        <ele>1417.6</ele>
        <time>2022-08-28T14:56:04+0200</time>
      </trkpt>
      <trkpt lat="44.92248" lon="6.59865">
        <ele>1418.8</ele>
        <time>2022-08-28T14:56:07+0200</time>
      </trkpt>
      <trkpt lat="44.92242" lon="6.59869">
        <ele>1419.3</ele>
        <time>2022-08-28T14:56:10+0200</time>
      </trkpt>
      <trkpt lat="44.92238" lon="6.59874">
        <ele>1419.4</ele>
        <time>2022-08-28T14:56:12+0200</time>
      </trkpt>
      <trkpt lat="44.92232" lon="6.59879">
        <ele>1419.6</ele>
        <time>2022-08-28T14:56:14+0200</time>
      </trkpt>
      <trkpt lat="44.92227" lon="6.59883">
        <ele>1420.1</ele>
        <time>2022-08-28T14:56:16+0200</time>
      </trkpt>
      <trkpt lat="44.92223" lon="6.59891">
        <ele>1419.4</ele>
        <time>2022-08-28T14:56:18+0200</time>
      </trkpt>
      <trkpt lat="44.92221" lon="6.59898">
        <ele>1418.7</ele>
        <time>2022-08-28T14:56:20+0200</time>
      </trkpt>
      <trkpt lat="44.92218" lon="6.59904">
        <ele>1418.5</ele>
        <time>2022-08-28T14:56:22+0200</time>
      </trkpt>
      <trkpt lat="44.92214" lon="6.59907">
        <ele>1419.3</ele>
        <time>2022-08-28T14:56:24+0200</time>
      </trkpt>
      <trkpt lat="44.92207" lon="6.5991">
        <ele>1420.6</ele>
        <time>2022-08-28T14:56:26+0200</time>
      </trkpt>
      <trkpt lat="44.92202" lon="6.59912">
        <ele>1421.6</ele>
        <time>2022-08-28T14:56:29+0200</time>
      </trkpt>
      <trkpt lat="44.92199" lon="6.59918">
        <ele>1421.6</ele>
        <time>2022-08-28T14:56:31+0200</time>
      </trkpt>
      <trkpt lat="44.92193" lon="6.59923">
        <ele>1422.4</ele>
        <time>2022-08-28T14:56:33+0200</time>
      </trkpt>
      <trkpt lat="44.92189" lon="6.59931">
        <ele>1422.6</ele>
        <time>2022-08-28T14:56:35+0200</time>
      </trkpt>
      <trkpt lat="44.92185" lon="6.59934">
        <ele>1423</ele>
        <time>2022-08-28T14:56:37+0200</time>
      </trkpt>
      <trkpt lat="44.9218" lon="6.59939">
        <ele>1423.7</ele>
        <time>2022-08-28T14:56:39+0200</time>
      </trkpt>
      <trkpt lat="44.92175" lon="6.59945">
        <ele>1423.7</ele>
        <time>2022-08-28T14:56:41+0200</time>
      </trkpt>
      <trkpt lat="44.92173" lon="6.59952">
        <ele>1423.7</ele>
        <time>2022-08-28T14:56:43+0200</time>
      </trkpt>
      <trkpt lat="44.92172" lon="6.59958">
        <ele>1423.1</ele>
        <time>2022-08-28T14:56:44+0200</time>
      </trkpt>
      <trkpt lat="44.92172" lon="6.59968">
        <ele>1422.2</ele>
        <time>2022-08-28T14:56:46+0200</time>
      </trkpt>
      <trkpt lat="44.92172" lon="6.59975">
        <ele>1421.5</ele>
        <time>2022-08-28T14:56:47+0200</time>
      </trkpt>
      <trkpt lat="44.9217" lon="6.59982">
        <ele>1421.9</ele>
        <time>2022-08-28T14:56:49+0200</time>
      </trkpt>
      <trkpt lat="44.92166" lon="6.59989">
        <ele>1422.6</ele>
        <time>2022-08-28T14:56:51+0200</time>
      </trkpt>
      <trkpt lat="44.92164" lon="6.59995">
        <ele>1422.7</ele>
        <time>2022-08-28T14:56:54+0200</time>
      </trkpt>
      <trkpt lat="44.92163" lon="6.60002">
        <ele>1422.7</ele>
        <time>2022-08-28T14:56:56+0200</time>
      </trkpt>
      <trkpt lat="44.92164" lon="6.60012">
        <ele>1422.6</ele>
        <time>2022-08-28T14:56:59+0200</time>
      </trkpt>
      <trkpt lat="44.92163" lon="6.60021">
        <ele>1422.7</ele>
        <time>2022-08-28T14:57:02+0200</time>
      </trkpt>
      <trkpt lat="44.92167" lon="6.6003">
        <ele>1422</ele>
        <time>2022-08-28T14:57:04+0200</time>
      </trkpt>
      <trkpt lat="44.92167" lon="6.60038">
        <ele>1421.9</ele>
        <time>2022-08-28T14:57:06+0200</time>
      </trkpt>
      <trkpt lat="44.92169" lon="6.60046">
        <ele>1421.5</ele>
        <time>2022-08-28T14:57:08+0200</time>
      </trkpt>
      <trkpt lat="44.92171" lon="6.60057">
        <ele>1421</ele>
        <time>2022-08-28T14:57:10+0200</time>
      </trkpt>
      <trkpt lat="44.92169" lon="6.60066">
        <ele>1421.8</ele>
        <time>2022-08-28T14:57:12+0200</time>
      </trkpt>
      <trkpt lat="44.92168" lon="6.60074">
        <ele>1422.3</ele>
        <time>2022-08-28T14:57:16+0200</time>
      </trkpt>
      <trkpt lat="44.92167" lon="6.60081">
        <ele>1422.8</ele>
        <time>2022-08-28T14:57:18+0200</time>
      </trkpt>
      <trkpt lat="44.92165" lon="6.6009">
        <ele>1423.5</ele>
        <time>2022-08-28T14:57:22+0200</time>
      </trkpt>
      <trkpt lat="44.92163" lon="6.60096">
        <ele>1424.1</ele>
        <time>2022-08-28T14:57:24+0200</time>
      </trkpt>
      <trkpt lat="44.9216" lon="6.60102">
        <ele>1425</ele>
        <time>2022-08-28T14:57:27+0200</time>
      </trkpt>
      <trkpt lat="44.92157" lon="6.6011">
        <ele>1426</ele>
        <time>2022-08-28T14:57:30+0200</time>
      </trkpt>
      <trkpt lat="44.92155" lon="6.60117">
        <ele>1426.4</ele>
        <time>2022-08-28T14:57:32+0200</time>
      </trkpt>
      <trkpt lat="44.92151" lon="6.60122">
        <ele>1427.2</ele>
        <time>2022-08-28T14:57:35+0200</time>
      </trkpt>
      <trkpt lat="44.92148" lon="6.60127">
        <ele>1427.9</ele>
        <time>2022-08-28T14:57:37+0200</time>
      </trkpt>
      <trkpt lat="44.92143" lon="6.6013">
        <ele>1429.2</ele>
        <time>2022-08-28T14:57:39+0200</time>
      </trkpt>
      <trkpt lat="44.92139" lon="6.60136">
        <ele>1430.2</ele>
        <time>2022-08-28T14:57:41+0200</time>
      </trkpt>
      <trkpt lat="44.92135" lon="6.60142">
        <ele>1430.7</ele>
        <time>2022-08-28T14:57:43+0200</time>
      </trkpt>
      <trkpt lat="44.9213" lon="6.60148">
        <ele>1431.4</ele>
        <time>2022-08-28T14:57:45+0200</time>
      </trkpt>
      <trkpt lat="44.92124" lon="6.60153">
        <ele>1432.6</ele>
        <time>2022-08-28T14:57:47+0200</time>
      </trkpt>
      <trkpt lat="44.92116" lon="6.60157">
        <ele>1434.3</ele>
        <time>2022-08-28T14:57:49+0200</time>
      </trkpt>
      <trkpt lat="44.92117" lon="6.60164">
        <ele>1433.5</ele>
        <time>2022-08-28T14:57:59+0200</time>
      </trkpt>
      <trkpt lat="44.92121" lon="6.60159">
        <ele>1432.9</ele>
        <time>2022-08-28T14:58:03+0200</time>
      </trkpt>
      <trkpt lat="44.92123" lon="6.60153">
        <ele>1432.9</ele>
        <time>2022-08-28T14:58:05+0200</time>
      </trkpt>
      <trkpt lat="44.92123" lon="6.60145">
        <ele>1433.5</ele>
        <time>2022-08-28T14:58:08+0200</time>
      </trkpt>
      <trkpt lat="44.92123" lon="6.60136">
        <ele>1434.1</ele>
        <time>2022-08-28T14:58:10+0200</time>
      </trkpt>
      <trkpt lat="44.92121" lon="6.60127">
        <ele>1435.2</ele>
        <time>2022-08-28T14:58:12+0200</time>
      </trkpt>
      <trkpt lat="44.92119" lon="6.60116">
        <ele>1436.1</ele>
        <time>2022-08-28T14:58:14+0200</time>
      </trkpt>
      <trkpt lat="44.92115" lon="6.60106">
        <ele>1436.8</ele>
        <time>2022-08-28T14:58:16+0200</time>
      </trkpt>
      <trkpt lat="44.9211" lon="6.60097">
        <ele>1437.1</ele>
        <time>2022-08-28T14:58:18+0200</time>
      </trkpt>
      <trkpt lat="44.92107" lon="6.60088">
        <ele>1437</ele>
        <time>2022-08-28T14:58:20+0200</time>
      </trkpt>
      <trkpt lat="44.92105" lon="6.60081">
        <ele>1436.9</ele>
        <time>2022-08-28T14:58:22+0200</time>
      </trkpt>
      <trkpt lat="44.92103" lon="6.6007">
        <ele>1436.6</ele>
        <time>2022-08-28T14:58:24+0200</time>
      </trkpt>
      <trkpt lat="44.921" lon="6.60063">
        <ele>1436.8</ele>
        <time>2022-08-28T14:58:26+0200</time>
      </trkpt>
      <trkpt lat="44.92096" lon="6.60056">
        <ele>1437.3</ele>
        <time>2022-08-28T14:58:28+0200</time>
      </trkpt>
      <trkpt lat="44.92093" lon="6.6005">
        <ele>1437.8</ele>
        <time>2022-08-28T14:58:30+0200</time>
      </trkpt>
      <trkpt lat="44.92093" lon="6.60043">
        <ele>1438</ele>
        <time>2022-08-28T14:58:32+0200</time>
      </trkpt>
      <trkpt lat="44.92092" lon="6.60036">
        <ele>1438.1</ele>
        <time>2022-08-28T14:58:34+0200</time>
      </trkpt>
      <trkpt lat="44.92092" lon="6.60029">
        <ele>1438.2</ele>
        <time>2022-08-28T14:58:36+0200</time>
      </trkpt>
      <trkpt lat="44.9209" lon="6.60022">
        <ele>1438.8</ele>
        <time>2022-08-28T14:58:39+0200</time>
      </trkpt>
      <trkpt lat="44.92086" lon="6.60015">
        <ele>1439.9</ele>
        <time>2022-08-28T14:58:42+0200</time>
      </trkpt>
      <trkpt lat="44.92084" lon="6.60007">
        <ele>1440.6</ele>
        <time>2022-08-28T14:58:45+0200</time>
      </trkpt>
      <trkpt lat="44.92084" lon="6.59998">
        <ele>1440.9</ele>
        <time>2022-08-28T14:58:48+0200</time>
      </trkpt>
      <trkpt lat="44.92085" lon="6.59991">
        <ele>1441.6</ele>
        <time>2022-08-28T14:58:50+0200</time>
      </trkpt>
      <trkpt lat="44.92085" lon="6.59985">
        <ele>1442.2</ele>
        <time>2022-08-28T14:58:52+0200</time>
      </trkpt>
      <trkpt lat="44.92085" lon="6.59977">
        <ele>1443.2</ele>
        <time>2022-08-28T14:58:54+0200</time>
      </trkpt>
      <trkpt lat="44.92086" lon="6.59969">
        <ele>1444</ele>
        <time>2022-08-28T14:58:57+0200</time>
      </trkpt>
      <trkpt lat="44.92087" lon="6.59961">
        <ele>1444.8</ele>
        <time>2022-08-28T14:59:00+0200</time>
      </trkpt>
      <trkpt lat="44.92093" lon="6.59955">
        <ele>1444.4</ele>
        <time>2022-08-28T14:59:03+0200</time>
      </trkpt>
      <trkpt lat="44.92099" lon="6.59951">
        <ele>1443.2</ele>
        <time>2022-08-28T14:59:06+0200</time>
      </trkpt>
      <trkpt lat="44.92103" lon="6.59945">
        <ele>1443.2</ele>
        <time>2022-08-28T14:59:09+0200</time>
      </trkpt>
      <trkpt lat="44.92107" lon="6.5994">
        <ele>1443.1</ele>
        <time>2022-08-28T14:59:13+0200</time>
      </trkpt>
      <trkpt lat="44.92111" lon="6.59935">
        <ele>1442.6</ele>
        <time>2022-08-28T14:59:15+0200</time>
      </trkpt>
      <trkpt lat="44.92116" lon="6.59931">
        <ele>1442.2</ele>
        <time>2022-08-28T14:59:17+0200</time>
      </trkpt>
      <trkpt lat="44.92121" lon="6.59924">
        <ele>1442</ele>
        <time>2022-08-28T14:59:19+0200</time>
      </trkpt>
      <trkpt lat="44.92126" lon="6.59919">
        <ele>1441.3</ele>
        <time>2022-08-28T14:59:21+0200</time>
      </trkpt>
      <trkpt lat="44.9213" lon="6.59915">
        <ele>1441</ele>
        <time>2022-08-28T14:59:23+0200</time>
      </trkpt>
      <trkpt lat="44.92135" lon="6.59908">
        <ele>1441.4</ele>
        <time>2022-08-28T14:59:26+0200</time>
      </trkpt>
      <trkpt lat="44.9214" lon="6.59901">
        <ele>1441.8</ele>
        <time>2022-08-28T14:59:28+0200</time>
      </trkpt>
      <trkpt lat="44.92144" lon="6.59896">
        <ele>1441.8</ele>
        <time>2022-08-28T14:59:30+0200</time>
      </trkpt>
      <trkpt lat="44.92146" lon="6.59888">
        <ele>1442.9</ele>
        <time>2022-08-28T14:59:33+0200</time>
      </trkpt>
      <trkpt lat="44.9215" lon="6.59879">
        <ele>1443.8</ele>
        <time>2022-08-28T14:59:35+0200</time>
      </trkpt>
      <trkpt lat="44.92152" lon="6.59872">
        <ele>1444.5</ele>
        <time>2022-08-28T14:59:37+0200</time>
      </trkpt>
      <trkpt lat="44.92154" lon="6.59866">
        <ele>1445.1</ele>
        <time>2022-08-28T14:59:39+0200</time>
      </trkpt>
      <trkpt lat="44.92158" lon="6.59856">
        <ele>1446.3</ele>
        <time>2022-08-28T14:59:41+0200</time>
      </trkpt>
      <trkpt lat="44.9216" lon="6.59847">
        <ele>1447.8</ele>
        <time>2022-08-28T14:59:43+0200</time>
      </trkpt>
      <trkpt lat="44.92162" lon="6.5984">
        <ele>1448.8</ele>
        <time>2022-08-28T14:59:45+0200</time>
      </trkpt>
      <trkpt lat="44.92166" lon="6.59833">
        <ele>1449.2</ele>
        <time>2022-08-28T14:59:47+0200</time>
      </trkpt>
      <trkpt lat="44.92169" lon="6.59825">
        <ele>1450.3</ele>
        <time>2022-08-28T14:59:50+0200</time>
      </trkpt>
      <trkpt lat="44.92169" lon="6.59816">
        <ele>1452.6</ele>
        <time>2022-08-28T14:59:53+0200</time>
      </trkpt>
      <trkpt lat="44.92171" lon="6.5981">
        <ele>1453.4</ele>
        <time>2022-08-28T14:59:55+0200</time>
      </trkpt>
      <trkpt lat="44.92171" lon="6.59801">
        <ele>1455.2</ele>
        <time>2022-08-28T14:59:59+0200</time>
      </trkpt>
      <trkpt lat="44.92174" lon="6.59795">
        <ele>1455.6</ele>
        <time>2022-08-28T15:00:02+0200</time>
      </trkpt>
      <trkpt lat="44.92176" lon="6.59789">
        <ele>1456.3</ele>
        <time>2022-08-28T15:00:04+0200</time>
      </trkpt>
      <trkpt lat="44.9218" lon="6.59782">
        <ele>1456.9</ele>
        <time>2022-08-28T15:00:07+0200</time>
      </trkpt>
      <trkpt lat="44.92184" lon="6.59775">
        <ele>1457.2</ele>
        <time>2022-08-28T15:00:09+0200</time>
      </trkpt>
      <trkpt lat="44.92186" lon="6.59767">
        <ele>1458.5</ele>
        <time>2022-08-28T15:00:11+0200</time>
      </trkpt>
      <trkpt lat="44.92191" lon="6.59759">
        <ele>1458.4</ele>
        <time>2022-08-28T15:00:13+0200</time>
      </trkpt>
      <trkpt lat="44.92193" lon="6.59751">
        <ele>1459.2</ele>
        <time>2022-08-28T15:00:15+0200</time>
      </trkpt>
      <trkpt lat="44.92197" lon="6.59744">
        <ele>1459.6</ele>
        <time>2022-08-28T15:00:17+0200</time>
      </trkpt>
      <trkpt lat="44.92199" lon="6.59738">
        <ele>1460.3</ele>
        <time>2022-08-28T15:00:19+0200</time>
      </trkpt>
      <trkpt lat="44.92203" lon="6.59733">
        <ele>1460</ele>
        <time>2022-08-28T15:00:21+0200</time>
      </trkpt>
      <trkpt lat="44.92206" lon="6.59727">
        <ele>1460.3</ele>
        <time>2022-08-28T15:00:24+0200</time>
      </trkpt>
      <trkpt lat="44.92209" lon="6.5972">
        <ele>1460.9</ele>
        <time>2022-08-28T15:00:27+0200</time>
      </trkpt>
      <trkpt lat="44.92212" lon="6.59715">
        <ele>1461.1</ele>
        <time>2022-08-28T15:00:29+0200</time>
      </trkpt>
      <trkpt lat="44.92216" lon="6.59707">
        <ele>1461.1</ele>
        <time>2022-08-28T15:00:32+0200</time>
      </trkpt>
      <trkpt lat="44.9222" lon="6.59701">
        <ele>1461.3</ele>
        <time>2022-08-28T15:00:34+0200</time>
      </trkpt>
      <trkpt lat="44.92224" lon="6.59696">
        <ele>1461.1</ele>
        <time>2022-08-28T15:00:36+0200</time>
      </trkpt>
      <trkpt lat="44.92228" lon="6.59689">
        <ele>1461.3</ele>
        <time>2022-08-28T15:00:39+0200</time>
      </trkpt>
      <trkpt lat="44.92232" lon="6.59682">
        <ele>1461.7</ele>
        <time>2022-08-28T15:00:41+0200</time>
      </trkpt>
      <trkpt lat="44.92235" lon="6.59675">
        <ele>1462.5</ele>
        <time>2022-08-28T15:00:44+0200</time>
      </trkpt>
      <trkpt lat="44.92237" lon="6.59669">
        <ele>1463.6</ele>
        <time>2022-08-28T15:00:46+0200</time>
      </trkpt>
      <trkpt lat="44.92236" lon="6.59658">
        <ele>1466.7</ele>
        <time>2022-08-28T15:00:48+0200</time>
      </trkpt>
      <trkpt lat="44.92233" lon="6.5965">
        <ele>1470.4</ele>
        <time>2022-08-28T15:00:50+0200</time>
      </trkpt>
      <trkpt lat="44.92227" lon="6.59648">
        <ele>1473.5</ele>
        <time>2022-08-28T15:00:55+0200</time>
      </trkpt>
      <trkpt lat="44.92222" lon="6.59646">
        <ele>1476.3</ele>
        <time>2022-08-28T15:00:59+0200</time>
      </trkpt>
      <trkpt lat="44.92217" lon="6.59652">
        <ele>1476.3</ele>
        <time>2022-08-28T15:01:02+0200</time>
      </trkpt>
      <trkpt lat="44.92214" lon="6.59657">
        <ele>1476.2</ele>
        <time>2022-08-28T15:01:04+0200</time>
      </trkpt>
      <trkpt lat="44.92209" lon="6.5966">
        <ele>1477.3</ele>
        <time>2022-08-28T15:01:07+0200</time>
      </trkpt>
      <trkpt lat="44.92202" lon="6.59664">
        <ele>1478.9</ele>
        <time>2022-08-28T15:01:11+0200</time>
      </trkpt>
      <trkpt lat="44.92197" lon="6.59665">
        <ele>1480.4</ele>
        <time>2022-08-28T15:01:14+0200</time>
      </trkpt>
      <trkpt lat="44.92193" lon="6.59668">
        <ele>1481.2</ele>
        <time>2022-08-28T15:01:16+0200</time>
      </trkpt>
      <trkpt lat="44.92189" lon="6.59671">
        <ele>1482.4</ele>
        <time>2022-08-28T15:01:18+0200</time>
      </trkpt>
      <trkpt lat="44.92183" lon="6.59674">
        <ele>1483.9</ele>
        <time>2022-08-28T15:01:20+0200</time>
      </trkpt>
      <trkpt lat="44.92175" lon="6.59678">
        <ele>1486</ele>
        <time>2022-08-28T15:01:22+0200</time>
      </trkpt>
      <trkpt lat="44.9217" lon="6.59682">
        <ele>1487.3</ele>
        <time>2022-08-28T15:01:24+0200</time>
      </trkpt>
      <trkpt lat="44.92165" lon="6.59686">
        <ele>1488.2</ele>
        <time>2022-08-28T15:01:26+0200</time>
      </trkpt>
      <trkpt lat="44.9216" lon="6.59687">
        <ele>1489.7</ele>
        <time>2022-08-28T15:01:28+0200</time>
      </trkpt>
      <trkpt lat="44.92155" lon="6.59692">
        <ele>1490.4</ele>
        <time>2022-08-28T15:01:31+0200</time>
      </trkpt>
      <trkpt lat="44.9215" lon="6.59698">
        <ele>1490.6</ele>
        <time>2022-08-28T15:01:34+0200</time>
      </trkpt>
      <trkpt lat="44.92144" lon="6.59703">
        <ele>1491.8</ele>
        <time>2022-08-28T15:01:37+0200</time>
      </trkpt>
      <trkpt lat="44.92139" lon="6.59706">
        <ele>1492.8</ele>
        <time>2022-08-28T15:01:39+0200</time>
      </trkpt>
      <trkpt lat="44.92133" lon="6.59708">
        <ele>1494.3</ele>
        <time>2022-08-28T15:01:41+0200</time>
      </trkpt>
      <trkpt lat="44.92128" lon="6.59711">
        <ele>1495.4</ele>
        <time>2022-08-28T15:01:43+0200</time>
      </trkpt>
      <trkpt lat="44.9212" lon="6.59714">
        <ele>1497.6</ele>
        <time>2022-08-28T15:01:46+0200</time>
      </trkpt>
      <trkpt lat="44.92115" lon="6.59721">
        <ele>1497.7</ele>
        <time>2022-08-28T15:01:49+0200</time>
      </trkpt>
      <trkpt lat="44.9211" lon="6.59726">
        <ele>1498.2</ele>
        <time>2022-08-28T15:01:51+0200</time>
      </trkpt>
      <trkpt lat="44.92104" lon="6.59733">
        <ele>1498.1</ele>
        <time>2022-08-28T15:01:53+0200</time>
      </trkpt>
      <trkpt lat="44.92098" lon="6.59734">
        <ele>1500</ele>
        <time>2022-08-28T15:01:56+0200</time>
      </trkpt>
      <trkpt lat="44.92094" lon="6.5974">
        <ele>1499.7</ele>
        <time>2022-08-28T15:01:59+0200</time>
      </trkpt>
      <trkpt lat="44.92091" lon="6.59744">
        <ele>1499.8</ele>
        <time>2022-08-28T15:02:01+0200</time>
      </trkpt>
      <trkpt lat="44.92087" lon="6.59749">
        <ele>1500</ele>
        <time>2022-08-28T15:02:05+0200</time>
      </trkpt>
      <trkpt lat="44.92082" lon="6.59755">
        <ele>1499.9</ele>
        <time>2022-08-28T15:02:08+0200</time>
      </trkpt>
      <trkpt lat="44.92077" lon="6.5976">
        <ele>1500.1</ele>
        <time>2022-08-28T15:02:10+0200</time>
      </trkpt>
      <trkpt lat="44.92073" lon="6.59765">
        <ele>1500.1</ele>
        <time>2022-08-28T15:02:12+0200</time>
      </trkpt>
      <trkpt lat="44.92068" lon="6.59769">
        <ele>1500.4</ele>
        <time>2022-08-28T15:02:14+0200</time>
      </trkpt>
      <trkpt lat="44.92061" lon="6.59771">
        <ele>1502.3</ele>
        <time>2022-08-28T15:02:17+0200</time>
      </trkpt>
      <trkpt lat="44.92056" lon="6.59775">
        <ele>1502.7</ele>
        <time>2022-08-28T15:02:20+0200</time>
      </trkpt>
      <trkpt lat="44.92052" lon="6.59775">
        <ele>1504.2</ele>
        <time>2022-08-28T15:02:22+0200</time>
      </trkpt>
      <trkpt lat="44.92047" lon="6.59781">
        <ele>1504.2</ele>
        <time>2022-08-28T15:02:25+0200</time>
      </trkpt>
      <trkpt lat="44.92041" lon="6.59784">
        <ele>1505.5</ele>
        <time>2022-08-28T15:02:28+0200</time>
      </trkpt>
      <trkpt lat="44.92037" lon="6.59786">
        <ele>1506.4</ele>
        <time>2022-08-28T15:02:30+0200</time>
      </trkpt>
      <trkpt lat="44.9203" lon="6.59787">
        <ele>1508.8</ele>
        <time>2022-08-28T15:02:32+0200</time>
      </trkpt>
      <trkpt lat="44.92023" lon="6.59789">
        <ele>1510.4</ele>
        <time>2022-08-28T15:02:35+0200</time>
      </trkpt>
      <trkpt lat="44.92018" lon="6.5979">
        <ele>1511.7</ele>
        <time>2022-08-28T15:02:37+0200</time>
      </trkpt>
      <trkpt lat="44.92012" lon="6.59793">
        <ele>1512.5</ele>
        <time>2022-08-28T15:02:39+0200</time>
      </trkpt>
      <trkpt lat="44.92008" lon="6.59796">
        <ele>1513.4</ele>
        <time>2022-08-28T15:02:41+0200</time>
      </trkpt>
      <trkpt lat="44.92003" lon="6.59798">
        <ele>1514</ele>
        <time>2022-08-28T15:02:43+0200</time>
      </trkpt>
      <trkpt lat="44.91999" lon="6.59806">
        <ele>1513.3</ele>
        <time>2022-08-28T15:02:46+0200</time>
      </trkpt>
      <trkpt lat="44.91995" lon="6.5981">
        <ele>1513.7</ele>
        <time>2022-08-28T15:02:48+0200</time>
      </trkpt>
      <trkpt lat="44.91991" lon="6.59815">
        <ele>1513.6</ele>
        <time>2022-08-28T15:02:50+0200</time>
      </trkpt>
      <trkpt lat="44.91985" lon="6.59819">
        <ele>1514.6</ele>
        <time>2022-08-28T15:02:52+0200</time>
      </trkpt>
      <trkpt lat="44.9198" lon="6.59824">
        <ele>1515.3</ele>
        <time>2022-08-28T15:02:54+0200</time>
      </trkpt>
      <trkpt lat="44.91975" lon="6.59826">
        <ele>1516</ele>
        <time>2022-08-28T15:02:56+0200</time>
      </trkpt>
      <trkpt lat="44.91969" lon="6.5983">
        <ele>1517.3</ele>
        <time>2022-08-28T15:02:59+0200</time>
      </trkpt>
      <trkpt lat="44.91964" lon="6.59834">
        <ele>1517.9</ele>
        <time>2022-08-28T15:03:02+0200</time>
      </trkpt>
      <trkpt lat="44.91959" lon="6.59838">
        <ele>1518.8</ele>
        <time>2022-08-28T15:03:06+0200</time>
      </trkpt>
      <trkpt lat="44.91958" lon="6.59846">
        <ele>1517.4</ele>
        <time>2022-08-28T15:03:08+0200</time>
      </trkpt>
      <trkpt lat="44.91956" lon="6.59856">
        <ele>1516.1</ele>
        <time>2022-08-28T15:03:10+0200</time>
      </trkpt>
      <trkpt lat="44.91953" lon="6.59864">
        <ele>1515.3</ele>
        <time>2022-08-28T15:03:12+0200</time>
      </trkpt>
      <trkpt lat="44.9195" lon="6.59872">
        <ele>1514.6</ele>
        <time>2022-08-28T15:03:15+0200</time>
      </trkpt>
      <trkpt lat="44.91946" lon="6.59878">
        <ele>1514.8</ele>
        <time>2022-08-28T15:03:17+0200</time>
      </trkpt>
      <trkpt lat="44.91942" lon="6.59883">
        <ele>1515.2</ele>
        <time>2022-08-28T15:03:19+0200</time>
      </trkpt>
      <trkpt lat="44.91939" lon="6.59888">
        <ele>1514.8</ele>
        <time>2022-08-28T15:03:21+0200</time>
      </trkpt>
      <trkpt lat="44.91937" lon="6.59897">
        <ele>1513.1</ele>
        <time>2022-08-28T15:03:23+0200</time>
      </trkpt>
      <trkpt lat="44.91932" lon="6.59904">
        <ele>1512.6</ele>
        <time>2022-08-28T15:03:26+0200</time>
      </trkpt>
      <trkpt lat="44.91928" lon="6.59908">
        <ele>1512.9</ele>
        <time>2022-08-28T15:03:29+0200</time>
      </trkpt>
      <trkpt lat="44.91924" lon="6.59913">
        <ele>1512.9</ele>
        <time>2022-08-28T15:03:32+0200</time>
      </trkpt>
      <trkpt lat="44.91919" lon="6.59915">
        <ele>1513.7</ele>
        <time>2022-08-28T15:03:36+0200</time>
      </trkpt>
      <trkpt lat="44.91914" lon="6.59917">
        <ele>1514.7</ele>
        <time>2022-08-28T15:03:39+0200</time>
      </trkpt>
      <trkpt lat="44.91909" lon="6.59919">
        <ele>1515.8</ele>
        <time>2022-08-28T15:03:42+0200</time>
      </trkpt>
      <trkpt lat="44.91904" lon="6.59922">
        <ele>1516.7</ele>
        <time>2022-08-28T15:03:45+0200</time>
      </trkpt>
      <trkpt lat="44.91898" lon="6.59926">
        <ele>1517.7</ele>
        <time>2022-08-28T15:03:48+0200</time>
      </trkpt>
      <trkpt lat="44.91893" lon="6.59929">
        <ele>1518.6</ele>
        <time>2022-08-28T15:03:50+0200</time>
      </trkpt>
      <trkpt lat="44.91888" lon="6.59929">
        <ele>1520.4</ele>
        <time>2022-08-28T15:03:52+0200</time>
      </trkpt>
      <trkpt lat="44.91883" lon="6.59932">
        <ele>1520.8</ele>
        <time>2022-08-28T15:03:55+0200</time>
      </trkpt>
      <trkpt lat="44.91878" lon="6.59937">
        <ele>1520.8</ele>
        <time>2022-08-28T15:03:58+0200</time>
      </trkpt>
      <trkpt lat="44.91874" lon="6.59939">
        <ele>1521.9</ele>
        <time>2022-08-28T15:04:00+0200</time>
      </trkpt>
      <trkpt lat="44.9187" lon="6.59943">
        <ele>1521.8</ele>
        <time>2022-08-28T15:04:03+0200</time>
      </trkpt>
      <trkpt lat="44.91866" lon="6.59951">
        <ele>1520.9</ele>
        <time>2022-08-28T15:04:06+0200</time>
      </trkpt>
      <trkpt lat="44.91863" lon="6.59956">
        <ele>1520.4</ele>
        <time>2022-08-28T15:04:09+0200</time>
      </trkpt>
      <trkpt lat="44.91859" lon="6.59961">
        <ele>1520.3</ele>
        <time>2022-08-28T15:04:11+0200</time>
      </trkpt>
      <trkpt lat="44.91854" lon="6.59964">
        <ele>1521.1</ele>
        <time>2022-08-28T15:04:13+0200</time>
      </trkpt>
      <trkpt lat="44.91849" lon="6.59963">
        <ele>1522.8</ele>
        <time>2022-08-28T15:04:16+0200</time>
      </trkpt>
      <trkpt lat="44.91843" lon="6.59964">
        <ele>1524.4</ele>
        <time>2022-08-28T15:04:19+0200</time>
      </trkpt>
      <trkpt lat="44.91838" lon="6.59964">
        <ele>1525.6</ele>
        <time>2022-08-28T15:04:21+0200</time>
      </trkpt>
      <trkpt lat="44.91832" lon="6.59967">
        <ele>1526.7</ele>
        <time>2022-08-28T15:04:23+0200</time>
      </trkpt>
      <trkpt lat="44.91825" lon="6.59967">
        <ele>1528.7</ele>
        <time>2022-08-28T15:04:26+0200</time>
      </trkpt>
      <trkpt lat="44.91819" lon="6.59967">
        <ele>1530.3</ele>
        <time>2022-08-28T15:04:28+0200</time>
      </trkpt>
      <trkpt lat="44.91815" lon="6.59969">
        <ele>1531.2</ele>
        <time>2022-08-28T15:04:30+0200</time>
      </trkpt>
      <trkpt lat="44.9181" lon="6.59964">
        <ele>1533.4</ele>
        <time>2022-08-28T15:04:33+0200</time>
      </trkpt>
      <trkpt lat="44.91814" lon="6.59969">
        <ele>1531.3</ele>
        <time>2022-08-28T15:04:43+0200</time>
      </trkpt>
      <trkpt lat="44.91819" lon="6.59966">
        <ele>1530.7</ele>
        <time>2022-08-28T15:04:48+0200</time>
      </trkpt>
      <trkpt lat="44.91823" lon="6.59961">
        <ele>1530.8</ele>
        <time>2022-08-28T15:04:51+0200</time>
      </trkpt>
      <trkpt lat="44.91827" lon="6.59957">
        <ele>1530.4</ele>
        <time>2022-08-28T15:04:54+0200</time>
      </trkpt>
      <trkpt lat="44.91831" lon="6.59952">
        <ele>1530.7</ele>
        <time>2022-08-28T15:04:57+0200</time>
      </trkpt>
      <trkpt lat="44.91835" lon="6.59949">
        <ele>1530.3</ele>
        <time>2022-08-28T15:05:00+0200</time>
      </trkpt>
      <trkpt lat="44.91839" lon="6.59944">
        <ele>1530.4</ele>
        <time>2022-08-28T15:05:02+0200</time>
      </trkpt>
      <trkpt lat="44.91843" lon="6.59936">
        <ele>1531.1</ele>
        <time>2022-08-28T15:05:05+0200</time>
      </trkpt>
      <trkpt lat="44.91848" lon="6.59929">
        <ele>1531.5</ele>
        <time>2022-08-28T15:05:08+0200</time>
      </trkpt>
      <trkpt lat="44.91852" lon="6.59924">
        <ele>1531.5</ele>
        <time>2022-08-28T15:05:10+0200</time>
      </trkpt>
      <trkpt lat="44.91855" lon="6.59919">
        <ele>1531.9</ele>
        <time>2022-08-28T15:05:12+0200</time>
      </trkpt>
      <trkpt lat="44.91859" lon="6.59913">
        <ele>1532.6</ele>
        <time>2022-08-28T15:05:15+0200</time>
      </trkpt>
      <trkpt lat="44.91859" lon="6.59904">
        <ele>1534.7</ele>
        <time>2022-08-28T15:05:17+0200</time>
      </trkpt>
      <trkpt lat="44.91857" lon="6.59895">
        <ele>1537.4</ele>
        <time>2022-08-28T15:05:20+0200</time>
      </trkpt>
      <trkpt lat="44.91856" lon="6.59887">
        <ele>1539.8</ele>
        <time>2022-08-28T15:05:24+0200</time>
      </trkpt>
      <trkpt lat="44.91852" lon="6.59883">
        <ele>1541.7</ele>
        <time>2022-08-28T15:05:28+0200</time>
      </trkpt>
      <trkpt lat="44.91847" lon="6.59884">
        <ele>1542.8</ele>
        <time>2022-08-28T15:05:31+0200</time>
      </trkpt>
      <trkpt lat="44.91842" lon="6.59883">
        <ele>1544.1</ele>
        <time>2022-08-28T15:05:34+0200</time>
      </trkpt>
      <trkpt lat="44.91838" lon="6.59882">
        <ele>1545.5</ele>
        <time>2022-08-28T15:05:37+0200</time>
      </trkpt>
      <trkpt lat="44.91833" lon="6.59884">
        <ele>1546.4</ele>
        <time>2022-08-28T15:05:40+0200</time>
      </trkpt>
      <trkpt lat="44.91828" lon="6.59885">
        <ele>1547.4</ele>
        <time>2022-08-28T15:05:43+0200</time>
      </trkpt>
      <trkpt lat="44.91822" lon="6.59886">
        <ele>1548.7</ele>
        <time>2022-08-28T15:05:47+0200</time>
      </trkpt>
      <trkpt lat="44.91817" lon="6.59887">
        <ele>1549.4</ele>
        <time>2022-08-28T15:05:49+0200</time>
      </trkpt>
      <trkpt lat="44.91813" lon="6.5989">
        <ele>1550.1</ele>
        <time>2022-08-28T15:05:51+0200</time>
      </trkpt>
      <trkpt lat="44.91805" lon="6.59893">
        <ele>1551.1</ele>
        <time>2022-08-28T15:05:53+0200</time>
      </trkpt>
      <trkpt lat="44.918" lon="6.59893">
        <ele>1552.5</ele>
        <time>2022-08-28T15:05:55+0200</time>
      </trkpt>
      <trkpt lat="44.91795" lon="6.59896">
        <ele>1553.3</ele>
        <time>2022-08-28T15:05:57+0200</time>
      </trkpt>
      <trkpt lat="44.9179" lon="6.59896">
        <ele>1554.6</ele>
        <time>2022-08-28T15:05:59+0200</time>
      </trkpt>
      <trkpt lat="44.91785" lon="6.59898">
        <ele>1555.5</ele>
        <time>2022-08-28T15:06:01+0200</time>
      </trkpt>
      <trkpt lat="44.91779" lon="6.59901">
        <ele>1556.4</ele>
        <time>2022-08-28T15:06:04+0200</time>
      </trkpt>
      <trkpt lat="44.91774" lon="6.59906">
        <ele>1557</ele>
        <time>2022-08-28T15:06:06+0200</time>
      </trkpt>
      <trkpt lat="44.91768" lon="6.59909">
        <ele>1558.4</ele>
        <time>2022-08-28T15:06:08+0200</time>
      </trkpt>
      <trkpt lat="44.91762" lon="6.59913">
        <ele>1559.6</ele>
        <time>2022-08-28T15:06:10+0200</time>
      </trkpt>
      <trkpt lat="44.91757" lon="6.59916">
        <ele>1560.7</ele>
        <time>2022-08-28T15:06:12+0200</time>
      </trkpt>
      <trkpt lat="44.91751" lon="6.59921">
        <ele>1561.7</ele>
        <time>2022-08-28T15:06:15+0200</time>
      </trkpt>
      <trkpt lat="44.91746" lon="6.59929">
        <ele>1561.9</ele>
        <time>2022-08-28T15:06:18+0200</time>
      </trkpt>
      <trkpt lat="44.91742" lon="6.59934">
        <ele>1562.3</ele>
        <time>2022-08-28T15:06:20+0200</time>
      </trkpt>
      <trkpt lat="44.91737" lon="6.59938">
        <ele>1563.3</ele>
        <time>2022-08-28T15:06:22+0200</time>
      </trkpt>
      <trkpt lat="44.91735" lon="6.59944">
        <ele>1563.2</ele>
        <time>2022-08-28T15:06:24+0200</time>
      </trkpt>
      <trkpt lat="44.9173" lon="6.5995">
        <ele>1563.7</ele>
        <time>2022-08-28T15:06:27+0200</time>
      </trkpt>
      <trkpt lat="44.91728" lon="6.59955">
        <ele>1563.7</ele>
        <time>2022-08-28T15:06:29+0200</time>
      </trkpt>
      <trkpt lat="44.91725" lon="6.59962">
        <ele>1563.1</ele>
        <time>2022-08-28T15:06:31+0200</time>
      </trkpt>
      <trkpt lat="44.91724" lon="6.59968">
        <ele>1562.4</ele>
        <time>2022-08-28T15:06:33+0200</time>
      </trkpt>
      <trkpt lat="44.91722" lon="6.59974">
        <ele>1561.9</ele>
        <time>2022-08-28T15:06:35+0200</time>
      </trkpt>
      <trkpt lat="44.91718" lon="6.59981">
        <ele>1561.9</ele>
        <time>2022-08-28T15:06:37+0200</time>
      </trkpt>
      <trkpt lat="44.91713" lon="6.5999">
        <ele>1561.9</ele>
        <time>2022-08-28T15:06:39+0200</time>
      </trkpt>
      <trkpt lat="44.91709" lon="6.59999">
        <ele>1562</ele>
        <time>2022-08-28T15:06:41+0200</time>
      </trkpt>
      <trkpt lat="44.91705" lon="6.60003">
        <ele>1562.5</ele>
        <time>2022-08-28T15:06:43+0200</time>
      </trkpt>
      <trkpt lat="44.91702" lon="6.60008">
        <ele>1563</ele>
        <time>2022-08-28T15:06:46+0200</time>
      </trkpt>
      <trkpt lat="44.91697" lon="6.60013">
        <ele>1564</ele>
        <time>2022-08-28T15:06:49+0200</time>
      </trkpt>
      <trkpt lat="44.91692" lon="6.60017">
        <ele>1564.7</ele>
        <time>2022-08-28T15:06:53+0200</time>
      </trkpt>
      <trkpt lat="44.91688" lon="6.60022">
        <ele>1565</ele>
        <time>2022-08-28T15:06:55+0200</time>
      </trkpt>
      <trkpt lat="44.91683" lon="6.60026">
        <ele>1565.6</ele>
        <time>2022-08-28T15:06:58+0200</time>
      </trkpt>
      <trkpt lat="44.91679" lon="6.6003">
        <ele>1566.1</ele>
        <time>2022-08-28T15:07:01+0200</time>
      </trkpt>
      <trkpt lat="44.91674" lon="6.60034">
        <ele>1566.7</ele>
        <time>2022-08-28T15:07:03+0200</time>
      </trkpt>
      <trkpt lat="44.91667" lon="6.60039">
        <ele>1567.8</ele>
        <time>2022-08-28T15:07:05+0200</time>
      </trkpt>
      <trkpt lat="44.91662" lon="6.60038">
        <ele>1569.2</ele>
        <time>2022-08-28T15:07:08+0200</time>
      </trkpt>
      <trkpt lat="44.91663" lon="6.60032">
        <ele>1570.2</ele>
        <time>2022-08-28T15:07:14+0200</time>
      </trkpt>
      <trkpt lat="44.91668" lon="6.60029">
        <ele>1569.2</ele>
        <time>2022-08-28T15:07:19+0200</time>
      </trkpt>
      <trkpt lat="44.91672" lon="6.60024">
        <ele>1569</ele>
        <time>2022-08-28T15:07:25+0200</time>
      </trkpt>
      <trkpt lat="44.91677" lon="6.60022">
        <ele>1568.1</ele>
        <time>2022-08-28T15:07:28+0200</time>
      </trkpt>
      <trkpt lat="44.91681" lon="6.60017">
        <ele>1567.4</ele>
        <time>2022-08-28T15:07:32+0200</time>
      </trkpt>
      <trkpt lat="44.91684" lon="6.60009">
        <ele>1568.1</ele>
        <time>2022-08-28T15:07:35+0200</time>
      </trkpt>
      <trkpt lat="44.91688" lon="6.60002">
        <ele>1568.3</ele>
        <time>2022-08-28T15:07:38+0200</time>
      </trkpt>
      <trkpt lat="44.91691" lon="6.59994">
        <ele>1569.1</ele>
        <time>2022-08-28T15:07:41+0200</time>
      </trkpt>
      <trkpt lat="44.91694" lon="6.59988">
        <ele>1569.2</ele>
        <time>2022-08-28T15:07:43+0200</time>
      </trkpt>
      <trkpt lat="44.91696" lon="6.59982">
        <ele>1569.8</ele>
        <time>2022-08-28T15:07:45+0200</time>
      </trkpt>
      <trkpt lat="44.91698" lon="6.59975">
        <ele>1570.2</ele>
        <time>2022-08-28T15:07:47+0200</time>
      </trkpt>
      <trkpt lat="44.917" lon="6.59969">
        <ele>1570.6</ele>
        <time>2022-08-28T15:07:49+0200</time>
      </trkpt>
      <trkpt lat="44.91705" lon="6.59961">
        <ele>1570.6</ele>
        <time>2022-08-28T15:07:52+0200</time>
      </trkpt>
      <trkpt lat="44.91707" lon="6.59953">
        <ele>1571.3</ele>
        <time>2022-08-28T15:07:55+0200</time>
      </trkpt>
      <trkpt lat="44.9171" lon="6.59945">
        <ele>1571.9</ele>
        <time>2022-08-28T15:07:57+0200</time>
      </trkpt>
      <trkpt lat="44.91715" lon="6.59939">
        <ele>1571.5</ele>
        <time>2022-08-28T15:08:00+0200</time>
      </trkpt>
      <trkpt lat="44.91716" lon="6.59931">
        <ele>1572.6</ele>
        <time>2022-08-28T15:08:02+0200</time>
      </trkpt>
      <trkpt lat="44.91718" lon="6.59924">
        <ele>1573.4</ele>
        <time>2022-08-28T15:08:04+0200</time>
      </trkpt>
      <trkpt lat="44.91721" lon="6.59916">
        <ele>1573.8</ele>
        <time>2022-08-28T15:08:07+0200</time>
      </trkpt>
      <trkpt lat="44.91723" lon="6.59906">
        <ele>1575.5</ele>
        <time>2022-08-28T15:08:09+0200</time>
      </trkpt>
      <trkpt lat="44.91724" lon="6.59897">
        <ele>1577.4</ele>
        <time>2022-08-28T15:08:11+0200</time>
      </trkpt>
      <trkpt lat="44.91726" lon="6.5989">
        <ele>1578.3</ele>
        <time>2022-08-28T15:08:13+0200</time>
      </trkpt>
      <trkpt lat="44.9173" lon="6.59883">
        <ele>1578.4</ele>
        <time>2022-08-28T15:08:16+0200</time>
      </trkpt>
      <trkpt lat="44.91731" lon="6.59875">
        <ele>1579.6</ele>
        <time>2022-08-28T15:08:19+0200</time>
      </trkpt>
      <trkpt lat="44.91733" lon="6.59868">
        <ele>1580.1</ele>
        <time>2022-08-28T15:08:22+0200</time>
      </trkpt>
      <trkpt lat="44.91734" lon="6.59862">
        <ele>1581</ele>
        <time>2022-08-28T15:08:24+0200</time>
      </trkpt>
      <trkpt lat="44.91736" lon="6.59856">
        <ele>1581.6</ele>
        <time>2022-08-28T15:08:27+0200</time>
      </trkpt>
      <trkpt lat="44.91739" lon="6.5985">
        <ele>1581.8</ele>
        <time>2022-08-28T15:08:30+0200</time>
      </trkpt>
      <trkpt lat="44.91741" lon="6.59843">
        <ele>1582.6</ele>
        <time>2022-08-28T15:08:32+0200</time>
      </trkpt>
      <trkpt lat="44.91743" lon="6.59836">
        <ele>1583.3</ele>
        <time>2022-08-28T15:08:35+0200</time>
      </trkpt>
      <trkpt lat="44.91744" lon="6.59829">
        <ele>1584.2</ele>
        <time>2022-08-28T15:08:37+0200</time>
      </trkpt>
      <trkpt lat="44.91745" lon="6.59822">
        <ele>1585.3</ele>
        <time>2022-08-28T15:08:39+0200</time>
      </trkpt>
      <trkpt lat="44.91746" lon="6.59814">
        <ele>1586.1</ele>
        <time>2022-08-28T15:08:42+0200</time>
      </trkpt>
      <trkpt lat="44.9175" lon="6.59806">
        <ele>1586</ele>
        <time>2022-08-28T15:08:44+0200</time>
      </trkpt>
      <trkpt lat="44.91752" lon="6.59801">
        <ele>1586.5</ele>
        <time>2022-08-28T15:08:46+0200</time>
      </trkpt>
      <trkpt lat="44.91755" lon="6.59794">
        <ele>1587</ele>
        <time>2022-08-28T15:08:48+0200</time>
      </trkpt>
      <trkpt lat="44.91759" lon="6.59786">
        <ele>1587.4</ele>
        <time>2022-08-28T15:08:51+0200</time>
      </trkpt>
      <trkpt lat="44.91761" lon="6.59779">
        <ele>1588.3</ele>
        <time>2022-08-28T15:08:54+0200</time>
      </trkpt>
      <trkpt lat="44.91764" lon="6.59775">
        <ele>1588.2</ele>
        <time>2022-08-28T15:08:57+0200</time>
      </trkpt>
      <trkpt lat="44.91769" lon="6.5977">
        <ele>1588.1</ele>
        <time>2022-08-28T15:09:00+0200</time>
      </trkpt>
      <trkpt lat="44.91772" lon="6.59765">
        <ele>1588.5</ele>
        <time>2022-08-28T15:09:04+0200</time>
      </trkpt>
      <trkpt lat="44.91777" lon="6.59762">
        <ele>1587.8</ele>
        <time>2022-08-28T15:09:06+0200</time>
      </trkpt>
      <trkpt lat="44.91781" lon="6.59754">
        <ele>1588.8</ele>
        <time>2022-08-28T15:09:09+0200</time>
      </trkpt>
      <trkpt lat="44.91785" lon="6.59749">
        <ele>1589.4</ele>
        <time>2022-08-28T15:09:11+0200</time>
      </trkpt>
      <trkpt lat="44.91788" lon="6.59744">
        <ele>1590.6</ele>
        <time>2022-08-28T15:09:13+0200</time>
      </trkpt>
      <trkpt lat="44.91791" lon="6.59739">
        <ele>1591.7</ele>
        <time>2022-08-28T15:09:15+0200</time>
      </trkpt>
      <trkpt lat="44.91796" lon="6.59734">
        <ele>1592.1</ele>
        <time>2022-08-28T15:09:17+0200</time>
      </trkpt>
      <trkpt lat="44.918" lon="6.59729">
        <ele>1593.2</ele>
        <time>2022-08-28T15:09:19+0200</time>
      </trkpt>
      <trkpt lat="44.91801" lon="6.59721">
        <ele>1595.4</ele>
        <time>2022-08-28T15:09:21+0200</time>
      </trkpt>
      <trkpt lat="44.91798" lon="6.59718">
        <ele>1598</ele>
        <time>2022-08-28T15:09:24+0200</time>
      </trkpt>
      <trkpt lat="44.91797" lon="6.5971">
        <ele>1601.3</ele>
        <time>2022-08-28T15:09:27+0200</time>
      </trkpt>
      <trkpt lat="44.91795" lon="6.59703">
        <ele>1605</ele>
        <time>2022-08-28T15:09:30+0200</time>
      </trkpt>
      <trkpt lat="44.9179" lon="6.597">
        <ele>1607.5</ele>
        <time>2022-08-28T15:09:35+0200</time>
      </trkpt>
      <trkpt lat="44.91785" lon="6.59702">
        <ele>1608.4</ele>
        <time>2022-08-28T15:09:41+0200</time>
      </trkpt>
      <trkpt lat="44.91779" lon="6.59704">
        <ele>1608.9</ele>
        <time>2022-08-28T15:09:45+0200</time>
      </trkpt>
      <trkpt lat="44.91774" lon="6.59706">
        <ele>1610.1</ele>
        <time>2022-08-28T15:09:48+0200</time>
      </trkpt>
      <trkpt lat="44.91768" lon="6.59709">
        <ele>1610.9</ele>
        <time>2022-08-28T15:09:51+0200</time>
      </trkpt>
      <trkpt lat="44.91763" lon="6.5971">
        <ele>1611.8</ele>
        <time>2022-08-28T15:09:54+0200</time>
      </trkpt>
      <trkpt lat="44.91757" lon="6.59712">
        <ele>1613.2</ele>
        <time>2022-08-28T15:09:57+0200</time>
      </trkpt>
      <trkpt lat="44.91751" lon="6.59715">
        <ele>1614.2</ele>
        <time>2022-08-28T15:09:59+0200</time>
      </trkpt>
      <trkpt lat="44.91746" lon="6.59717">
        <ele>1615.3</ele>
        <time>2022-08-28T15:10:01+0200</time>
      </trkpt>
      <trkpt lat="44.91741" lon="6.59717">
        <ele>1616.9</ele>
        <time>2022-08-28T15:10:03+0200</time>
      </trkpt>
      <trkpt lat="44.91735" lon="6.59719">
        <ele>1618.1</ele>
        <time>2022-08-28T15:10:05+0200</time>
      </trkpt>
      <trkpt lat="44.9173" lon="6.59722">
        <ele>1619.1</ele>
        <time>2022-08-28T15:10:07+0200</time>
      </trkpt>
      <trkpt lat="44.91725" lon="6.59725">
        <ele>1619.9</ele>
        <time>2022-08-28T15:10:09+0200</time>
      </trkpt>
      <trkpt lat="44.91721" lon="6.59729">
        <ele>1620.3</ele>
        <time>2022-08-28T15:10:12+0200</time>
      </trkpt>
      <trkpt lat="44.91716" lon="6.59732">
        <ele>1621.1</ele>
        <time>2022-08-28T15:10:14+0200</time>
      </trkpt>
      <trkpt lat="44.91712" lon="6.5974">
        <ele>1620.7</ele>
        <time>2022-08-28T15:10:17+0200</time>
      </trkpt>
      <trkpt lat="44.91709" lon="6.59747">
        <ele>1619.7</ele>
        <time>2022-08-28T15:10:19+0200</time>
      </trkpt>
      <trkpt lat="44.91706" lon="6.59753">
        <ele>1619.5</ele>
        <time>2022-08-28T15:10:21+0200</time>
      </trkpt>
      <trkpt lat="44.91702" lon="6.59759">
        <ele>1619.7</ele>
        <time>2022-08-28T15:10:23+0200</time>
      </trkpt>
      <trkpt lat="44.91697" lon="6.59765">
        <ele>1620.7</ele>
        <time>2022-08-28T15:10:25+0200</time>
      </trkpt>
      <trkpt lat="44.91694" lon="6.5977">
        <ele>1621.3</ele>
        <time>2022-08-28T15:10:27+0200</time>
      </trkpt>
      <trkpt lat="44.9169" lon="6.59778">
        <ele>1621.5</ele>
        <time>2022-08-28T15:10:30+0200</time>
      </trkpt>
      <trkpt lat="44.91687" lon="6.59784">
        <ele>1621.5</ele>
        <time>2022-08-28T15:10:32+0200</time>
      </trkpt>
      <trkpt lat="44.91683" lon="6.59789">
        <ele>1622</ele>
        <time>2022-08-28T15:10:34+0200</time>
      </trkpt>
      <trkpt lat="44.91678" lon="6.59796">
        <ele>1622.3</ele>
        <time>2022-08-28T15:10:37+0200</time>
      </trkpt>
      <trkpt lat="44.91675" lon="6.59801">
        <ele>1622.6</ele>
        <time>2022-08-28T15:10:39+0200</time>
      </trkpt>
      <trkpt lat="44.91674" lon="6.59807">
        <ele>1621.4</ele>
        <time>2022-08-28T15:10:41+0200</time>
      </trkpt>
      <trkpt lat="44.9167" lon="6.59813">
        <ele>1621.3</ele>
        <time>2022-08-28T15:10:44+0200</time>
      </trkpt>
      <trkpt lat="44.91665" lon="6.59817">
        <ele>1622.3</ele>
        <time>2022-08-28T15:10:47+0200</time>
      </trkpt>
      <trkpt lat="44.9166" lon="6.59822">
        <ele>1622.4</ele>
        <time>2022-08-28T15:10:50+0200</time>
      </trkpt>
      <trkpt lat="44.91654" lon="6.59824">
        <ele>1623.7</ele>
        <time>2022-08-28T15:10:52+0200</time>
      </trkpt>
      <trkpt lat="44.9165" lon="6.59828">
        <ele>1624.3</ele>
        <time>2022-08-28T15:10:55+0200</time>
      </trkpt>
      <trkpt lat="44.91645" lon="6.5983">
        <ele>1625.1</ele>
        <time>2022-08-28T15:10:57+0200</time>
      </trkpt>
      <trkpt lat="44.91639" lon="6.59833">
        <ele>1625.9</ele>
        <time>2022-08-28T15:11:00+0200</time>
      </trkpt>
      <trkpt lat="44.91633" lon="6.59837">
        <ele>1626.5</ele>
        <time>2022-08-28T15:11:02+0200</time>
      </trkpt>
      <trkpt lat="44.91629" lon="6.59842">
        <ele>1626.3</ele>
        <time>2022-08-28T15:11:05+0200</time>
      </trkpt>
      <trkpt lat="44.91624" lon="6.59847">
        <ele>1626.5</ele>
        <time>2022-08-28T15:11:08+0200</time>
      </trkpt>
      <trkpt lat="44.91619" lon="6.59848">
        <ele>1627.6</ele>
        <time>2022-08-28T15:11:10+0200</time>
      </trkpt>
      <trkpt lat="44.91613" lon="6.59852">
        <ele>1628.3</ele>
        <time>2022-08-28T15:11:12+0200</time>
      </trkpt>
      <trkpt lat="44.91606" lon="6.59855">
        <ele>1630</ele>
        <time>2022-08-28T15:11:14+0200</time>
      </trkpt>
      <trkpt lat="44.91599" lon="6.59856">
        <ele>1632.3</ele>
        <time>2022-08-28T15:11:16+0200</time>
      </trkpt>
      <trkpt lat="44.91594" lon="6.59861">
        <ele>1632.9</ele>
        <time>2022-08-28T15:11:19+0200</time>
      </trkpt>
      <trkpt lat="44.9159" lon="6.59868">
        <ele>1632.1</ele>
        <time>2022-08-28T15:11:22+0200</time>
      </trkpt>
      <trkpt lat="44.91586" lon="6.59876">
        <ele>1631.2</ele>
        <time>2022-08-28T15:11:25+0200</time>
      </trkpt>
      <trkpt lat="44.91581" lon="6.5988">
        <ele>1631.8</ele>
        <time>2022-08-28T15:11:27+0200</time>
      </trkpt>
      <trkpt lat="44.91577" lon="6.59887">
        <ele>1631.4</ele>
        <time>2022-08-28T15:11:29+0200</time>
      </trkpt>
      <trkpt lat="44.91571" lon="6.5989">
        <ele>1632.9</ele>
        <time>2022-08-28T15:11:31+0200</time>
      </trkpt>
      <trkpt lat="44.91568" lon="6.59894">
        <ele>1633.2</ele>
        <time>2022-08-28T15:11:33+0200</time>
      </trkpt>
      <trkpt lat="44.91562" lon="6.599">
        <ele>1633.6</ele>
        <time>2022-08-28T15:11:36+0200</time>
      </trkpt>
      <trkpt lat="44.91557" lon="6.59905">
        <ele>1634</ele>
        <time>2022-08-28T15:11:38+0200</time>
      </trkpt>
      <trkpt lat="44.91551" lon="6.5991">
        <ele>1634.9</ele>
        <time>2022-08-28T15:11:41+0200</time>
      </trkpt>
      <trkpt lat="44.91544" lon="6.59913">
        <ele>1636.1</ele>
        <time>2022-08-28T15:11:43+0200</time>
      </trkpt>
      <trkpt lat="44.91539" lon="6.59915">
        <ele>1637.4</ele>
        <time>2022-08-28T15:11:45+0200</time>
      </trkpt>
      <trkpt lat="44.91534" lon="6.59919">
        <ele>1638.2</ele>
        <time>2022-08-28T15:11:47+0200</time>
      </trkpt>
      <trkpt lat="44.91528" lon="6.59923">
        <ele>1638.8</ele>
        <time>2022-08-28T15:11:49+0200</time>
      </trkpt>
      <trkpt lat="44.91524" lon="6.59927">
        <ele>1638.7</ele>
        <time>2022-08-28T15:11:51+0200</time>
      </trkpt>
      <trkpt lat="44.9152" lon="6.59933">
        <ele>1638.2</ele>
        <time>2022-08-28T15:11:53+0200</time>
      </trkpt>
      <trkpt lat="44.91515" lon="6.59937">
        <ele>1638.3</ele>
        <time>2022-08-28T15:11:57+0200</time>
      </trkpt>
      <trkpt lat="44.91512" lon="6.59931">
        <ele>1641.1</ele>
        <time>2022-08-28T15:12:03+0200</time>
      </trkpt>
      <trkpt lat="44.91517" lon="6.59929">
        <ele>1640.4</ele>
        <time>2022-08-28T15:12:08+0200</time>
      </trkpt>
      <trkpt lat="44.91523" lon="6.59926">
        <ele>1639.6</ele>
        <time>2022-08-28T15:12:13+0200</time>
      </trkpt>
      <trkpt lat="44.91527" lon="6.59921">
        <ele>1639.9</ele>
        <time>2022-08-28T15:12:16+0200</time>
      </trkpt>
      <trkpt lat="44.91531" lon="6.59917">
        <ele>1639.6</ele>
        <time>2022-08-28T15:12:19+0200</time>
      </trkpt>
      <trkpt lat="44.91535" lon="6.59911">
        <ele>1640.3</ele>
        <time>2022-08-28T15:12:21+0200</time>
      </trkpt>
      <trkpt lat="44.91539" lon="6.59905">
        <ele>1640.7</ele>
        <time>2022-08-28T15:12:24+0200</time>
      </trkpt>
      <trkpt lat="44.91544" lon="6.599">
        <ele>1640.7</ele>
        <time>2022-08-28T15:12:27+0200</time>
      </trkpt>
      <trkpt lat="44.91548" lon="6.59892">
        <ele>1641.6</ele>
        <time>2022-08-28T15:12:29+0200</time>
      </trkpt>
      <trkpt lat="44.91551" lon="6.59883">
        <ele>1643.5</ele>
        <time>2022-08-28T15:12:31+0200</time>
      </trkpt>
      <trkpt lat="44.91554" lon="6.59876">
        <ele>1644.7</ele>
        <time>2022-08-28T15:12:33+0200</time>
      </trkpt>
      <trkpt lat="44.91557" lon="6.59871">
        <ele>1645.5</ele>
        <time>2022-08-28T15:12:35+0200</time>
      </trkpt>
      <trkpt lat="44.91559" lon="6.59864">
        <ele>1646.7</ele>
        <time>2022-08-28T15:12:37+0200</time>
      </trkpt>
      <trkpt lat="44.91561" lon="6.59858">
        <ele>1647.5</ele>
        <time>2022-08-28T15:12:39+0200</time>
      </trkpt>
      <trkpt lat="44.91566" lon="6.59853">
        <ele>1647.3</ele>
        <time>2022-08-28T15:12:41+0200</time>
      </trkpt>
      <trkpt lat="44.9157" lon="6.59848">
        <ele>1647</ele>
        <time>2022-08-28T15:12:44+0200</time>
      </trkpt>
      <trkpt lat="44.91574" lon="6.59843">
        <ele>1647</ele>
        <time>2022-08-28T15:12:47+0200</time>
      </trkpt>
      <trkpt lat="44.91577" lon="6.59836">
        <ele>1647.9</ele>
        <time>2022-08-28T15:12:50+0200</time>
      </trkpt>
      <trkpt lat="44.91583" lon="6.59832">
        <ele>1646.9</ele>
        <time>2022-08-28T15:12:53+0200</time>
      </trkpt>
      <trkpt lat="44.91587" lon="6.59827">
        <ele>1646.8</ele>
        <time>2022-08-28T15:12:55+0200</time>
      </trkpt>
      <trkpt lat="44.91591" lon="6.59823">
        <ele>1646.7</ele>
        <time>2022-08-28T15:12:57+0200</time>
      </trkpt>
      <trkpt lat="44.91596" lon="6.59819">
        <ele>1645.9</ele>
        <time>2022-08-28T15:13:00+0200</time>
      </trkpt>
      <trkpt lat="44.91603" lon="6.59815">
        <ele>1645.2</ele>
        <time>2022-08-28T15:13:03+0200</time>
      </trkpt>
      <trkpt lat="44.91608" lon="6.59809">
        <ele>1645.2</ele>
        <time>2022-08-28T15:13:05+0200</time>
      </trkpt>
      <trkpt lat="44.91612" lon="6.59806">
        <ele>1644.5</ele>
        <time>2022-08-28T15:13:07+0200</time>
      </trkpt>
      <trkpt lat="44.91616" lon="6.59802">
        <ele>1644.6</ele>
        <time>2022-08-28T15:13:09+0200</time>
      </trkpt>
      <trkpt lat="44.91621" lon="6.59798">
        <ele>1644.6</ele>
        <time>2022-08-28T15:13:11+0200</time>
      </trkpt>
      <trkpt lat="44.91625" lon="6.59795">
        <ele>1644</ele>
        <time>2022-08-28T15:13:13+0200</time>
      </trkpt>
      <trkpt lat="44.91629" lon="6.59788">
        <ele>1644.8</ele>
        <time>2022-08-28T15:13:15+0200</time>
      </trkpt>
      <trkpt lat="44.91633" lon="6.59784">
        <ele>1645.1</ele>
        <time>2022-08-28T15:13:17+0200</time>
      </trkpt>
      <trkpt lat="44.91636" lon="6.59777">
        <ele>1646.3</ele>
        <time>2022-08-28T15:13:19+0200</time>
      </trkpt>
      <trkpt lat="44.9164" lon="6.59769">
        <ele>1647.3</ele>
        <time>2022-08-28T15:13:21+0200</time>
      </trkpt>
      <trkpt lat="44.91642" lon="6.59763">
        <ele>1648.2</ele>
        <time>2022-08-28T15:13:23+0200</time>
      </trkpt>
      <trkpt lat="44.91645" lon="6.59757">
        <ele>1649</ele>
        <time>2022-08-28T15:13:25+0200</time>
      </trkpt>
      <trkpt lat="44.91648" lon="6.59749">
        <ele>1650</ele>
        <time>2022-08-28T15:13:27+0200</time>
      </trkpt>
      <trkpt lat="44.91651" lon="6.59741">
        <ele>1651</ele>
        <time>2022-08-28T15:13:30+0200</time>
      </trkpt>
      <trkpt lat="44.91653" lon="6.59735">
        <ele>1652.2</ele>
        <time>2022-08-28T15:13:32+0200</time>
      </trkpt>
      <trkpt lat="44.91655" lon="6.59727">
        <ele>1653.1</ele>
        <time>2022-08-28T15:13:35+0200</time>
      </trkpt>
      <trkpt lat="44.91655" lon="6.59721">
        <ele>1655.3</ele>
        <time>2022-08-28T15:13:37+0200</time>
      </trkpt>
      <trkpt lat="44.91656" lon="6.59713">
        <ele>1656.8</ele>
        <time>2022-08-28T15:13:39+0200</time>
      </trkpt>
      <trkpt lat="44.91656" lon="6.59706">
        <ele>1658.3</ele>
        <time>2022-08-28T15:13:41+0200</time>
      </trkpt>
      <trkpt lat="44.91657" lon="6.59696">
        <ele>1660.4</ele>
        <time>2022-08-28T15:13:43+0200</time>
      </trkpt>
      <trkpt lat="44.91656" lon="6.59689">
        <ele>1663.2</ele>
        <time>2022-08-28T15:13:45+0200</time>
      </trkpt>
      <trkpt lat="44.91657" lon="6.59681">
        <ele>1664.7</ele>
        <time>2022-08-28T15:13:47+0200</time>
      </trkpt>
      <trkpt lat="44.9166" lon="6.59676">
        <ele>1664.8</ele>
        <time>2022-08-28T15:13:50+0200</time>
      </trkpt>
      <trkpt lat="44.91661" lon="6.59668">
        <ele>1665.8</ele>
        <time>2022-08-28T15:13:52+0200</time>
      </trkpt>
      <trkpt lat="44.91665" lon="6.59662">
        <ele>1665.4</ele>
        <time>2022-08-28T15:13:55+0200</time>
      </trkpt>
      <trkpt lat="44.91669" lon="6.59658">
        <ele>1664.3</ele>
        <time>2022-08-28T15:14:02+0200</time>
      </trkpt>
      <trkpt lat="44.91675" lon="6.59654">
        <ele>1663.1</ele>
        <time>2022-08-28T15:14:09+0200</time>
      </trkpt>
      <trkpt lat="44.9168" lon="6.59653">
        <ele>1661.7</ele>
        <time>2022-08-28T15:14:10+0200</time>
      </trkpt>
      <trkpt lat="44.91688" lon="6.59648">
        <ele>1660.2</ele>
        <time>2022-08-28T15:14:12+0200</time>
      </trkpt>
      <trkpt lat="44.91694" lon="6.59644">
        <ele>1659.5</ele>
        <time>2022-08-28T15:14:14+0200</time>
      </trkpt>
      <trkpt lat="44.917" lon="6.59635">
        <ele>1661.8</ele>
        <time>2022-08-28T15:14:16+0200</time>
      </trkpt>
      <trkpt lat="44.91705" lon="6.59625">
        <ele>1664.5</ele>
        <time>2022-08-28T15:14:18+0200</time>
      </trkpt>
      <trkpt lat="44.9171" lon="6.59617">
        <ele>1666.5</ele>
        <time>2022-08-28T15:14:20+0200</time>
      </trkpt>
      <trkpt lat="44.91714" lon="6.59614">
        <ele>1667.2</ele>
        <time>2022-08-28T15:14:22+0200</time>
      </trkpt>
      <trkpt lat="44.91718" lon="6.59608">
        <ele>1668.1</ele>
        <time>2022-08-28T15:14:25+0200</time>
      </trkpt>
      <trkpt lat="44.91721" lon="6.59603">
        <ele>1669.4</ele>
        <time>2022-08-28T15:14:27+0200</time>
      </trkpt>
      <trkpt lat="44.91727" lon="6.59599">
        <ele>1669.3</ele>
        <time>2022-08-28T15:14:30+0200</time>
      </trkpt>
      <trkpt lat="44.9173" lon="6.59594">
        <ele>1670.2</ele>
        <time>2022-08-28T15:14:32+0200</time>
      </trkpt>
      <trkpt lat="44.91735" lon="6.59587">
        <ele>1671.2</ele>
        <time>2022-08-28T15:14:34+0200</time>
      </trkpt>
      <trkpt lat="44.91739" lon="6.59578">
        <ele>1673</ele>
        <time>2022-08-28T15:14:36+0200</time>
      </trkpt>
      <trkpt lat="44.91742" lon="6.59573">
        <ele>1673.8</ele>
        <time>2022-08-28T15:14:38+0200</time>
      </trkpt>
      <trkpt lat="44.91747" lon="6.59567">
        <ele>1674.5</ele>
        <time>2022-08-28T15:14:41+0200</time>
      </trkpt>
      <trkpt lat="44.91751" lon="6.59562">
        <ele>1675.3</ele>
        <time>2022-08-28T15:14:43+0200</time>
      </trkpt>
      <trkpt lat="44.91756" lon="6.59558">
        <ele>1675.6</ele>
        <time>2022-08-28T15:14:45+0200</time>
      </trkpt>
      <trkpt lat="44.91762" lon="6.59557">
        <ele>1674.4</ele>
        <time>2022-08-28T15:14:48+0200</time>
      </trkpt>
      <trkpt lat="44.91767" lon="6.59553">
        <ele>1674.6</ele>
        <time>2022-08-28T15:14:50+0200</time>
      </trkpt>
      <trkpt lat="44.91773" lon="6.59549">
        <ele>1675.3</ele>
        <time>2022-08-28T15:14:53+0200</time>
      </trkpt>
      <trkpt lat="44.91777" lon="6.59543">
        <ele>1676.6</ele>
        <time>2022-08-28T15:14:55+0200</time>
      </trkpt>
      <trkpt lat="44.91783" lon="6.59541">
        <ele>1676.8</ele>
        <time>2022-08-28T15:14:57+0200</time>
      </trkpt>
      <trkpt lat="44.91787" lon="6.59538">
        <ele>1677.5</ele>
        <time>2022-08-28T15:14:59+0200</time>
      </trkpt>
      <trkpt lat="44.91791" lon="6.59535">
        <ele>1678.1</ele>
        <time>2022-08-28T15:15:01+0200</time>
      </trkpt>
      <trkpt lat="44.91796" lon="6.59533">
        <ele>1678.3</ele>
        <time>2022-08-28T15:15:03+0200</time>
      </trkpt>
      <trkpt lat="44.918" lon="6.59529">
        <ele>1679.4</ele>
        <time>2022-08-28T15:15:05+0200</time>
      </trkpt>
      <trkpt lat="44.91804" lon="6.59522">
        <ele>1681.3</ele>
        <time>2022-08-28T15:15:08+0200</time>
      </trkpt>
      <trkpt lat="44.91809" lon="6.5952">
        <ele>1681.6</ele>
        <time>2022-08-28T15:15:10+0200</time>
      </trkpt>
      <trkpt lat="44.91814" lon="6.59515">
        <ele>1682.3</ele>
        <time>2022-08-28T15:15:12+0200</time>
      </trkpt>
      <trkpt lat="44.91818" lon="6.59512">
        <ele>1683</ele>
        <time>2022-08-28T15:15:14+0200</time>
      </trkpt>
      <trkpt lat="44.91823" lon="6.59507">
        <ele>1683.6</ele>
        <time>2022-08-28T15:15:17+0200</time>
      </trkpt>
      <trkpt lat="44.91828" lon="6.59503">
        <ele>1684.1</ele>
        <time>2022-08-28T15:15:19+0200</time>
      </trkpt>
      <trkpt lat="44.91833" lon="6.595">
        <ele>1684.2</ele>
        <time>2022-08-28T15:15:22+0200</time>
      </trkpt>
      <trkpt lat="44.91837" lon="6.59496">
        <ele>1683.9</ele>
        <time>2022-08-28T15:15:24+0200</time>
      </trkpt>
      <trkpt lat="44.91842" lon="6.59492">
        <ele>1683.2</ele>
        <time>2022-08-28T15:15:26+0200</time>
      </trkpt>
      <trkpt lat="44.91847" lon="6.59486">
        <ele>1683.3</ele>
        <time>2022-08-28T15:15:28+0200</time>
      </trkpt>
      <trkpt lat="44.91852" lon="6.59479">
        <ele>1683.5</ele>
        <time>2022-08-28T15:15:30+0200</time>
      </trkpt>
      <trkpt lat="44.91854" lon="6.59472">
        <ele>1684.2</ele>
        <time>2022-08-28T15:15:32+0200</time>
      </trkpt>
      <trkpt lat="44.91858" lon="6.59464">
        <ele>1684.7</ele>
        <time>2022-08-28T15:15:34+0200</time>
      </trkpt>
      <trkpt lat="44.91862" lon="6.59455">
        <ele>1685.7</ele>
        <time>2022-08-28T15:15:36+0200</time>
      </trkpt>
      <trkpt lat="44.91865" lon="6.59446">
        <ele>1686.4</ele>
        <time>2022-08-28T15:15:38+0200</time>
      </trkpt>
      <trkpt lat="44.91868" lon="6.59437">
        <ele>1687.1</ele>
        <time>2022-08-28T15:15:40+0200</time>
      </trkpt>
      <trkpt lat="44.91871" lon="6.59431">
        <ele>1687</ele>
        <time>2022-08-28T15:15:42+0200</time>
      </trkpt>
      <trkpt lat="44.91874" lon="6.59422">
        <ele>1687.7</ele>
        <time>2022-08-28T15:15:44+0200</time>
      </trkpt>
      <trkpt lat="44.91877" lon="6.59415">
        <ele>1688.2</ele>
        <time>2022-08-28T15:15:46+0200</time>
      </trkpt>
      <trkpt lat="44.9188" lon="6.59409">
        <ele>1688.6</ele>
        <time>2022-08-28T15:15:48+0200</time>
      </trkpt>
      <trkpt lat="44.91881" lon="6.59403">
        <ele>1689.6</ele>
        <time>2022-08-28T15:15:50+0200</time>
      </trkpt>
      <trkpt lat="44.91882" lon="6.59392">
        <ele>1691.5</ele>
        <time>2022-08-28T15:15:52+0200</time>
      </trkpt>
      <trkpt lat="44.91884" lon="6.59384">
        <ele>1692.9</ele>
        <time>2022-08-28T15:15:54+0200</time>
      </trkpt>
      <trkpt lat="44.91886" lon="6.59377">
        <ele>1693.9</ele>
        <time>2022-08-28T15:15:56+0200</time>
      </trkpt>
      <trkpt lat="44.9189" lon="6.5937">
        <ele>1694.7</ele>
        <time>2022-08-28T15:15:59+0200</time>
      </trkpt>
      <trkpt lat="44.91889" lon="6.59363">
        <ele>1696.4</ele>
        <time>2022-08-28T15:16:03+0200</time>
      </trkpt>
      <trkpt lat="44.91892" lon="6.59357">
        <ele>1697.2</ele>
        <time>2022-08-28T15:16:06+0200</time>
      </trkpt>
      <trkpt lat="44.91894" lon="6.59349">
        <ele>1698.5</ele>
        <time>2022-08-28T15:16:08+0200</time>
      </trkpt>
      <trkpt lat="44.91897" lon="6.59342">
        <ele>1699.3</ele>
        <time>2022-08-28T15:16:10+0200</time>
      </trkpt>
      <trkpt lat="44.91899" lon="6.59335">
        <ele>1700.5</ele>
        <time>2022-08-28T15:16:12+0200</time>
      </trkpt>
      <trkpt lat="44.91898" lon="6.59327">
        <ele>1702.5</ele>
        <time>2022-08-28T15:16:15+0200</time>
      </trkpt>
      <trkpt lat="44.91896" lon="6.5932">
        <ele>1704.4</ele>
        <time>2022-08-28T15:16:18+0200</time>
      </trkpt>
      <trkpt lat="44.91891" lon="6.59317">
        <ele>1706.1</ele>
        <time>2022-08-28T15:16:21+0200</time>
      </trkpt>
      <trkpt lat="44.91885" lon="6.59317">
        <ele>1707.8</ele>
        <time>2022-08-28T15:16:24+0200</time>
      </trkpt>
      <trkpt lat="44.9188" lon="6.59316">
        <ele>1709.6</ele>
        <time>2022-08-28T15:16:28+0200</time>
      </trkpt>
      <trkpt lat="44.91875" lon="6.59319">
        <ele>1710.4</ele>
        <time>2022-08-28T15:16:31+0200</time>
      </trkpt>
      <trkpt lat="44.91869" lon="6.59322">
        <ele>1711.5</ele>
        <time>2022-08-28T15:16:34+0200</time>
      </trkpt>
      <trkpt lat="44.91863" lon="6.59324">
        <ele>1713</ele>
        <time>2022-08-28T15:16:37+0200</time>
      </trkpt>
      <trkpt lat="44.91858" lon="6.59328">
        <ele>1713.7</ele>
        <time>2022-08-28T15:16:39+0200</time>
      </trkpt>
      <trkpt lat="44.91853" lon="6.59331">
        <ele>1714.6</ele>
        <time>2022-08-28T15:16:42+0200</time>
      </trkpt>
      <trkpt lat="44.91849" lon="6.59336">
        <ele>1714.7</ele>
        <time>2022-08-28T15:16:45+0200</time>
      </trkpt>
      <trkpt lat="44.91844" lon="6.59339">
        <ele>1715.9</ele>
        <time>2022-08-28T15:16:50+0200</time>
      </trkpt>
      <trkpt lat="44.91839" lon="6.59345">
        <ele>1716.3</ele>
        <time>2022-08-28T15:16:54+0200</time>
      </trkpt>
      <trkpt lat="44.91834" lon="6.59349">
        <ele>1716.6</ele>
        <time>2022-08-28T15:16:56+0200</time>
      </trkpt>
      <trkpt lat="44.9183" lon="6.59352">
        <ele>1717.6</ele>
        <time>2022-08-28T15:16:58+0200</time>
      </trkpt>
      <trkpt lat="44.91825" lon="6.59356">
        <ele>1718.7</ele>
        <time>2022-08-28T15:17:00+0200</time>
      </trkpt>
      <trkpt lat="44.91821" lon="6.59358">
        <ele>1719.9</ele>
        <time>2022-08-28T15:17:02+0200</time>
      </trkpt>
      <trkpt lat="44.91816" lon="6.59363">
        <ele>1720.4</ele>
        <time>2022-08-28T15:17:04+0200</time>
      </trkpt>
      <trkpt lat="44.91812" lon="6.59366">
        <ele>1721.5</ele>
        <time>2022-08-28T15:17:07+0200</time>
      </trkpt>
      <trkpt lat="44.91807" lon="6.59369">
        <ele>1722.4</ele>
        <time>2022-08-28T15:17:10+0200</time>
      </trkpt>
      <trkpt lat="44.91802" lon="6.59373">
        <ele>1723.4</ele>
        <time>2022-08-28T15:17:12+0200</time>
      </trkpt>
      <trkpt lat="44.91794" lon="6.59376">
        <ele>1725.7</ele>
        <time>2022-08-28T15:17:15+0200</time>
      </trkpt>
      <trkpt lat="44.91791" lon="6.5938">
        <ele>1726.1</ele>
        <time>2022-08-28T15:17:18+0200</time>
      </trkpt>
      <trkpt lat="44.91785" lon="6.59386">
        <ele>1726.7</ele>
        <time>2022-08-28T15:17:22+0200</time>
      </trkpt>
      <trkpt lat="44.91779" lon="6.59389">
        <ele>1728.7</ele>
        <time>2022-08-28T15:17:26+0200</time>
      </trkpt>
      <trkpt lat="44.91773" lon="6.59393">
        <ele>1729.8</ele>
        <time>2022-08-28T15:17:29+0200</time>
      </trkpt>
      <trkpt lat="44.91767" lon="6.59396">
        <ele>1731.2</ele>
        <time>2022-08-28T15:17:31+0200</time>
      </trkpt>
      <trkpt lat="44.91763" lon="6.59401">
        <ele>1731.5</ele>
        <time>2022-08-28T15:17:33+0200</time>
      </trkpt>
      <trkpt lat="44.91759" lon="6.59406">
        <ele>1731.9</ele>
        <time>2022-08-28T15:17:35+0200</time>
      </trkpt>
      <trkpt lat="44.91754" lon="6.5941">
        <ele>1732.5</ele>
        <time>2022-08-28T15:17:38+0200</time>
      </trkpt>
      <trkpt lat="44.91749" lon="6.59413">
        <ele>1733.2</ele>
        <time>2022-08-28T15:17:41+0200</time>
      </trkpt>
      <trkpt lat="44.91756" lon="6.59416">
        <ele>1730.2</ele>
        <time>2022-08-28T15:17:50+0200</time>
      </trkpt>
      <trkpt lat="44.9176" lon="6.59413">
        <ele>1729.6</ele>
        <time>2022-08-28T15:17:54+0200</time>
      </trkpt>
      <trkpt lat="44.91763" lon="6.59408">
        <ele>1729.8</ele>
        <time>2022-08-28T15:17:58+0200</time>
      </trkpt>
      <trkpt lat="44.91765" lon="6.59401">
        <ele>1730.7</ele>
        <time>2022-08-28T15:18:01+0200</time>
      </trkpt>
      <trkpt lat="44.91769" lon="6.59392">
        <ele>1731.7</ele>
        <time>2022-08-28T15:18:04+0200</time>
      </trkpt>
      <trkpt lat="44.91771" lon="6.59384">
        <ele>1732.8</ele>
        <time>2022-08-28T15:18:07+0200</time>
      </trkpt>
      <trkpt lat="44.91774" lon="6.59378">
        <ele>1733.2</ele>
        <time>2022-08-28T15:18:10+0200</time>
      </trkpt>
      <trkpt lat="44.91778" lon="6.59371">
        <ele>1733.5</ele>
        <time>2022-08-28T15:18:13+0200</time>
      </trkpt>
      <trkpt lat="44.91782" lon="6.59365">
        <ele>1733.1</ele>
        <time>2022-08-28T15:18:16+0200</time>
      </trkpt>
      <trkpt lat="44.91787" lon="6.59362">
        <ele>1732.3</ele>
        <time>2022-08-28T15:18:19+0200</time>
      </trkpt>
      <trkpt lat="44.91791" lon="6.59357">
        <ele>1732</ele>
        <time>2022-08-28T15:18:22+0200</time>
      </trkpt>
      <trkpt lat="44.91794" lon="6.5935">
        <ele>1732.6</ele>
        <time>2022-08-28T15:18:25+0200</time>
      </trkpt>
      <trkpt lat="44.91797" lon="6.59345">
        <ele>1732.9</ele>
        <time>2022-08-28T15:18:27+0200</time>
      </trkpt>
      <trkpt lat="44.91798" lon="6.59337">
        <ele>1734.2</ele>
        <time>2022-08-28T15:18:30+0200</time>
      </trkpt>
      <trkpt lat="44.91801" lon="6.59332">
        <ele>1734.5</ele>
        <time>2022-08-28T15:18:33+0200</time>
      </trkpt>
      <trkpt lat="44.91805" lon="6.59325">
        <ele>1734.9</ele>
        <time>2022-08-28T15:18:36+0200</time>
      </trkpt>
      <trkpt lat="44.91807" lon="6.5932">
        <ele>1735.3</ele>
        <time>2022-08-28T15:18:38+0200</time>
      </trkpt>
      <trkpt lat="44.9181" lon="6.59311">
        <ele>1736.3</ele>
        <time>2022-08-28T15:18:41+0200</time>
      </trkpt>
      <trkpt lat="44.91814" lon="6.59304">
        <ele>1736.8</ele>
        <time>2022-08-28T15:18:44+0200</time>
      </trkpt>
      <trkpt lat="44.91816" lon="6.59294">
        <ele>1738.4</ele>
        <time>2022-08-28T15:18:46+0200</time>
      </trkpt>
      <trkpt lat="44.9182" lon="6.59287">
        <ele>1738.8</ele>
        <time>2022-08-28T15:18:49+0200</time>
      </trkpt>
      <trkpt lat="44.91824" lon="6.59281">
        <ele>1739.1</ele>
        <time>2022-08-28T15:18:52+0200</time>
      </trkpt>
      <trkpt lat="44.91827" lon="6.59273">
        <ele>1739.5</ele>
        <time>2022-08-28T15:18:55+0200</time>
      </trkpt>
      <trkpt lat="44.91827" lon="6.59264">
        <ele>1741.6</ele>
        <time>2022-08-28T15:18:57+0200</time>
      </trkpt>
      <trkpt lat="44.9183" lon="6.59259">
        <ele>1741.6</ele>
        <time>2022-08-28T15:18:59+0200</time>
      </trkpt>
      <trkpt lat="44.91832" lon="6.59252">
        <ele>1742.1</ele>
        <time>2022-08-28T15:19:02+0200</time>
      </trkpt>
      <trkpt lat="44.91834" lon="6.59245">
        <ele>1742.8</ele>
        <time>2022-08-28T15:19:04+0200</time>
      </trkpt>
      <trkpt lat="44.91838" lon="6.59238">
        <ele>1742.8</ele>
        <time>2022-08-28T15:19:07+0200</time>
      </trkpt>
      <trkpt lat="44.91838" lon="6.59232">
        <ele>1743.9</ele>
        <time>2022-08-28T15:19:09+0200</time>
      </trkpt>
      <trkpt lat="44.91842" lon="6.59226">
        <ele>1743.8</ele>
        <time>2022-08-28T15:19:13+0200</time>
      </trkpt>
      <trkpt lat="44.91845" lon="6.59219">
        <ele>1744</ele>
        <time>2022-08-28T15:19:16+0200</time>
      </trkpt>
      <trkpt lat="44.91847" lon="6.59211">
        <ele>1745.1</ele>
        <time>2022-08-28T15:19:19+0200</time>
      </trkpt>
      <trkpt lat="44.9185" lon="6.59205">
        <ele>1745.1</ele>
        <time>2022-08-28T15:19:21+0200</time>
      </trkpt>
      <trkpt lat="44.91854" lon="6.592">
        <ele>1744.8</ele>
        <time>2022-08-28T15:19:24+0200</time>
      </trkpt>
      <trkpt lat="44.91858" lon="6.59194">
        <ele>1744.3</ele>
        <time>2022-08-28T15:19:27+0200</time>
      </trkpt>
      <trkpt lat="44.91863" lon="6.59187">
        <ele>1744.4</ele>
        <time>2022-08-28T15:19:30+0200</time>
      </trkpt>
      <trkpt lat="44.91866" lon="6.59182">
        <ele>1744.7</ele>
        <time>2022-08-28T15:19:32+0200</time>
      </trkpt>
      <trkpt lat="44.91867" lon="6.59173">
        <ele>1746.5</ele>
        <time>2022-08-28T15:19:34+0200</time>
      </trkpt>
      <trkpt lat="44.91866" lon="6.59164">
        <ele>1748.9</ele>
        <time>2022-08-28T15:19:36+0200</time>
      </trkpt>
      <trkpt lat="44.91864" lon="6.59159">
        <ele>1750.9</ele>
        <time>2022-08-28T15:19:38+0200</time>
      </trkpt>
      <trkpt lat="44.91859" lon="6.59155">
        <ele>1753.1</ele>
        <time>2022-08-28T15:19:41+0200</time>
      </trkpt>
      <trkpt lat="44.91854" lon="6.59153">
        <ele>1755.3</ele>
        <time>2022-08-28T15:19:44+0200</time>
      </trkpt>
      <trkpt lat="44.91851" lon="6.59147">
        <ele>1757.6</ele>
        <time>2022-08-28T15:19:47+0200</time>
      </trkpt>
      <trkpt lat="44.91845" lon="6.59148">
        <ele>1759.5</ele>
        <time>2022-08-28T15:19:52+0200</time>
      </trkpt>
      <trkpt lat="44.91842" lon="6.59151">
        <ele>1760</ele>
        <time>2022-08-28T15:19:55+0200</time>
      </trkpt>
      <trkpt lat="44.91837" lon="6.59156">
        <ele>1760.6</ele>
        <time>2022-08-28T15:19:58+0200</time>
      </trkpt>
      <trkpt lat="44.91833" lon="6.59161">
        <ele>1761.3</ele>
        <time>2022-08-28T15:20:00+0200</time>
      </trkpt>
      <trkpt lat="44.91829" lon="6.59166">
        <ele>1761.7</ele>
        <time>2022-08-28T15:20:02+0200</time>
      </trkpt>
      <trkpt lat="44.91824" lon="6.5917">
        <ele>1762.7</ele>
        <time>2022-08-28T15:20:04+0200</time>
      </trkpt>
      <trkpt lat="44.91818" lon="6.59176">
        <ele>1763.4</ele>
        <time>2022-08-28T15:20:07+0200</time>
      </trkpt>
      <trkpt lat="44.91814" lon="6.5918">
        <ele>1764</ele>
        <time>2022-08-28T15:20:09+0200</time>
      </trkpt>
      <trkpt lat="44.91809" lon="6.59187">
        <ele>1764.4</ele>
        <time>2022-08-28T15:20:12+0200</time>
      </trkpt>
      <trkpt lat="44.91806" lon="6.59193">
        <ele>1764.2</ele>
        <time>2022-08-28T15:20:14+0200</time>
      </trkpt>
      <trkpt lat="44.918" lon="6.59199">
        <ele>1765.2</ele>
        <time>2022-08-28T15:20:17+0200</time>
      </trkpt>
      <trkpt lat="44.91795" lon="6.59204">
        <ele>1765.9</ele>
        <time>2022-08-28T15:20:19+0200</time>
      </trkpt>
      <trkpt lat="44.9179" lon="6.59209">
        <ele>1767</ele>
        <time>2022-08-28T15:20:21+0200</time>
      </trkpt>
      <trkpt lat="44.91785" lon="6.59213">
        <ele>1768</ele>
        <time>2022-08-28T15:20:24+0200</time>
      </trkpt>
      <trkpt lat="44.9178" lon="6.5922">
        <ele>1768.6</ele>
        <time>2022-08-28T15:20:27+0200</time>
      </trkpt>
      <trkpt lat="44.91775" lon="6.59223">
        <ele>1769.5</ele>
        <time>2022-08-28T15:20:29+0200</time>
      </trkpt>
      <trkpt lat="44.91771" lon="6.59226">
        <ele>1770.5</ele>
        <time>2022-08-28T15:20:31+0200</time>
      </trkpt>
      <trkpt lat="44.91763" lon="6.59228">
        <ele>1772.2</ele>
        <time>2022-08-28T15:20:34+0200</time>
      </trkpt>
      <trkpt lat="44.91759" lon="6.59233">
        <ele>1772.5</ele>
        <time>2022-08-28T15:20:36+0200</time>
      </trkpt>
      <trkpt lat="44.91756" lon="6.5924">
        <ele>1772.6</ele>
        <time>2022-08-28T15:20:38+0200</time>
      </trkpt>
      <trkpt lat="44.91751" lon="6.59245">
        <ele>1773.3</ele>
        <time>2022-08-28T15:20:41+0200</time>
      </trkpt>
      <trkpt lat="44.91748" lon="6.59249">
        <ele>1773.9</ele>
        <time>2022-08-28T15:20:43+0200</time>
      </trkpt>
      <trkpt lat="44.91742" lon="6.59252">
        <ele>1774.8</ele>
        <time>2022-08-28T15:20:45+0200</time>
      </trkpt>
      <trkpt lat="44.91738" lon="6.59255">
        <ele>1775.3</ele>
        <time>2022-08-28T15:20:47+0200</time>
      </trkpt>
      <trkpt lat="44.91732" lon="6.59258">
        <ele>1776.7</ele>
        <time>2022-08-28T15:20:50+0200</time>
      </trkpt>
      <trkpt lat="44.91727" lon="6.59259">
        <ele>1777.8</ele>
        <time>2022-08-28T15:20:52+0200</time>
      </trkpt>
      <trkpt lat="44.91732" lon="6.59266">
        <ele>1775.1</ele>
        <time>2022-08-28T15:20:58+0200</time>
      </trkpt>
      <trkpt lat="44.91736" lon="6.5927">
        <ele>1773.2</ele>
        <time>2022-08-28T15:21:05+0200</time>
      </trkpt>
      <trkpt lat="44.9174" lon="6.59271">
        <ele>1771.5</ele>
        <time>2022-08-28T15:21:09+0200</time>
      </trkpt>
      <trkpt lat="44.91743" lon="6.59264">
        <ele>1772.3</ele>
        <time>2022-08-28T15:21:12+0200</time>
      </trkpt>
      <trkpt lat="44.91747" lon="6.59259">
        <ele>1771.9</ele>
        <time>2022-08-28T15:21:14+0200</time>
      </trkpt>
      <trkpt lat="44.9175" lon="6.59254">
        <ele>1772.2</ele>
        <time>2022-08-28T15:21:16+0200</time>
      </trkpt>
      <trkpt lat="44.91751" lon="6.59246">
        <ele>1773.4</ele>
        <time>2022-08-28T15:21:18+0200</time>
      </trkpt>
      <trkpt lat="44.91751" lon="6.59237">
        <ele>1774.5</ele>
        <time>2022-08-28T15:21:20+0200</time>
      </trkpt>
      <trkpt lat="44.91753" lon="6.59229">
        <ele>1775.1</ele>
        <time>2022-08-28T15:21:22+0200</time>
      </trkpt>
      <trkpt lat="44.91756" lon="6.59223">
        <ele>1775.2</ele>
        <time>2022-08-28T15:21:25+0200</time>
      </trkpt>
      <trkpt lat="44.91758" lon="6.59217">
        <ele>1775.7</ele>
        <time>2022-08-28T15:21:30+0200</time>
      </trkpt>
      <trkpt lat="44.91763" lon="6.59214">
        <ele>1774.8</ele>
        <time>2022-08-28T15:21:32+0200</time>
      </trkpt>
      <trkpt lat="44.91766" lon="6.5921">
        <ele>1774.5</ele>
        <time>2022-08-28T15:21:34+0200</time>
      </trkpt>
      <trkpt lat="44.91771" lon="6.59204">
        <ele>1774.3</ele>
        <time>2022-08-28T15:21:36+0200</time>
      </trkpt>
      <trkpt lat="44.91776" lon="6.592">
        <ele>1773.7</ele>
        <time>2022-08-28T15:21:38+0200</time>
      </trkpt>
      <trkpt lat="44.91782" lon="6.59193">
        <ele>1773</ele>
        <time>2022-08-28T15:21:40+0200</time>
      </trkpt>
      <trkpt lat="44.91784" lon="6.59187">
        <ele>1773.3</ele>
        <time>2022-08-28T15:21:42+0200</time>
      </trkpt>
      <trkpt lat="44.91787" lon="6.59178">
        <ele>1774.4</ele>
        <time>2022-08-28T15:21:44+0200</time>
      </trkpt>
      <trkpt lat="44.91787" lon="6.59166">
        <ele>1776.7</ele>
        <time>2022-08-28T15:21:46+0200</time>
      </trkpt>
      <trkpt lat="44.91789" lon="6.59158">
        <ele>1777.5</ele>
        <time>2022-08-28T15:21:48+0200</time>
      </trkpt>
      <trkpt lat="44.91792" lon="6.59151">
        <ele>1777.6</ele>
        <time>2022-08-28T15:21:50+0200</time>
      </trkpt>
      <trkpt lat="44.91794" lon="6.59143">
        <ele>1778.2</ele>
        <time>2022-08-28T15:21:52+0200</time>
      </trkpt>
      <trkpt lat="44.91797" lon="6.59137">
        <ele>1778.4</ele>
        <time>2022-08-28T15:21:54+0200</time>
      </trkpt>
      <trkpt lat="44.918" lon="6.59129">
        <ele>1778.8</ele>
        <time>2022-08-28T15:21:57+0200</time>
      </trkpt>
      <trkpt lat="44.91801" lon="6.59122">
        <ele>1779.6</ele>
        <time>2022-08-28T15:21:59+0200</time>
      </trkpt>
      <trkpt lat="44.91802" lon="6.59114">
        <ele>1780.7</ele>
        <time>2022-08-28T15:22:01+0200</time>
      </trkpt>
      <trkpt lat="44.91805" lon="6.59103">
        <ele>1781.7</ele>
        <time>2022-08-28T15:22:03+0200</time>
      </trkpt>
      <trkpt lat="44.91807" lon="6.59094">
        <ele>1782.8</ele>
        <time>2022-08-28T15:22:05+0200</time>
      </trkpt>
      <trkpt lat="44.9181" lon="6.59086">
        <ele>1782.9</ele>
        <time>2022-08-28T15:22:07+0200</time>
      </trkpt>
      <trkpt lat="44.91814" lon="6.5908">
        <ele>1782.3</ele>
        <time>2022-08-28T15:22:09+0200</time>
      </trkpt>
      <trkpt lat="44.91817" lon="6.59072">
        <ele>1782.6</ele>
        <time>2022-08-28T15:22:11+0200</time>
      </trkpt>
      <trkpt lat="44.91819" lon="6.59067">
        <ele>1782.6</ele>
        <time>2022-08-28T15:22:13+0200</time>
      </trkpt>
      <trkpt lat="44.91821" lon="6.5906">
        <ele>1782.8</ele>
        <time>2022-08-28T15:22:15+0200</time>
      </trkpt>
      <trkpt lat="44.91824" lon="6.59055">
        <ele>1782.6</ele>
        <time>2022-08-28T15:22:17+0200</time>
      </trkpt>
      <trkpt lat="44.91826" lon="6.59046">
        <ele>1782.8</ele>
        <time>2022-08-28T15:22:19+0200</time>
      </trkpt>
      <trkpt lat="44.91827" lon="6.5904">
        <ele>1782.9</ele>
        <time>2022-08-28T15:22:20+0200</time>
      </trkpt>
      <trkpt lat="44.9183" lon="6.59031">
        <ele>1783.1</ele>
        <time>2022-08-28T15:22:22+0200</time>
      </trkpt>
      <trkpt lat="44.91832" lon="6.59025">
        <ele>1783</ele>
        <time>2022-08-28T15:22:23+0200</time>
      </trkpt>
      <trkpt lat="44.91834" lon="6.59014">
        <ele>1783.8</ele>
        <time>2022-08-28T15:22:25+0200</time>
      </trkpt>
      <trkpt lat="44.91836" lon="6.59007">
        <ele>1783.8</ele>
        <time>2022-08-28T15:22:26+0200</time>
      </trkpt>
      <trkpt lat="44.91838" lon="6.59001">
        <ele>1783.9</ele>
        <time>2022-08-28T15:22:27+0200</time>
      </trkpt>
      <trkpt lat="44.91841" lon="6.58993">
        <ele>1784.2</ele>
        <time>2022-08-28T15:22:29+0200</time>
      </trkpt>
      <trkpt lat="44.91845" lon="6.58983">
        <ele>1784</ele>
        <time>2022-08-28T15:22:31+0200</time>
      </trkpt>
      <trkpt lat="44.91848" lon="6.58975">
        <ele>1783.7</ele>
        <time>2022-08-28T15:22:33+0200</time>
      </trkpt>
      <trkpt lat="44.91851" lon="6.58967">
        <ele>1783.6</ele>
        <time>2022-08-28T15:22:35+0200</time>
      </trkpt>
      <trkpt lat="44.91854" lon="6.5896">
        <ele>1783.4</ele>
        <time>2022-08-28T15:22:37+0200</time>
      </trkpt>
      <trkpt lat="44.91858" lon="6.58953">
        <ele>1782.6</ele>
        <time>2022-08-28T15:22:39+0200</time>
      </trkpt>
      <trkpt lat="44.91858" lon="6.58946">
        <ele>1783.3</ele>
        <time>2022-08-28T15:22:41+0200</time>
      </trkpt>
      <trkpt lat="44.91861" lon="6.58937">
        <ele>1783.4</ele>
        <time>2022-08-28T15:22:43+0200</time>
      </trkpt>
      <trkpt lat="44.91863" lon="6.58927">
        <ele>1783.8</ele>
        <time>2022-08-28T15:22:45+0200</time>
      </trkpt>
      <trkpt lat="44.91864" lon="6.58918">
        <ele>1784.8</ele>
        <time>2022-08-28T15:22:47+0200</time>
      </trkpt>
      <trkpt lat="44.91866" lon="6.58908">
        <ele>1785.8</ele>
        <time>2022-08-28T15:22:49+0200</time>
      </trkpt>
      <trkpt lat="44.91868" lon="6.58898">
        <ele>1786.4</ele>
        <time>2022-08-28T15:22:51+0200</time>
      </trkpt>
      <trkpt lat="44.91871" lon="6.58887">
        <ele>1787.1</ele>
        <time>2022-08-28T15:22:53+0200</time>
      </trkpt>
      <trkpt lat="44.91872" lon="6.58881">
        <ele>1787.3</ele>
        <time>2022-08-28T15:22:54+0200</time>
      </trkpt>
      <trkpt lat="44.91876" lon="6.58872">
        <ele>1787.4</ele>
        <time>2022-08-28T15:22:56+0200</time>
      </trkpt>
      <trkpt lat="44.91877" lon="6.58863">
        <ele>1788</ele>
        <time>2022-08-28T15:22:58+0200</time>
      </trkpt>
      <trkpt lat="44.9188" lon="6.58854">
        <ele>1788.3</ele>
        <time>2022-08-28T15:23:00+0200</time>
      </trkpt>
      <trkpt lat="44.91883" lon="6.58848">
        <ele>1788.3</ele>
        <time>2022-08-28T15:23:02+0200</time>
      </trkpt>
      <trkpt lat="44.91884" lon="6.58838">
        <ele>1789.1</ele>
        <time>2022-08-28T15:23:04+0200</time>
      </trkpt>
      <trkpt lat="44.91886" lon="6.58829">
        <ele>1789.4</ele>
        <time>2022-08-28T15:23:06+0200</time>
      </trkpt>
      <trkpt lat="44.91886" lon="6.5882">
        <ele>1790</ele>
        <time>2022-08-28T15:23:08+0200</time>
      </trkpt>
      <trkpt lat="44.91887" lon="6.58809">
        <ele>1790.5</ele>
        <time>2022-08-28T15:23:10+0200</time>
      </trkpt>
      <trkpt lat="44.91888" lon="6.58803">
        <ele>1790.7</ele>
        <time>2022-08-28T15:23:11+0200</time>
      </trkpt>
      <trkpt lat="44.91888" lon="6.58796">
        <ele>1790.9</ele>
        <time>2022-08-28T15:23:12+0200</time>
      </trkpt>
      <trkpt lat="44.9189" lon="6.58786">
        <ele>1791.3</ele>
        <time>2022-08-28T15:23:14+0200</time>
      </trkpt>
      <trkpt lat="44.91888" lon="6.58779">
        <ele>1792.1</ele>
        <time>2022-08-28T15:23:15+0200</time>
      </trkpt>
      <trkpt lat="44.91888" lon="6.58772">
        <ele>1793</ele>
        <time>2022-08-28T15:23:16+0200</time>
      </trkpt>
      <trkpt lat="44.91888" lon="6.58765">
        <ele>1793.6</ele>
        <time>2022-08-28T15:23:17+0200</time>
      </trkpt>
      <trkpt lat="44.91891" lon="6.58754">
        <ele>1793.8</ele>
        <time>2022-08-28T15:23:19+0200</time>
      </trkpt>
      <trkpt lat="44.91892" lon="6.58743">
        <ele>1794.7</ele>
        <time>2022-08-28T15:23:21+0200</time>
      </trkpt>
      <trkpt lat="44.91893" lon="6.58733">
        <ele>1795.7</ele>
        <time>2022-08-28T15:23:23+0200</time>
      </trkpt>
      <trkpt lat="44.91893" lon="6.58722">
        <ele>1796.9</ele>
        <time>2022-08-28T15:23:25+0200</time>
      </trkpt>
      <trkpt lat="44.91893" lon="6.58715">
        <ele>1797.5</ele>
        <time>2022-08-28T15:23:27+0200</time>
      </trkpt>
      <trkpt lat="44.91893" lon="6.58705">
        <ele>1798.1</ele>
        <time>2022-08-28T15:23:29+0200</time>
      </trkpt>
      <trkpt lat="44.91893" lon="6.58697">
        <ele>1798.6</ele>
        <time>2022-08-28T15:23:31+0200</time>
      </trkpt>
      <trkpt lat="44.91895" lon="6.58688">
        <ele>1799</ele>
        <time>2022-08-28T15:23:33+0200</time>
      </trkpt>
      <trkpt lat="44.91896" lon="6.58681">
        <ele>1799.2</ele>
        <time>2022-08-28T15:23:35+0200</time>
      </trkpt>
      <trkpt lat="44.91897" lon="6.58672">
        <ele>1799.6</ele>
        <time>2022-08-28T15:23:37+0200</time>
      </trkpt>
      <trkpt lat="44.91898" lon="6.58661">
        <ele>1800.4</ele>
        <time>2022-08-28T15:23:39+0200</time>
      </trkpt>
      <trkpt lat="44.91898" lon="6.58653">
        <ele>1801.1</ele>
        <time>2022-08-28T15:23:41+0200</time>
      </trkpt>
      <trkpt lat="44.919" lon="6.58643">
        <ele>1801.6</ele>
        <time>2022-08-28T15:23:44+0200</time>
      </trkpt>
      <trkpt lat="44.91901" lon="6.58634">
        <ele>1802.2</ele>
        <time>2022-08-28T15:23:47+0200</time>
      </trkpt>
      <trkpt lat="44.91903" lon="6.58626">
        <ele>1802.4</ele>
        <time>2022-08-28T15:23:49+0200</time>
      </trkpt>
      <trkpt lat="44.91906" lon="6.58619">
        <ele>1802.3</ele>
        <time>2022-08-28T15:23:51+0200</time>
      </trkpt>
      <trkpt lat="44.91908" lon="6.58611">
        <ele>1802.4</ele>
        <time>2022-08-28T15:23:53+0200</time>
      </trkpt>
      <trkpt lat="44.91909" lon="6.58605">
        <ele>1802.9</ele>
        <time>2022-08-28T15:23:55+0200</time>
      </trkpt>
      <trkpt lat="44.9191" lon="6.58597">
        <ele>1803.5</ele>
        <time>2022-08-28T15:23:57+0200</time>
      </trkpt>
      <trkpt lat="44.91911" lon="6.5859">
        <ele>1804</ele>
        <time>2022-08-28T15:23:59+0200</time>
      </trkpt>
      <trkpt lat="44.91913" lon="6.58583">
        <ele>1804.1</ele>
        <time>2022-08-28T15:24:02+0200</time>
      </trkpt>
      <trkpt lat="44.91915" lon="6.58577">
        <ele>1804.2</ele>
        <time>2022-08-28T15:24:04+0200</time>
      </trkpt>
      <trkpt lat="44.91914" lon="6.5857">
        <ele>1805.1</ele>
        <time>2022-08-28T15:24:07+0200</time>
      </trkpt>
      <trkpt lat="44.91917" lon="6.58562">
        <ele>1805.3</ele>
        <time>2022-08-28T15:24:10+0200</time>
      </trkpt>
      <trkpt lat="44.91919" lon="6.58555">
        <ele>1805.7</ele>
        <time>2022-08-28T15:24:12+0200</time>
      </trkpt>
      <trkpt lat="44.9192" lon="6.58549">
        <ele>1806.2</ele>
        <time>2022-08-28T15:24:14+0200</time>
      </trkpt>
      <trkpt lat="44.91922" lon="6.58541">
        <ele>1806.7</ele>
        <time>2022-08-28T15:24:16+0200</time>
      </trkpt>
      <trkpt lat="44.91923" lon="6.58534">
        <ele>1807.3</ele>
        <time>2022-08-28T15:24:18+0200</time>
      </trkpt>
      <trkpt lat="44.91924" lon="6.58524">
        <ele>1808</ele>
        <time>2022-08-28T15:24:20+0200</time>
      </trkpt>
      <trkpt lat="44.91925" lon="6.58515">
        <ele>1808.7</ele>
        <time>2022-08-28T15:24:22+0200</time>
      </trkpt>
      <trkpt lat="44.91926" lon="6.58508">
        <ele>1809.4</ele>
        <time>2022-08-28T15:24:24+0200</time>
      </trkpt>
      <trkpt lat="44.91927" lon="6.58498">
        <ele>1810</ele>
        <time>2022-08-28T15:24:27+0200</time>
      </trkpt>
      <trkpt lat="44.91927" lon="6.58488">
        <ele>1811.5</ele>
        <time>2022-08-28T15:24:29+0200</time>
      </trkpt>
      <trkpt lat="44.91928" lon="6.58478">
        <ele>1812.8</ele>
        <time>2022-08-28T15:24:31+0200</time>
      </trkpt>
      <trkpt lat="44.91929" lon="6.58468">
        <ele>1814.1</ele>
        <time>2022-08-28T15:24:33+0200</time>
      </trkpt>
      <trkpt lat="44.9193" lon="6.58461">
        <ele>1814.9</ele>
        <time>2022-08-28T15:24:36+0200</time>
      </trkpt>
      <trkpt lat="44.91933" lon="6.58454">
        <ele>1815.4</ele>
        <time>2022-08-28T15:24:38+0200</time>
      </trkpt>
      <trkpt lat="44.91935" lon="6.58448">
        <ele>1816</ele>
        <time>2022-08-28T15:24:40+0200</time>
      </trkpt>
      <trkpt lat="44.91937" lon="6.58441">
        <ele>1816.4</ele>
        <time>2022-08-28T15:24:42+0200</time>
      </trkpt>
      <trkpt lat="44.91939" lon="6.58434">
        <ele>1816.7</ele>
        <time>2022-08-28T15:24:44+0200</time>
      </trkpt>
      <trkpt lat="44.91941" lon="6.58428">
        <ele>1817.2</ele>
        <time>2022-08-28T15:24:46+0200</time>
      </trkpt>
      <trkpt lat="44.91943" lon="6.58421">
        <ele>1817.7</ele>
        <time>2022-08-28T15:24:48+0200</time>
      </trkpt>
      <trkpt lat="44.91947" lon="6.58415">
        <ele>1817.2</ele>
        <time>2022-08-28T15:24:50+0200</time>
      </trkpt>
      <trkpt lat="44.91951" lon="6.58408">
        <ele>1816.2</ele>
        <time>2022-08-28T15:24:53+0200</time>
      </trkpt>
      <trkpt lat="44.91954" lon="6.58401">
        <ele>1815.4</ele>
        <time>2022-08-28T15:24:55+0200</time>
      </trkpt>
      <trkpt lat="44.91957" lon="6.58395">
        <ele>1814.6</ele>
        <time>2022-08-28T15:24:57+0200</time>
      </trkpt>
      <trkpt lat="44.91959" lon="6.58389">
        <ele>1814.1</ele>
        <time>2022-08-28T15:24:59+0200</time>
      </trkpt>
      <trkpt lat="44.91963" lon="6.58384">
        <ele>1813.1</ele>
        <time>2022-08-28T15:25:01+0200</time>
      </trkpt>
      <trkpt lat="44.91965" lon="6.58377">
        <ele>1812.9</ele>
        <time>2022-08-28T15:25:03+0200</time>
      </trkpt>
      <trkpt lat="44.91965" lon="6.58367">
        <ele>1813.4</ele>
        <time>2022-08-28T15:25:05+0200</time>
      </trkpt>
      <trkpt lat="44.91967" lon="6.58359">
        <ele>1813.4</ele>
        <time>2022-08-28T15:25:07+0200</time>
      </trkpt>
      <trkpt lat="44.91968" lon="6.58353">
        <ele>1813.3</ele>
        <time>2022-08-28T15:25:09+0200</time>
      </trkpt>
      <trkpt lat="44.91971" lon="6.58345">
        <ele>1812.6</ele>
        <time>2022-08-28T15:25:11+0200</time>
      </trkpt>
      <trkpt lat="44.91972" lon="6.58338">
        <ele>1812.9</ele>
        <time>2022-08-28T15:25:13+0200</time>
      </trkpt>
      <trkpt lat="44.91973" lon="6.58331">
        <ele>1812.9</ele>
        <time>2022-08-28T15:25:15+0200</time>
      </trkpt>
      <trkpt lat="44.91972" lon="6.58322">
        <ele>1813.5</ele>
        <time>2022-08-28T15:25:17+0200</time>
      </trkpt>
      <trkpt lat="44.9197" lon="6.58311">
        <ele>1815</ele>
        <time>2022-08-28T15:25:19+0200</time>
      </trkpt>
      <trkpt lat="44.91966" lon="6.58299">
        <ele>1817.4</ele>
        <time>2022-08-28T15:25:21+0200</time>
      </trkpt>
      <trkpt lat="44.91963" lon="6.58288">
        <ele>1819.4</ele>
        <time>2022-08-28T15:25:23+0200</time>
      </trkpt>
      <trkpt lat="44.91958" lon="6.58279">
        <ele>1821.9</ele>
        <time>2022-08-28T15:25:25+0200</time>
      </trkpt>
      <trkpt lat="44.91955" lon="6.58272">
        <ele>1823.7</ele>
        <time>2022-08-28T15:25:27+0200</time>
      </trkpt>
      <trkpt lat="44.9195" lon="6.58266">
        <ele>1825.7</ele>
        <time>2022-08-28T15:25:29+0200</time>
      </trkpt>
      <trkpt lat="44.91948" lon="6.58258">
        <ele>1826.6</ele>
        <time>2022-08-28T15:25:31+0200</time>
      </trkpt>
      <trkpt lat="44.91945" lon="6.58249">
        <ele>1827.7</ele>
        <time>2022-08-28T15:25:34+0200</time>
      </trkpt>
      <trkpt lat="44.91945" lon="6.58241">
        <ele>1827.9</ele>
        <time>2022-08-28T15:25:36+0200</time>
      </trkpt>
      <trkpt lat="44.91944" lon="6.58234">
        <ele>1828.4</ele>
        <time>2022-08-28T15:25:38+0200</time>
      </trkpt>
      <trkpt lat="44.91944" lon="6.58226">
        <ele>1828.3</ele>
        <time>2022-08-28T15:25:41+0200</time>
      </trkpt>
      <trkpt lat="44.91944" lon="6.58218">
        <ele>1828.3</ele>
        <time>2022-08-28T15:25:44+0200</time>
      </trkpt>
      <trkpt lat="44.91944" lon="6.58211">
        <ele>1828.5</ele>
        <time>2022-08-28T15:25:46+0200</time>
      </trkpt>
      <trkpt lat="44.91946" lon="6.58202">
        <ele>1828.2</ele>
        <time>2022-08-28T15:25:50+0200</time>
      </trkpt>
      <trkpt lat="44.91949" lon="6.58193">
        <ele>1827.8</ele>
        <time>2022-08-28T15:25:53+0200</time>
      </trkpt>
      <trkpt lat="44.91951" lon="6.58186">
        <ele>1827.7</ele>
        <time>2022-08-28T15:25:56+0200</time>
      </trkpt>
      <trkpt lat="44.91953" lon="6.58179">
        <ele>1827.9</ele>
        <time>2022-08-28T15:25:59+0200</time>
      </trkpt>
      <trkpt lat="44.91955" lon="6.58171">
        <ele>1828.2</ele>
        <time>2022-08-28T15:26:02+0200</time>
      </trkpt>
      <trkpt lat="44.91955" lon="6.58163">
        <ele>1829.1</ele>
        <time>2022-08-28T15:26:05+0200</time>
      </trkpt>
      <trkpt lat="44.91955" lon="6.58157">
        <ele>1830</ele>
        <time>2022-08-28T15:26:07+0200</time>
      </trkpt>
      <trkpt lat="44.91958" lon="6.5815">
        <ele>1830</ele>
        <time>2022-08-28T15:26:10+0200</time>
      </trkpt>
      <trkpt lat="44.9196" lon="6.58142">
        <ele>1830.6</ele>
        <time>2022-08-28T15:26:12+0200</time>
      </trkpt>
      <trkpt lat="44.91962" lon="6.58134">
        <ele>1831.5</ele>
        <time>2022-08-28T15:26:14+0200</time>
      </trkpt>
      <trkpt lat="44.91964" lon="6.58126">
        <ele>1832.6</ele>
        <time>2022-08-28T15:26:16+0200</time>
      </trkpt>
      <trkpt lat="44.91967" lon="6.5812">
        <ele>1832.9</ele>
        <time>2022-08-28T15:26:18+0200</time>
      </trkpt>
      <trkpt lat="44.9197" lon="6.58115">
        <ele>1833.1</ele>
        <time>2022-08-28T15:26:20+0200</time>
      </trkpt>
      <trkpt lat="44.91971" lon="6.58108">
        <ele>1834</ele>
        <time>2022-08-28T15:26:22+0200</time>
      </trkpt>
      <trkpt lat="44.91974" lon="6.58099">
        <ele>1834.8</ele>
        <time>2022-08-28T15:26:25+0200</time>
      </trkpt>
      <trkpt lat="44.91974" lon="6.5809">
        <ele>1836.1</ele>
        <time>2022-08-28T15:26:27+0200</time>
      </trkpt>
      <trkpt lat="44.91976" lon="6.58079">
        <ele>1837.5</ele>
        <time>2022-08-28T15:26:29+0200</time>
      </trkpt>
      <trkpt lat="44.91977" lon="6.58066">
        <ele>1838.4</ele>
        <time>2022-08-28T15:26:31+0200</time>
      </trkpt>
      <trkpt lat="44.91979" lon="6.58057">
        <ele>1838.8</ele>
        <time>2022-08-28T15:26:33+0200</time>
      </trkpt>
      <trkpt lat="44.9198" lon="6.58046">
        <ele>1839.6</ele>
        <time>2022-08-28T15:26:35+0200</time>
      </trkpt>
      <trkpt lat="44.91979" lon="6.58034">
        <ele>1841.2</ele>
        <time>2022-08-28T15:26:37+0200</time>
      </trkpt>
      <trkpt lat="44.91976" lon="6.58025">
        <ele>1842.8</ele>
        <time>2022-08-28T15:26:39+0200</time>
      </trkpt>
      <trkpt lat="44.91976" lon="6.58013">
        <ele>1843.3</ele>
        <time>2022-08-28T15:26:41+0200</time>
      </trkpt>
      <trkpt lat="44.91977" lon="6.58002">
        <ele>1843.5</ele>
        <time>2022-08-28T15:26:43+0200</time>
      </trkpt>
      <trkpt lat="44.91977" lon="6.57992">
        <ele>1844.1</ele>
        <time>2022-08-28T15:26:45+0200</time>
      </trkpt>
      <trkpt lat="44.9198" lon="6.57982">
        <ele>1844.1</ele>
        <time>2022-08-28T15:26:47+0200</time>
      </trkpt>
      <trkpt lat="44.9198" lon="6.57973">
        <ele>1844.6</ele>
        <time>2022-08-28T15:26:50+0200</time>
      </trkpt>
      <trkpt lat="44.91982" lon="6.57965">
        <ele>1844.5</ele>
        <time>2022-08-28T15:26:54+0200</time>
      </trkpt>
      <trkpt lat="44.91978" lon="6.57958">
        <ele>1845.9</ele>
        <time>2022-08-28T15:26:57+0200</time>
      </trkpt>
      <trkpt lat="44.91974" lon="6.57949">
        <ele>1847.3</ele>
        <time>2022-08-28T15:26:59+0200</time>
      </trkpt>
      <trkpt lat="44.91969" lon="6.5794">
        <ele>1848.7</ele>
        <time>2022-08-28T15:27:01+0200</time>
      </trkpt>
      <trkpt lat="44.91965" lon="6.57933">
        <ele>1849.6</ele>
        <time>2022-08-28T15:27:03+0200</time>
      </trkpt>
      <trkpt lat="44.91957" lon="6.57933">
        <ele>1850.9</ele>
        <time>2022-08-28T15:27:05+0200</time>
      </trkpt>
      <trkpt lat="44.91951" lon="6.57936">
        <ele>1851.8</ele>
        <time>2022-08-28T15:27:07+0200</time>
      </trkpt>
      <trkpt lat="44.91945" lon="6.57938">
        <ele>1852.9</ele>
        <time>2022-08-28T15:27:10+0200</time>
      </trkpt>
      <trkpt lat="44.91939" lon="6.57942">
        <ele>1853.5</ele>
        <time>2022-08-28T15:27:12+0200</time>
      </trkpt>
      <trkpt lat="44.91934" lon="6.57948">
        <ele>1854.1</ele>
        <time>2022-08-28T15:27:14+0200</time>
      </trkpt>
      <trkpt lat="44.91929" lon="6.57952">
        <ele>1854.6</ele>
        <time>2022-08-28T15:27:17+0200</time>
      </trkpt>
      <trkpt lat="44.91924" lon="6.57958">
        <ele>1855.1</ele>
        <time>2022-08-28T15:27:19+0200</time>
      </trkpt>
      <trkpt lat="44.91919" lon="6.57962">
        <ele>1855.7</ele>
        <time>2022-08-28T15:27:21+0200</time>
      </trkpt>
      <trkpt lat="44.91916" lon="6.57969">
        <ele>1856.1</ele>
        <time>2022-08-28T15:27:23+0200</time>
      </trkpt>
      <trkpt lat="44.91912" lon="6.57974">
        <ele>1856.4</ele>
        <time>2022-08-28T15:27:25+0200</time>
      </trkpt>
      <trkpt lat="44.91909" lon="6.57981">
        <ele>1856.6</ele>
        <time>2022-08-28T15:27:27+0200</time>
      </trkpt>
      <trkpt lat="44.91906" lon="6.57987">
        <ele>1857</ele>
        <time>2022-08-28T15:27:29+0200</time>
      </trkpt>
      <trkpt lat="44.91903" lon="6.57992">
        <ele>1857.4</ele>
        <time>2022-08-28T15:27:31+0200</time>
      </trkpt>
      <trkpt lat="44.919" lon="6.58">
        <ele>1857.8</ele>
        <time>2022-08-28T15:27:33+0200</time>
      </trkpt>
      <trkpt lat="44.91897" lon="6.58005">
        <ele>1858.1</ele>
        <time>2022-08-28T15:27:35+0200</time>
      </trkpt>
      <trkpt lat="44.91893" lon="6.58012">
        <ele>1858.5</ele>
        <time>2022-08-28T15:27:38+0200</time>
      </trkpt>
      <trkpt lat="44.91888" lon="6.5802">
        <ele>1859.1</ele>
        <time>2022-08-28T15:27:41+0200</time>
      </trkpt>
      <trkpt lat="44.91885" lon="6.58025">
        <ele>1859.6</ele>
        <time>2022-08-28T15:27:43+0200</time>
      </trkpt>
      <trkpt lat="44.9188" lon="6.58031">
        <ele>1860.1</ele>
        <time>2022-08-28T15:27:45+0200</time>
      </trkpt>
      <trkpt lat="44.91878" lon="6.58037">
        <ele>1860.3</ele>
        <time>2022-08-28T15:27:47+0200</time>
      </trkpt>
      <trkpt lat="44.91874" lon="6.58043">
        <ele>1860.5</ele>
        <time>2022-08-28T15:27:49+0200</time>
      </trkpt>
      <trkpt lat="44.9187" lon="6.58048">
        <ele>1861</ele>
        <time>2022-08-28T15:27:51+0200</time>
      </trkpt>
      <trkpt lat="44.91865" lon="6.58053">
        <ele>1861.5</ele>
        <time>2022-08-28T15:27:53+0200</time>
      </trkpt>
      <trkpt lat="44.91861" lon="6.58059">
        <ele>1862.1</ele>
        <time>2022-08-28T15:27:56+0200</time>
      </trkpt>
      <trkpt lat="44.91857" lon="6.58062">
        <ele>1863.6</ele>
        <time>2022-08-28T15:27:59+0200</time>
      </trkpt>
      <trkpt lat="44.91855" lon="6.58056">
        <ele>1864.2</ele>
        <time>2022-08-28T15:28:03+0200</time>
      </trkpt>
      <trkpt lat="44.91854" lon="6.58048">
        <ele>1865.1</ele>
        <time>2022-08-28T15:28:08+0200</time>
      </trkpt>
      <trkpt lat="44.91855" lon="6.5804">
        <ele>1865.1</ele>
        <time>2022-08-28T15:28:13+0200</time>
      </trkpt>
      <trkpt lat="44.91855" lon="6.58033">
        <ele>1865.1</ele>
        <time>2022-08-28T15:28:17+0200</time>
      </trkpt>
      <trkpt lat="44.91854" lon="6.58026">
        <ele>1866</ele>
        <time>2022-08-28T15:28:19+0200</time>
      </trkpt>
      <trkpt lat="44.91854" lon="6.58017">
        <ele>1866.4</ele>
        <time>2022-08-28T15:28:22+0200</time>
      </trkpt>
      <trkpt lat="44.9185" lon="6.5801">
        <ele>1868.5</ele>
        <time>2022-08-28T15:28:24+0200</time>
      </trkpt>
      <trkpt lat="44.9185" lon="6.58004">
        <ele>1868.9</ele>
        <time>2022-08-28T15:28:26+0200</time>
      </trkpt>
      <trkpt lat="44.91849" lon="6.57997">
        <ele>1869.8</ele>
        <time>2022-08-28T15:28:28+0200</time>
      </trkpt>
      <trkpt lat="44.91848" lon="6.57988">
        <ele>1870.2</ele>
        <time>2022-08-28T15:28:30+0200</time>
      </trkpt>
      <trkpt lat="44.91849" lon="6.57978">
        <ele>1869.5</ele>
        <time>2022-08-28T15:28:32+0200</time>
      </trkpt>
      <trkpt lat="44.91848" lon="6.57969">
        <ele>1870</ele>
        <time>2022-08-28T15:28:34+0200</time>
      </trkpt>
      <trkpt lat="44.91849" lon="6.57961">
        <ele>1869.6</ele>
        <time>2022-08-28T15:28:36+0200</time>
      </trkpt>
      <trkpt lat="44.91848" lon="6.57953">
        <ele>1869.9</ele>
        <time>2022-08-28T15:28:38+0200</time>
      </trkpt>
      <trkpt lat="44.91847" lon="6.57943">
        <ele>1870.2</ele>
        <time>2022-08-28T15:28:40+0200</time>
      </trkpt>
      <trkpt lat="44.91845" lon="6.57934">
        <ele>1870.7</ele>
        <time>2022-08-28T15:28:42+0200</time>
      </trkpt>
      <trkpt lat="44.91844" lon="6.57926">
        <ele>1870.9</ele>
        <time>2022-08-28T15:28:44+0200</time>
      </trkpt>
      <trkpt lat="44.91844" lon="6.57919">
        <ele>1870.9</ele>
        <time>2022-08-28T15:28:46+0200</time>
      </trkpt>
      <trkpt lat="44.91845" lon="6.5791">
        <ele>1870.8</ele>
        <time>2022-08-28T15:28:48+0200</time>
      </trkpt>
      <trkpt lat="44.91846" lon="6.57903">
        <ele>1870.9</ele>
        <time>2022-08-28T15:28:50+0200</time>
      </trkpt>
      <trkpt lat="44.91845" lon="6.57895">
        <ele>1871.4</ele>
        <time>2022-08-28T15:28:53+0200</time>
      </trkpt>
      <trkpt lat="44.91847" lon="6.57886">
        <ele>1871.1</ele>
        <time>2022-08-28T15:28:58+0200</time>
      </trkpt>
      <trkpt lat="44.91847" lon="6.57878">
        <ele>1871.5</ele>
        <time>2022-08-28T15:29:01+0200</time>
      </trkpt>
      <trkpt lat="44.91848" lon="6.57872">
        <ele>1871.8</ele>
        <time>2022-08-28T15:29:04+0200</time>
      </trkpt>
      <trkpt lat="44.91847" lon="6.57865">
        <ele>1872.4</ele>
        <time>2022-08-28T15:29:06+0200</time>
      </trkpt>
      <trkpt lat="44.91846" lon="6.57859">
        <ele>1873.2</ele>
        <time>2022-08-28T15:29:08+0200</time>
      </trkpt>
      <trkpt lat="44.91846" lon="6.57852">
        <ele>1873.7</ele>
        <time>2022-08-28T15:29:11+0200</time>
      </trkpt>
      <trkpt lat="44.91846" lon="6.57844">
        <ele>1874.4</ele>
        <time>2022-08-28T15:29:14+0200</time>
      </trkpt>
      <trkpt lat="44.91844" lon="6.57835">
        <ele>1875.7</ele>
        <time>2022-08-28T15:29:16+0200</time>
      </trkpt>
      <trkpt lat="44.91845" lon="6.57827">
        <ele>1876.2</ele>
        <time>2022-08-28T15:29:19+0200</time>
      </trkpt>
      <trkpt lat="44.91845" lon="6.5782">
        <ele>1877</ele>
        <time>2022-08-28T15:29:21+0200</time>
      </trkpt>
      <trkpt lat="44.91846" lon="6.57814">
        <ele>1877.4</ele>
        <time>2022-08-28T15:29:23+0200</time>
      </trkpt>
      <trkpt lat="44.91848" lon="6.57807">
        <ele>1877.6</ele>
        <time>2022-08-28T15:29:25+0200</time>
      </trkpt>
      <trkpt lat="44.91849" lon="6.578">
        <ele>1878</ele>
        <time>2022-08-28T15:29:27+0200</time>
      </trkpt>
      <trkpt lat="44.91849" lon="6.5779">
        <ele>1878.8</ele>
        <time>2022-08-28T15:29:30+0200</time>
      </trkpt>
      <trkpt lat="44.91851" lon="6.57782">
        <ele>1878.9</ele>
        <time>2022-08-28T15:29:34+0200</time>
      </trkpt>
      <trkpt lat="44.91851" lon="6.57774">
        <ele>1879.8</ele>
        <time>2022-08-28T15:29:37+0200</time>
      </trkpt>
      <trkpt lat="44.91851" lon="6.57764">
        <ele>1880.7</ele>
        <time>2022-08-28T15:29:40+0200</time>
      </trkpt>
      <trkpt lat="44.91849" lon="6.57756">
        <ele>1882.1</ele>
        <time>2022-08-28T15:29:43+0200</time>
      </trkpt>
      <trkpt lat="44.91848" lon="6.57747">
        <ele>1883.2</ele>
        <time>2022-08-28T15:29:46+0200</time>
      </trkpt>
      <trkpt lat="44.91845" lon="6.57739">
        <ele>1884.8</ele>
        <time>2022-08-28T15:29:49+0200</time>
      </trkpt>
      <trkpt lat="44.91844" lon="6.57733">
        <ele>1885.7</ele>
        <time>2022-08-28T15:29:51+0200</time>
      </trkpt>
      <trkpt lat="44.91841" lon="6.57725">
        <ele>1887.1</ele>
        <time>2022-08-28T15:29:53+0200</time>
      </trkpt>
      <trkpt lat="44.91839" lon="6.57717">
        <ele>1888.3</ele>
        <time>2022-08-28T15:29:55+0200</time>
      </trkpt>
      <trkpt lat="44.91838" lon="6.5771">
        <ele>1888.9</ele>
        <time>2022-08-28T15:29:57+0200</time>
      </trkpt>
      <trkpt lat="44.91838" lon="6.57702">
        <ele>1889</ele>
        <time>2022-08-28T15:30:00+0200</time>
      </trkpt>
      <trkpt lat="44.91837" lon="6.57693">
        <ele>1889.7</ele>
        <time>2022-08-28T15:30:03+0200</time>
      </trkpt>
      <trkpt lat="44.91835" lon="6.57685">
        <ele>1890.5</ele>
        <time>2022-08-28T15:30:06+0200</time>
      </trkpt>
      <trkpt lat="44.91835" lon="6.57677">
        <ele>1890.5</ele>
        <time>2022-08-28T15:30:09+0200</time>
      </trkpt>
      <trkpt lat="44.91834" lon="6.57669">
        <ele>1890.8</ele>
        <time>2022-08-28T15:30:12+0200</time>
      </trkpt>
      <trkpt lat="44.91834" lon="6.57661">
        <ele>1890.6</ele>
        <time>2022-08-28T15:30:15+0200</time>
      </trkpt>
      <trkpt lat="44.91834" lon="6.57654">
        <ele>1890.7</ele>
        <time>2022-08-28T15:30:18+0200</time>
      </trkpt>
      <trkpt lat="44.91835" lon="6.57645">
        <ele>1890.4</ele>
        <time>2022-08-28T15:30:21+0200</time>
      </trkpt>
      <trkpt lat="44.91834" lon="6.57638">
        <ele>1890.6</ele>
        <time>2022-08-28T15:30:24+0200</time>
      </trkpt>
      <trkpt lat="44.91832" lon="6.57629">
        <ele>1891.1</ele>
        <time>2022-08-28T15:30:27+0200</time>
      </trkpt>
      <trkpt lat="44.91832" lon="6.57621">
        <ele>1891.1</ele>
        <time>2022-08-28T15:30:29+0200</time>
      </trkpt>
      <trkpt lat="44.91829" lon="6.57615">
        <ele>1892</ele>
        <time>2022-08-28T15:30:31+0200</time>
      </trkpt>
      <trkpt lat="44.91825" lon="6.57609">
        <ele>1893.5</ele>
        <time>2022-08-28T15:30:33+0200</time>
      </trkpt>
      <trkpt lat="44.91822" lon="6.57602">
        <ele>1894.2</ele>
        <time>2022-08-28T15:30:35+0200</time>
      </trkpt>
      <trkpt lat="44.91821" lon="6.57595">
        <ele>1894.5</ele>
        <time>2022-08-28T15:30:37+0200</time>
      </trkpt>
      <trkpt lat="44.91819" lon="6.57589">
        <ele>1895.1</ele>
        <time>2022-08-28T15:30:39+0200</time>
      </trkpt>
      <trkpt lat="44.91817" lon="6.5758">
        <ele>1895.8</ele>
        <time>2022-08-28T15:30:42+0200</time>
      </trkpt>
      <trkpt lat="44.91814" lon="6.57572">
        <ele>1897.1</ele>
        <time>2022-08-28T15:30:44+0200</time>
      </trkpt>
      <trkpt lat="44.91811" lon="6.57565">
        <ele>1898.3</ele>
        <time>2022-08-28T15:30:46+0200</time>
      </trkpt>
      <trkpt lat="44.91809" lon="6.57558">
        <ele>1899.5</ele>
        <time>2022-08-28T15:30:48+0200</time>
      </trkpt>
      <trkpt lat="44.91806" lon="6.57553">
        <ele>1901.1</ele>
        <time>2022-08-28T15:30:50+0200</time>
      </trkpt>
      <trkpt lat="44.91802" lon="6.57545">
        <ele>1903.3</ele>
        <time>2022-08-28T15:30:53+0200</time>
      </trkpt>
      <trkpt lat="44.918" lon="6.57538">
        <ele>1904.3</ele>
        <time>2022-08-28T15:30:55+0200</time>
      </trkpt>
      <trkpt lat="44.91801" lon="6.57531">
        <ele>1904.4</ele>
        <time>2022-08-28T15:30:57+0200</time>
      </trkpt>
      <trkpt lat="44.91801" lon="6.57524">
        <ele>1904.4</ele>
        <time>2022-08-28T15:31:00+0200</time>
      </trkpt>
      <trkpt lat="44.91802" lon="6.57517">
        <ele>1904.3</ele>
        <time>2022-08-28T15:31:03+0200</time>
      </trkpt>
      <trkpt lat="44.91804" lon="6.57511">
        <ele>1903.6</ele>
        <time>2022-08-28T15:31:11+0200</time>
      </trkpt>
      <trkpt lat="44.91805" lon="6.57504">
        <ele>1903.2</ele>
        <time>2022-08-28T15:31:14+0200</time>
      </trkpt>
      <trkpt lat="44.91805" lon="6.57496">
        <ele>1903.8</ele>
        <time>2022-08-28T15:31:17+0200</time>
      </trkpt>
      <trkpt lat="44.91805" lon="6.5749">
        <ele>1904.1</ele>
        <time>2022-08-28T15:31:19+0200</time>
      </trkpt>
      <trkpt lat="44.91803" lon="6.57482">
        <ele>1905.8</ele>
        <time>2022-08-28T15:31:21+0200</time>
      </trkpt>
      <trkpt lat="44.91801" lon="6.57473">
        <ele>1907.4</ele>
        <time>2022-08-28T15:31:23+0200</time>
      </trkpt>
      <trkpt lat="44.91799" lon="6.57463">
        <ele>1908.2</ele>
        <time>2022-08-28T15:31:25+0200</time>
      </trkpt>
      <trkpt lat="44.91799" lon="6.57456">
        <ele>1908.5</ele>
        <time>2022-08-28T15:31:27+0200</time>
      </trkpt>
      <trkpt lat="44.91797" lon="6.57447">
        <ele>1909.4</ele>
        <time>2022-08-28T15:31:29+0200</time>
      </trkpt>
      <trkpt lat="44.91799" lon="6.57438">
        <ele>1907.9</ele>
        <time>2022-08-28T15:31:31+0200</time>
      </trkpt>
      <trkpt lat="44.91795" lon="6.57429">
        <ele>1909.1</ele>
        <time>2022-08-28T15:31:34+0200</time>
      </trkpt>
      <trkpt lat="44.91796" lon="6.5742">
        <ele>1908.1</ele>
        <time>2022-08-28T15:31:36+0200</time>
      </trkpt>
      <trkpt lat="44.91794" lon="6.57413">
        <ele>1908.8</ele>
        <time>2022-08-28T15:31:38+0200</time>
      </trkpt>
      <trkpt lat="44.91794" lon="6.57405">
        <ele>1907.8</ele>
        <time>2022-08-28T15:31:40+0200</time>
      </trkpt>
      <trkpt lat="44.91794" lon="6.57395">
        <ele>1907.1</ele>
        <time>2022-08-28T15:31:42+0200</time>
      </trkpt>
      <trkpt lat="44.91793" lon="6.57386">
        <ele>1907.4</ele>
        <time>2022-08-28T15:31:44+0200</time>
      </trkpt>
      <trkpt lat="44.91791" lon="6.57377">
        <ele>1908.1</ele>
        <time>2022-08-28T15:31:46+0200</time>
      </trkpt>
      <trkpt lat="44.91789" lon="6.57371">
        <ele>1908.4</ele>
        <time>2022-08-28T15:31:49+0200</time>
      </trkpt>
      <trkpt lat="44.91784" lon="6.57368">
        <ele>1910.3</ele>
        <time>2022-08-28T15:31:51+0200</time>
      </trkpt>
      <trkpt lat="44.91783" lon="6.57361">
        <ele>1910.1</ele>
        <time>2022-08-28T15:31:53+0200</time>
      </trkpt>
      <trkpt lat="44.91781" lon="6.57354">
        <ele>1910.8</ele>
        <time>2022-08-28T15:31:55+0200</time>
      </trkpt>
      <trkpt lat="44.91777" lon="6.57348">
        <ele>1912</ele>
        <time>2022-08-28T15:31:57+0200</time>
      </trkpt>
      <trkpt lat="44.91774" lon="6.57342">
        <ele>1913</ele>
        <time>2022-08-28T15:32:00+0200</time>
      </trkpt>
      <trkpt lat="44.91771" lon="6.57337">
        <ele>1913.9</ele>
        <time>2022-08-28T15:32:02+0200</time>
      </trkpt>
      <trkpt lat="44.9177" lon="6.5733">
        <ele>1914.1</ele>
        <time>2022-08-28T15:32:04+0200</time>
      </trkpt>
      <trkpt lat="44.91768" lon="6.57324">
        <ele>1915.4</ele>
        <time>2022-08-28T15:32:07+0200</time>
      </trkpt>
      <trkpt lat="44.91766" lon="6.57317">
        <ele>1916.2</ele>
        <time>2022-08-28T15:32:10+0200</time>
      </trkpt>
      <trkpt lat="44.91763" lon="6.57311">
        <ele>1917.3</ele>
        <time>2022-08-28T15:32:13+0200</time>
      </trkpt>
      <trkpt lat="44.9176" lon="6.57304">
        <ele>1918</ele>
        <time>2022-08-28T15:32:16+0200</time>
      </trkpt>
      <trkpt lat="44.91758" lon="6.57297">
        <ele>1918.6</ele>
        <time>2022-08-28T15:32:19+0200</time>
      </trkpt>
      <trkpt lat="44.91755" lon="6.57289">
        <ele>1919.3</ele>
        <time>2022-08-28T15:32:22+0200</time>
      </trkpt>
      <trkpt lat="44.91751" lon="6.57283">
        <ele>1919.8</ele>
        <time>2022-08-28T15:32:26+0200</time>
      </trkpt>
      <trkpt lat="44.91749" lon="6.57276">
        <ele>1920.3</ele>
        <time>2022-08-28T15:32:29+0200</time>
      </trkpt>
      <trkpt lat="44.91747" lon="6.5727">
        <ele>1921.2</ele>
        <time>2022-08-28T15:32:31+0200</time>
      </trkpt>
      <trkpt lat="44.91742" lon="6.57266">
        <ele>1922.8</ele>
        <time>2022-08-28T15:32:33+0200</time>
      </trkpt>
      <trkpt lat="44.91737" lon="6.5726">
        <ele>1924.1</ele>
        <time>2022-08-28T15:32:36+0200</time>
      </trkpt>
      <trkpt lat="44.9173" lon="6.57261">
        <ele>1925.7</ele>
        <time>2022-08-28T15:32:39+0200</time>
      </trkpt>
      <trkpt lat="44.91725" lon="6.57262">
        <ele>1926.8</ele>
        <time>2022-08-28T15:32:41+0200</time>
      </trkpt>
      <trkpt lat="44.9172" lon="6.57263">
        <ele>1928.3</ele>
        <time>2022-08-28T15:32:45+0200</time>
      </trkpt>
      <trkpt lat="44.91716" lon="6.57267">
        <ele>1930.1</ele>
        <time>2022-08-28T15:32:48+0200</time>
      </trkpt>
      <trkpt lat="44.91711" lon="6.57271">
        <ele>1932.1</ele>
        <time>2022-08-28T15:32:52+0200</time>
      </trkpt>
      <trkpt lat="44.9171" lon="6.57279">
        <ele>1933</ele>
        <time>2022-08-28T15:32:55+0200</time>
      </trkpt>
      <trkpt lat="44.9171" lon="6.57286">
        <ele>1934</ele>
        <time>2022-08-28T15:32:57+0200</time>
      </trkpt>
      <trkpt lat="44.9171" lon="6.57294">
        <ele>1934.8</ele>
        <time>2022-08-28T15:33:01+0200</time>
      </trkpt>
      <trkpt lat="44.91708" lon="6.57301">
        <ele>1936.7</ele>
        <time>2022-08-28T15:33:03+0200</time>
      </trkpt>
      <trkpt lat="44.91707" lon="6.57308">
        <ele>1938</ele>
        <time>2022-08-28T15:33:05+0200</time>
      </trkpt>
      <trkpt lat="44.91709" lon="6.57316">
        <ele>1938.7</ele>
        <time>2022-08-28T15:33:08+0200</time>
      </trkpt>
      <trkpt lat="44.9171" lon="6.57324">
        <ele>1939.5</ele>
        <time>2022-08-28T15:33:11+0200</time>
      </trkpt>
      <trkpt lat="44.9171" lon="6.57332">
        <ele>1941.1</ele>
        <time>2022-08-28T15:33:14+0200</time>
      </trkpt>
      <trkpt lat="44.91711" lon="6.57343">
        <ele>1942.4</ele>
        <time>2022-08-28T15:33:17+0200</time>
      </trkpt>
      <trkpt lat="44.91713" lon="6.5735">
        <ele>1942.8</ele>
        <time>2022-08-28T15:33:19+0200</time>
      </trkpt>
      <trkpt lat="44.91715" lon="6.57357">
        <ele>1943.6</ele>
        <time>2022-08-28T15:33:22+0200</time>
      </trkpt>
      <trkpt lat="44.91715" lon="6.57366">
        <ele>1945.4</ele>
        <time>2022-08-28T15:33:24+0200</time>
      </trkpt>
      <trkpt lat="44.91716" lon="6.57375">
        <ele>1946.7</ele>
        <time>2022-08-28T15:33:26+0200</time>
      </trkpt>
      <trkpt lat="44.91718" lon="6.57382">
        <ele>1947.4</ele>
        <time>2022-08-28T15:33:29+0200</time>
      </trkpt>
      <trkpt lat="44.91716" lon="6.5739">
        <ele>1949.3</ele>
        <time>2022-08-28T15:33:34+0200</time>
      </trkpt>
      <trkpt lat="44.91721" lon="6.5739">
        <ele>1947.7</ele>
        <time>2022-08-28T15:33:41+0200</time>
      </trkpt>
      <trkpt lat="44.9172" lon="6.57383">
        <ele>1946.5</ele>
        <time>2022-08-28T15:33:46+0200</time>
      </trkpt>
      <trkpt lat="44.91721" lon="6.57376">
        <ele>1944.5</ele>
        <time>2022-08-28T15:33:50+0200</time>
      </trkpt>
      <trkpt lat="44.91722" lon="6.57369">
        <ele>1943</ele>
        <time>2022-08-28T15:33:53+0200</time>
      </trkpt>
      <trkpt lat="44.91723" lon="6.57362">
        <ele>1940.6</ele>
        <time>2022-08-28T15:33:56+0200</time>
      </trkpt>
      <trkpt lat="44.91724" lon="6.57355">
        <ele>1938.8</ele>
        <time>2022-08-28T15:33:58+0200</time>
      </trkpt>
      <trkpt lat="44.91721" lon="6.5735">
        <ele>1939.2</ele>
        <time>2022-08-28T15:34:00+0200</time>
      </trkpt>
      <trkpt lat="44.91717" lon="6.57343">
        <ele>1939.5</ele>
        <time>2022-08-28T15:34:02+0200</time>
      </trkpt>
      <trkpt lat="44.91714" lon="6.57334">
        <ele>1939.3</ele>
        <time>2022-08-28T15:34:04+0200</time>
      </trkpt>
      <trkpt lat="44.91711" lon="6.57325">
        <ele>1939.4</ele>
        <time>2022-08-28T15:34:06+0200</time>
      </trkpt>
      <trkpt lat="44.91704" lon="6.5732">
        <ele>1941.8</ele>
        <time>2022-08-28T15:34:08+0200</time>
      </trkpt>
      <trkpt lat="44.91697" lon="6.57313">
        <ele>1943.4</ele>
        <time>2022-08-28T15:34:10+0200</time>
      </trkpt>
      <trkpt lat="44.91692" lon="6.5731">
        <ele>1945.1</ele>
        <time>2022-08-28T15:34:11+0200</time>
      </trkpt>
      <trkpt lat="44.91685" lon="6.57304">
        <ele>1947.3</ele>
        <time>2022-08-28T15:34:13+0200</time>
      </trkpt>
      <trkpt lat="44.9168" lon="6.57301">
        <ele>1949.1</ele>
        <time>2022-08-28T15:34:14+0200</time>
      </trkpt>
      <trkpt lat="44.91677" lon="6.57295">
        <ele>1949.6</ele>
        <time>2022-08-28T15:34:16+0200</time>
      </trkpt>
      <trkpt lat="44.91672" lon="6.57292">
        <ele>1951.7</ele>
        <time>2022-08-28T15:34:18+0200</time>
      </trkpt>
      <trkpt lat="44.91669" lon="6.57287">
        <ele>1952.2</ele>
        <time>2022-08-28T15:34:20+0200</time>
      </trkpt>
      <trkpt lat="44.91666" lon="6.57279">
        <ele>1952.3</ele>
        <time>2022-08-28T15:34:24+0200</time>
      </trkpt>
      <trkpt lat="44.91661" lon="6.57275">
        <ele>1954.3</ele>
        <time>2022-08-28T15:34:26+0200</time>
      </trkpt>
      <trkpt lat="44.91657" lon="6.57275">
        <ele>1956.4</ele>
        <time>2022-08-28T15:34:27+0200</time>
      </trkpt>
      <trkpt lat="44.91652" lon="6.57276">
        <ele>1958.9</ele>
        <time>2022-08-28T15:34:29+0200</time>
      </trkpt>
      <trkpt lat="44.91646" lon="6.57277">
        <ele>1961.8</ele>
        <time>2022-08-28T15:34:32+0200</time>
      </trkpt>
      <trkpt lat="44.91641" lon="6.5728">
        <ele>1964.3</ele>
        <time>2022-08-28T15:34:35+0200</time>
      </trkpt>
      <trkpt lat="44.91641" lon="6.57287">
        <ele>1965.2</ele>
        <time>2022-08-28T15:34:41+0200</time>
      </trkpt>
      <trkpt lat="44.9164" lon="6.57295">
        <ele>1967.1</ele>
        <time>2022-08-28T15:34:45+0200</time>
      </trkpt>
      <trkpt lat="44.9164" lon="6.57303">
        <ele>1968</ele>
        <time>2022-08-28T15:34:49+0200</time>
      </trkpt>
      <trkpt lat="44.91642" lon="6.57311">
        <ele>1968.4</ele>
        <time>2022-08-28T15:34:52+0200</time>
      </trkpt>
      <trkpt lat="44.91644" lon="6.57317">
        <ele>1968.5</ele>
        <time>2022-08-28T15:34:56+0200</time>
      </trkpt>
      <trkpt lat="44.91646" lon="6.57325">
        <ele>1968.5</ele>
        <time>2022-08-28T15:35:00+0200</time>
      </trkpt>
      <trkpt lat="44.91648" lon="6.57333">
        <ele>1969.1</ele>
        <time>2022-08-28T15:35:04+0200</time>
      </trkpt>
      <trkpt lat="44.91648" lon="6.57339">
        <ele>1969.4</ele>
        <time>2022-08-28T15:35:07+0200</time>
      </trkpt>
      <trkpt lat="44.91648" lon="6.57347">
        <ele>1970.4</ele>
        <time>2022-08-28T15:35:11+0200</time>
      </trkpt>
      <trkpt lat="44.91647" lon="6.57354">
        <ele>1971.2</ele>
        <time>2022-08-28T15:35:13+0200</time>
      </trkpt>
      <trkpt lat="44.91646" lon="6.57363">
        <ele>1972.4</ele>
        <time>2022-08-28T15:35:16+0200</time>
      </trkpt>
      <trkpt lat="44.91645" lon="6.57371">
        <ele>1972.6</ele>
        <time>2022-08-28T15:35:19+0200</time>
      </trkpt>
      <trkpt lat="44.91644" lon="6.57378">
        <ele>1973.2</ele>
        <time>2022-08-28T15:35:21+0200</time>
      </trkpt>
      <trkpt lat="44.91641" lon="6.57385">
        <ele>1974.3</ele>
        <time>2022-08-28T15:35:23+0200</time>
      </trkpt>
      <trkpt lat="44.91638" lon="6.57394">
        <ele>1975.2</ele>
        <time>2022-08-28T15:35:26+0200</time>
      </trkpt>
      <trkpt lat="44.91636" lon="6.57402">
        <ele>1976</ele>
        <time>2022-08-28T15:35:29+0200</time>
      </trkpt>
      <trkpt lat="44.91633" lon="6.57407">
        <ele>1977.1</ele>
        <time>2022-08-28T15:35:31+0200</time>
      </trkpt>
      <trkpt lat="44.9163" lon="6.57412">
        <ele>1978.2</ele>
        <time>2022-08-28T15:35:33+0200</time>
      </trkpt>
      <trkpt lat="44.91626" lon="6.57417">
        <ele>1979.7</ele>
        <time>2022-08-28T15:35:35+0200</time>
      </trkpt>
      <trkpt lat="44.91623" lon="6.57422">
        <ele>1980.7</ele>
        <time>2022-08-28T15:35:38+0200</time>
      </trkpt>
      <trkpt lat="44.91621" lon="6.57431">
        <ele>1981.4</ele>
        <time>2022-08-28T15:35:41+0200</time>
      </trkpt>
      <trkpt lat="44.9162" lon="6.5744">
        <ele>1982</ele>
        <time>2022-08-28T15:35:44+0200</time>
      </trkpt>
      <trkpt lat="44.9162" lon="6.57446">
        <ele>1981.9</ele>
        <time>2022-08-28T15:35:46+0200</time>
      </trkpt>
      <trkpt lat="44.91619" lon="6.57455">
        <ele>1982.2</ele>
        <time>2022-08-28T15:35:49+0200</time>
      </trkpt>
      <trkpt lat="44.91619" lon="6.57462">
        <ele>1982.1</ele>
        <time>2022-08-28T15:35:51+0200</time>
      </trkpt>
      <trkpt lat="44.9162" lon="6.57472">
        <ele>1981.8</ele>
        <time>2022-08-28T15:35:53+0200</time>
      </trkpt>
      <trkpt lat="44.91621" lon="6.5748">
        <ele>1982</ele>
        <time>2022-08-28T15:35:56+0200</time>
      </trkpt>
      <trkpt lat="44.91621" lon="6.57487">
        <ele>1982</ele>
        <time>2022-08-28T15:35:58+0200</time>
      </trkpt>
      <trkpt lat="44.91623" lon="6.57493">
        <ele>1981.8</ele>
        <time>2022-08-28T15:36:00+0200</time>
      </trkpt>
      <trkpt lat="44.91623" lon="6.57501">
        <ele>1982</ele>
        <time>2022-08-28T15:36:02+0200</time>
      </trkpt>
      <trkpt lat="44.91621" lon="6.57509">
        <ele>1983</ele>
        <time>2022-08-28T15:36:05+0200</time>
      </trkpt>
      <trkpt lat="44.91618" lon="6.57516">
        <ele>1984.6</ele>
        <time>2022-08-28T15:36:08+0200</time>
      </trkpt>
      <trkpt lat="44.91617" lon="6.57524">
        <ele>1985.6</ele>
        <time>2022-08-28T15:36:12+0200</time>
      </trkpt>
      <trkpt lat="44.9162" lon="6.57529">
        <ele>1984.5</ele>
        <time>2022-08-28T15:36:15+0200</time>
      </trkpt>
      <trkpt lat="44.91624" lon="6.57521">
        <ele>1982.7</ele>
        <time>2022-08-28T15:36:24+0200</time>
      </trkpt>
      <trkpt lat="44.91622" lon="6.57515">
        <ele>1982.9</ele>
        <time>2022-08-28T15:36:26+0200</time>
      </trkpt>
      <trkpt lat="44.91618" lon="6.57509">
        <ele>1984.4</ele>
        <time>2022-08-28T15:36:28+0200</time>
      </trkpt>
      <trkpt lat="44.91614" lon="6.57504">
        <ele>1986</ele>
        <time>2022-08-28T15:36:30+0200</time>
      </trkpt>
      <trkpt lat="44.91611" lon="6.57497">
        <ele>1987</ele>
        <time>2022-08-28T15:36:33+0200</time>
      </trkpt>
      <trkpt lat="44.91608" lon="6.57491">
        <ele>1987.5</ele>
        <time>2022-08-28T15:36:36+0200</time>
      </trkpt>
      <trkpt lat="44.91605" lon="6.57485">
        <ele>1988.1</ele>
        <time>2022-08-28T15:36:38+0200</time>
      </trkpt>
      <trkpt lat="44.91603" lon="6.57478">
        <ele>1988.7</ele>
        <time>2022-08-28T15:36:40+0200</time>
      </trkpt>
      <trkpt lat="44.916" lon="6.57472">
        <ele>1989.2</ele>
        <time>2022-08-28T15:36:42+0200</time>
      </trkpt>
      <trkpt lat="44.91597" lon="6.57464">
        <ele>1990.5</ele>
        <time>2022-08-28T15:36:45+0200</time>
      </trkpt>
      <trkpt lat="44.91598" lon="6.57457">
        <ele>1990</ele>
        <time>2022-08-28T15:36:48+0200</time>
      </trkpt>
      <trkpt lat="44.91597" lon="6.57449">
        <ele>1990.3</ele>
        <time>2022-08-28T15:36:52+0200</time>
      </trkpt>
      <trkpt lat="44.91595" lon="6.57441">
        <ele>1990.7</ele>
        <time>2022-08-28T15:36:55+0200</time>
      </trkpt>
      <trkpt lat="44.91592" lon="6.57434">
        <ele>1991.7</ele>
        <time>2022-08-28T15:36:58+0200</time>
      </trkpt>
      <trkpt lat="44.91592" lon="6.57427">
        <ele>1992</ele>
        <time>2022-08-28T15:37:01+0200</time>
      </trkpt>
      <trkpt lat="44.91591" lon="6.57419">
        <ele>1992.2</ele>
        <time>2022-08-28T15:37:03+0200</time>
      </trkpt>
      <trkpt lat="44.91589" lon="6.57412">
        <ele>1993</ele>
        <time>2022-08-28T15:37:06+0200</time>
      </trkpt>
      <trkpt lat="44.91588" lon="6.57404">
        <ele>1993.7</ele>
        <time>2022-08-28T15:37:10+0200</time>
      </trkpt>
      <trkpt lat="44.91586" lon="6.57395">
        <ele>1994.8</ele>
        <time>2022-08-28T15:37:13+0200</time>
      </trkpt>
      <trkpt lat="44.91584" lon="6.57386">
        <ele>1995.7</ele>
        <time>2022-08-28T15:37:15+0200</time>
      </trkpt>
      <trkpt lat="44.91583" lon="6.5738">
        <ele>1996.1</ele>
        <time>2022-08-28T15:37:17+0200</time>
      </trkpt>
      <trkpt lat="44.9158" lon="6.57371">
        <ele>1997.1</ele>
        <time>2022-08-28T15:37:19+0200</time>
      </trkpt>
      <trkpt lat="44.91578" lon="6.57365">
        <ele>1997.9</ele>
        <time>2022-08-28T15:37:21+0200</time>
      </trkpt>
      <trkpt lat="44.91578" lon="6.57357">
        <ele>1998</ele>
        <time>2022-08-28T15:37:23+0200</time>
      </trkpt>
      <trkpt lat="44.91573" lon="6.57345">
        <ele>1999.6</ele>
        <time>2022-08-28T15:37:25+0200</time>
      </trkpt>
      <trkpt lat="44.9157" lon="6.57333">
        <ele>2000.9</ele>
        <time>2022-08-28T15:37:27+0200</time>
      </trkpt>
      <trkpt lat="44.91567" lon="6.57322">
        <ele>2001.2</ele>
        <time>2022-08-28T15:37:29+0200</time>
      </trkpt>
      <trkpt lat="44.91564" lon="6.57315">
        <ele>2002</ele>
        <time>2022-08-28T15:37:30+0200</time>
      </trkpt>
      <trkpt lat="44.91563" lon="6.57305">
        <ele>2002.1</ele>
        <time>2022-08-28T15:37:32+0200</time>
      </trkpt>
      <trkpt lat="44.91559" lon="6.57296">
        <ele>2002.8</ele>
        <time>2022-08-28T15:37:34+0200</time>
      </trkpt>
      <trkpt lat="44.91558" lon="6.57289">
        <ele>2002.7</ele>
        <time>2022-08-28T15:37:36+0200</time>
      </trkpt>
      <trkpt lat="44.91559" lon="6.57281">
        <ele>2001.9</ele>
        <time>2022-08-28T15:37:39+0200</time>
      </trkpt>
      <trkpt lat="44.91559" lon="6.57273">
        <ele>2001.3</ele>
        <time>2022-08-28T15:37:42+0200</time>
      </trkpt>
      <trkpt lat="44.9156" lon="6.57264">
        <ele>2000.4</ele>
        <time>2022-08-28T15:37:45+0200</time>
      </trkpt>
      <trkpt lat="44.91561" lon="6.57257">
        <ele>1999.3</ele>
        <time>2022-08-28T15:37:47+0200</time>
      </trkpt>
      <trkpt lat="44.91562" lon="6.57248">
        <ele>1998.1</ele>
        <time>2022-08-28T15:37:49+0200</time>
      </trkpt>
      <trkpt lat="44.91562" lon="6.57241">
        <ele>1997.6</ele>
        <time>2022-08-28T15:37:51+0200</time>
      </trkpt>
      <trkpt lat="44.91562" lon="6.57233">
        <ele>1997</ele>
        <time>2022-08-28T15:37:53+0200</time>
      </trkpt>
      <trkpt lat="44.91561" lon="6.57226">
        <ele>1996.9</ele>
        <time>2022-08-28T15:37:55+0200</time>
      </trkpt>
      <trkpt lat="44.91563" lon="6.57218">
        <ele>1995.3</ele>
        <time>2022-08-28T15:37:57+0200</time>
      </trkpt>
      <trkpt lat="44.91563" lon="6.57211">
        <ele>1995</ele>
        <time>2022-08-28T15:37:59+0200</time>
      </trkpt>
      <trkpt lat="44.91562" lon="6.57203">
        <ele>1994.8</ele>
        <time>2022-08-28T15:38:01+0200</time>
      </trkpt>
      <trkpt lat="44.91563" lon="6.57194">
        <ele>1994</ele>
        <time>2022-08-28T15:38:03+0200</time>
      </trkpt>
      <trkpt lat="44.91562" lon="6.57185">
        <ele>1993.3</ele>
        <time>2022-08-28T15:38:05+0200</time>
      </trkpt>
      <trkpt lat="44.91562" lon="6.57177">
        <ele>1992.4</ele>
        <time>2022-08-28T15:38:07+0200</time>
      </trkpt>
      <trkpt lat="44.91561" lon="6.57168">
        <ele>1992.1</ele>
        <time>2022-08-28T15:38:09+0200</time>
      </trkpt>
      <trkpt lat="44.91559" lon="6.57157">
        <ele>1991.9</ele>
        <time>2022-08-28T15:38:11+0200</time>
      </trkpt>
      <trkpt lat="44.91559" lon="6.57149">
        <ele>1991.6</ele>
        <time>2022-08-28T15:38:12+0200</time>
      </trkpt>
      <trkpt lat="44.91557" lon="6.57142">
        <ele>1991.7</ele>
        <time>2022-08-28T15:38:13+0200</time>
      </trkpt>
      <trkpt lat="44.91555" lon="6.57131">
        <ele>1991.9</ele>
        <time>2022-08-28T15:38:15+0200</time>
      </trkpt>
      <trkpt lat="44.91553" lon="6.57124">
        <ele>1992.4</ele>
        <time>2022-08-28T15:38:16+0200</time>
      </trkpt>
      <trkpt lat="44.91551" lon="6.57118">
        <ele>1992.7</ele>
        <time>2022-08-28T15:38:17+0200</time>
      </trkpt>
      <trkpt lat="44.91548" lon="6.57112">
        <ele>1993.3</ele>
        <time>2022-08-28T15:38:18+0200</time>
      </trkpt>
      <trkpt lat="44.91542" lon="6.57104">
        <ele>1994.7</ele>
        <time>2022-08-28T15:38:20+0200</time>
      </trkpt>
      <trkpt lat="44.91537" lon="6.57096">
        <ele>1996</ele>
        <time>2022-08-28T15:38:22+0200</time>
      </trkpt>
      <trkpt lat="44.91533" lon="6.57088">
        <ele>1996.9</ele>
        <time>2022-08-28T15:38:24+0200</time>
      </trkpt>
      <trkpt lat="44.91526" lon="6.5708">
        <ele>1998.7</ele>
        <time>2022-08-28T15:38:26+0200</time>
      </trkpt>
      <trkpt lat="44.91522" lon="6.57076">
        <ele>1999.8</ele>
        <time>2022-08-28T15:38:27+0200</time>
      </trkpt>
      <trkpt lat="44.91518" lon="6.57067">
        <ele>2001.3</ele>
        <time>2022-08-28T15:38:29+0200</time>
      </trkpt>
      <trkpt lat="44.91513" lon="6.57059">
        <ele>2002.5</ele>
        <time>2022-08-28T15:38:31+0200</time>
      </trkpt>
      <trkpt lat="44.9151" lon="6.57048">
        <ele>2004.2</ele>
        <time>2022-08-28T15:38:33+0200</time>
      </trkpt>
      <trkpt lat="44.91509" lon="6.57042">
        <ele>2005.2</ele>
        <time>2022-08-28T15:38:34+0200</time>
      </trkpt>
      <trkpt lat="44.91508" lon="6.57034">
        <ele>2006.3</ele>
        <time>2022-08-28T15:38:35+0200</time>
      </trkpt>
      <trkpt lat="44.91508" lon="6.57025">
        <ele>2007.5</ele>
        <time>2022-08-28T15:38:36+0200</time>
      </trkpt>
      <trkpt lat="44.91511" lon="6.57018">
        <ele>2008.3</ele>
        <time>2022-08-28T15:38:37+0200</time>
      </trkpt>
      <trkpt lat="44.91513" lon="6.57009">
        <ele>2009.5</ele>
        <time>2022-08-28T15:38:38+0200</time>
      </trkpt>
      <trkpt lat="44.91516" lon="6.57004">
        <ele>2010.3</ele>
        <time>2022-08-28T15:38:39+0200</time>
      </trkpt>
      <trkpt lat="44.91523" lon="6.57">
        <ele>2011.1</ele>
        <time>2022-08-28T15:38:41+0200</time>
      </trkpt>
      <trkpt lat="44.91527" lon="6.56995">
        <ele>2012</ele>
        <time>2022-08-28T15:38:43+0200</time>
      </trkpt>
      <trkpt lat="44.91532" lon="6.56995">
        <ele>2012.4</ele>
        <time>2022-08-28T15:38:49+0200</time>
      </trkpt>
      <trkpt lat="44.91537" lon="6.56995">
        <ele>2012.8</ele>
        <time>2022-08-28T15:38:52+0200</time>
      </trkpt>
      <trkpt lat="44.91543" lon="6.56995">
        <ele>2013.2</ele>
        <time>2022-08-28T15:38:54+0200</time>
      </trkpt>
      <trkpt lat="44.9155" lon="6.56995">
        <ele>2013.7</ele>
        <time>2022-08-28T15:38:56+0200</time>
      </trkpt>
      <trkpt lat="44.91558" lon="6.56994">
        <ele>2014.6</ele>
        <time>2022-08-28T15:38:58+0200</time>
      </trkpt>
      <trkpt lat="44.91563" lon="6.56994">
        <ele>2015.5</ele>
        <time>2022-08-28T15:39:00+0200</time>
      </trkpt>
      <trkpt lat="44.9157" lon="6.56994">
        <ele>2016.5</ele>
        <time>2022-08-28T15:39:02+0200</time>
      </trkpt>
      <trkpt lat="44.91576" lon="6.56994">
        <ele>2017.5</ele>
        <time>2022-08-28T15:39:04+0200</time>
      </trkpt>
      <trkpt lat="44.91583" lon="6.56992">
        <ele>2018.8</ele>
        <time>2022-08-28T15:39:06+0200</time>
      </trkpt>
      <trkpt lat="44.91587" lon="6.5699">
        <ele>2018.7</ele>
        <time>2022-08-28T15:39:08+0200</time>
      </trkpt>
      <trkpt lat="44.91593" lon="6.56987">
        <ele>2018.5</ele>
        <time>2022-08-28T15:39:10+0200</time>
      </trkpt>
      <trkpt lat="44.91598" lon="6.56982">
        <ele>2018.6</ele>
        <time>2022-08-28T15:39:12+0200</time>
      </trkpt>
      <trkpt lat="44.91603" lon="6.56977">
        <ele>2018.9</ele>
        <time>2022-08-28T15:39:14+0200</time>
      </trkpt>
      <trkpt lat="44.91606" lon="6.5697">
        <ele>2019.6</ele>
        <time>2022-08-28T15:39:16+0200</time>
      </trkpt>
      <trkpt lat="44.91609" lon="6.56961">
        <ele>2020.3</ele>
        <time>2022-08-28T15:39:18+0200</time>
      </trkpt>
      <trkpt lat="44.91612" lon="6.56952">
        <ele>2021.1</ele>
        <time>2022-08-28T15:39:20+0200</time>
      </trkpt>
      <trkpt lat="44.91613" lon="6.56944">
        <ele>2021.8</ele>
        <time>2022-08-28T15:39:22+0200</time>
      </trkpt>
      <trkpt lat="44.91615" lon="6.56937">
        <ele>2022.3</ele>
        <time>2022-08-28T15:39:24+0200</time>
      </trkpt>
      <trkpt lat="44.91614" lon="6.56931">
        <ele>2022.8</ele>
        <time>2022-08-28T15:39:26+0200</time>
      </trkpt>
      <trkpt lat="44.91613" lon="6.56923">
        <ele>2023.5</ele>
        <time>2022-08-28T15:39:28+0200</time>
      </trkpt>
      <trkpt lat="44.91612" lon="6.56916">
        <ele>2024</ele>
        <time>2022-08-28T15:39:30+0200</time>
      </trkpt>
      <trkpt lat="44.91612" lon="6.56906">
        <ele>2024.9</ele>
        <time>2022-08-28T15:39:32+0200</time>
      </trkpt>
      <trkpt lat="44.91618" lon="6.56896">
        <ele>2026</ele>
        <time>2022-08-28T15:39:34+0200</time>
      </trkpt>
      <trkpt lat="44.91625" lon="6.56892">
        <ele>2027.2</ele>
        <time>2022-08-28T15:39:36+0200</time>
      </trkpt>
      <trkpt lat="44.91633" lon="6.56894">
        <ele>2027.6</ele>
        <time>2022-08-28T15:39:38+0200</time>
      </trkpt>
      <trkpt lat="44.9164" lon="6.56898">
        <ele>2027.6</ele>
        <time>2022-08-28T15:39:40+0200</time>
      </trkpt>
      <trkpt lat="44.91646" lon="6.56904">
        <ele>2027</ele>
        <time>2022-08-28T15:39:42+0200</time>
      </trkpt>
      <trkpt lat="44.9165" lon="6.56908">
        <ele>2026.8</ele>
        <time>2022-08-28T15:39:44+0200</time>
      </trkpt>
      <trkpt lat="44.91655" lon="6.56912">
        <ele>2026.6</ele>
        <time>2022-08-28T15:39:46+0200</time>
      </trkpt>
      <trkpt lat="44.9166" lon="6.56919">
        <ele>2025.9</ele>
        <time>2022-08-28T15:39:48+0200</time>
      </trkpt>
      <trkpt lat="44.91666" lon="6.56921">
        <ele>2026</ele>
        <time>2022-08-28T15:39:50+0200</time>
      </trkpt>
      <trkpt lat="44.91672" lon="6.56918">
        <ele>2027.6</ele>
        <time>2022-08-28T15:39:52+0200</time>
      </trkpt>
      <trkpt lat="44.91675" lon="6.56912">
        <ele>2029.2</ele>
        <time>2022-08-28T15:39:54+0200</time>
      </trkpt>
      <trkpt lat="44.91674" lon="6.56905">
        <ele>2030.4</ele>
        <time>2022-08-28T15:40:01+0200</time>
      </trkpt>
      <trkpt lat="44.91669" lon="6.56902">
        <ele>2030.1</ele>
        <time>2022-08-28T15:40:06+0200</time>
      </trkpt>
      <trkpt lat="44.91663" lon="6.56897">
        <ele>2030.2</ele>
        <time>2022-08-28T15:40:09+0200</time>
      </trkpt>
      <trkpt lat="44.9166" lon="6.5689">
        <ele>2031.1</ele>
        <time>2022-08-28T15:40:11+0200</time>
      </trkpt>
      <trkpt lat="44.91656" lon="6.56884">
        <ele>2031.8</ele>
        <time>2022-08-28T15:40:13+0200</time>
      </trkpt>
      <trkpt lat="44.91652" lon="6.5688">
        <ele>2032</ele>
        <time>2022-08-28T15:40:15+0200</time>
      </trkpt>
      <trkpt lat="44.91648" lon="6.56874">
        <ele>2032.5</ele>
        <time>2022-08-28T15:40:17+0200</time>
      </trkpt>
      <trkpt lat="44.91644" lon="6.56867">
        <ele>2033</ele>
        <time>2022-08-28T15:40:20+0200</time>
      </trkpt>
      <trkpt lat="44.91642" lon="6.56862">
        <ele>2033.4</ele>
        <time>2022-08-28T15:40:22+0200</time>
      </trkpt>
      <trkpt lat="44.91641" lon="6.56855">
        <ele>2034.8</ele>
        <time>2022-08-28T15:40:24+0200</time>
      </trkpt>
      <trkpt lat="44.91638" lon="6.5685">
        <ele>2035.1</ele>
        <time>2022-08-28T15:40:27+0200</time>
      </trkpt>
      <trkpt lat="44.91635" lon="6.56842">
        <ele>2036.4</ele>
        <time>2022-08-28T15:40:30+0200</time>
      </trkpt>
      <trkpt lat="44.91631" lon="6.56835">
        <ele>2037.3</ele>
        <time>2022-08-28T15:40:32+0200</time>
      </trkpt>
      <trkpt lat="44.91629" lon="6.56829">
        <ele>2038</ele>
        <time>2022-08-28T15:40:34+0200</time>
      </trkpt>
      <trkpt lat="44.91625" lon="6.56824">
        <ele>2038.5</ele>
        <time>2022-08-28T15:40:36+0200</time>
      </trkpt>
      <trkpt lat="44.91621" lon="6.56818">
        <ele>2039.1</ele>
        <time>2022-08-28T15:40:39+0200</time>
      </trkpt>
      <trkpt lat="44.91617" lon="6.56812">
        <ele>2039.8</ele>
        <time>2022-08-28T15:40:43+0200</time>
      </trkpt>
      <trkpt lat="44.91613" lon="6.56809">
        <ele>2039.6</ele>
        <time>2022-08-28T15:40:47+0200</time>
      </trkpt>
      <trkpt lat="44.91606" lon="6.56808">
        <ele>2039.6</ele>
        <time>2022-08-28T15:40:50+0200</time>
      </trkpt>
      <trkpt lat="44.91599" lon="6.56809">
        <ele>2039.6</ele>
        <time>2022-08-28T15:40:51+0200</time>
      </trkpt>
      <trkpt lat="44.91592" lon="6.56811">
        <ele>2039.5</ele>
        <time>2022-08-28T15:40:52+0200</time>
      </trkpt>
      <trkpt lat="44.91587" lon="6.56812">
        <ele>2039.4</ele>
        <time>2022-08-28T15:40:53+0200</time>
      </trkpt>
      <trkpt lat="44.9158" lon="6.56815">
        <ele>2039.2</ele>
        <time>2022-08-28T15:40:55+0200</time>
      </trkpt>
      <trkpt lat="44.91572" lon="6.56819">
        <ele>2039.1</ele>
        <time>2022-08-28T15:40:57+0200</time>
      </trkpt>
      <trkpt lat="44.91567" lon="6.56817">
        <ele>2039.9</ele>
        <time>2022-08-28T15:40:59+0200</time>
      </trkpt>
      <trkpt lat="44.9156" lon="6.56815">
        <ele>2040.8</ele>
        <time>2022-08-28T15:41:02+0200</time>
      </trkpt>
      <trkpt lat="44.91561" lon="6.56807">
        <ele>2042.4</ele>
        <time>2022-08-28T15:41:07+0200</time>
      </trkpt>
      <trkpt lat="44.91566" lon="6.568">
        <ele>2043</ele>
        <time>2022-08-28T15:41:10+0200</time>
      </trkpt>
      <trkpt lat="44.91571" lon="6.56795">
        <ele>2043.4</ele>
        <time>2022-08-28T15:41:13+0200</time>
      </trkpt>
      <trkpt lat="44.91577" lon="6.56791">
        <ele>2043.9</ele>
        <time>2022-08-28T15:41:16+0200</time>
      </trkpt>
      <trkpt lat="44.91582" lon="6.56787">
        <ele>2044.4</ele>
        <time>2022-08-28T15:41:19+0200</time>
      </trkpt>
      <trkpt lat="44.91586" lon="6.56783">
        <ele>2045.1</ele>
        <time>2022-08-28T15:41:22+0200</time>
      </trkpt>
      <trkpt lat="44.9159" lon="6.56778">
        <ele>2046.2</ele>
        <time>2022-08-28T15:41:28+0200</time>
      </trkpt>
      <trkpt lat="44.91595" lon="6.56776">
        <ele>2047</ele>
        <time>2022-08-28T15:41:32+0200</time>
      </trkpt>
      <trkpt lat="44.916" lon="6.56774">
        <ele>2047.6</ele>
        <time>2022-08-28T15:41:36+0200</time>
      </trkpt>
      <trkpt lat="44.91607" lon="6.56776">
        <ele>2047.5</ele>
        <time>2022-08-28T15:41:39+0200</time>
      </trkpt>
      <trkpt lat="44.91613" lon="6.56775">
        <ele>2048</ele>
        <time>2022-08-28T15:41:42+0200</time>
      </trkpt>
      <trkpt lat="44.91618" lon="6.56776">
        <ele>2048.5</ele>
        <time>2022-08-28T15:41:45+0200</time>
      </trkpt>
      <trkpt lat="44.91622" lon="6.56775">
        <ele>2049.3</ele>
        <time>2022-08-28T15:41:48+0200</time>
      </trkpt>
      <trkpt lat="44.91627" lon="6.56778">
        <ele>2049.4</ele>
        <time>2022-08-28T15:41:51+0200</time>
      </trkpt>
      <trkpt lat="44.91632" lon="6.56776">
        <ele>2050.6</ele>
        <time>2022-08-28T15:41:53+0200</time>
      </trkpt>
      <trkpt lat="44.91638" lon="6.56776">
        <ele>2051.4</ele>
        <time>2022-08-28T15:41:56+0200</time>
      </trkpt>
      <trkpt lat="44.91643" lon="6.56776">
        <ele>2052.3</ele>
        <time>2022-08-28T15:41:58+0200</time>
      </trkpt>
      <trkpt lat="44.91649" lon="6.5678">
        <ele>2052.7</ele>
        <time>2022-08-28T15:42:01+0200</time>
      </trkpt>
      <trkpt lat="44.91654" lon="6.56784">
        <ele>2053.1</ele>
        <time>2022-08-28T15:42:03+0200</time>
      </trkpt>
      <trkpt lat="44.91661" lon="6.56782">
        <ele>2054.8</ele>
        <time>2022-08-28T15:42:05+0200</time>
      </trkpt>
      <trkpt lat="44.91666" lon="6.56783">
        <ele>2055.8</ele>
        <time>2022-08-28T15:42:07+0200</time>
      </trkpt>
      <trkpt lat="44.91671" lon="6.56784">
        <ele>2056.3</ele>
        <time>2022-08-28T15:42:09+0200</time>
      </trkpt>
      <trkpt lat="44.91677" lon="6.56784">
        <ele>2057.3</ele>
        <time>2022-08-28T15:42:12+0200</time>
      </trkpt>
      <trkpt lat="44.91684" lon="6.56784">
        <ele>2058.3</ele>
        <time>2022-08-28T15:42:15+0200</time>
      </trkpt>
      <trkpt lat="44.9169" lon="6.56783">
        <ele>2059.5</ele>
        <time>2022-08-28T15:42:18+0200</time>
      </trkpt>
      <trkpt lat="44.91696" lon="6.56779">
        <ele>2061.2</ele>
        <time>2022-08-28T15:42:20+0200</time>
      </trkpt>
      <trkpt lat="44.91702" lon="6.5678">
        <ele>2062.2</ele>
        <time>2022-08-28T15:42:23+0200</time>
      </trkpt>
      <trkpt lat="44.91709" lon="6.5678">
        <ele>2063.9</ele>
        <time>2022-08-28T15:42:26+0200</time>
      </trkpt>
      <trkpt lat="44.91715" lon="6.56779">
        <ele>2065</ele>
        <time>2022-08-28T15:42:28+0200</time>
      </trkpt>
      <trkpt lat="44.91718" lon="6.56784">
        <ele>2064.8</ele>
        <time>2022-08-28T15:42:31+0200</time>
      </trkpt>
      <trkpt lat="44.91722" lon="6.56788">
        <ele>2064.7</ele>
        <time>2022-08-28T15:42:33+0200</time>
      </trkpt>
      <trkpt lat="44.91728" lon="6.5679">
        <ele>2065.5</ele>
        <time>2022-08-28T15:42:36+0200</time>
      </trkpt>
      <trkpt lat="44.91735" lon="6.56794">
        <ele>2066.2</ele>
        <time>2022-08-28T15:42:39+0200</time>
      </trkpt>
      <trkpt lat="44.9174" lon="6.56796">
        <ele>2066.9</ele>
        <time>2022-08-28T15:42:41+0200</time>
      </trkpt>
      <trkpt lat="44.91744" lon="6.56799">
        <ele>2067.1</ele>
        <time>2022-08-28T15:42:43+0200</time>
      </trkpt>
      <trkpt lat="44.91749" lon="6.56802">
        <ele>2067.6</ele>
        <time>2022-08-28T15:42:45+0200</time>
      </trkpt>
      <trkpt lat="44.91754" lon="6.56804">
        <ele>2068.3</ele>
        <time>2022-08-28T15:42:47+0200</time>
      </trkpt>
      <trkpt lat="44.91759" lon="6.56807">
        <ele>2069.1</ele>
        <time>2022-08-28T15:42:49+0200</time>
      </trkpt>
      <trkpt lat="44.91766" lon="6.56809">
        <ele>2070.4</ele>
        <time>2022-08-28T15:42:51+0200</time>
      </trkpt>
      <trkpt lat="44.91771" lon="6.56808">
        <ele>2072</ele>
        <time>2022-08-28T15:42:53+0200</time>
      </trkpt>
      <trkpt lat="44.91775" lon="6.56804">
        <ele>2073.6</ele>
        <time>2022-08-28T15:42:55+0200</time>
      </trkpt>
      <trkpt lat="44.91775" lon="6.56796">
        <ele>2075.4</ele>
        <time>2022-08-28T15:42:59+0200</time>
      </trkpt>
      <trkpt lat="44.91773" lon="6.5679">
        <ele>2076.1</ele>
        <time>2022-08-28T15:43:03+0200</time>
      </trkpt>
      <trkpt lat="44.91768" lon="6.56785">
        <ele>2075.8</ele>
        <time>2022-08-28T15:43:07+0200</time>
      </trkpt>
      <trkpt lat="44.91764" lon="6.5678">
        <ele>2075.9</ele>
        <time>2022-08-28T15:43:11+0200</time>
      </trkpt>
      <trkpt lat="44.9176" lon="6.56774">
        <ele>2076.7</ele>
        <time>2022-08-28T15:43:14+0200</time>
      </trkpt>
      <trkpt lat="44.91758" lon="6.56765">
        <ele>2078.6</ele>
        <time>2022-08-28T15:43:18+0200</time>
      </trkpt>
      <trkpt lat="44.91753" lon="6.5676">
        <ele>2078.7</ele>
        <time>2022-08-28T15:43:22+0200</time>
      </trkpt>
      <trkpt lat="44.91749" lon="6.56756">
        <ele>2079</ele>
        <time>2022-08-28T15:43:24+0200</time>
      </trkpt>
      <trkpt lat="44.91745" lon="6.56751">
        <ele>2079.5</ele>
        <time>2022-08-28T15:43:27+0200</time>
      </trkpt>
      <trkpt lat="44.9174" lon="6.56748">
        <ele>2079.4</ele>
        <time>2022-08-28T15:43:29+0200</time>
      </trkpt>
      <trkpt lat="44.91735" lon="6.56744">
        <ele>2079.8</ele>
        <time>2022-08-28T15:43:32+0200</time>
      </trkpt>
      <trkpt lat="44.9173" lon="6.5674">
        <ele>2080.4</ele>
        <time>2022-08-28T15:43:35+0200</time>
      </trkpt>
      <trkpt lat="44.91726" lon="6.56736">
        <ele>2080.9</ele>
        <time>2022-08-28T15:43:37+0200</time>
      </trkpt>
      <trkpt lat="44.91721" lon="6.56733">
        <ele>2080.8</ele>
        <time>2022-08-28T15:43:39+0200</time>
      </trkpt>
      <trkpt lat="44.91717" lon="6.56731">
        <ele>2080.8</ele>
        <time>2022-08-28T15:43:41+0200</time>
      </trkpt>
      <trkpt lat="44.91712" lon="6.56729">
        <ele>2080.5</ele>
        <time>2022-08-28T15:43:43+0200</time>
      </trkpt>
      <trkpt lat="44.91709" lon="6.56724">
        <ele>2081.6</ele>
        <time>2022-08-28T15:43:45+0200</time>
      </trkpt>
      <trkpt lat="44.91705" lon="6.56719">
        <ele>2082.3</ele>
        <time>2022-08-28T15:43:47+0200</time>
      </trkpt>
      <trkpt lat="44.91701" lon="6.56714">
        <ele>2082.9</ele>
        <time>2022-08-28T15:43:49+0200</time>
      </trkpt>
      <trkpt lat="44.91697" lon="6.56708">
        <ele>2083.8</ele>
        <time>2022-08-28T15:43:51+0200</time>
      </trkpt>
      <trkpt lat="44.91692" lon="6.56704">
        <ele>2083.9</ele>
        <time>2022-08-28T15:43:53+0200</time>
      </trkpt>
      <trkpt lat="44.91688" lon="6.56697">
        <ele>2085.1</ele>
        <time>2022-08-28T15:43:55+0200</time>
      </trkpt>
      <trkpt lat="44.91684" lon="6.5669">
        <ele>2086.2</ele>
        <time>2022-08-28T15:43:58+0200</time>
      </trkpt>
      <trkpt lat="44.91681" lon="6.56686">
        <ele>2086.7</ele>
        <time>2022-08-28T15:44:00+0200</time>
      </trkpt>
      <trkpt lat="44.91679" lon="6.56678">
        <ele>2088</ele>
        <time>2022-08-28T15:44:03+0200</time>
      </trkpt>
      <trkpt lat="44.91677" lon="6.56672">
        <ele>2088.9</ele>
        <time>2022-08-28T15:44:06+0200</time>
      </trkpt>
      <trkpt lat="44.91675" lon="6.56663">
        <ele>2090.5</ele>
        <time>2022-08-28T15:44:09+0200</time>
      </trkpt>
      <trkpt lat="44.91673" lon="6.56656">
        <ele>2091.5</ele>
        <time>2022-08-28T15:44:12+0200</time>
      </trkpt>
      <trkpt lat="44.9167" lon="6.56647">
        <ele>2092.3</ele>
        <time>2022-08-28T15:44:15+0200</time>
      </trkpt>
      <trkpt lat="44.91668" lon="6.56641">
        <ele>2092.9</ele>
        <time>2022-08-28T15:44:17+0200</time>
      </trkpt>
      <trkpt lat="44.91667" lon="6.56634">
        <ele>2094.3</ele>
        <time>2022-08-28T15:44:20+0200</time>
      </trkpt>
      <trkpt lat="44.91665" lon="6.56626">
        <ele>2095.4</ele>
        <time>2022-08-28T15:44:23+0200</time>
      </trkpt>
      <trkpt lat="44.91662" lon="6.56619">
        <ele>2096.3</ele>
        <time>2022-08-28T15:44:26+0200</time>
      </trkpt>
      <trkpt lat="44.9166" lon="6.56613">
        <ele>2096.8</ele>
        <time>2022-08-28T15:44:28+0200</time>
      </trkpt>
      <trkpt lat="44.91657" lon="6.56604">
        <ele>2098.2</ele>
        <time>2022-08-28T15:44:31+0200</time>
      </trkpt>
      <trkpt lat="44.91654" lon="6.56596">
        <ele>2099.3</ele>
        <time>2022-08-28T15:44:34+0200</time>
      </trkpt>
      <trkpt lat="44.9165" lon="6.56593">
        <ele>2099.1</ele>
        <time>2022-08-28T15:44:36+0200</time>
      </trkpt>
      <trkpt lat="44.91646" lon="6.56587">
        <ele>2099.2</ele>
        <time>2022-08-28T15:44:39+0200</time>
      </trkpt>
      <trkpt lat="44.91642" lon="6.56581">
        <ele>2099.5</ele>
        <time>2022-08-28T15:44:41+0200</time>
      </trkpt>
      <trkpt lat="44.91638" lon="6.56575">
        <ele>2099.9</ele>
        <time>2022-08-28T15:44:44+0200</time>
      </trkpt>
      <trkpt lat="44.91634" lon="6.56571">
        <ele>2100.2</ele>
        <time>2022-08-28T15:44:46+0200</time>
      </trkpt>
      <trkpt lat="44.91628" lon="6.56566">
        <ele>2100</ele>
        <time>2022-08-28T15:44:51+0200</time>
      </trkpt>
      <trkpt lat="44.91623" lon="6.56566">
        <ele>2098.9</ele>
        <time>2022-08-28T15:44:53+0200</time>
      </trkpt>
      <trkpt lat="44.91618" lon="6.56562">
        <ele>2098.9</ele>
        <time>2022-08-28T15:44:56+0200</time>
      </trkpt>
      <trkpt lat="44.91614" lon="6.5656">
        <ele>2098.5</ele>
        <time>2022-08-28T15:44:59+0200</time>
      </trkpt>
      <trkpt lat="44.91608" lon="6.56554">
        <ele>2099.1</ele>
        <time>2022-08-28T15:45:03+0200</time>
      </trkpt>
      <trkpt lat="44.91603" lon="6.56547">
        <ele>2100.9</ele>
        <time>2022-08-28T15:45:06+0200</time>
      </trkpt>
      <trkpt lat="44.91598" lon="6.56541">
        <ele>2102</ele>
        <time>2022-08-28T15:45:09+0200</time>
      </trkpt>
      <trkpt lat="44.91594" lon="6.56538">
        <ele>2102.5</ele>
        <time>2022-08-28T15:45:11+0200</time>
      </trkpt>
      <trkpt lat="44.91587" lon="6.56534">
        <ele>2102.6</ele>
        <time>2022-08-28T15:45:14+0200</time>
      </trkpt>
      <trkpt lat="44.91583" lon="6.56528">
        <ele>2103.8</ele>
        <time>2022-08-28T15:45:17+0200</time>
      </trkpt>
      <trkpt lat="44.91578" lon="6.56527">
        <ele>2104</ele>
        <time>2022-08-28T15:45:19+0200</time>
      </trkpt>
      <trkpt lat="44.91575" lon="6.56521">
        <ele>2105.9</ele>
        <time>2022-08-28T15:45:22+0200</time>
      </trkpt>
      <trkpt lat="44.91576" lon="6.56515">
        <ele>2107.9</ele>
        <time>2022-08-28T15:45:27+0200</time>
      </trkpt>
      <trkpt lat="44.9158" lon="6.56519">
        <ele>2106.7</ele>
        <time>2022-08-28T15:45:35+0200</time>
      </trkpt>
      <trkpt lat="44.91585" lon="6.56519">
        <ele>2106.9</ele>
        <time>2022-08-28T15:45:38+0200</time>
      </trkpt>
      <trkpt lat="44.9159" lon="6.5652">
        <ele>2107.6</ele>
        <time>2022-08-28T15:45:41+0200</time>
      </trkpt>
      <trkpt lat="44.91596" lon="6.56521">
        <ele>2108.1</ele>
        <time>2022-08-28T15:45:44+0200</time>
      </trkpt>
      <trkpt lat="44.916" lon="6.5652">
        <ele>2108.9</ele>
        <time>2022-08-28T15:45:47+0200</time>
      </trkpt>
      <trkpt lat="44.91606" lon="6.56523">
        <ele>2108.8</ele>
        <time>2022-08-28T15:45:50+0200</time>
      </trkpt>
      <trkpt lat="44.91611" lon="6.56525">
        <ele>2108.8</ele>
        <time>2022-08-28T15:45:52+0200</time>
      </trkpt>
      <trkpt lat="44.91615" lon="6.56529">
        <ele>2108.7</ele>
        <time>2022-08-28T15:45:54+0200</time>
      </trkpt>
      <trkpt lat="44.91619" lon="6.56534">
        <ele>2107.9</ele>
        <time>2022-08-28T15:45:56+0200</time>
      </trkpt>
      <trkpt lat="44.91624" lon="6.56534">
        <ele>2108.9</ele>
        <time>2022-08-28T15:45:58+0200</time>
      </trkpt>
      <trkpt lat="44.91629" lon="6.56535">
        <ele>2109.5</ele>
        <time>2022-08-28T15:46:00+0200</time>
      </trkpt>
      <trkpt lat="44.91635" lon="6.56536">
        <ele>2110.4</ele>
        <time>2022-08-28T15:46:02+0200</time>
      </trkpt>
      <trkpt lat="44.9164" lon="6.56538">
        <ele>2111</ele>
        <time>2022-08-28T15:46:04+0200</time>
      </trkpt>
      <trkpt lat="44.91646" lon="6.5654">
        <ele>2112</ele>
        <time>2022-08-28T15:46:06+0200</time>
      </trkpt>
      <trkpt lat="44.91652" lon="6.5654">
        <ele>2113.7</ele>
        <time>2022-08-28T15:46:08+0200</time>
      </trkpt>
      <trkpt lat="44.91657" lon="6.56541">
        <ele>2114.4</ele>
        <time>2022-08-28T15:46:10+0200</time>
      </trkpt>
      <trkpt lat="44.91662" lon="6.56541">
        <ele>2116</ele>
        <time>2022-08-28T15:46:12+0200</time>
      </trkpt>
      <trkpt lat="44.91668" lon="6.56541">
        <ele>2117.5</ele>
        <time>2022-08-28T15:46:14+0200</time>
      </trkpt>
      <trkpt lat="44.91673" lon="6.56543">
        <ele>2118.5</ele>
        <time>2022-08-28T15:46:16+0200</time>
      </trkpt>
      <trkpt lat="44.91678" lon="6.56544">
        <ele>2120.1</ele>
        <time>2022-08-28T15:46:19+0200</time>
      </trkpt>
      <trkpt lat="44.91683" lon="6.56547">
        <ele>2120.9</ele>
        <time>2022-08-28T15:46:23+0200</time>
      </trkpt>
      <trkpt lat="44.91688" lon="6.56554">
        <ele>2120.4</ele>
        <time>2022-08-28T15:46:26+0200</time>
      </trkpt>
      <trkpt lat="44.91691" lon="6.56559">
        <ele>2119.9</ele>
        <time>2022-08-28T15:46:28+0200</time>
      </trkpt>
      <trkpt lat="44.91694" lon="6.56564">
        <ele>2119.8</ele>
        <time>2022-08-28T15:46:30+0200</time>
      </trkpt>
      <trkpt lat="44.91698" lon="6.56569">
        <ele>2120</ele>
        <time>2022-08-28T15:46:32+0200</time>
      </trkpt>
      <trkpt lat="44.91701" lon="6.56575">
        <ele>2119.5</ele>
        <time>2022-08-28T15:46:34+0200</time>
      </trkpt>
      <trkpt lat="44.91707" lon="6.56581">
        <ele>2120.2</ele>
        <time>2022-08-28T15:46:36+0200</time>
      </trkpt>
      <trkpt lat="44.91712" lon="6.56585">
        <ele>2120.8</ele>
        <time>2022-08-28T15:46:38+0200</time>
      </trkpt>
      <trkpt lat="44.9172" lon="6.5659">
        <ele>2122.2</ele>
        <time>2022-08-28T15:46:40+0200</time>
      </trkpt>
      <trkpt lat="44.91724" lon="6.56595">
        <ele>2122.2</ele>
        <time>2022-08-28T15:46:42+0200</time>
      </trkpt>
      <trkpt lat="44.91729" lon="6.56599">
        <ele>2122.7</ele>
        <time>2022-08-28T15:46:44+0200</time>
      </trkpt>
      <trkpt lat="44.91734" lon="6.56603">
        <ele>2123</ele>
        <time>2022-08-28T15:46:46+0200</time>
      </trkpt>
      <trkpt lat="44.91739" lon="6.56604">
        <ele>2124.7</ele>
        <time>2022-08-28T15:46:48+0200</time>
      </trkpt>
      <trkpt lat="44.91745" lon="6.56608">
        <ele>2125.3</ele>
        <time>2022-08-28T15:46:50+0200</time>
      </trkpt>
      <trkpt lat="44.91751" lon="6.56612">
        <ele>2126</ele>
        <time>2022-08-28T15:46:52+0200</time>
      </trkpt>
      <trkpt lat="44.91758" lon="6.56617">
        <ele>2125.9</ele>
        <time>2022-08-28T15:46:55+0200</time>
      </trkpt>
      <trkpt lat="44.91763" lon="6.56621">
        <ele>2126</ele>
        <time>2022-08-28T15:46:57+0200</time>
      </trkpt>
      <trkpt lat="44.91768" lon="6.56623">
        <ele>2126.6</ele>
        <time>2022-08-28T15:46:59+0200</time>
      </trkpt>
      <trkpt lat="44.91774" lon="6.56626">
        <ele>2127</ele>
        <time>2022-08-28T15:47:01+0200</time>
      </trkpt>
      <trkpt lat="44.9178" lon="6.56626">
        <ele>2127.8</ele>
        <time>2022-08-28T15:47:03+0200</time>
      </trkpt>
      <trkpt lat="44.91785" lon="6.56625">
        <ele>2127.9</ele>
        <time>2022-08-28T15:47:05+0200</time>
      </trkpt>
      <trkpt lat="44.91791" lon="6.56621">
        <ele>2128.4</ele>
        <time>2022-08-28T15:47:07+0200</time>
      </trkpt>
      <trkpt lat="44.91797" lon="6.56616">
        <ele>2129</ele>
        <time>2022-08-28T15:47:09+0200</time>
      </trkpt>
      <trkpt lat="44.918" lon="6.56609">
        <ele>2129.7</ele>
        <time>2022-08-28T15:47:11+0200</time>
      </trkpt>
      <trkpt lat="44.91802" lon="6.56601">
        <ele>2130.5</ele>
        <time>2022-08-28T15:47:13+0200</time>
      </trkpt>
      <trkpt lat="44.91805" lon="6.56593">
        <ele>2131.1</ele>
        <time>2022-08-28T15:47:15+0200</time>
      </trkpt>
      <trkpt lat="44.91808" lon="6.56589">
        <ele>2130.7</ele>
        <time>2022-08-28T15:47:17+0200</time>
      </trkpt>
      <trkpt lat="44.91811" lon="6.56582">
        <ele>2130.4</ele>
        <time>2022-08-28T15:47:21+0200</time>
      </trkpt>
      <trkpt lat="44.91812" lon="6.56575">
        <ele>2130.7</ele>
        <time>2022-08-28T15:47:23+0200</time>
      </trkpt>
      <trkpt lat="44.91814" lon="6.56569">
        <ele>2130.6</ele>
        <time>2022-08-28T15:47:25+0200</time>
      </trkpt>
      <trkpt lat="44.91815" lon="6.56562">
        <ele>2131</ele>
        <time>2022-08-28T15:47:27+0200</time>
      </trkpt>
      <trkpt lat="44.91817" lon="6.56553">
        <ele>2131.2</ele>
        <time>2022-08-28T15:47:29+0200</time>
      </trkpt>
      <trkpt lat="44.91816" lon="6.56544">
        <ele>2132.3</ele>
        <time>2022-08-28T15:47:31+0200</time>
      </trkpt>
      <trkpt lat="44.91818" lon="6.56536">
        <ele>2132.3</ele>
        <time>2022-08-28T15:47:33+0200</time>
      </trkpt>
      <trkpt lat="44.91821" lon="6.56528">
        <ele>2132.2</ele>
        <time>2022-08-28T15:47:36+0200</time>
      </trkpt>
      <trkpt lat="44.91824" lon="6.5652">
        <ele>2131.8</ele>
        <time>2022-08-28T15:47:39+0200</time>
      </trkpt>
      <trkpt lat="44.91826" lon="6.56513">
        <ele>2131.9</ele>
        <time>2022-08-28T15:47:41+0200</time>
      </trkpt>
      <trkpt lat="44.91828" lon="6.56505">
        <ele>2132.2</ele>
        <time>2022-08-28T15:47:43+0200</time>
      </trkpt>
      <trkpt lat="44.91829" lon="6.56497">
        <ele>2132.6</ele>
        <time>2022-08-28T15:47:45+0200</time>
      </trkpt>
      <trkpt lat="44.91832" lon="6.5649">
        <ele>2132.5</ele>
        <time>2022-08-28T15:47:47+0200</time>
      </trkpt>
      <trkpt lat="44.91834" lon="6.5648">
        <ele>2133.1</ele>
        <time>2022-08-28T15:47:49+0200</time>
      </trkpt>
      <trkpt lat="44.91836" lon="6.5647">
        <ele>2133.4</ele>
        <time>2022-08-28T15:47:51+0200</time>
      </trkpt>
      <trkpt lat="44.91841" lon="6.56461">
        <ele>2133.1</ele>
        <time>2022-08-28T15:47:53+0200</time>
      </trkpt>
      <trkpt lat="44.91845" lon="6.56456">
        <ele>2132.4</ele>
        <time>2022-08-28T15:47:56+0200</time>
      </trkpt>
      <trkpt lat="44.91848" lon="6.56446">
        <ele>2132.7</ele>
        <time>2022-08-28T15:48:00+0200</time>
      </trkpt>
      <trkpt lat="44.91847" lon="6.56438">
        <ele>2133.9</ele>
        <time>2022-08-28T15:48:02+0200</time>
      </trkpt>
      <trkpt lat="44.91848" lon="6.56431">
        <ele>2134.5</ele>
        <time>2022-08-28T15:48:04+0200</time>
      </trkpt>
      <trkpt lat="44.91848" lon="6.5642">
        <ele>2135.9</ele>
        <time>2022-08-28T15:48:06+0200</time>
      </trkpt>
      <trkpt lat="44.91849" lon="6.56411">
        <ele>2136.8</ele>
        <time>2022-08-28T15:48:08+0200</time>
      </trkpt>
      <trkpt lat="44.91851" lon="6.56406">
        <ele>2136.5</ele>
        <time>2022-08-28T15:48:11+0200</time>
      </trkpt>
      <trkpt lat="44.91856" lon="6.56402">
        <ele>2135.9</ele>
        <time>2022-08-28T15:48:13+0200</time>
      </trkpt>
      <trkpt lat="44.91858" lon="6.56396">
        <ele>2136</ele>
        <time>2022-08-28T15:48:16+0200</time>
      </trkpt>
      <trkpt lat="44.91859" lon="6.56388">
        <ele>2136.6</ele>
        <time>2022-08-28T15:48:18+0200</time>
      </trkpt>
      <trkpt lat="44.91861" lon="6.56379">
        <ele>2137.6</ele>
        <time>2022-08-28T15:48:20+0200</time>
      </trkpt>
      <trkpt lat="44.9186" lon="6.56369">
        <ele>2139.2</ele>
        <time>2022-08-28T15:48:22+0200</time>
      </trkpt>
      <trkpt lat="44.9186" lon="6.56359">
        <ele>2140.7</ele>
        <time>2022-08-28T15:48:24+0200</time>
      </trkpt>
      <trkpt lat="44.91861" lon="6.56351">
        <ele>2141.5</ele>
        <time>2022-08-28T15:48:26+0200</time>
      </trkpt>
      <trkpt lat="44.91863" lon="6.56344">
        <ele>2142.1</ele>
        <time>2022-08-28T15:48:28+0200</time>
      </trkpt>
      <trkpt lat="44.91864" lon="6.56336">
        <ele>2142.8</ele>
        <time>2022-08-28T15:48:30+0200</time>
      </trkpt>
      <trkpt lat="44.91868" lon="6.56328">
        <ele>2143.3</ele>
        <time>2022-08-28T15:48:34+0200</time>
      </trkpt>
      <trkpt lat="44.91869" lon="6.56322">
        <ele>2143.9</ele>
        <time>2022-08-28T15:48:37+0200</time>
      </trkpt>
      <trkpt lat="44.91873" lon="6.56316">
        <ele>2144.1</ele>
        <time>2022-08-28T15:48:39+0200</time>
      </trkpt>
      <trkpt lat="44.91878" lon="6.56312">
        <ele>2143.2</ele>
        <time>2022-08-28T15:48:42+0200</time>
      </trkpt>
      <trkpt lat="44.91882" lon="6.56306">
        <ele>2142.9</ele>
        <time>2022-08-28T15:48:45+0200</time>
      </trkpt>
      <trkpt lat="44.91885" lon="6.56299">
        <ele>2143</ele>
        <time>2022-08-28T15:48:49+0200</time>
      </trkpt>
      <trkpt lat="44.91888" lon="6.56294">
        <ele>2142.8</ele>
        <time>2022-08-28T15:48:52+0200</time>
      </trkpt>
      <trkpt lat="44.9189" lon="6.56286">
        <ele>2143.5</ele>
        <time>2022-08-28T15:48:55+0200</time>
      </trkpt>
      <trkpt lat="44.91891" lon="6.56278">
        <ele>2144.5</ele>
        <time>2022-08-28T15:48:57+0200</time>
      </trkpt>
      <trkpt lat="44.91893" lon="6.56271">
        <ele>2145.1</ele>
        <time>2022-08-28T15:48:59+0200</time>
      </trkpt>
      <trkpt lat="44.91895" lon="6.56265">
        <ele>2145.7</ele>
        <time>2022-08-28T15:49:01+0200</time>
      </trkpt>
      <trkpt lat="44.91896" lon="6.56256">
        <ele>2147</ele>
        <time>2022-08-28T15:49:03+0200</time>
      </trkpt>
      <trkpt lat="44.91898" lon="6.56251">
        <ele>2147.2</ele>
        <time>2022-08-28T15:49:05+0200</time>
      </trkpt>
      <trkpt lat="44.91899" lon="6.56242">
        <ele>2148.2</ele>
        <time>2022-08-28T15:49:08+0200</time>
      </trkpt>
      <trkpt lat="44.919" lon="6.56233">
        <ele>2149.2</ele>
        <time>2022-08-28T15:49:10+0200</time>
      </trkpt>
      <trkpt lat="44.919" lon="6.56223">
        <ele>2150.4</ele>
        <time>2022-08-28T15:49:13+0200</time>
      </trkpt>
      <trkpt lat="44.91901" lon="6.56215">
        <ele>2150.9</ele>
        <time>2022-08-28T15:49:16+0200</time>
      </trkpt>
      <trkpt lat="44.919" lon="6.56209">
        <ele>2151.9</ele>
        <time>2022-08-28T15:49:18+0200</time>
      </trkpt>
      <trkpt lat="44.91899" lon="6.56201">
        <ele>2153.2</ele>
        <time>2022-08-28T15:49:20+0200</time>
      </trkpt>
      <trkpt lat="44.91899" lon="6.56195">
        <ele>2154.1</ele>
        <time>2022-08-28T15:49:22+0200</time>
      </trkpt>
      <trkpt lat="44.91899" lon="6.56188">
        <ele>2154.7</ele>
        <time>2022-08-28T15:49:24+0200</time>
      </trkpt>
      <trkpt lat="44.91899" lon="6.5618">
        <ele>2155.2</ele>
        <time>2022-08-28T15:49:27+0200</time>
      </trkpt>
      <trkpt lat="44.91899" lon="6.56173">
        <ele>2155.8</ele>
        <time>2022-08-28T15:49:30+0200</time>
      </trkpt>
      <trkpt lat="44.919" lon="6.56164">
        <ele>2155.8</ele>
        <time>2022-08-28T15:49:34+0200</time>
      </trkpt>
      <trkpt lat="44.91899" lon="6.56156">
        <ele>2156.4</ele>
        <time>2022-08-28T15:49:37+0200</time>
      </trkpt>
      <trkpt lat="44.91899" lon="6.56149">
        <ele>2157</ele>
        <time>2022-08-28T15:49:40+0200</time>
      </trkpt>
      <trkpt lat="44.91898" lon="6.5614">
        <ele>2157.5</ele>
        <time>2022-08-28T15:49:44+0200</time>
      </trkpt>
      <trkpt lat="44.91899" lon="6.56133">
        <ele>2157.3</ele>
        <time>2022-08-28T15:49:48+0200</time>
      </trkpt>
      <trkpt lat="44.91897" lon="6.56125">
        <ele>2158.6</ele>
        <time>2022-08-28T15:49:52+0200</time>
      </trkpt>
      <trkpt lat="44.91894" lon="6.5612">
        <ele>2160</ele>
        <time>2022-08-28T15:49:54+0200</time>
      </trkpt>
      <trkpt lat="44.91888" lon="6.56118">
        <ele>2163.1</ele>
        <time>2022-08-28T15:49:57+0200</time>
      </trkpt>
      <trkpt lat="44.91884" lon="6.56119">
        <ele>2165.4</ele>
        <time>2022-08-28T15:49:59+0200</time>
      </trkpt>
      <trkpt lat="44.91879" lon="6.56123">
        <ele>2167.3</ele>
        <time>2022-08-28T15:50:02+0200</time>
      </trkpt>
      <trkpt lat="44.91877" lon="6.5613">
        <ele>2168</ele>
        <time>2022-08-28T15:50:07+0200</time>
      </trkpt>
      <trkpt lat="44.91872" lon="6.56132">
        <ele>2170.3</ele>
        <time>2022-08-28T15:50:09+0200</time>
      </trkpt>
      <trkpt lat="44.91869" lon="6.56136">
        <ele>2171.7</ele>
        <time>2022-08-28T15:50:12+0200</time>
      </trkpt>
      <trkpt lat="44.91866" lon="6.56143">
        <ele>2172.2</ele>
        <time>2022-08-28T15:50:16+0200</time>
      </trkpt>
      <trkpt lat="44.91862" lon="6.5615">
        <ele>2173.4</ele>
        <time>2022-08-28T15:50:19+0200</time>
      </trkpt>
      <trkpt lat="44.91858" lon="6.56157">
        <ele>2174.3</ele>
        <time>2022-08-28T15:50:22+0200</time>
      </trkpt>
      <trkpt lat="44.91854" lon="6.56162">
        <ele>2175.6</ele>
        <time>2022-08-28T15:50:25+0200</time>
      </trkpt>
      <trkpt lat="44.9185" lon="6.5617">
        <ele>2176.8</ele>
        <time>2022-08-28T15:50:28+0200</time>
      </trkpt>
      <trkpt lat="44.91847" lon="6.56176">
        <ele>2177.2</ele>
        <time>2022-08-28T15:50:31+0200</time>
      </trkpt>
      <trkpt lat="44.91844" lon="6.56184">
        <ele>2177.4</ele>
        <time>2022-08-28T15:50:34+0200</time>
      </trkpt>
      <trkpt lat="44.91839" lon="6.56188">
        <ele>2178.9</ele>
        <time>2022-08-28T15:50:38+0200</time>
      </trkpt>
      <trkpt lat="44.91836" lon="6.56194">
        <ele>2178.9</ele>
        <time>2022-08-28T15:50:41+0200</time>
      </trkpt>
      <trkpt lat="44.91832" lon="6.562">
        <ele>2179.7</ele>
        <time>2022-08-28T15:50:44+0200</time>
      </trkpt>
      <trkpt lat="44.91828" lon="6.56204">
        <ele>2180.7</ele>
        <time>2022-08-28T15:50:47+0200</time>
      </trkpt>
      <trkpt lat="44.91824" lon="6.56209">
        <ele>2181.5</ele>
        <time>2022-08-28T15:50:51+0200</time>
      </trkpt>
      <trkpt lat="44.91821" lon="6.56214">
        <ele>2181.9</ele>
        <time>2022-08-28T15:50:53+0200</time>
      </trkpt>
      <trkpt lat="44.91816" lon="6.56219">
        <ele>2183.2</ele>
        <time>2022-08-28T15:50:56+0200</time>
      </trkpt>
      <trkpt lat="44.91812" lon="6.56224">
        <ele>2183.6</ele>
        <time>2022-08-28T15:50:59+0200</time>
      </trkpt>
      <trkpt lat="44.91808" lon="6.56231">
        <ele>2184.2</ele>
        <time>2022-08-28T15:51:02+0200</time>
      </trkpt>
      <trkpt lat="44.91804" lon="6.56235">
        <ele>2184.9</ele>
        <time>2022-08-28T15:51:05+0200</time>
      </trkpt>
      <trkpt lat="44.91799" lon="6.56239">
        <ele>2185.8</ele>
        <time>2022-08-28T15:51:08+0200</time>
      </trkpt>
      <trkpt lat="44.91794" lon="6.56244">
        <ele>2186.9</ele>
        <time>2022-08-28T15:51:11+0200</time>
      </trkpt>
      <trkpt lat="44.91789" lon="6.56247">
        <ele>2188.5</ele>
        <time>2022-08-28T15:51:13+0200</time>
      </trkpt>
      <trkpt lat="44.91783" lon="6.56254">
        <ele>2189.3</ele>
        <time>2022-08-28T15:51:16+0200</time>
      </trkpt>
      <trkpt lat="44.91779" lon="6.56259">
        <ele>2189.9</ele>
        <time>2022-08-28T15:51:18+0200</time>
      </trkpt>
      <trkpt lat="44.91775" lon="6.56266">
        <ele>2190.3</ele>
        <time>2022-08-28T15:51:20+0200</time>
      </trkpt>
      <trkpt lat="44.9177" lon="6.56273">
        <ele>2190.7</ele>
        <time>2022-08-28T15:51:22+0200</time>
      </trkpt>
      <trkpt lat="44.91767" lon="6.56279">
        <ele>2191.2</ele>
        <time>2022-08-28T15:51:24+0200</time>
      </trkpt>
      <trkpt lat="44.91763" lon="6.56286">
        <ele>2191.8</ele>
        <time>2022-08-28T15:51:26+0200</time>
      </trkpt>
      <trkpt lat="44.9176" lon="6.56293">
        <ele>2192.2</ele>
        <time>2022-08-28T15:51:28+0200</time>
      </trkpt>
      <trkpt lat="44.91756" lon="6.56299">
        <ele>2193.1</ele>
        <time>2022-08-28T15:51:31+0200</time>
      </trkpt>
      <trkpt lat="44.91752" lon="6.56306">
        <ele>2193.9</ele>
        <time>2022-08-28T15:51:33+0200</time>
      </trkpt>
      <trkpt lat="44.9175" lon="6.56312">
        <ele>2194</ele>
        <time>2022-08-28T15:51:35+0200</time>
      </trkpt>
      <trkpt lat="44.91746" lon="6.5632">
        <ele>2193.6</ele>
        <time>2022-08-28T15:51:38+0200</time>
      </trkpt>
      <trkpt lat="44.91743" lon="6.56328">
        <ele>2192.8</ele>
        <time>2022-08-28T15:51:40+0200</time>
      </trkpt>
      <trkpt lat="44.91738" lon="6.56335">
        <ele>2192.7</ele>
        <time>2022-08-28T15:51:42+0200</time>
      </trkpt>
      <trkpt lat="44.91736" lon="6.56342">
        <ele>2191.9</ele>
        <time>2022-08-28T15:51:44+0200</time>
      </trkpt>
      <trkpt lat="44.91733" lon="6.56348">
        <ele>2191.3</ele>
        <time>2022-08-28T15:51:46+0200</time>
      </trkpt>
      <trkpt lat="44.9173" lon="6.56353">
        <ele>2191.3</ele>
        <time>2022-08-28T15:51:48+0200</time>
      </trkpt>
      <trkpt lat="44.91724" lon="6.56354">
        <ele>2192.8</ele>
        <time>2022-08-28T15:51:51+0200</time>
      </trkpt>
      <trkpt lat="44.9172" lon="6.56348">
        <ele>2194.3</ele>
        <time>2022-08-28T15:51:54+0200</time>
      </trkpt>
      <trkpt lat="44.91715" lon="6.56344">
        <ele>2194.9</ele>
        <time>2022-08-28T15:51:57+0200</time>
      </trkpt>
      <trkpt lat="44.91711" lon="6.5634">
        <ele>2195.7</ele>
        <time>2022-08-28T15:51:59+0200</time>
      </trkpt>
      <trkpt lat="44.91708" lon="6.56335">
        <ele>2196.6</ele>
        <time>2022-08-28T15:52:01+0200</time>
      </trkpt>
      <trkpt lat="44.91705" lon="6.5633">
        <ele>2197.6</ele>
        <time>2022-08-28T15:52:03+0200</time>
      </trkpt>
      <trkpt lat="44.91701" lon="6.56325">
        <ele>2198.6</ele>
        <time>2022-08-28T15:52:05+0200</time>
      </trkpt>
      <trkpt lat="44.91698" lon="6.56319">
        <ele>2199.6</ele>
        <time>2022-08-28T15:52:07+0200</time>
      </trkpt>
      <trkpt lat="44.91694" lon="6.56313">
        <ele>2200.7</ele>
        <time>2022-08-28T15:52:09+0200</time>
      </trkpt>
      <trkpt lat="44.91688" lon="6.56307">
        <ele>2200.8</ele>
        <time>2022-08-28T15:52:11+0200</time>
      </trkpt>
      <trkpt lat="44.91682" lon="6.56301">
        <ele>2201.2</ele>
        <time>2022-08-28T15:52:13+0200</time>
      </trkpt>
      <trkpt lat="44.91675" lon="6.56295">
        <ele>2201.5</ele>
        <time>2022-08-28T15:52:15+0200</time>
      </trkpt>
      <trkpt lat="44.91668" lon="6.56289">
        <ele>2201.7</ele>
        <time>2022-08-28T15:52:17+0200</time>
      </trkpt>
      <trkpt lat="44.91662" lon="6.56285">
        <ele>2201.8</ele>
        <time>2022-08-28T15:52:19+0200</time>
      </trkpt>
      <trkpt lat="44.91656" lon="6.56279">
        <ele>2202.1</ele>
        <time>2022-08-28T15:52:21+0200</time>
      </trkpt>
      <trkpt lat="44.91649" lon="6.56275">
        <ele>2202.1</ele>
        <time>2022-08-28T15:52:23+0200</time>
      </trkpt>
      <trkpt lat="44.91642" lon="6.56272">
        <ele>2201.8</ele>
        <time>2022-08-28T15:52:25+0200</time>
      </trkpt>
      <trkpt lat="44.91633" lon="6.5627">
        <ele>2201.6</ele>
        <time>2022-08-28T15:52:27+0200</time>
      </trkpt>
      <trkpt lat="44.91625" lon="6.5627">
        <ele>2201.7</ele>
        <time>2022-08-28T15:52:29+0200</time>
      </trkpt>
      <trkpt lat="44.91616" lon="6.5627">
        <ele>2201.7</ele>
        <time>2022-08-28T15:52:31+0200</time>
      </trkpt>
      <trkpt lat="44.91611" lon="6.56272">
        <ele>2201.2</ele>
        <time>2022-08-28T15:52:32+0200</time>
      </trkpt>
      <trkpt lat="44.91607" lon="6.56275">
        <ele>2200.9</ele>
        <time>2022-08-28T15:52:33+0200</time>
      </trkpt>
      <trkpt lat="44.916" lon="6.56282">
        <ele>2200</ele>
        <time>2022-08-28T15:52:35+0200</time>
      </trkpt>
      <trkpt lat="44.91593" lon="6.5629">
        <ele>2198.7</ele>
        <time>2022-08-28T15:52:37+0200</time>
      </trkpt>
      <trkpt lat="44.91586" lon="6.56295">
        <ele>2198.2</ele>
        <time>2022-08-28T15:52:39+0200</time>
      </trkpt>
      <trkpt lat="44.91579" lon="6.56297">
        <ele>2198.2</ele>
        <time>2022-08-28T15:52:41+0200</time>
      </trkpt>
      <trkpt lat="44.91573" lon="6.56299">
        <ele>2198.1</ele>
        <time>2022-08-28T15:52:43+0200</time>
      </trkpt>
      <trkpt lat="44.91568" lon="6.56298">
        <ele>2198.8</ele>
        <time>2022-08-28T15:53:46+0200</time>
      </trkpt>
      <trkpt lat="44.91563" lon="6.56296">
        <ele>2199.7</ele>
        <time>2022-08-28T15:53:48+0200</time>
      </trkpt>
      <trkpt lat="44.91558" lon="6.56304">
        <ele>2198.2</ele>
        <time>2022-08-28T15:53:51+0200</time>
      </trkpt>
      <trkpt lat="44.91551" lon="6.56308">
        <ele>2196.7</ele>
        <time>2022-08-28T15:53:53+0200</time>
      </trkpt>
      <trkpt lat="44.91543" lon="6.5631">
        <ele>2195.3</ele>
        <time>2022-08-28T15:53:55+0200</time>
      </trkpt>
      <trkpt lat="44.91539" lon="6.56309">
        <ele>2195.2</ele>
        <time>2022-08-28T15:53:56+0200</time>
      </trkpt>
      <trkpt lat="44.9153" lon="6.56309">
        <ele>2194.5</ele>
        <time>2022-08-28T15:53:58+0200</time>
      </trkpt>
      <trkpt lat="44.91525" lon="6.56309">
        <ele>2194.3</ele>
        <time>2022-08-28T15:53:59+0200</time>
      </trkpt>
      <trkpt lat="44.91521" lon="6.56306">
        <ele>2194.7</ele>
        <time>2022-08-28T15:54:00+0200</time>
      </trkpt>
      <trkpt lat="44.91517" lon="6.56303">
        <ele>2195.1</ele>
        <time>2022-08-28T15:54:01+0200</time>
      </trkpt>
      <trkpt lat="44.91512" lon="6.563">
        <ele>2195.3</ele>
        <time>2022-08-28T15:54:02+0200</time>
      </trkpt>
      <trkpt lat="44.91507" lon="6.56298">
        <ele>2195</ele>
        <time>2022-08-28T15:54:03+0200</time>
      </trkpt>
      <trkpt lat="44.91501" lon="6.56296">
        <ele>2194.5</ele>
        <time>2022-08-28T15:54:04+0200</time>
      </trkpt>
      <trkpt lat="44.91494" lon="6.56294">
        <ele>2194</ele>
        <time>2022-08-28T15:54:05+0200</time>
      </trkpt>
      <trkpt lat="44.91486" lon="6.56292">
        <ele>2193.1</ele>
        <time>2022-08-28T15:54:06+0200</time>
      </trkpt>
      <trkpt lat="44.91479" lon="6.5629">
        <ele>2192.7</ele>
        <time>2022-08-28T15:54:07+0200</time>
      </trkpt>
      <trkpt lat="44.91473" lon="6.56288">
        <ele>2192.2</ele>
        <time>2022-08-28T15:54:08+0200</time>
      </trkpt>
      <trkpt lat="44.91467" lon="6.56284">
        <ele>2192.3</ele>
        <time>2022-08-28T15:54:09+0200</time>
      </trkpt>
      <trkpt lat="44.91461" lon="6.5628">
        <ele>2192.4</ele>
        <time>2022-08-28T15:54:10+0200</time>
      </trkpt>
      <trkpt lat="44.91456" lon="6.56276">
        <ele>2192.2</ele>
        <time>2022-08-28T15:54:11+0200</time>
      </trkpt>
      <trkpt lat="44.91452" lon="6.56273">
        <ele>2192.1</ele>
        <time>2022-08-28T15:54:12+0200</time>
      </trkpt>
      <trkpt lat="44.91448" lon="6.56267">
        <ele>2192.2</ele>
        <time>2022-08-28T15:54:13+0200</time>
      </trkpt>
      <trkpt lat="44.91444" lon="6.56262">
        <ele>2192.2</ele>
        <time>2022-08-28T15:54:14+0200</time>
      </trkpt>
      <trkpt lat="44.91438" lon="6.56256">
        <ele>2192</ele>
        <time>2022-08-28T15:54:15+0200</time>
      </trkpt>
      <trkpt lat="44.9143" lon="6.5625">
        <ele>2191.3</ele>
        <time>2022-08-28T15:54:16+0200</time>
      </trkpt>
      <trkpt lat="44.9142" lon="6.56246">
        <ele>2190</ele>
        <time>2022-08-28T15:54:17+0200</time>
      </trkpt>
      <trkpt lat="44.91409" lon="6.56244">
        <ele>2188.8</ele>
        <time>2022-08-28T15:54:18+0200</time>
      </trkpt>
      <trkpt lat="44.91399" lon="6.56245">
        <ele>2187.6</ele>
        <time>2022-08-28T15:54:19+0200</time>
      </trkpt>
      <trkpt lat="44.91389" lon="6.56248">
        <ele>2186.2</ele>
        <time>2022-08-28T15:54:20+0200</time>
      </trkpt>
      <trkpt lat="44.91381" lon="6.56248">
        <ele>2185.1</ele>
        <time>2022-08-28T15:54:21+0200</time>
      </trkpt>
      <trkpt lat="44.91374" lon="6.56244">
        <ele>2184.5</ele>
        <time>2022-08-28T15:54:22+0200</time>
      </trkpt>
      <trkpt lat="44.91366" lon="6.56239">
        <ele>2183.9</ele>
        <time>2022-08-28T15:54:23+0200</time>
      </trkpt>
      <trkpt lat="44.91358" lon="6.56235">
        <ele>2183.1</ele>
        <time>2022-08-28T15:54:24+0200</time>
      </trkpt>
      <trkpt lat="44.9135" lon="6.56232">
        <ele>2182.3</ele>
        <time>2022-08-28T15:54:25+0200</time>
      </trkpt>
      <trkpt lat="44.91344" lon="6.56229">
        <ele>2181.8</ele>
        <time>2022-08-28T15:54:26+0200</time>
      </trkpt>
      <trkpt lat="44.91339" lon="6.56229">
        <ele>2181</ele>
        <time>2022-08-28T15:54:27+0200</time>
      </trkpt>
      <trkpt lat="44.91335" lon="6.56234">
        <ele>2179.9</ele>
        <time>2022-08-28T15:54:28+0200</time>
      </trkpt>
      <trkpt lat="44.91332" lon="6.5624">
        <ele>2179.1</ele>
        <time>2022-08-28T15:54:29+0200</time>
      </trkpt>
      <trkpt lat="44.91331" lon="6.56249">
        <ele>2178.1</ele>
        <time>2022-08-28T15:54:30+0200</time>
      </trkpt>
      <trkpt lat="44.91333" lon="6.56258">
        <ele>2176.5</ele>
        <time>2022-08-28T15:54:31+0200</time>
      </trkpt>
      <trkpt lat="44.91332" lon="6.56265">
        <ele>2175.3</ele>
        <time>2022-08-28T15:54:32+0200</time>
      </trkpt>
      <trkpt lat="44.91329" lon="6.56273">
        <ele>2173.8</ele>
        <time>2022-08-28T15:54:34+0200</time>
      </trkpt>
      <trkpt lat="44.91321" lon="6.56278">
        <ele>2172.5</ele>
        <time>2022-08-28T15:54:36+0200</time>
      </trkpt>
      <trkpt lat="44.91317" lon="6.56283">
        <ele>2171.2</ele>
        <time>2022-08-28T15:54:37+0200</time>
      </trkpt>
      <trkpt lat="44.91311" lon="6.56289">
        <ele>2169.4</ele>
        <time>2022-08-28T15:54:38+0200</time>
      </trkpt>
      <trkpt lat="44.91303" lon="6.56297">
        <ele>2167.3</ele>
        <time>2022-08-28T15:54:39+0200</time>
      </trkpt>
      <trkpt lat="44.91295" lon="6.56303">
        <ele>2165.6</ele>
        <time>2022-08-28T15:54:40+0200</time>
      </trkpt>
      <trkpt lat="44.91286" lon="6.56306">
        <ele>2164.9</ele>
        <time>2022-08-28T15:54:41+0200</time>
      </trkpt>
      <trkpt lat="44.91277" lon="6.56307">
        <ele>2164.6</ele>
        <time>2022-08-28T15:54:42+0200</time>
      </trkpt>
      <trkpt lat="44.91269" lon="6.56311">
        <ele>2164</ele>
        <time>2022-08-28T15:54:43+0200</time>
      </trkpt>
      <trkpt lat="44.9126" lon="6.56316">
        <ele>2162.8</ele>
        <time>2022-08-28T15:54:44+0200</time>
      </trkpt>
      <trkpt lat="44.91252" lon="6.56323">
        <ele>2161.6</ele>
        <time>2022-08-28T15:54:45+0200</time>
      </trkpt>
      <trkpt lat="44.91245" lon="6.56329">
        <ele>2160</ele>
        <time>2022-08-28T15:54:46+0200</time>
      </trkpt>
      <trkpt lat="44.91239" lon="6.56334">
        <ele>2158.4</ele>
        <time>2022-08-28T15:54:47+0200</time>
      </trkpt>
      <trkpt lat="44.91235" lon="6.56342">
        <ele>2156.3</ele>
        <time>2022-08-28T15:54:49+0200</time>
      </trkpt>
      <trkpt lat="44.91238" lon="6.56348">
        <ele>2154.7</ele>
        <time>2022-08-28T15:54:51+0200</time>
      </trkpt>
      <trkpt lat="44.91248" lon="6.56351">
        <ele>2153.4</ele>
        <time>2022-08-28T15:54:53+0200</time>
      </trkpt>
      <trkpt lat="44.91254" lon="6.56353">
        <ele>2152.3</ele>
        <time>2022-08-28T15:54:54+0200</time>
      </trkpt>
      <trkpt lat="44.91262" lon="6.56356">
        <ele>2151.3</ele>
        <time>2022-08-28T15:54:55+0200</time>
      </trkpt>
      <trkpt lat="44.91271" lon="6.56358">
        <ele>2150.2</ele>
        <time>2022-08-28T15:54:56+0200</time>
      </trkpt>
      <trkpt lat="44.91281" lon="6.56361">
        <ele>2149.1</ele>
        <time>2022-08-28T15:54:57+0200</time>
      </trkpt>
      <trkpt lat="44.91289" lon="6.56364">
        <ele>2148</ele>
        <time>2022-08-28T15:54:58+0200</time>
      </trkpt>
      <trkpt lat="44.91293" lon="6.5637">
        <ele>2146.3</ele>
        <time>2022-08-28T15:54:59+0200</time>
      </trkpt>
      <trkpt lat="44.91296" lon="6.56377">
        <ele>2143.9</ele>
        <time>2022-08-28T15:55:00+0200</time>
      </trkpt>
      <trkpt lat="44.91299" lon="6.56384">
        <ele>2141.7</ele>
        <time>2022-08-28T15:55:01+0200</time>
      </trkpt>
      <trkpt lat="44.91303" lon="6.5639">
        <ele>2139.9</ele>
        <time>2022-08-28T15:55:02+0200</time>
      </trkpt>
      <trkpt lat="44.91309" lon="6.56394">
        <ele>2138.4</ele>
        <time>2022-08-28T15:55:03+0200</time>
      </trkpt>
      <trkpt lat="44.91315" lon="6.56394">
        <ele>2138.5</ele>
        <time>2022-08-28T15:55:04+0200</time>
      </trkpt>
      <trkpt lat="44.91324" lon="6.56404">
        <ele>2135.4</ele>
        <time>2022-08-28T15:55:06+0200</time>
      </trkpt>
      <trkpt lat="44.9133" lon="6.56412">
        <ele>2132.7</ele>
        <time>2022-08-28T15:55:07+0200</time>
      </trkpt>
      <trkpt lat="44.91337" lon="6.5642">
        <ele>2130.5</ele>
        <time>2022-08-28T15:55:08+0200</time>
      </trkpt>
      <trkpt lat="44.91344" lon="6.56428">
        <ele>2128.8</ele>
        <time>2022-08-28T15:55:09+0200</time>
      </trkpt>
      <trkpt lat="44.91351" lon="6.56436">
        <ele>2126.8</ele>
        <time>2022-08-28T15:55:10+0200</time>
      </trkpt>
      <trkpt lat="44.91358" lon="6.56442">
        <ele>2125.4</ele>
        <time>2022-08-28T15:55:11+0200</time>
      </trkpt>
      <trkpt lat="44.91365" lon="6.56448">
        <ele>2124.5</ele>
        <time>2022-08-28T15:55:12+0200</time>
      </trkpt>
      <trkpt lat="44.91374" lon="6.56452">
        <ele>2124.6</ele>
        <time>2022-08-28T15:55:13+0200</time>
      </trkpt>
      <trkpt lat="44.91383" lon="6.56455">
        <ele>2124.7</ele>
        <time>2022-08-28T15:55:14+0200</time>
      </trkpt>
      <trkpt lat="44.9139" lon="6.56456">
        <ele>2125.4</ele>
        <time>2022-08-28T15:55:15+0200</time>
      </trkpt>
      <trkpt lat="44.91397" lon="6.56458">
        <ele>2125.3</ele>
        <time>2022-08-28T15:55:16+0200</time>
      </trkpt>
      <trkpt lat="44.91404" lon="6.56461">
        <ele>2125.4</ele>
        <time>2022-08-28T15:55:17+0200</time>
      </trkpt>
      <trkpt lat="44.91407" lon="6.56467">
        <ele>2123.6</ele>
        <time>2022-08-28T15:55:18+0200</time>
      </trkpt>
      <trkpt lat="44.91404" lon="6.56478">
        <ele>2120</ele>
        <time>2022-08-28T15:55:20+0200</time>
      </trkpt>
      <trkpt lat="44.91397" lon="6.56478">
        <ele>2119.2</ele>
        <time>2022-08-28T15:55:21+0200</time>
      </trkpt>
      <trkpt lat="44.91391" lon="6.56479">
        <ele>2118.4</ele>
        <time>2022-08-28T15:55:22+0200</time>
      </trkpt>
      <trkpt lat="44.91391" lon="6.56491">
        <ele>2114.9</ele>
        <time>2022-08-28T15:55:24+0200</time>
      </trkpt>
      <trkpt lat="44.91398" lon="6.56498">
        <ele>2113.1</ele>
        <time>2022-08-28T15:55:25+0200</time>
      </trkpt>
      <trkpt lat="44.91406" lon="6.56505">
        <ele>2111.6</ele>
        <time>2022-08-28T15:55:26+0200</time>
      </trkpt>
      <trkpt lat="44.91414" lon="6.56515">
        <ele>2109.6</ele>
        <time>2022-08-28T15:55:27+0200</time>
      </trkpt>
      <trkpt lat="44.91423" lon="6.56525">
        <ele>2107.2</ele>
        <time>2022-08-28T15:55:28+0200</time>
      </trkpt>
      <trkpt lat="44.91432" lon="6.56535">
        <ele>2104.4</ele>
        <time>2022-08-28T15:55:29+0200</time>
      </trkpt>
      <trkpt lat="44.91441" lon="6.56544">
        <ele>2102.1</ele>
        <time>2022-08-28T15:55:30+0200</time>
      </trkpt>
      <trkpt lat="44.9145" lon="6.56553">
        <ele>2099.7</ele>
        <time>2022-08-28T15:55:31+0200</time>
      </trkpt>
      <trkpt lat="44.9146" lon="6.56562">
        <ele>2096.8</ele>
        <time>2022-08-28T15:55:32+0200</time>
      </trkpt>
      <trkpt lat="44.91469" lon="6.56569">
        <ele>2094.5</ele>
        <time>2022-08-28T15:55:33+0200</time>
      </trkpt>
      <trkpt lat="44.91477" lon="6.56576">
        <ele>2092.3</ele>
        <time>2022-08-28T15:55:34+0200</time>
      </trkpt>
      <trkpt lat="44.91486" lon="6.56582">
        <ele>2090.1</ele>
        <time>2022-08-28T15:55:35+0200</time>
      </trkpt>
      <trkpt lat="44.91496" lon="6.56587">
        <ele>2088.2</ele>
        <time>2022-08-28T15:55:36+0200</time>
      </trkpt>
      <trkpt lat="44.91507" lon="6.5659">
        <ele>2086.9</ele>
        <time>2022-08-28T15:55:37+0200</time>
      </trkpt>
      <trkpt lat="44.91515" lon="6.56592">
        <ele>2085.7</ele>
        <time>2022-08-28T15:55:38+0200</time>
      </trkpt>
      <trkpt lat="44.9152" lon="6.56597">
        <ele>2084.1</ele>
        <time>2022-08-28T15:55:39+0200</time>
      </trkpt>
      <trkpt lat="44.91525" lon="6.56604">
        <ele>2081.9</ele>
        <time>2022-08-28T15:55:40+0200</time>
      </trkpt>
      <trkpt lat="44.91531" lon="6.5661">
        <ele>2080.1</ele>
        <time>2022-08-28T15:55:41+0200</time>
      </trkpt>
      <trkpt lat="44.91538" lon="6.56613">
        <ele>2079.2</ele>
        <time>2022-08-28T15:55:42+0200</time>
      </trkpt>
      <trkpt lat="44.91545" lon="6.56615">
        <ele>2078.4</ele>
        <time>2022-08-28T15:55:43+0200</time>
      </trkpt>
      <trkpt lat="44.91554" lon="6.56616">
        <ele>2077.9</ele>
        <time>2022-08-28T15:55:44+0200</time>
      </trkpt>
      <trkpt lat="44.91562" lon="6.56617">
        <ele>2077.9</ele>
        <time>2022-08-28T15:55:45+0200</time>
      </trkpt>
      <trkpt lat="44.91568" lon="6.56619">
        <ele>2078</ele>
        <time>2022-08-28T15:55:46+0200</time>
      </trkpt>
      <trkpt lat="44.91573" lon="6.56621">
        <ele>2077.9</ele>
        <time>2022-08-28T15:55:47+0200</time>
      </trkpt>
      <trkpt lat="44.91577" lon="6.56627">
        <ele>2076.9</ele>
        <time>2022-08-28T15:55:48+0200</time>
      </trkpt>
      <trkpt lat="44.9158" lon="6.56634">
        <ele>2075.7</ele>
        <time>2022-08-28T15:55:49+0200</time>
      </trkpt>
      <trkpt lat="44.91581" lon="6.56645">
        <ele>2073.6</ele>
        <time>2022-08-28T15:55:50+0200</time>
      </trkpt>
      <trkpt lat="44.91579" lon="6.5666">
        <ele>2070.6</ele>
        <time>2022-08-28T15:55:51+0200</time>
      </trkpt>
      <trkpt lat="44.91577" lon="6.56673">
        <ele>2067.8</ele>
        <time>2022-08-28T15:55:52+0200</time>
      </trkpt>
      <trkpt lat="44.91574" lon="6.56685">
        <ele>2065</ele>
        <time>2022-08-28T15:55:53+0200</time>
      </trkpt>
      <trkpt lat="44.91572" lon="6.56695">
        <ele>2062.6</ele>
        <time>2022-08-28T15:55:54+0200</time>
      </trkpt>
      <trkpt lat="44.91579" lon="6.56701">
        <ele>2062.1</ele>
        <time>2022-08-28T15:55:56+0200</time>
      </trkpt>
      <trkpt lat="44.91586" lon="6.56705">
        <ele>2062.4</ele>
        <time>2022-08-28T15:55:57+0200</time>
      </trkpt>
      <trkpt lat="44.91588" lon="6.56717">
        <ele>2060.1</ele>
        <time>2022-08-28T15:55:58+0200</time>
      </trkpt>
      <trkpt lat="44.91588" lon="6.56726">
        <ele>2058.1</ele>
        <time>2022-08-28T15:55:59+0200</time>
      </trkpt>
      <trkpt lat="44.91586" lon="6.56731">
        <ele>2056.5</ele>
        <time>2022-08-28T15:56:00+0200</time>
      </trkpt>
      <trkpt lat="44.91584" lon="6.56738">
        <ele>2054.7</ele>
        <time>2022-08-28T15:56:01+0200</time>
      </trkpt>
      <trkpt lat="44.91579" lon="6.56743">
        <ele>2053.1</ele>
        <time>2022-08-28T15:56:02+0200</time>
      </trkpt>
      <trkpt lat="44.91576" lon="6.5675">
        <ele>2051.5</ele>
        <time>2022-08-28T15:56:03+0200</time>
      </trkpt>
      <trkpt lat="44.91569" lon="6.56758">
        <ele>2049.5</ele>
        <time>2022-08-28T15:56:04+0200</time>
      </trkpt>
      <trkpt lat="44.91562" lon="6.5677">
        <ele>2047.3</ele>
        <time>2022-08-28T15:56:05+0200</time>
      </trkpt>
      <trkpt lat="44.91555" lon="6.56778">
        <ele>2045.9</ele>
        <time>2022-08-28T15:56:06+0200</time>
      </trkpt>
      <trkpt lat="44.9155" lon="6.56783">
        <ele>2045.3</ele>
        <time>2022-08-28T15:56:07+0200</time>
      </trkpt>
      <trkpt lat="44.91545" lon="6.56792">
        <ele>2044.1</ele>
        <time>2022-08-28T15:56:08+0200</time>
      </trkpt>
      <trkpt lat="44.91541" lon="6.56795">
        <ele>2043.6</ele>
        <time>2022-08-28T15:56:09+0200</time>
      </trkpt>
      <trkpt lat="44.91537" lon="6.56804">
        <ele>2042.5</ele>
        <time>2022-08-28T15:56:11+0200</time>
      </trkpt>
      <trkpt lat="44.9153" lon="6.56815">
        <ele>2040.4</ele>
        <time>2022-08-28T15:56:13+0200</time>
      </trkpt>
      <trkpt lat="44.91525" lon="6.5682">
        <ele>2039</ele>
        <time>2022-08-28T15:56:14+0200</time>
      </trkpt>
      <trkpt lat="44.9152" lon="6.56825">
        <ele>2037.5</ele>
        <time>2022-08-28T15:56:15+0200</time>
      </trkpt>
      <trkpt lat="44.91515" lon="6.56829">
        <ele>2036.4</ele>
        <time>2022-08-28T15:56:16+0200</time>
      </trkpt>
      <trkpt lat="44.91507" lon="6.56834">
        <ele>2034.5</ele>
        <time>2022-08-28T15:56:18+0200</time>
      </trkpt>
      <trkpt lat="44.91508" lon="6.56842">
        <ele>2033.4</ele>
        <time>2022-08-28T15:56:20+0200</time>
      </trkpt>
      <trkpt lat="44.91512" lon="6.56846">
        <ele>2033</ele>
        <time>2022-08-28T15:56:21+0200</time>
      </trkpt>
      <trkpt lat="44.91514" lon="6.56859">
        <ele>2031</ele>
        <time>2022-08-28T15:56:22+0200</time>
      </trkpt>
      <trkpt lat="44.91516" lon="6.56876">
        <ele>2028.6</ele>
        <time>2022-08-28T15:56:23+0200</time>
      </trkpt>
      <trkpt lat="44.91517" lon="6.56892">
        <ele>2026.5</ele>
        <time>2022-08-28T15:56:24+0200</time>
      </trkpt>
      <trkpt lat="44.9152" lon="6.5691">
        <ele>2024.2</ele>
        <time>2022-08-28T15:56:25+0200</time>
      </trkpt>
      <trkpt lat="44.91524" lon="6.56928">
        <ele>2022.4</ele>
        <time>2022-08-28T15:56:26+0200</time>
      </trkpt>
      <trkpt lat="44.91527" lon="6.56942">
        <ele>2021.2</ele>
        <time>2022-08-28T15:56:27+0200</time>
      </trkpt>
      <trkpt lat="44.91529" lon="6.56953">
        <ele>2019.8</ele>
        <time>2022-08-28T15:56:28+0200</time>
      </trkpt>
      <trkpt lat="44.91528" lon="6.56965">
        <ele>2018.1</ele>
        <time>2022-08-28T15:56:29+0200</time>
      </trkpt>
      <trkpt lat="44.91526" lon="6.56978">
        <ele>2015.6</ele>
        <time>2022-08-28T15:56:30+0200</time>
      </trkpt>
      <trkpt lat="44.91524" lon="6.56988">
        <ele>2013.5</ele>
        <time>2022-08-28T15:56:31+0200</time>
      </trkpt>
      <trkpt lat="44.91523" lon="6.56996">
        <ele>2011.8</ele>
        <time>2022-08-28T15:56:32+0200</time>
      </trkpt>
      <trkpt lat="44.91524" lon="6.57004">
        <ele>2010.2</ele>
        <time>2022-08-28T15:56:33+0200</time>
      </trkpt>
      <trkpt lat="44.91529" lon="6.5701">
        <ele>2008.9</ele>
        <time>2022-08-28T15:56:34+0200</time>
      </trkpt>
      <trkpt lat="44.91534" lon="6.57013">
        <ele>2008.4</ele>
        <time>2022-08-28T15:56:35+0200</time>
      </trkpt>
      <trkpt lat="44.9154" lon="6.57014">
        <ele>2008.4</ele>
        <time>2022-08-28T15:56:36+0200</time>
      </trkpt>
      <trkpt lat="44.91546" lon="6.57015">
        <ele>2008.4</ele>
        <time>2022-08-28T15:56:37+0200</time>
      </trkpt>
      <trkpt lat="44.91552" lon="6.57015">
        <ele>2008.5</ele>
        <time>2022-08-28T15:56:38+0200</time>
      </trkpt>
      <trkpt lat="44.91558" lon="6.57017">
        <ele>2008.4</ele>
        <time>2022-08-28T15:56:39+0200</time>
      </trkpt>
      <trkpt lat="44.91563" lon="6.57023">
        <ele>2007.2</ele>
        <time>2022-08-28T15:56:40+0200</time>
      </trkpt>
      <trkpt lat="44.91569" lon="6.57028">
        <ele>2006.3</ele>
        <time>2022-08-28T15:56:41+0200</time>
      </trkpt>
      <trkpt lat="44.91576" lon="6.57032">
        <ele>2005.5</ele>
        <time>2022-08-28T15:56:42+0200</time>
      </trkpt>
      <trkpt lat="44.91583" lon="6.57038">
        <ele>2003.8</ele>
        <time>2022-08-28T15:56:43+0200</time>
      </trkpt>
      <trkpt lat="44.91591" lon="6.57043">
        <ele>2002.1</ele>
        <time>2022-08-28T15:56:44+0200</time>
      </trkpt>
      <trkpt lat="44.91599" lon="6.57048">
        <ele>2000.3</ele>
        <time>2022-08-28T15:56:45+0200</time>
      </trkpt>
      <trkpt lat="44.91605" lon="6.57052">
        <ele>1999.1</ele>
        <time>2022-08-28T15:56:46+0200</time>
      </trkpt>
      <trkpt lat="44.91611" lon="6.57056">
        <ele>1997.7</ele>
        <time>2022-08-28T15:56:47+0200</time>
      </trkpt>
      <trkpt lat="44.91617" lon="6.5706">
        <ele>1995.3</ele>
        <time>2022-08-28T15:56:48+0200</time>
      </trkpt>
      <trkpt lat="44.91623" lon="6.57064">
        <ele>1993.3</ele>
        <time>2022-08-28T15:56:49+0200</time>
      </trkpt>
      <trkpt lat="44.91629" lon="6.57066">
        <ele>1991.8</ele>
        <time>2022-08-28T15:56:50+0200</time>
      </trkpt>
      <trkpt lat="44.91636" lon="6.57068">
        <ele>1990.3</ele>
        <time>2022-08-28T15:56:51+0200</time>
      </trkpt>
      <trkpt lat="44.91644" lon="6.5707">
        <ele>1988</ele>
        <time>2022-08-28T15:56:52+0200</time>
      </trkpt>
      <trkpt lat="44.91651" lon="6.57069">
        <ele>1986.9</ele>
        <time>2022-08-28T15:56:53+0200</time>
      </trkpt>
      <trkpt lat="44.91658" lon="6.57068">
        <ele>1985.6</ele>
        <time>2022-08-28T15:56:54+0200</time>
      </trkpt>
      <trkpt lat="44.91664" lon="6.57068">
        <ele>1984.4</ele>
        <time>2022-08-28T15:56:55+0200</time>
      </trkpt>
      <trkpt lat="44.9167" lon="6.57068">
        <ele>1983.2</ele>
        <time>2022-08-28T15:56:56+0200</time>
      </trkpt>
      <trkpt lat="44.91679" lon="6.57065">
        <ele>1982.5</ele>
        <time>2022-08-28T15:56:58+0200</time>
      </trkpt>
      <trkpt lat="44.91684" lon="6.57064">
        <ele>1981.9</ele>
        <time>2022-08-28T15:56:59+0200</time>
      </trkpt>
      <trkpt lat="44.9169" lon="6.57066">
        <ele>1980.3</ele>
        <time>2022-08-28T15:57:00+0200</time>
      </trkpt>
      <trkpt lat="44.91695" lon="6.57069">
        <ele>1978.1</ele>
        <time>2022-08-28T15:57:01+0200</time>
      </trkpt>
      <trkpt lat="44.917" lon="6.57075">
        <ele>1975.8</ele>
        <time>2022-08-28T15:57:02+0200</time>
      </trkpt>
      <trkpt lat="44.91704" lon="6.57082">
        <ele>1973.3</ele>
        <time>2022-08-28T15:57:03+0200</time>
      </trkpt>
      <trkpt lat="44.91712" lon="6.57088">
        <ele>1970.7</ele>
        <time>2022-08-28T15:57:05+0200</time>
      </trkpt>
      <trkpt lat="44.91718" lon="6.57092">
        <ele>1969.2</ele>
        <time>2022-08-28T15:57:06+0200</time>
      </trkpt>
      <trkpt lat="44.91726" lon="6.57096">
        <ele>1967.5</ele>
        <time>2022-08-28T15:57:07+0200</time>
      </trkpt>
      <trkpt lat="44.91736" lon="6.57101">
        <ele>1966</ele>
        <time>2022-08-28T15:57:08+0200</time>
      </trkpt>
      <trkpt lat="44.91746" lon="6.57107">
        <ele>1963.4</ele>
        <time>2022-08-28T15:57:09+0200</time>
      </trkpt>
      <trkpt lat="44.91754" lon="6.57114">
        <ele>1961.3</ele>
        <time>2022-08-28T15:57:10+0200</time>
      </trkpt>
      <trkpt lat="44.91763" lon="6.57119">
        <ele>1959.6</ele>
        <time>2022-08-28T15:57:11+0200</time>
      </trkpt>
      <trkpt lat="44.91771" lon="6.57124">
        <ele>1958.2</ele>
        <time>2022-08-28T15:57:12+0200</time>
      </trkpt>
      <trkpt lat="44.91776" lon="6.57127">
        <ele>1957.2</ele>
        <time>2022-08-28T15:57:13+0200</time>
      </trkpt>
      <trkpt lat="44.91783" lon="6.57128">
        <ele>1957.4</ele>
        <time>2022-08-28T15:57:14+0200</time>
      </trkpt>
      <trkpt lat="44.91791" lon="6.57126">
        <ele>1958.5</ele>
        <time>2022-08-28T15:57:15+0200</time>
      </trkpt>
      <trkpt lat="44.91798" lon="6.57124">
        <ele>1959.9</ele>
        <time>2022-08-28T15:57:16+0200</time>
      </trkpt>
      <trkpt lat="44.91804" lon="6.57124">
        <ele>1960.3</ele>
        <time>2022-08-28T15:57:17+0200</time>
      </trkpt>
      <trkpt lat="44.91811" lon="6.57126">
        <ele>1960.2</ele>
        <time>2022-08-28T15:57:19+0200</time>
      </trkpt>
      <trkpt lat="44.91818" lon="6.57127">
        <ele>1960.3</ele>
        <time>2022-08-28T15:57:30+0200</time>
      </trkpt>
      <trkpt lat="44.91823" lon="6.57133">
        <ele>1958.8</ele>
        <time>2022-08-28T15:57:34+0200</time>
      </trkpt>
      <trkpt lat="44.91828" lon="6.57135">
        <ele>1958.9</ele>
        <time>2022-08-28T15:57:38+0200</time>
      </trkpt>
      <trkpt lat="44.91832" lon="6.57141">
        <ele>1957.2</ele>
        <time>2022-08-28T15:57:40+0200</time>
      </trkpt>
      <trkpt lat="44.91838" lon="6.57144">
        <ele>1956.8</ele>
        <time>2022-08-28T15:57:42+0200</time>
      </trkpt>
      <trkpt lat="44.91845" lon="6.57146">
        <ele>1956.7</ele>
        <time>2022-08-28T15:57:44+0200</time>
      </trkpt>
      <trkpt lat="44.91852" lon="6.5715">
        <ele>1956.2</ele>
        <time>2022-08-28T15:57:46+0200</time>
      </trkpt>
      <trkpt lat="44.91859" lon="6.57151">
        <ele>1956.3</ele>
        <time>2022-08-28T15:57:48+0200</time>
      </trkpt>
      <trkpt lat="44.91866" lon="6.57152">
        <ele>1956.4</ele>
        <time>2022-08-28T15:57:50+0200</time>
      </trkpt>
      <trkpt lat="44.91872" lon="6.57151">
        <ele>1956.6</ele>
        <time>2022-08-28T15:57:52+0200</time>
      </trkpt>
      <trkpt lat="44.9188" lon="6.57151">
        <ele>1956.4</ele>
        <time>2022-08-28T15:57:54+0200</time>
      </trkpt>
      <trkpt lat="44.91885" lon="6.57153">
        <ele>1956</ele>
        <time>2022-08-28T15:57:55+0200</time>
      </trkpt>
      <trkpt lat="44.91892" lon="6.57156">
        <ele>1955</ele>
        <time>2022-08-28T15:57:57+0200</time>
      </trkpt>
      <trkpt lat="44.919" lon="6.57158">
        <ele>1953.8</ele>
        <time>2022-08-28T15:57:59+0200</time>
      </trkpt>
      <trkpt lat="44.91909" lon="6.57157">
        <ele>1953.4</ele>
        <time>2022-08-28T15:58:01+0200</time>
      </trkpt>
      <trkpt lat="44.91916" lon="6.57152">
        <ele>1954.4</ele>
        <time>2022-08-28T15:58:03+0200</time>
      </trkpt>
      <trkpt lat="44.91925" lon="6.57149">
        <ele>1954.2</ele>
        <time>2022-08-28T15:58:05+0200</time>
      </trkpt>
      <trkpt lat="44.91931" lon="6.57146">
        <ele>1954.5</ele>
        <time>2022-08-28T15:58:06+0200</time>
      </trkpt>
      <trkpt lat="44.91936" lon="6.57143">
        <ele>1954.8</ele>
        <time>2022-08-28T15:58:07+0200</time>
      </trkpt>
      <trkpt lat="44.91943" lon="6.57142">
        <ele>1954.3</ele>
        <time>2022-08-28T15:58:09+0200</time>
      </trkpt>
      <trkpt lat="44.91952" lon="6.5714">
        <ele>1954.1</ele>
        <time>2022-08-28T15:58:11+0200</time>
      </trkpt>
      <trkpt lat="44.91957" lon="6.57139">
        <ele>1954.1</ele>
        <time>2022-08-28T15:58:12+0200</time>
      </trkpt>
      <trkpt lat="44.91963" lon="6.5714">
        <ele>1953.5</ele>
        <time>2022-08-28T15:58:13+0200</time>
      </trkpt>
      <trkpt lat="44.91972" lon="6.57138">
        <ele>1953.2</ele>
        <time>2022-08-28T15:58:15+0200</time>
      </trkpt>
      <trkpt lat="44.91977" lon="6.57138">
        <ele>1953</ele>
        <time>2022-08-28T15:58:16+0200</time>
      </trkpt>
      <trkpt lat="44.91979" lon="6.57144">
        <ele>1951.3</ele>
        <time>2022-08-28T15:58:19+0200</time>
      </trkpt>
      <trkpt lat="44.9199" lon="6.57146">
        <ele>1950</ele>
        <time>2022-08-28T15:58:21+0200</time>
      </trkpt>
      <trkpt lat="44.91995" lon="6.57149">
        <ele>1948.7</ele>
        <time>2022-08-28T15:58:22+0200</time>
      </trkpt>
      <trkpt lat="44.91992" lon="6.57155">
        <ele>1947.6</ele>
        <time>2022-08-28T15:58:24+0200</time>
      </trkpt>
      <trkpt lat="44.91988" lon="6.57159">
        <ele>1946.7</ele>
        <time>2022-08-28T15:58:26+0200</time>
      </trkpt>
      <trkpt lat="44.91983" lon="6.57161">
        <ele>1946.7</ele>
        <time>2022-08-28T15:58:28+0200</time>
      </trkpt>
      <trkpt lat="44.91978" lon="6.57168">
        <ele>1945.3</ele>
        <time>2022-08-28T15:58:30+0200</time>
      </trkpt>
      <trkpt lat="44.91979" lon="6.57175">
        <ele>1943.3</ele>
        <time>2022-08-28T15:58:31+0200</time>
      </trkpt>
      <trkpt lat="44.91981" lon="6.57181">
        <ele>1941.4</ele>
        <time>2022-08-28T15:58:32+0200</time>
      </trkpt>
      <trkpt lat="44.91985" lon="6.57184">
        <ele>1940.3</ele>
        <time>2022-08-28T15:58:33+0200</time>
      </trkpt>
      <trkpt lat="44.91996" lon="6.5719">
        <ele>1938.4</ele>
        <time>2022-08-28T15:58:35+0200</time>
      </trkpt>
      <trkpt lat="44.92002" lon="6.57192">
        <ele>1937.5</ele>
        <time>2022-08-28T15:58:36+0200</time>
      </trkpt>
      <trkpt lat="44.92007" lon="6.57194">
        <ele>1936.9</ele>
        <time>2022-08-28T15:58:37+0200</time>
      </trkpt>
      <trkpt lat="44.92014" lon="6.57197">
        <ele>1936.1</ele>
        <time>2022-08-28T15:58:38+0200</time>
      </trkpt>
      <trkpt lat="44.92022" lon="6.572">
        <ele>1935.2</ele>
        <time>2022-08-28T15:58:39+0200</time>
      </trkpt>
      <trkpt lat="44.9203" lon="6.57201">
        <ele>1934.5</ele>
        <time>2022-08-28T15:58:40+0200</time>
      </trkpt>
      <trkpt lat="44.92038" lon="6.57204">
        <ele>1933.3</ele>
        <time>2022-08-28T15:58:41+0200</time>
      </trkpt>
      <trkpt lat="44.92046" lon="6.57204">
        <ele>1932.5</ele>
        <time>2022-08-28T15:58:42+0200</time>
      </trkpt>
      <trkpt lat="44.92055" lon="6.57203">
        <ele>1931.9</ele>
        <time>2022-08-28T15:58:43+0200</time>
      </trkpt>
      <trkpt lat="44.92062" lon="6.57198">
        <ele>1931</ele>
        <time>2022-08-28T15:58:44+0200</time>
      </trkpt>
      <trkpt lat="44.9207" lon="6.57196">
        <ele>1929.7</ele>
        <time>2022-08-28T15:58:45+0200</time>
      </trkpt>
      <trkpt lat="44.92076" lon="6.5719">
        <ele>1929.4</ele>
        <time>2022-08-28T15:58:46+0200</time>
      </trkpt>
      <trkpt lat="44.92081" lon="6.57189">
        <ele>1928.5</ele>
        <time>2022-08-28T15:58:47+0200</time>
      </trkpt>
      <trkpt lat="44.92087" lon="6.5718">
        <ele>1928.5</ele>
        <time>2022-08-28T15:58:48+0200</time>
      </trkpt>
      <trkpt lat="44.92094" lon="6.57172">
        <ele>1928.1</ele>
        <time>2022-08-28T15:58:49+0200</time>
      </trkpt>
      <trkpt lat="44.92101" lon="6.57164">
        <ele>1927.5</ele>
        <time>2022-08-28T15:58:50+0200</time>
      </trkpt>
      <trkpt lat="44.92109" lon="6.57158">
        <ele>1926.5</ele>
        <time>2022-08-28T15:58:51+0200</time>
      </trkpt>
      <trkpt lat="44.92117" lon="6.57153">
        <ele>1925.4</ele>
        <time>2022-08-28T15:58:52+0200</time>
      </trkpt>
      <trkpt lat="44.92126" lon="6.57148">
        <ele>1924.5</ele>
        <time>2022-08-28T15:58:53+0200</time>
      </trkpt>
      <trkpt lat="44.92134" lon="6.57144">
        <ele>1923.4</ele>
        <time>2022-08-28T15:58:54+0200</time>
      </trkpt>
      <trkpt lat="44.92142" lon="6.57138">
        <ele>1922.5</ele>
        <time>2022-08-28T15:58:55+0200</time>
      </trkpt>
      <trkpt lat="44.9215" lon="6.57133">
        <ele>1921.8</ele>
        <time>2022-08-28T15:58:56+0200</time>
      </trkpt>
      <trkpt lat="44.92158" lon="6.57126">
        <ele>1921.3</ele>
        <time>2022-08-28T15:58:57+0200</time>
      </trkpt>
      <trkpt lat="44.92165" lon="6.57119">
        <ele>1920.9</ele>
        <time>2022-08-28T15:58:58+0200</time>
      </trkpt>
      <trkpt lat="44.92172" lon="6.5711">
        <ele>1920.9</ele>
        <time>2022-08-28T15:58:59+0200</time>
      </trkpt>
      <trkpt lat="44.92176" lon="6.57101">
        <ele>1921</ele>
        <time>2022-08-28T15:59:00+0200</time>
      </trkpt>
      <trkpt lat="44.92183" lon="6.57097">
        <ele>1920</ele>
        <time>2022-08-28T15:59:01+0200</time>
      </trkpt>
      <trkpt lat="44.92189" lon="6.5709">
        <ele>1919.3</ele>
        <time>2022-08-28T15:59:02+0200</time>
      </trkpt>
      <trkpt lat="44.92198" lon="6.57082">
        <ele>1918.2</ele>
        <time>2022-08-28T15:59:03+0200</time>
      </trkpt>
      <trkpt lat="44.92206" lon="6.57073">
        <ele>1917.7</ele>
        <time>2022-08-28T15:59:04+0200</time>
      </trkpt>
      <trkpt lat="44.92214" lon="6.57066">
        <ele>1917</ele>
        <time>2022-08-28T15:59:05+0200</time>
      </trkpt>
      <trkpt lat="44.92221" lon="6.57059">
        <ele>1916.6</ele>
        <time>2022-08-28T15:59:06+0200</time>
      </trkpt>
      <trkpt lat="44.9223" lon="6.5705">
        <ele>1915.5</ele>
        <time>2022-08-28T15:59:07+0200</time>
      </trkpt>
      <trkpt lat="44.92237" lon="6.57043">
        <ele>1914.3</ele>
        <time>2022-08-28T15:59:08+0200</time>
      </trkpt>
      <trkpt lat="44.92242" lon="6.57041">
        <ele>1913.1</ele>
        <time>2022-08-28T15:59:09+0200</time>
      </trkpt>
      <trkpt lat="44.9225" lon="6.57039">
        <ele>1911.3</ele>
        <time>2022-08-28T15:59:11+0200</time>
      </trkpt>
      <trkpt lat="44.92259" lon="6.5704">
        <ele>1908.9</ele>
        <time>2022-08-28T15:59:12+0200</time>
      </trkpt>
      <trkpt lat="44.92268" lon="6.57039">
        <ele>1906.6</ele>
        <time>2022-08-28T15:59:13+0200</time>
      </trkpt>
      <trkpt lat="44.92275" lon="6.57037">
        <ele>1905.1</ele>
        <time>2022-08-28T15:59:14+0200</time>
      </trkpt>
      <trkpt lat="44.92282" lon="6.57033">
        <ele>1904.5</ele>
        <time>2022-08-28T15:59:15+0200</time>
      </trkpt>
      <trkpt lat="44.92288" lon="6.57028">
        <ele>1904.5</ele>
        <time>2022-08-28T15:59:16+0200</time>
      </trkpt>
      <trkpt lat="44.92296" lon="6.57025">
        <ele>1904</ele>
        <time>2022-08-28T15:59:17+0200</time>
      </trkpt>
      <trkpt lat="44.92303" lon="6.57023">
        <ele>1903.2</ele>
        <time>2022-08-28T15:59:18+0200</time>
      </trkpt>
      <trkpt lat="44.92311" lon="6.57022">
        <ele>1902.5</ele>
        <time>2022-08-28T15:59:19+0200</time>
      </trkpt>
      <trkpt lat="44.92319" lon="6.57021">
        <ele>1902.1</ele>
        <time>2022-08-28T15:59:20+0200</time>
      </trkpt>
      <trkpt lat="44.92327" lon="6.57021">
        <ele>1901.4</ele>
        <time>2022-08-28T15:59:21+0200</time>
      </trkpt>
      <trkpt lat="44.92335" lon="6.5702">
        <ele>1900.7</ele>
        <time>2022-08-28T15:59:22+0200</time>
      </trkpt>
      <trkpt lat="44.92343" lon="6.5702">
        <ele>1900</ele>
        <time>2022-08-28T15:59:23+0200</time>
      </trkpt>
      <trkpt lat="44.92352" lon="6.57019">
        <ele>1899.4</ele>
        <time>2022-08-28T15:59:24+0200</time>
      </trkpt>
      <trkpt lat="44.92359" lon="6.57018">
        <ele>1898.9</ele>
        <time>2022-08-28T15:59:25+0200</time>
      </trkpt>
      <trkpt lat="44.92364" lon="6.57017">
        <ele>1898.5</ele>
        <time>2022-08-28T15:59:26+0200</time>
      </trkpt>
      <trkpt lat="44.92372" lon="6.57015">
        <ele>1898</ele>
        <time>2022-08-28T15:59:28+0200</time>
      </trkpt>
      <trkpt lat="44.92376" lon="6.57015">
        <ele>1897.6</ele>
        <time>2022-08-28T15:59:30+0200</time>
      </trkpt>
      <trkpt lat="44.92381" lon="6.57012">
        <ele>1897.3</ele>
        <time>2022-08-28T15:59:32+0200</time>
      </trkpt>
      <trkpt lat="44.92386" lon="6.57011">
        <ele>1896.9</ele>
        <time>2022-08-28T15:59:34+0200</time>
      </trkpt>
      <trkpt lat="44.9239" lon="6.57012">
        <ele>1896.4</ele>
        <time>2022-08-28T15:59:36+0200</time>
      </trkpt>
      <trkpt lat="44.92399" lon="6.57011">
        <ele>1895.3</ele>
        <time>2022-08-28T15:59:38+0200</time>
      </trkpt>
      <trkpt lat="44.92404" lon="6.57009">
        <ele>1894.7</ele>
        <time>2022-08-28T15:59:39+0200</time>
      </trkpt>
      <trkpt lat="44.92407" lon="6.57004">
        <ele>1894.3</ele>
        <time>2022-08-28T15:59:40+0200</time>
      </trkpt>
      <trkpt lat="44.92411" lon="6.57001">
        <ele>1893.8</ele>
        <time>2022-08-28T15:59:41+0200</time>
      </trkpt>
      <trkpt lat="44.92416" lon="6.56998">
        <ele>1893.2</ele>
        <time>2022-08-28T15:59:42+0200</time>
      </trkpt>
      <trkpt lat="44.9242" lon="6.56995">
        <ele>1892.8</ele>
        <time>2022-08-28T15:59:43+0200</time>
      </trkpt>
      <trkpt lat="44.92425" lon="6.56988">
        <ele>1892.2</ele>
        <time>2022-08-28T15:59:45+0200</time>
      </trkpt>
      <trkpt lat="44.9243" lon="6.56978">
        <ele>1891.6</ele>
        <time>2022-08-28T15:59:47+0200</time>
      </trkpt>
      <trkpt lat="44.92435" lon="6.56975">
        <ele>1890.8</ele>
        <time>2022-08-28T15:59:50+0200</time>
      </trkpt>
      <trkpt lat="44.92439" lon="6.56966">
        <ele>1889.9</ele>
        <time>2022-08-28T15:59:52+0200</time>
      </trkpt>
      <trkpt lat="44.92437" lon="6.56955">
        <ele>1890</ele>
        <time>2022-08-28T15:59:54+0200</time>
      </trkpt>
      <trkpt lat="44.9244" lon="6.56947">
        <ele>1889</ele>
        <time>2022-08-28T15:59:56+0200</time>
      </trkpt>
      <trkpt lat="44.92444" lon="6.56936">
        <ele>1888.2</ele>
        <time>2022-08-28T15:59:58+0200</time>
      </trkpt>
      <trkpt lat="44.92446" lon="6.56925">
        <ele>1887.6</ele>
        <time>2022-08-28T16:00:00+0200</time>
      </trkpt>
      <trkpt lat="44.92448" lon="6.56918">
        <ele>1886.9</ele>
        <time>2022-08-28T16:00:02+0200</time>
      </trkpt>
      <trkpt lat="44.9245" lon="6.56907">
        <ele>1886.8</ele>
        <time>2022-08-28T16:00:04+0200</time>
      </trkpt>
      <trkpt lat="44.9245" lon="6.56898">
        <ele>1887.1</ele>
        <time>2022-08-28T16:00:05+0200</time>
      </trkpt>
      <trkpt lat="44.92451" lon="6.5689">
        <ele>1887</ele>
        <time>2022-08-28T16:00:06+0200</time>
      </trkpt>
      <trkpt lat="44.92454" lon="6.56881">
        <ele>1886.8</ele>
        <time>2022-08-28T16:00:07+0200</time>
      </trkpt>
      <trkpt lat="44.92458" lon="6.56874">
        <ele>1886.1</ele>
        <time>2022-08-28T16:00:08+0200</time>
      </trkpt>
      <trkpt lat="44.92461" lon="6.56868">
        <ele>1885.6</ele>
        <time>2022-08-28T16:00:09+0200</time>
      </trkpt>
      <trkpt lat="44.92465" lon="6.56863">
        <ele>1885.1</ele>
        <time>2022-08-28T16:00:10+0200</time>
      </trkpt>
      <trkpt lat="44.92471" lon="6.56852">
        <ele>1884.5</ele>
        <time>2022-08-28T16:00:12+0200</time>
      </trkpt>
      <trkpt lat="44.92472" lon="6.56844">
        <ele>1884.8</ele>
        <time>2022-08-28T16:00:13+0200</time>
      </trkpt>
      <trkpt lat="44.92474" lon="6.56838">
        <ele>1885.1</ele>
        <time>2022-08-28T16:00:14+0200</time>
      </trkpt>
      <trkpt lat="44.92474" lon="6.56831">
        <ele>1886</ele>
        <time>2022-08-28T16:00:15+0200</time>
      </trkpt>
      <trkpt lat="44.92473" lon="6.5682">
        <ele>1887.8</ele>
        <time>2022-08-28T16:00:17+0200</time>
      </trkpt>
      <trkpt lat="44.92477" lon="6.56816">
        <ele>1887.4</ele>
        <time>2022-08-28T16:00:19+0200</time>
      </trkpt>
      <trkpt lat="44.92482" lon="6.56813">
        <ele>1886.8</ele>
        <time>2022-08-28T16:00:21+0200</time>
      </trkpt>
      <trkpt lat="44.92487" lon="6.56814">
        <ele>1885.4</ele>
        <time>2022-08-28T16:00:25+0200</time>
      </trkpt>
      <trkpt lat="44.92494" lon="6.56813">
        <ele>1884</ele>
        <time>2022-08-28T16:00:28+0200</time>
      </trkpt>
      <trkpt lat="44.92501" lon="6.56812">
        <ele>1882.7</ele>
        <time>2022-08-28T16:00:29+0200</time>
      </trkpt>
      <trkpt lat="44.92506" lon="6.56811">
        <ele>1881.6</ele>
        <time>2022-08-28T16:00:30+0200</time>
      </trkpt>
      <trkpt lat="44.92512" lon="6.56808">
        <ele>1880.6</ele>
        <time>2022-08-28T16:00:32+0200</time>
      </trkpt>
      <trkpt lat="44.92518" lon="6.56807">
        <ele>1879.1</ele>
        <time>2022-08-28T16:00:34+0200</time>
      </trkpt>
      <trkpt lat="44.92527" lon="6.56803">
        <ele>1877.7</ele>
        <time>2022-08-28T16:00:36+0200</time>
      </trkpt>
      <trkpt lat="44.92532" lon="6.568">
        <ele>1877</ele>
        <time>2022-08-28T16:00:37+0200</time>
      </trkpt>
      <trkpt lat="44.92536" lon="6.56796">
        <ele>1876.7</ele>
        <time>2022-08-28T16:00:38+0200</time>
      </trkpt>
      <trkpt lat="44.92542" lon="6.56791">
        <ele>1876.3</ele>
        <time>2022-08-28T16:00:40+0200</time>
      </trkpt>
      <trkpt lat="44.92549" lon="6.56794">
        <ele>1874</ele>
        <time>2022-08-28T16:00:44+0200</time>
      </trkpt>
      <trkpt lat="44.92558" lon="6.56793">
        <ele>1872.2</ele>
        <time>2022-08-28T16:00:46+0200</time>
      </trkpt>
      <trkpt lat="44.92568" lon="6.56794">
        <ele>1870</ele>
        <time>2022-08-28T16:00:48+0200</time>
      </trkpt>
      <trkpt lat="44.92573" lon="6.56798">
        <ele>1868.1</ele>
        <time>2022-08-28T16:00:49+0200</time>
      </trkpt>
      <trkpt lat="44.92579" lon="6.56799">
        <ele>1866.4</ele>
        <time>2022-08-28T16:00:50+0200</time>
      </trkpt>
      <trkpt lat="44.9259" lon="6.56802">
        <ele>1863.7</ele>
        <time>2022-08-28T16:00:51+0200</time>
      </trkpt>
      <trkpt lat="44.92602" lon="6.56807">
        <ele>1860.5</ele>
        <time>2022-08-28T16:00:52+0200</time>
      </trkpt>
      <trkpt lat="44.9261" lon="6.56807">
        <ele>1859</ele>
        <time>2022-08-28T16:00:53+0200</time>
      </trkpt>
      <trkpt lat="44.92616" lon="6.56805">
        <ele>1858.8</ele>
        <time>2022-08-28T16:00:55+0200</time>
      </trkpt>
      <trkpt lat="44.92621" lon="6.56805">
        <ele>1858.5</ele>
        <time>2022-08-28T16:00:57+0200</time>
      </trkpt>
      <trkpt lat="44.92632" lon="6.56804">
        <ele>1857.8</ele>
        <time>2022-08-28T16:00:59+0200</time>
      </trkpt>
      <trkpt lat="44.92639" lon="6.56802">
        <ele>1857.8</ele>
        <time>2022-08-28T16:01:00+0200</time>
      </trkpt>
      <trkpt lat="44.92646" lon="6.56797">
        <ele>1857.9</ele>
        <time>2022-08-28T16:01:01+0200</time>
      </trkpt>
      <trkpt lat="44.92653" lon="6.56797">
        <ele>1857.3</ele>
        <time>2022-08-28T16:01:02+0200</time>
      </trkpt>
      <trkpt lat="44.92659" lon="6.56798">
        <ele>1856.3</ele>
        <time>2022-08-28T16:01:03+0200</time>
      </trkpt>
      <trkpt lat="44.92666" lon="6.56795">
        <ele>1856.1</ele>
        <time>2022-08-28T16:01:04+0200</time>
      </trkpt>
      <trkpt lat="44.92672" lon="6.56791">
        <ele>1855.5</ele>
        <time>2022-08-28T16:01:05+0200</time>
      </trkpt>
      <trkpt lat="44.9268" lon="6.56792">
        <ele>1853.8</ele>
        <time>2022-08-28T16:01:06+0200</time>
      </trkpt>
      <trkpt lat="44.92686" lon="6.56792">
        <ele>1852.8</ele>
        <time>2022-08-28T16:01:07+0200</time>
      </trkpt>
      <trkpt lat="44.92692" lon="6.56789">
        <ele>1852.1</ele>
        <time>2022-08-28T16:01:09+0200</time>
      </trkpt>
      <trkpt lat="44.92696" lon="6.56784">
        <ele>1852.3</ele>
        <time>2022-08-28T16:01:11+0200</time>
      </trkpt>
      <trkpt lat="44.92703" lon="6.56779">
        <ele>1851.5</ele>
        <time>2022-08-28T16:01:13+0200</time>
      </trkpt>
      <trkpt lat="44.92709" lon="6.56772">
        <ele>1851.5</ele>
        <time>2022-08-28T16:01:15+0200</time>
      </trkpt>
      <trkpt lat="44.92715" lon="6.56766">
        <ele>1851.1</ele>
        <time>2022-08-28T16:01:17+0200</time>
      </trkpt>
      <trkpt lat="44.92719" lon="6.56762">
        <ele>1850.7</ele>
        <time>2022-08-28T16:01:19+0200</time>
      </trkpt>
      <trkpt lat="44.92726" lon="6.56754">
        <ele>1850.2</ele>
        <time>2022-08-28T16:01:21+0200</time>
      </trkpt>
      <trkpt lat="44.92728" lon="6.56744">
        <ele>1851.1</ele>
        <time>2022-08-28T16:01:23+0200</time>
      </trkpt>
      <trkpt lat="44.92734" lon="6.56737">
        <ele>1850.4</ele>
        <time>2022-08-28T16:01:25+0200</time>
      </trkpt>
      <trkpt lat="44.92737" lon="6.56732">
        <ele>1849.9</ele>
        <time>2022-08-28T16:01:27+0200</time>
      </trkpt>
      <trkpt lat="44.92742" lon="6.56731">
        <ele>1848.1</ele>
        <time>2022-08-28T16:01:32+0200</time>
      </trkpt>
      <trkpt lat="44.92751" lon="6.5673">
        <ele>1844.6</ele>
        <time>2022-08-28T16:01:34+0200</time>
      </trkpt>
      <trkpt lat="44.92756" lon="6.56725">
        <ele>1843.2</ele>
        <time>2022-08-28T16:01:35+0200</time>
      </trkpt>
      <trkpt lat="44.9276" lon="6.56718">
        <ele>1842.6</ele>
        <time>2022-08-28T16:01:36+0200</time>
      </trkpt>
      <trkpt lat="44.92765" lon="6.56715">
        <ele>1841.1</ele>
        <time>2022-08-28T16:01:37+0200</time>
      </trkpt>
      <trkpt lat="44.92769" lon="6.56714">
        <ele>1839.3</ele>
        <time>2022-08-28T16:01:38+0200</time>
      </trkpt>
      <trkpt lat="44.92777" lon="6.56717">
        <ele>1836</ele>
        <time>2022-08-28T16:01:40+0200</time>
      </trkpt>
      <trkpt lat="44.92781" lon="6.56724">
        <ele>1833.7</ele>
        <time>2022-08-28T16:01:43+0200</time>
      </trkpt>
      <trkpt lat="44.92783" lon="6.56731">
        <ele>1832</ele>
        <time>2022-08-28T16:01:45+0200</time>
      </trkpt>
      <trkpt lat="44.92791" lon="6.56732">
        <ele>1829.2</ele>
        <time>2022-08-28T16:01:47+0200</time>
      </trkpt>
      <trkpt lat="44.92795" lon="6.56731">
        <ele>1827.7</ele>
        <time>2022-08-28T16:01:48+0200</time>
      </trkpt>
      <trkpt lat="44.92804" lon="6.56728">
        <ele>1825.1</ele>
        <time>2022-08-28T16:01:49+0200</time>
      </trkpt>
      <trkpt lat="44.9281" lon="6.56725">
        <ele>1823</ele>
        <time>2022-08-28T16:01:50+0200</time>
      </trkpt>
      <trkpt lat="44.92815" lon="6.56716">
        <ele>1822.4</ele>
        <time>2022-08-28T16:01:52+0200</time>
      </trkpt>
      <trkpt lat="44.92818" lon="6.56711">
        <ele>1821.9</ele>
        <time>2022-08-28T16:01:54+0200</time>
      </trkpt>
      <trkpt lat="44.92821" lon="6.56706">
        <ele>1821.1</ele>
        <time>2022-08-28T16:01:56+0200</time>
      </trkpt>
      <trkpt lat="44.92825" lon="6.56697">
        <ele>1820.6</ele>
        <time>2022-08-28T16:01:58+0200</time>
      </trkpt>
      <trkpt lat="44.92829" lon="6.5669">
        <ele>1820.2</ele>
        <time>2022-08-28T16:01:59+0200</time>
      </trkpt>
      <trkpt lat="44.92831" lon="6.56684">
        <ele>1820</ele>
        <time>2022-08-28T16:02:00+0200</time>
      </trkpt>
      <trkpt lat="44.92834" lon="6.56675">
        <ele>1820</ele>
        <time>2022-08-28T16:02:03+0200</time>
      </trkpt>
      <trkpt lat="44.92836" lon="6.56669">
        <ele>1819.7</ele>
        <time>2022-08-28T16:02:04+0200</time>
      </trkpt>
      <trkpt lat="44.9284" lon="6.56665">
        <ele>1818.8</ele>
        <time>2022-08-28T16:02:05+0200</time>
      </trkpt>
      <trkpt lat="44.92845" lon="6.56658">
        <ele>1817.8</ele>
        <time>2022-08-28T16:02:07+0200</time>
      </trkpt>
      <trkpt lat="44.92849" lon="6.56649">
        <ele>1817.2</ele>
        <time>2022-08-28T16:02:09+0200</time>
      </trkpt>
      <trkpt lat="44.92855" lon="6.56642">
        <ele>1815.9</ele>
        <time>2022-08-28T16:02:11+0200</time>
      </trkpt>
      <trkpt lat="44.92862" lon="6.56634">
        <ele>1814.2</ele>
        <time>2022-08-28T16:02:13+0200</time>
      </trkpt>
      <trkpt lat="44.92867" lon="6.56628">
        <ele>1813.1</ele>
        <time>2022-08-28T16:02:14+0200</time>
      </trkpt>
      <trkpt lat="44.9287" lon="6.5662">
        <ele>1812.8</ele>
        <time>2022-08-28T16:02:15+0200</time>
      </trkpt>
      <trkpt lat="44.92873" lon="6.56612">
        <ele>1812.5</ele>
        <time>2022-08-28T16:02:16+0200</time>
      </trkpt>
      <trkpt lat="44.92876" lon="6.56605">
        <ele>1812.5</ele>
        <time>2022-08-28T16:02:17+0200</time>
      </trkpt>
      <trkpt lat="44.9288" lon="6.56598">
        <ele>1812.1</ele>
        <time>2022-08-28T16:02:18+0200</time>
      </trkpt>
      <trkpt lat="44.92884" lon="6.56591">
        <ele>1811.6</ele>
        <time>2022-08-28T16:02:19+0200</time>
      </trkpt>
      <trkpt lat="44.92888" lon="6.56585">
        <ele>1811.1</ele>
        <time>2022-08-28T16:02:20+0200</time>
      </trkpt>
      <trkpt lat="44.92892" lon="6.5658">
        <ele>1810.1</ele>
        <time>2022-08-28T16:02:21+0200</time>
      </trkpt>
      <trkpt lat="44.92899" lon="6.5657">
        <ele>1808.7</ele>
        <time>2022-08-28T16:02:23+0200</time>
      </trkpt>
      <trkpt lat="44.92902" lon="6.56565">
        <ele>1808.2</ele>
        <time>2022-08-28T16:02:24+0200</time>
      </trkpt>
      <trkpt lat="44.92903" lon="6.56557">
        <ele>1808.9</ele>
        <time>2022-08-28T16:02:25+0200</time>
      </trkpt>
      <trkpt lat="44.92906" lon="6.56551">
        <ele>1808.5</ele>
        <time>2022-08-28T16:02:26+0200</time>
      </trkpt>
      <trkpt lat="44.9291" lon="6.56547">
        <ele>1807.6</ele>
        <time>2022-08-28T16:02:27+0200</time>
      </trkpt>
      <trkpt lat="44.92915" lon="6.56541">
        <ele>1806.7</ele>
        <time>2022-08-28T16:02:29+0200</time>
      </trkpt>
      <trkpt lat="44.92923" lon="6.56535">
        <ele>1804.8</ele>
        <time>2022-08-28T16:02:31+0200</time>
      </trkpt>
      <trkpt lat="44.92928" lon="6.5653">
        <ele>1803.7</ele>
        <time>2022-08-28T16:02:32+0200</time>
      </trkpt>
      <trkpt lat="44.92931" lon="6.56524">
        <ele>1803.2</ele>
        <time>2022-08-28T16:02:33+0200</time>
      </trkpt>
      <trkpt lat="44.92935" lon="6.56519">
        <ele>1802.4</ele>
        <time>2022-08-28T16:02:34+0200</time>
      </trkpt>
      <trkpt lat="44.92939" lon="6.56513">
        <ele>1801.6</ele>
        <time>2022-08-28T16:02:35+0200</time>
      </trkpt>
      <trkpt lat="44.92943" lon="6.56508">
        <ele>1800.9</ele>
        <time>2022-08-28T16:02:36+0200</time>
      </trkpt>
      <trkpt lat="44.92946" lon="6.56502">
        <ele>1800.1</ele>
        <time>2022-08-28T16:02:37+0200</time>
      </trkpt>
      <trkpt lat="44.92951" lon="6.56495">
        <ele>1799</ele>
        <time>2022-08-28T16:02:38+0200</time>
      </trkpt>
      <trkpt lat="44.92955" lon="6.56488">
        <ele>1798.1</ele>
        <time>2022-08-28T16:02:39+0200</time>
      </trkpt>
      <trkpt lat="44.92961" lon="6.56481">
        <ele>1796.1</ele>
        <time>2022-08-28T16:02:40+0200</time>
      </trkpt>
      <trkpt lat="44.92964" lon="6.56472">
        <ele>1795.2</ele>
        <time>2022-08-28T16:02:41+0200</time>
      </trkpt>
      <trkpt lat="44.92968" lon="6.56464">
        <ele>1794.4</ele>
        <time>2022-08-28T16:02:43+0200</time>
      </trkpt>
      <trkpt lat="44.92972" lon="6.56453">
        <ele>1793.4</ele>
        <time>2022-08-28T16:02:45+0200</time>
      </trkpt>
      <trkpt lat="44.92977" lon="6.56447">
        <ele>1792.1</ele>
        <time>2022-08-28T16:02:46+0200</time>
      </trkpt>
      <trkpt lat="44.92979" lon="6.56441">
        <ele>1791.5</ele>
        <time>2022-08-28T16:02:47+0200</time>
      </trkpt>
      <trkpt lat="44.92984" lon="6.56435">
        <ele>1789.8</ele>
        <time>2022-08-28T16:02:48+0200</time>
      </trkpt>
      <trkpt lat="44.92988" lon="6.56427">
        <ele>1788.5</ele>
        <time>2022-08-28T16:02:49+0200</time>
      </trkpt>
      <trkpt lat="44.92991" lon="6.56421">
        <ele>1787.6</ele>
        <time>2022-08-28T16:02:50+0200</time>
      </trkpt>
      <trkpt lat="44.92994" lon="6.56414">
        <ele>1786.5</ele>
        <time>2022-08-28T16:02:51+0200</time>
      </trkpt>
      <trkpt lat="44.92996" lon="6.56403">
        <ele>1785.8</ele>
        <time>2022-08-28T16:02:52+0200</time>
      </trkpt>
      <trkpt lat="44.92998" lon="6.56396">
        <ele>1784.9</ele>
        <time>2022-08-28T16:02:53+0200</time>
      </trkpt>
      <trkpt lat="44.93003" lon="6.5639">
        <ele>1782.9</ele>
        <time>2022-08-28T16:02:54+0200</time>
      </trkpt>
      <trkpt lat="44.93007" lon="6.56385">
        <ele>1781.2</ele>
        <time>2022-08-28T16:02:55+0200</time>
      </trkpt>
      <trkpt lat="44.93009" lon="6.56378">
        <ele>1780.5</ele>
        <time>2022-08-28T16:02:56+0200</time>
      </trkpt>
      <trkpt lat="44.93006" lon="6.56373">
        <ele>1781.5</ele>
        <time>2022-08-28T16:02:57+0200</time>
      </trkpt>
      <trkpt lat="44.93004" lon="6.56362">
        <ele>1782.2</ele>
        <time>2022-08-28T16:02:58+0200</time>
      </trkpt>
      <trkpt lat="44.93005" lon="6.56354">
        <ele>1781.5</ele>
        <time>2022-08-28T16:02:59+0200</time>
      </trkpt>
      <trkpt lat="44.93009" lon="6.56349">
        <ele>1779.7</ele>
        <time>2022-08-28T16:03:00+0200</time>
      </trkpt>
      <trkpt lat="44.93009" lon="6.56341">
        <ele>1779.5</ele>
        <time>2022-08-28T16:03:03+0200</time>
      </trkpt>
      <trkpt lat="44.93012" lon="6.56329">
        <ele>1777.6</ele>
        <time>2022-08-28T16:03:04+0200</time>
      </trkpt>
      <trkpt lat="44.93012" lon="6.56318">
        <ele>1777.7</ele>
        <time>2022-08-28T16:03:05+0200</time>
      </trkpt>
      <trkpt lat="44.93011" lon="6.56308">
        <ele>1778</ele>
        <time>2022-08-28T16:03:06+0200</time>
      </trkpt>
      <trkpt lat="44.93016" lon="6.56301">
        <ele>1775.4</ele>
        <time>2022-08-28T16:03:08+0200</time>
      </trkpt>
      <trkpt lat="44.93021" lon="6.56302">
        <ele>1773.3</ele>
        <time>2022-08-28T16:03:10+0200</time>
      </trkpt>
      <trkpt lat="44.93027" lon="6.56302">
        <ele>1770.6</ele>
        <time>2022-08-28T16:03:14+0200</time>
      </trkpt>
      <trkpt lat="44.93031" lon="6.56296">
        <ele>1769.3</ele>
        <time>2022-08-28T16:03:16+0200</time>
      </trkpt>
      <trkpt lat="44.93032" lon="6.56289">
        <ele>1769.1</ele>
        <time>2022-08-28T16:03:17+0200</time>
      </trkpt>
      <trkpt lat="44.93036" lon="6.56281">
        <ele>1767.6</ele>
        <time>2022-08-28T16:03:19+0200</time>
      </trkpt>
      <trkpt lat="44.93042" lon="6.56277">
        <ele>1765.5</ele>
        <time>2022-08-28T16:03:21+0200</time>
      </trkpt>
      <trkpt lat="44.93044" lon="6.56271">
        <ele>1764.8</ele>
        <time>2022-08-28T16:03:22+0200</time>
      </trkpt>
      <trkpt lat="44.93047" lon="6.56263">
        <ele>1763.7</ele>
        <time>2022-08-28T16:03:24+0200</time>
      </trkpt>
      <trkpt lat="44.93049" lon="6.56271">
        <ele>1762.8</ele>
        <time>2022-08-28T16:03:27+0200</time>
      </trkpt>
      <trkpt lat="44.93055" lon="6.56271">
        <ele>1760.4</ele>
        <time>2022-08-28T16:03:31+0200</time>
      </trkpt>
      <trkpt lat="44.93062" lon="6.56268">
        <ele>1758.2</ele>
        <time>2022-08-28T16:03:35+0200</time>
      </trkpt>
      <trkpt lat="44.93067" lon="6.56269">
        <ele>1756.5</ele>
        <time>2022-08-28T16:03:37+0200</time>
      </trkpt>
      <trkpt lat="44.93073" lon="6.56273">
        <ele>1754.2</ele>
        <time>2022-08-28T16:03:38+0200</time>
      </trkpt>
      <trkpt lat="44.9308" lon="6.56268">
        <ele>1751.8</ele>
        <time>2022-08-28T16:03:40+0200</time>
      </trkpt>
      <trkpt lat="44.93087" lon="6.56262">
        <ele>1750.1</ele>
        <time>2022-08-28T16:03:41+0200</time>
      </trkpt>
      <trkpt lat="44.93093" lon="6.5626">
        <ele>1748.9</ele>
        <time>2022-08-28T16:03:42+0200</time>
      </trkpt>
      <trkpt lat="44.93098" lon="6.56254">
        <ele>1748.1</ele>
        <time>2022-08-28T16:03:43+0200</time>
      </trkpt>
      <trkpt lat="44.93103" lon="6.56249">
        <ele>1747.2</ele>
        <time>2022-08-28T16:03:44+0200</time>
      </trkpt>
      <trkpt lat="44.93109" lon="6.56241">
        <ele>1746.2</ele>
        <time>2022-08-28T16:03:46+0200</time>
      </trkpt>
      <trkpt lat="44.93114" lon="6.56237">
        <ele>1745.5</ele>
        <time>2022-08-28T16:03:47+0200</time>
      </trkpt>
      <trkpt lat="44.93117" lon="6.56229">
        <ele>1745.2</ele>
        <time>2022-08-28T16:03:48+0200</time>
      </trkpt>
      <trkpt lat="44.93119" lon="6.56222">
        <ele>1745.3</ele>
        <time>2022-08-28T16:03:49+0200</time>
      </trkpt>
      <trkpt lat="44.93122" lon="6.56216">
        <ele>1745.2</ele>
        <time>2022-08-28T16:03:50+0200</time>
      </trkpt>
      <trkpt lat="44.93126" lon="6.56203">
        <ele>1745.2</ele>
        <time>2022-08-28T16:03:52+0200</time>
      </trkpt>
      <trkpt lat="44.93129" lon="6.56195">
        <ele>1745</ele>
        <time>2022-08-28T16:03:53+0200</time>
      </trkpt>
      <trkpt lat="44.93133" lon="6.56188">
        <ele>1744.8</ele>
        <time>2022-08-28T16:03:54+0200</time>
      </trkpt>
      <trkpt lat="44.93139" lon="6.56179">
        <ele>1744</ele>
        <time>2022-08-28T16:03:56+0200</time>
      </trkpt>
      <trkpt lat="44.93145" lon="6.56175">
        <ele>1742.9</ele>
        <time>2022-08-28T16:03:57+0200</time>
      </trkpt>
      <trkpt lat="44.9315" lon="6.56169">
        <ele>1742.1</ele>
        <time>2022-08-28T16:03:58+0200</time>
      </trkpt>
      <trkpt lat="44.93156" lon="6.56165">
        <ele>1740.7</ele>
        <time>2022-08-28T16:03:59+0200</time>
      </trkpt>
      <trkpt lat="44.93162" lon="6.56159">
        <ele>1739.3</ele>
        <time>2022-08-28T16:04:00+0200</time>
      </trkpt>
      <trkpt lat="44.93168" lon="6.56151">
        <ele>1737.7</ele>
        <time>2022-08-28T16:04:02+0200</time>
      </trkpt>
      <trkpt lat="44.93171" lon="6.56145">
        <ele>1736.7</ele>
        <time>2022-08-28T16:04:04+0200</time>
      </trkpt>
      <trkpt lat="44.93177" lon="6.56139">
        <ele>1734.9</ele>
        <time>2022-08-28T16:04:06+0200</time>
      </trkpt>
      <trkpt lat="44.93182" lon="6.56133">
        <ele>1733.5</ele>
        <time>2022-08-28T16:04:08+0200</time>
      </trkpt>
      <trkpt lat="44.93188" lon="6.56129">
        <ele>1731.4</ele>
        <time>2022-08-28T16:04:10+0200</time>
      </trkpt>
      <trkpt lat="44.93195" lon="6.56125">
        <ele>1729.3</ele>
        <time>2022-08-28T16:04:12+0200</time>
      </trkpt>
      <trkpt lat="44.93201" lon="6.56124">
        <ele>1727.8</ele>
        <time>2022-08-28T16:04:15+0200</time>
      </trkpt>
      <trkpt lat="44.93205" lon="6.56121">
        <ele>1726.5</ele>
        <time>2022-08-28T16:04:17+0200</time>
      </trkpt>
      <trkpt lat="44.9321" lon="6.56118">
        <ele>1724.9</ele>
        <time>2022-08-28T16:04:18+0200</time>
      </trkpt>
      <trkpt lat="44.93217" lon="6.56118">
        <ele>1723</ele>
        <time>2022-08-28T16:04:19+0200</time>
      </trkpt>
      <trkpt lat="44.93224" lon="6.56116">
        <ele>1720.7</ele>
        <time>2022-08-28T16:04:21+0200</time>
      </trkpt>
      <trkpt lat="44.93232" lon="6.56111">
        <ele>1718.3</ele>
        <time>2022-08-28T16:04:23+0200</time>
      </trkpt>
      <trkpt lat="44.93238" lon="6.56108">
        <ele>1716.3</ele>
        <time>2022-08-28T16:04:25+0200</time>
      </trkpt>
      <trkpt lat="44.93245" lon="6.56109">
        <ele>1714.1</ele>
        <time>2022-08-28T16:04:27+0200</time>
      </trkpt>
      <trkpt lat="44.93251" lon="6.56111">
        <ele>1712.5</ele>
        <time>2022-08-28T16:04:29+0200</time>
      </trkpt>
      <trkpt lat="44.93255" lon="6.56116">
        <ele>1711.4</ele>
        <time>2022-08-28T16:04:31+0200</time>
      </trkpt>
      <trkpt lat="44.9326" lon="6.56116">
        <ele>1710</ele>
        <time>2022-08-28T16:04:33+0200</time>
      </trkpt>
      <trkpt lat="44.93266" lon="6.56121">
        <ele>1708.2</ele>
        <time>2022-08-28T16:04:35+0200</time>
      </trkpt>
      <trkpt lat="44.93271" lon="6.56118">
        <ele>1706.6</ele>
        <time>2022-08-28T16:04:37+0200</time>
      </trkpt>
      <trkpt lat="44.93277" lon="6.56111">
        <ele>1704.3</ele>
        <time>2022-08-28T16:04:39+0200</time>
      </trkpt>
      <trkpt lat="44.93284" lon="6.56112">
        <ele>1701.8</ele>
        <time>2022-08-28T16:04:41+0200</time>
      </trkpt>
      <trkpt lat="44.93289" lon="6.56117">
        <ele>1700.2</ele>
        <time>2022-08-28T16:04:43+0200</time>
      </trkpt>
      <trkpt lat="44.93295" lon="6.56116">
        <ele>1698.3</ele>
        <time>2022-08-28T16:04:45+0200</time>
      </trkpt>
      <trkpt lat="44.933" lon="6.56116">
        <ele>1696.2</ele>
        <time>2022-08-28T16:04:48+0200</time>
      </trkpt>
      <trkpt lat="44.93305" lon="6.56113">
        <ele>1694.4</ele>
        <time>2022-08-28T16:04:50+0200</time>
      </trkpt>
      <trkpt lat="44.93314" lon="6.56114">
        <ele>1691</ele>
        <time>2022-08-28T16:04:52+0200</time>
      </trkpt>
      <trkpt lat="44.93319" lon="6.56116">
        <ele>1689</ele>
        <time>2022-08-28T16:04:53+0200</time>
      </trkpt>
      <trkpt lat="44.93323" lon="6.56121">
        <ele>1687.7</ele>
        <time>2022-08-28T16:04:54+0200</time>
      </trkpt>
      <trkpt lat="44.93327" lon="6.56125">
        <ele>1686.6</ele>
        <time>2022-08-28T16:04:55+0200</time>
      </trkpt>
      <trkpt lat="44.93331" lon="6.56131">
        <ele>1685.3</ele>
        <time>2022-08-28T16:04:57+0200</time>
      </trkpt>
      <trkpt lat="44.93336" lon="6.56129">
        <ele>1683.2</ele>
        <time>2022-08-28T16:04:59+0200</time>
      </trkpt>
      <trkpt lat="44.93341" lon="6.56134">
        <ele>1681.5</ele>
        <time>2022-08-28T16:05:01+0200</time>
      </trkpt>
      <trkpt lat="44.93346" lon="6.56139">
        <ele>1680.1</ele>
        <time>2022-08-28T16:05:03+0200</time>
      </trkpt>
      <trkpt lat="44.9335" lon="6.56145">
        <ele>1678.6</ele>
        <time>2022-08-28T16:05:05+0200</time>
      </trkpt>
      <trkpt lat="44.93358" lon="6.56146">
        <ele>1675.7</ele>
        <time>2022-08-28T16:05:07+0200</time>
      </trkpt>
      <trkpt lat="44.93363" lon="6.5615">
        <ele>1674</ele>
        <time>2022-08-28T16:05:09+0200</time>
      </trkpt>
      <trkpt lat="44.93368" lon="6.5615">
        <ele>1672.1</ele>
        <time>2022-08-28T16:05:11+0200</time>
      </trkpt>
      <trkpt lat="44.93375" lon="6.56158">
        <ele>1670</ele>
        <time>2022-08-28T16:05:14+0200</time>
      </trkpt>
      <trkpt lat="44.9338" lon="6.56164">
        <ele>1668.4</ele>
        <time>2022-08-28T16:05:16+0200</time>
      </trkpt>
      <trkpt lat="44.93388" lon="6.56168">
        <ele>1665.7</ele>
        <time>2022-08-28T16:05:18+0200</time>
      </trkpt>
      <trkpt lat="44.93393" lon="6.56176">
        <ele>1664.4</ele>
        <time>2022-08-28T16:05:20+0200</time>
      </trkpt>
      <trkpt lat="44.93396" lon="6.56185">
        <ele>1663.9</ele>
        <time>2022-08-28T16:05:22+0200</time>
      </trkpt>
      <trkpt lat="44.934" lon="6.56188">
        <ele>1663</ele>
        <time>2022-08-28T16:05:24+0200</time>
      </trkpt>
      <trkpt lat="44.93407" lon="6.56191">
        <ele>1661</ele>
        <time>2022-08-28T16:05:27+0200</time>
      </trkpt>
      <trkpt lat="44.93414" lon="6.56192">
        <ele>1658.8</ele>
        <time>2022-08-28T16:05:29+0200</time>
      </trkpt>
      <trkpt lat="44.93419" lon="6.56193">
        <ele>1657.2</ele>
        <time>2022-08-28T16:05:30+0200</time>
      </trkpt>
      <trkpt lat="44.93426" lon="6.56192">
        <ele>1654.3</ele>
        <time>2022-08-28T16:05:32+0200</time>
      </trkpt>
      <trkpt lat="44.93434" lon="6.56192">
        <ele>1651.6</ele>
        <time>2022-08-28T16:05:34+0200</time>
      </trkpt>
      <trkpt lat="44.93442" lon="6.56195">
        <ele>1649</ele>
        <time>2022-08-28T16:05:36+0200</time>
      </trkpt>
      <trkpt lat="44.93446" lon="6.56198">
        <ele>1647.6</ele>
        <time>2022-08-28T16:05:37+0200</time>
      </trkpt>
      <trkpt lat="44.93454" lon="6.562">
        <ele>1644.8</ele>
        <time>2022-08-28T16:05:39+0200</time>
      </trkpt>
      <trkpt lat="44.93462" lon="6.56205">
        <ele>1641.9</ele>
        <time>2022-08-28T16:05:41+0200</time>
      </trkpt>
      <trkpt lat="44.93467" lon="6.56209">
        <ele>1640.4</ele>
        <time>2022-08-28T16:05:43+0200</time>
      </trkpt>
      <trkpt lat="44.93468" lon="6.56217">
        <ele>1640.4</ele>
        <time>2022-08-28T16:05:45+0200</time>
      </trkpt>
      <trkpt lat="44.93472" lon="6.5622">
        <ele>1639</ele>
        <time>2022-08-28T16:05:46+0200</time>
      </trkpt>
      <trkpt lat="44.93478" lon="6.56225">
        <ele>1636.3</ele>
        <time>2022-08-28T16:05:48+0200</time>
      </trkpt>
      <trkpt lat="44.93482" lon="6.56234">
        <ele>1634.6</ele>
        <time>2022-08-28T16:05:50+0200</time>
      </trkpt>
      <trkpt lat="44.93483" lon="6.56242">
        <ele>1633.9</ele>
        <time>2022-08-28T16:05:52+0200</time>
      </trkpt>
      <trkpt lat="44.93487" lon="6.56251">
        <ele>1632.2</ele>
        <time>2022-08-28T16:05:54+0200</time>
      </trkpt>
      <trkpt lat="44.93493" lon="6.56253">
        <ele>1629.3</ele>
        <time>2022-08-28T16:05:55+0200</time>
      </trkpt>
      <trkpt lat="44.93499" lon="6.56259">
        <ele>1626.3</ele>
        <time>2022-08-28T16:05:57+0200</time>
      </trkpt>
      <trkpt lat="44.935" lon="6.56267">
        <ele>1626.2</ele>
        <time>2022-08-28T16:05:58+0200</time>
      </trkpt>
      <trkpt lat="44.93498" lon="6.56273">
        <ele>1627.1</ele>
        <time>2022-08-28T16:05:59+0200</time>
      </trkpt>
      <trkpt lat="44.93505" lon="6.56283">
        <ele>1623.2</ele>
        <time>2022-08-28T16:06:01+0200</time>
      </trkpt>
      <trkpt lat="44.9351" lon="6.56286">
        <ele>1620.1</ele>
        <time>2022-08-28T16:06:03+0200</time>
      </trkpt>
      <trkpt lat="44.93509" lon="6.56293">
        <ele>1620.6</ele>
        <time>2022-08-28T16:06:04+0200</time>
      </trkpt>
      <trkpt lat="44.93505" lon="6.56297">
        <ele>1622.8</ele>
        <time>2022-08-28T16:06:05+0200</time>
      </trkpt>
      <trkpt lat="44.93508" lon="6.56303">
        <ele>1620.9</ele>
        <time>2022-08-28T16:06:07+0200</time>
      </trkpt>
      <trkpt lat="44.9351" lon="6.56311">
        <ele>1618.9</ele>
        <time>2022-08-28T16:06:10+0200</time>
      </trkpt>
      <trkpt lat="44.93507" lon="6.56317">
        <ele>1619.8</ele>
        <time>2022-08-28T16:06:12+0200</time>
      </trkpt>
      <trkpt lat="44.93508" lon="6.56328">
        <ele>1618.5</ele>
        <time>2022-08-28T16:06:15+0200</time>
      </trkpt>
      <trkpt lat="44.93506" lon="6.56339">
        <ele>1618</ele>
        <time>2022-08-28T16:06:17+0200</time>
      </trkpt>
      <trkpt lat="44.93511" lon="6.56341">
        <ele>1615.1</ele>
        <time>2022-08-28T16:06:19+0200</time>
      </trkpt>
      <trkpt lat="44.93515" lon="6.56345">
        <ele>1612.3</ele>
        <time>2022-08-28T16:06:22+0200</time>
      </trkpt>
      <trkpt lat="44.93519" lon="6.56352">
        <ele>1609.4</ele>
        <time>2022-08-28T16:06:23+0200</time>
      </trkpt>
      <trkpt lat="44.93526" lon="6.56354">
        <ele>1605.1</ele>
        <time>2022-08-28T16:06:26+0200</time>
      </trkpt>
      <trkpt lat="44.93531" lon="6.56362">
        <ele>1600.9</ele>
        <time>2022-08-28T16:06:29+0200</time>
      </trkpt>
      <trkpt lat="44.93527" lon="6.56365">
        <ele>1602.9</ele>
        <time>2022-08-28T16:06:31+0200</time>
      </trkpt>
      <trkpt lat="44.93526" lon="6.56373">
        <ele>1602.2</ele>
        <time>2022-08-28T16:06:34+0200</time>
      </trkpt>
      <trkpt lat="44.93521" lon="6.56375">
        <ele>1604.4</ele>
        <time>2022-08-28T16:06:36+0200</time>
      </trkpt>
      <trkpt lat="44.93528" lon="6.56379">
        <ele>1599.5</ele>
        <time>2022-08-28T16:06:39+0200</time>
      </trkpt>
      <trkpt lat="44.93533" lon="6.56385">
        <ele>1595.6</ele>
        <time>2022-08-28T16:06:41+0200</time>
      </trkpt>
      <trkpt lat="44.93531" lon="6.56392">
        <ele>1595.7</ele>
        <time>2022-08-28T16:06:44+0200</time>
      </trkpt>
      <trkpt lat="44.93529" lon="6.56398">
        <ele>1595.4</ele>
        <time>2022-08-28T16:06:46+0200</time>
      </trkpt>
      <trkpt lat="44.9353" lon="6.56407">
        <ele>1592.8</ele>
        <time>2022-08-28T16:06:48+0200</time>
      </trkpt>
      <trkpt lat="44.93532" lon="6.56414">
        <ele>1590.4</ele>
        <time>2022-08-28T16:06:51+0200</time>
      </trkpt>
      <trkpt lat="44.93536" lon="6.5642">
        <ele>1586.3</ele>
        <time>2022-08-28T16:06:53+0200</time>
      </trkpt>
      <trkpt lat="44.93542" lon="6.5642">
        <ele>1583</ele>
        <time>2022-08-28T16:06:56+0200</time>
      </trkpt>
      <trkpt lat="44.93546" lon="6.56415">
        <ele>1581.7</ele>
        <time>2022-08-28T16:06:58+0200</time>
      </trkpt>
      <trkpt lat="44.93552" lon="6.56411">
        <ele>1579.4</ele>
        <time>2022-08-28T16:07:00+0200</time>
      </trkpt>
      <trkpt lat="44.93555" lon="6.56406">
        <ele>1578.1</ele>
        <time>2022-08-28T16:07:01+0200</time>
      </trkpt>
      <trkpt lat="44.9356" lon="6.56395">
        <ele>1577.4</ele>
        <time>2022-08-28T16:07:03+0200</time>
      </trkpt>
      <trkpt lat="44.93565" lon="6.56391">
        <ele>1575.2</ele>
        <time>2022-08-28T16:07:04+0200</time>
      </trkpt>
      <trkpt lat="44.93571" lon="6.56391">
        <ele>1571.7</ele>
        <time>2022-08-28T16:07:06+0200</time>
      </trkpt>
      <trkpt lat="44.93576" lon="6.56387">
        <ele>1569.6</ele>
        <time>2022-08-28T16:07:08+0200</time>
      </trkpt>
      <trkpt lat="44.93577" lon="6.5637">
        <ele>1572.2</ele>
        <time>2022-08-28T16:07:10+0200</time>
      </trkpt>
      <trkpt lat="44.9358" lon="6.56361">
        <ele>1571.9</ele>
        <time>2022-08-28T16:07:11+0200</time>
      </trkpt>
      <trkpt lat="44.93586" lon="6.56361">
        <ele>1568.8</ele>
        <time>2022-08-28T16:07:12+0200</time>
      </trkpt>
      <trkpt lat="44.9359" lon="6.56348">
        <ele>1567.6</ele>
        <time>2022-08-28T16:07:15+0200</time>
      </trkpt>
      <trkpt lat="44.93593" lon="6.56339">
        <ele>1567</ele>
        <time>2022-08-28T16:07:16+0200</time>
      </trkpt>
      <trkpt lat="44.93596" lon="6.56334">
        <ele>1566.1</ele>
        <time>2022-08-28T16:07:17+0200</time>
      </trkpt>
      <trkpt lat="44.936" lon="6.56327">
        <ele>1564.2</ele>
        <time>2022-08-28T16:07:18+0200</time>
      </trkpt>
      <trkpt lat="44.93604" lon="6.56321">
        <ele>1562.5</ele>
        <time>2022-08-28T16:07:19+0200</time>
      </trkpt>
      <trkpt lat="44.93606" lon="6.56311">
        <ele>1561.9</ele>
        <time>2022-08-28T16:07:20+0200</time>
      </trkpt>
      <trkpt lat="44.93607" lon="6.563">
        <ele>1561.8</ele>
        <time>2022-08-28T16:07:22+0200</time>
      </trkpt>
      <trkpt lat="44.93612" lon="6.56301">
        <ele>1559</ele>
        <time>2022-08-28T16:07:24+0200</time>
      </trkpt>
      <trkpt lat="44.93614" lon="6.56308">
        <ele>1557.6</ele>
        <time>2022-08-28T16:07:27+0200</time>
      </trkpt>
      <trkpt lat="44.93619" lon="6.56299">
        <ele>1555.4</ele>
        <time>2022-08-28T16:07:29+0200</time>
      </trkpt>
      <trkpt lat="44.93616" lon="6.56288">
        <ele>1557.7</ele>
        <time>2022-08-28T16:07:30+0200</time>
      </trkpt>
      <trkpt lat="44.93613" lon="6.5628">
        <ele>1559.7</ele>
        <time>2022-08-28T16:07:31+0200</time>
      </trkpt>
      <trkpt lat="44.93618" lon="6.56274">
        <ele>1557.6</ele>
        <time>2022-08-28T16:07:32+0200</time>
      </trkpt>
      <trkpt lat="44.93622" lon="6.56276">
        <ele>1554.9</ele>
        <time>2022-08-28T16:07:34+0200</time>
      </trkpt>
      <trkpt lat="44.93625" lon="6.56282">
        <ele>1553.4</ele>
        <time>2022-08-28T16:07:37+0200</time>
      </trkpt>
      <trkpt lat="44.9363" lon="6.56284">
        <ele>1550.3</ele>
        <time>2022-08-28T16:07:39+0200</time>
      </trkpt>
      <trkpt lat="44.93633" lon="6.56278">
        <ele>1549</ele>
        <time>2022-08-28T16:07:41+0200</time>
      </trkpt>
      <trkpt lat="44.93632" lon="6.56272">
        <ele>1549.9</ele>
        <time>2022-08-28T16:07:43+0200</time>
      </trkpt>
      <trkpt lat="44.93636" lon="6.5627">
        <ele>1547.5</ele>
        <time>2022-08-28T16:07:44+0200</time>
      </trkpt>
      <trkpt lat="44.93639" lon="6.56264">
        <ele>1546.2</ele>
        <time>2022-08-28T16:07:47+0200</time>
      </trkpt>
      <trkpt lat="44.93637" lon="6.56255">
        <ele>1547</ele>
        <time>2022-08-28T16:07:49+0200</time>
      </trkpt>
      <trkpt lat="44.93639" lon="6.56248">
        <ele>1545.7</ele>
        <time>2022-08-28T16:07:50+0200</time>
      </trkpt>
      <trkpt lat="44.9364" lon="6.56236">
        <ele>1545.2</ele>
        <time>2022-08-28T16:07:52+0200</time>
      </trkpt>
      <trkpt lat="44.93645" lon="6.56236">
        <ele>1542.8</ele>
        <time>2022-08-28T16:07:54+0200</time>
      </trkpt>
      <trkpt lat="44.93649" lon="6.56239">
        <ele>1540.8</ele>
        <time>2022-08-28T16:07:58+0200</time>
      </trkpt>
      <trkpt lat="44.93654" lon="6.56237">
        <ele>1538</ele>
        <time>2022-08-28T16:08:01+0200</time>
      </trkpt>
      <trkpt lat="44.93654" lon="6.5623">
        <ele>1537.6</ele>
        <time>2022-08-28T16:08:03+0200</time>
      </trkpt>
      <trkpt lat="44.93662" lon="6.56231">
        <ele>1534.2</ele>
        <time>2022-08-28T16:08:05+0200</time>
      </trkpt>
      <trkpt lat="44.93666" lon="6.56236">
        <ele>1532.2</ele>
        <time>2022-08-28T16:08:06+0200</time>
      </trkpt>
      <trkpt lat="44.93668" lon="6.56227">
        <ele>1530.6</ele>
        <time>2022-08-28T16:08:11+0200</time>
      </trkpt>
      <trkpt lat="44.93668" lon="6.56217">
        <ele>1530</ele>
        <time>2022-08-28T16:08:12+0200</time>
      </trkpt>
      <trkpt lat="44.93672" lon="6.5621">
        <ele>1527.4</ele>
        <time>2022-08-28T16:08:14+0200</time>
      </trkpt>
      <trkpt lat="44.93669" lon="6.56204">
        <ele>1528</ele>
        <time>2022-08-28T16:08:21+0200</time>
      </trkpt>
      <trkpt lat="44.93674" lon="6.56203">
        <ele>1526.1</ele>
        <time>2022-08-28T16:08:23+0200</time>
      </trkpt>
      <trkpt lat="44.9368" lon="6.56203">
        <ele>1523.8</ele>
        <time>2022-08-28T16:08:27+0200</time>
      </trkpt>
      <trkpt lat="44.93685" lon="6.5621">
        <ele>1522.3</ele>
        <time>2022-08-28T16:08:29+0200</time>
      </trkpt>
      <trkpt lat="44.93692" lon="6.5621">
        <ele>1519.7</ele>
        <time>2022-08-28T16:08:31+0200</time>
      </trkpt>
      <trkpt lat="44.93697" lon="6.5621">
        <ele>1518.1</ele>
        <time>2022-08-28T16:08:33+0200</time>
      </trkpt>
      <trkpt lat="44.937" lon="6.56204">
        <ele>1516.4</ele>
        <time>2022-08-28T16:08:37+0200</time>
      </trkpt>
      <trkpt lat="44.93702" lon="6.56196">
        <ele>1514.9</ele>
        <time>2022-08-28T16:08:38+0200</time>
      </trkpt>
      <trkpt lat="44.93699" lon="6.5619">
        <ele>1515.3</ele>
        <time>2022-08-28T16:08:39+0200</time>
      </trkpt>
      <trkpt lat="44.93705" lon="6.56185">
        <ele>1513.1</ele>
        <time>2022-08-28T16:08:41+0200</time>
      </trkpt>
      <trkpt lat="44.9371" lon="6.56183">
        <ele>1511.6</ele>
        <time>2022-08-28T16:08:43+0200</time>
      </trkpt>
      <trkpt lat="44.93714" lon="6.56186">
        <ele>1510.6</ele>
        <time>2022-08-28T16:08:44+0200</time>
      </trkpt>
      <trkpt lat="44.93721" lon="6.56186">
        <ele>1508.7</ele>
        <time>2022-08-28T16:08:46+0200</time>
      </trkpt>
      <trkpt lat="44.93727" lon="6.56191">
        <ele>1507.7</ele>
        <time>2022-08-28T16:08:48+0200</time>
      </trkpt>
      <trkpt lat="44.93732" lon="6.56188">
        <ele>1506.5</ele>
        <time>2022-08-28T16:08:49+0200</time>
      </trkpt>
      <trkpt lat="44.93739" lon="6.56186">
        <ele>1504.9</ele>
        <time>2022-08-28T16:08:50+0200</time>
      </trkpt>
      <trkpt lat="44.93746" lon="6.56181">
        <ele>1503.3</ele>
        <time>2022-08-28T16:08:52+0200</time>
      </trkpt>
      <trkpt lat="44.93752" lon="6.56179">
        <ele>1502.2</ele>
        <time>2022-08-28T16:08:53+0200</time>
      </trkpt>
      <trkpt lat="44.93756" lon="6.56178">
        <ele>1501.4</ele>
        <time>2022-08-28T16:08:54+0200</time>
      </trkpt>
      <trkpt lat="44.93761" lon="6.56178">
        <ele>1500.4</ele>
        <time>2022-08-28T16:08:55+0200</time>
      </trkpt>
      <trkpt lat="44.93767" lon="6.56181">
        <ele>1499.5</ele>
        <time>2022-08-28T16:08:56+0200</time>
      </trkpt>
      <trkpt lat="44.93773" lon="6.56183">
        <ele>1498.3</ele>
        <time>2022-08-28T16:08:57+0200</time>
      </trkpt>
      <trkpt lat="44.93779" lon="6.56182">
        <ele>1497.3</ele>
        <time>2022-08-28T16:08:58+0200</time>
      </trkpt>
      <trkpt lat="44.93784" lon="6.56181">
        <ele>1496.4</ele>
        <time>2022-08-28T16:08:59+0200</time>
      </trkpt>
      <trkpt lat="44.93791" lon="6.56182">
        <ele>1495.4</ele>
        <time>2022-08-28T16:09:00+0200</time>
      </trkpt>
      <trkpt lat="44.93799" lon="6.56185">
        <ele>1493.8</ele>
        <time>2022-08-28T16:09:01+0200</time>
      </trkpt>
      <trkpt lat="44.93807" lon="6.56187">
        <ele>1492.4</ele>
        <time>2022-08-28T16:09:02+0200</time>
      </trkpt>
      <trkpt lat="44.93813" lon="6.56186">
        <ele>1491.1</ele>
        <time>2022-08-28T16:09:03+0200</time>
      </trkpt>
      <trkpt lat="44.93818" lon="6.56185">
        <ele>1490.3</ele>
        <time>2022-08-28T16:09:04+0200</time>
      </trkpt>
      <trkpt lat="44.93823" lon="6.56185">
        <ele>1489.4</ele>
        <time>2022-08-28T16:09:05+0200</time>
      </trkpt>
      <trkpt lat="44.93829" lon="6.56182">
        <ele>1488.7</ele>
        <time>2022-08-28T16:09:06+0200</time>
      </trkpt>
      <trkpt lat="44.93834" lon="6.56182">
        <ele>1487.7</ele>
        <time>2022-08-28T16:09:07+0200</time>
      </trkpt>
      <trkpt lat="44.93841" lon="6.56183">
        <ele>1486.1</ele>
        <time>2022-08-28T16:09:08+0200</time>
      </trkpt>
      <trkpt lat="44.93848" lon="6.56179">
        <ele>1485.3</ele>
        <time>2022-08-28T16:09:10+0200</time>
      </trkpt>
      <trkpt lat="44.93857" lon="6.5618">
        <ele>1483.4</ele>
        <time>2022-08-28T16:09:12+0200</time>
      </trkpt>
      <trkpt lat="44.93862" lon="6.56181">
        <ele>1482.3</ele>
        <time>2022-08-28T16:09:13+0200</time>
      </trkpt>
      <trkpt lat="44.93868" lon="6.56176">
        <ele>1481.8</ele>
        <time>2022-08-28T16:09:15+0200</time>
      </trkpt>
      <trkpt lat="44.93874" lon="6.56177">
        <ele>1480.3</ele>
        <time>2022-08-28T16:09:16+0200</time>
      </trkpt>
      <trkpt lat="44.93879" lon="6.56179">
        <ele>1478.8</ele>
        <time>2022-08-28T16:09:17+0200</time>
      </trkpt>
      <trkpt lat="44.9389" lon="6.56181">
        <ele>1476.4</ele>
        <time>2022-08-28T16:09:19+0200</time>
      </trkpt>
      <trkpt lat="44.93896" lon="6.56181">
        <ele>1475</ele>
        <time>2022-08-28T16:09:20+0200</time>
      </trkpt>
      <trkpt lat="44.93905" lon="6.56171">
        <ele>1474.1</ele>
        <time>2022-08-28T16:09:22+0200</time>
      </trkpt>
      <trkpt lat="44.93911" lon="6.56169">
        <ele>1473</ele>
        <time>2022-08-28T16:09:23+0200</time>
      </trkpt>
      <trkpt lat="44.93918" lon="6.56171">
        <ele>1471.4</ele>
        <time>2022-08-28T16:09:24+0200</time>
      </trkpt>
      <trkpt lat="44.93925" lon="6.56171">
        <ele>1469.7</ele>
        <time>2022-08-28T16:09:27+0200</time>
      </trkpt>
      <trkpt lat="44.93933" lon="6.56175">
        <ele>1467.5</ele>
        <time>2022-08-28T16:09:29+0200</time>
      </trkpt>
      <trkpt lat="44.9394" lon="6.56178">
        <ele>1465.8</ele>
        <time>2022-08-28T16:09:31+0200</time>
      </trkpt>
      <trkpt lat="44.93947" lon="6.56178">
        <ele>1464.3</ele>
        <time>2022-08-28T16:09:33+0200</time>
      </trkpt>
      <trkpt lat="44.93951" lon="6.56182">
        <ele>1463.2</ele>
        <time>2022-08-28T16:09:34+0200</time>
      </trkpt>
      <trkpt lat="44.93955" lon="6.56186">
        <ele>1462.1</ele>
        <time>2022-08-28T16:09:35+0200</time>
      </trkpt>
      <trkpt lat="44.93961" lon="6.56187">
        <ele>1460.9</ele>
        <time>2022-08-28T16:09:37+0200</time>
      </trkpt>
      <trkpt lat="44.93966" lon="6.56189">
        <ele>1459.7</ele>
        <time>2022-08-28T16:09:38+0200</time>
      </trkpt>
      <trkpt lat="44.93973" lon="6.56192">
        <ele>1458.2</ele>
        <time>2022-08-28T16:09:39+0200</time>
      </trkpt>
      <trkpt lat="44.93979" lon="6.56197">
        <ele>1457.3</ele>
        <time>2022-08-28T16:09:40+0200</time>
      </trkpt>
      <trkpt lat="44.93985" lon="6.56199">
        <ele>1456.7</ele>
        <time>2022-08-28T16:09:41+0200</time>
      </trkpt>
      <trkpt lat="44.93992" lon="6.56199">
        <ele>1456.2</ele>
        <time>2022-08-28T16:09:42+0200</time>
      </trkpt>
      <trkpt lat="44.93997" lon="6.56201">
        <ele>1455.6</ele>
        <time>2022-08-28T16:09:43+0200</time>
      </trkpt>
      <trkpt lat="44.94005" lon="6.56201">
        <ele>1454.8</ele>
        <time>2022-08-28T16:09:44+0200</time>
      </trkpt>
      <trkpt lat="44.94016" lon="6.56202">
        <ele>1453.6</ele>
        <time>2022-08-28T16:09:45+0200</time>
      </trkpt>
      <trkpt lat="44.94022" lon="6.56196">
        <ele>1453.5</ele>
        <time>2022-08-28T16:09:46+0200</time>
      </trkpt>
      <trkpt lat="44.94027" lon="6.5619">
        <ele>1453.2</ele>
        <time>2022-08-28T16:09:47+0200</time>
      </trkpt>
      <trkpt lat="44.94032" lon="6.56185">
        <ele>1452.6</ele>
        <time>2022-08-28T16:09:48+0200</time>
      </trkpt>
      <trkpt lat="44.94038" lon="6.56183">
        <ele>1451.6</ele>
        <time>2022-08-28T16:09:49+0200</time>
      </trkpt>
      <trkpt lat="44.94042" lon="6.56181">
        <ele>1451</ele>
        <time>2022-08-28T16:09:50+0200</time>
      </trkpt>
      <trkpt lat="44.94047" lon="6.56182">
        <ele>1450</ele>
        <time>2022-08-28T16:09:52+0200</time>
      </trkpt>
      <trkpt lat="44.94052" lon="6.56188">
        <ele>1448.8</ele>
        <time>2022-08-28T16:09:55+0200</time>
      </trkpt>
      <trkpt lat="44.94056" lon="6.56197">
        <ele>1447.9</ele>
        <time>2022-08-28T16:09:58+0200</time>
      </trkpt>
      <trkpt lat="44.9406" lon="6.562">
        <ele>1446.7</ele>
        <time>2022-08-28T16:09:59+0200</time>
      </trkpt>
      <trkpt lat="44.94065" lon="6.56207">
        <ele>1445.4</ele>
        <time>2022-08-28T16:10:00+0200</time>
      </trkpt>
      <trkpt lat="44.94065" lon="6.56217">
        <ele>1445.2</ele>
        <time>2022-08-28T16:10:01+0200</time>
      </trkpt>
      <trkpt lat="44.94064" lon="6.56226">
        <ele>1445.1</ele>
        <time>2022-08-28T16:10:02+0200</time>
      </trkpt>
      <trkpt lat="44.94065" lon="6.56236">
        <ele>1443.7</ele>
        <time>2022-08-28T16:10:03+0200</time>
      </trkpt>
      <trkpt lat="44.94064" lon="6.56245">
        <ele>1442.7</ele>
        <time>2022-08-28T16:10:04+0200</time>
      </trkpt>
      <trkpt lat="44.94063" lon="6.56253">
        <ele>1442</ele>
        <time>2022-08-28T16:10:05+0200</time>
      </trkpt>
      <trkpt lat="44.94062" lon="6.56263">
        <ele>1441.2</ele>
        <time>2022-08-28T16:10:06+0200</time>
      </trkpt>
      <trkpt lat="44.94062" lon="6.5627">
        <ele>1440.5</ele>
        <time>2022-08-28T16:10:07+0200</time>
      </trkpt>
      <trkpt lat="44.94061" lon="6.56278">
        <ele>1439.8</ele>
        <time>2022-08-28T16:10:08+0200</time>
      </trkpt>
      <trkpt lat="44.94068" lon="6.5628">
        <ele>1438.1</ele>
        <time>2022-08-28T16:10:10+0200</time>
      </trkpt>
      <trkpt lat="44.9407" lon="6.56288">
        <ele>1437.1</ele>
        <time>2022-08-28T16:10:13+0200</time>
      </trkpt>
      <trkpt lat="44.94076" lon="6.56292">
        <ele>1435.2</ele>
        <time>2022-08-28T16:10:15+0200</time>
      </trkpt>
      <trkpt lat="44.94081" lon="6.5629">
        <ele>1434.3</ele>
        <time>2022-08-28T16:10:16+0200</time>
      </trkpt>
      <trkpt lat="44.94088" lon="6.56292">
        <ele>1432.3</ele>
        <time>2022-08-28T16:10:17+0200</time>
      </trkpt>
      <trkpt lat="44.94094" lon="6.56291">
        <ele>1430.9</ele>
        <time>2022-08-28T16:10:18+0200</time>
      </trkpt>
      <trkpt lat="44.94099" lon="6.56282">
        <ele>1430.7</ele>
        <time>2022-08-28T16:10:19+0200</time>
      </trkpt>
      <trkpt lat="44.94099" lon="6.56273">
        <ele>1431.6</ele>
        <time>2022-08-28T16:10:20+0200</time>
      </trkpt>
      <trkpt lat="44.94099" lon="6.56265">
        <ele>1432.3</ele>
        <time>2022-08-28T16:10:22+0200</time>
      </trkpt>
      <trkpt lat="44.94102" lon="6.56254">
        <ele>1432.3</ele>
        <time>2022-08-28T16:10:24+0200</time>
      </trkpt>
      <trkpt lat="44.94103" lon="6.56243">
        <ele>1432.7</ele>
        <time>2022-08-28T16:10:26+0200</time>
      </trkpt>
      <trkpt lat="44.94104" lon="6.56237">
        <ele>1432.7</ele>
        <time>2022-08-28T16:10:27+0200</time>
      </trkpt>
      <trkpt lat="44.94108" lon="6.5623">
        <ele>1431.7</ele>
        <time>2022-08-28T16:10:29+0200</time>
      </trkpt>
      <trkpt lat="44.94111" lon="6.56235">
        <ele>1430.5</ele>
        <time>2022-08-28T16:10:30+0200</time>
      </trkpt>
      <trkpt lat="44.94111" lon="6.56245">
        <ele>1430.3</ele>
        <time>2022-08-28T16:10:31+0200</time>
      </trkpt>
      <trkpt lat="44.94109" lon="6.56253">
        <ele>1430.3</ele>
        <time>2022-08-28T16:10:32+0200</time>
      </trkpt>
      <trkpt lat="44.9411" lon="6.56261">
        <ele>1429.6</ele>
        <time>2022-08-28T16:10:33+0200</time>
      </trkpt>
      <trkpt lat="44.94109" lon="6.56268">
        <ele>1429.2</ele>
        <time>2022-08-28T16:10:34+0200</time>
      </trkpt>
      <trkpt lat="44.94109" lon="6.56276">
        <ele>1428.7</ele>
        <time>2022-08-28T16:10:35+0200</time>
      </trkpt>
      <trkpt lat="44.94108" lon="6.56289">
        <ele>1427.7</ele>
        <time>2022-08-28T16:10:37+0200</time>
      </trkpt>
      <trkpt lat="44.94106" lon="6.56298">
        <ele>1427.2</ele>
        <time>2022-08-28T16:10:38+0200</time>
      </trkpt>
      <trkpt lat="44.94101" lon="6.56304">
        <ele>1427.6</ele>
        <time>2022-08-28T16:10:39+0200</time>
      </trkpt>
      <trkpt lat="44.94098" lon="6.5631">
        <ele>1428.2</ele>
        <time>2022-08-28T16:10:40+0200</time>
      </trkpt>
      <trkpt lat="44.94102" lon="6.56318">
        <ele>1426.9</ele>
        <time>2022-08-28T16:10:42+0200</time>
      </trkpt>
      <trkpt lat="44.94107" lon="6.56311">
        <ele>1425.9</ele>
        <time>2022-08-28T16:10:43+0200</time>
      </trkpt>
      <trkpt lat="44.9411" lon="6.56305">
        <ele>1425.5</ele>
        <time>2022-08-28T16:10:44+0200</time>
      </trkpt>
      <trkpt lat="44.94113" lon="6.56299">
        <ele>1425.5</ele>
        <time>2022-08-28T16:10:45+0200</time>
      </trkpt>
      <trkpt lat="44.94116" lon="6.56292">
        <ele>1425.5</ele>
        <time>2022-08-28T16:10:46+0200</time>
      </trkpt>
      <trkpt lat="44.94121" lon="6.56292">
        <ele>1424.4</ele>
        <time>2022-08-28T16:10:47+0200</time>
      </trkpt>
      <trkpt lat="44.94128" lon="6.56297">
        <ele>1422.7</ele>
        <time>2022-08-28T16:10:48+0200</time>
      </trkpt>
      <trkpt lat="44.94135" lon="6.56303">
        <ele>1420.9</ele>
        <time>2022-08-28T16:10:49+0200</time>
      </trkpt>
      <trkpt lat="44.94142" lon="6.5631">
        <ele>1419.3</ele>
        <time>2022-08-28T16:10:50+0200</time>
      </trkpt>
      <trkpt lat="44.94148" lon="6.5632">
        <ele>1418</ele>
        <time>2022-08-28T16:10:51+0200</time>
      </trkpt>
      <trkpt lat="44.94154" lon="6.56328">
        <ele>1416.7</ele>
        <time>2022-08-28T16:10:52+0200</time>
      </trkpt>
      <trkpt lat="44.94159" lon="6.56332">
        <ele>1415.9</ele>
        <time>2022-08-28T16:10:53+0200</time>
      </trkpt>
      <trkpt lat="44.94165" lon="6.56331">
        <ele>1415.4</ele>
        <time>2022-08-28T16:10:54+0200</time>
      </trkpt>
      <trkpt lat="44.9417" lon="6.56329">
        <ele>1415</ele>
        <time>2022-08-28T16:10:55+0200</time>
      </trkpt>
      <trkpt lat="44.94175" lon="6.56327">
        <ele>1414.5</ele>
        <time>2022-08-28T16:10:56+0200</time>
      </trkpt>
      <trkpt lat="44.94179" lon="6.56317">
        <ele>1414.5</ele>
        <time>2022-08-28T16:10:57+0200</time>
      </trkpt>
      <trkpt lat="44.9418" lon="6.56307">
        <ele>1415</ele>
        <time>2022-08-28T16:10:58+0200</time>
      </trkpt>
      <trkpt lat="44.94181" lon="6.563">
        <ele>1415.1</ele>
        <time>2022-08-28T16:10:59+0200</time>
      </trkpt>
      <trkpt lat="44.94183" lon="6.56292">
        <ele>1415.1</ele>
        <time>2022-08-28T16:11:00+0200</time>
      </trkpt>
      <trkpt lat="44.94184" lon="6.56286">
        <ele>1415.2</ele>
        <time>2022-08-28T16:11:01+0200</time>
      </trkpt>
      <trkpt lat="44.94188" lon="6.56274">
        <ele>1415.1</ele>
        <time>2022-08-28T16:11:03+0200</time>
      </trkpt>
      <trkpt lat="44.94192" lon="6.5627">
        <ele>1414.7</ele>
        <time>2022-08-28T16:11:04+0200</time>
      </trkpt>
      <trkpt lat="44.94196" lon="6.56265">
        <ele>1414.2</ele>
        <time>2022-08-28T16:11:05+0200</time>
      </trkpt>
      <trkpt lat="44.94199" lon="6.56259">
        <ele>1413.9</ele>
        <time>2022-08-28T16:11:06+0200</time>
      </trkpt>
      <trkpt lat="44.94203" lon="6.56255">
        <ele>1413.2</ele>
        <time>2022-08-28T16:11:07+0200</time>
      </trkpt>
      <trkpt lat="44.94212" lon="6.56253">
        <ele>1411.8</ele>
        <time>2022-08-28T16:11:09+0200</time>
      </trkpt>
      <trkpt lat="44.94218" lon="6.56262">
        <ele>1410.2</ele>
        <time>2022-08-28T16:11:11+0200</time>
      </trkpt>
      <trkpt lat="44.94224" lon="6.56268">
        <ele>1409.1</ele>
        <time>2022-08-28T16:11:12+0200</time>
      </trkpt>
      <trkpt lat="44.9423" lon="6.56275">
        <ele>1408.3</ele>
        <time>2022-08-28T16:11:13+0200</time>
      </trkpt>
      <trkpt lat="44.94236" lon="6.56283">
        <ele>1407.6</ele>
        <time>2022-08-28T16:11:14+0200</time>
      </trkpt>
      <trkpt lat="44.94242" lon="6.56289">
        <ele>1407</ele>
        <time>2022-08-28T16:11:15+0200</time>
      </trkpt>
      <trkpt lat="44.94248" lon="6.56294">
        <ele>1406.3</ele>
        <time>2022-08-28T16:11:16+0200</time>
      </trkpt>
      <trkpt lat="44.94252" lon="6.56299">
        <ele>1405.7</ele>
        <time>2022-08-28T16:11:17+0200</time>
      </trkpt>
      <trkpt lat="44.94257" lon="6.56303">
        <ele>1405</ele>
        <time>2022-08-28T16:11:18+0200</time>
      </trkpt>
      <trkpt lat="44.94263" lon="6.56304">
        <ele>1404.1</ele>
        <time>2022-08-28T16:11:20+0200</time>
      </trkpt>
      <trkpt lat="44.94269" lon="6.56297">
        <ele>1403.5</ele>
        <time>2022-08-28T16:11:22+0200</time>
      </trkpt>
      <trkpt lat="44.94273" lon="6.56286">
        <ele>1403.3</ele>
        <time>2022-08-28T16:11:24+0200</time>
      </trkpt>
      <trkpt lat="44.94274" lon="6.56276">
        <ele>1403.4</ele>
        <time>2022-08-28T16:11:26+0200</time>
      </trkpt>
      <trkpt lat="44.94273" lon="6.56268">
        <ele>1403.6</ele>
        <time>2022-08-28T16:11:28+0200</time>
      </trkpt>
      <trkpt lat="44.9427" lon="6.56259">
        <ele>1404.1</ele>
        <time>2022-08-28T16:11:30+0200</time>
      </trkpt>
      <trkpt lat="44.9427" lon="6.56251">
        <ele>1404.1</ele>
        <time>2022-08-28T16:11:35+0200</time>
      </trkpt>
      <trkpt lat="44.94271" lon="6.56241">
        <ele>1404</ele>
        <time>2022-08-28T16:11:37+0200</time>
      </trkpt>
      <trkpt lat="44.94271" lon="6.56232">
        <ele>1403.9</ele>
        <time>2022-08-28T16:11:39+0200</time>
      </trkpt>
      <trkpt lat="44.94271" lon="6.56224">
        <ele>1404</ele>
        <time>2022-08-28T16:11:41+0200</time>
      </trkpt>
      <trkpt lat="44.94269" lon="6.56215">
        <ele>1404.6</ele>
        <time>2022-08-28T16:11:43+0200</time>
      </trkpt>
      <trkpt lat="44.94268" lon="6.56209">
        <ele>1404.8</ele>
        <time>2022-08-28T16:11:45+0200</time>
      </trkpt>
      <trkpt lat="44.94269" lon="6.562">
        <ele>1405</ele>
        <time>2022-08-28T16:11:47+0200</time>
      </trkpt>
      <trkpt lat="44.94271" lon="6.56189">
        <ele>1404.9</ele>
        <time>2022-08-28T16:11:49+0200</time>
      </trkpt>
      <trkpt lat="44.94272" lon="6.5618">
        <ele>1404.8</ele>
        <time>2022-08-28T16:11:50+0200</time>
      </trkpt>
      <trkpt lat="44.94273" lon="6.56171">
        <ele>1404.6</ele>
        <time>2022-08-28T16:11:51+0200</time>
      </trkpt>
      <trkpt lat="44.94274" lon="6.56163">
        <ele>1404.6</ele>
        <time>2022-08-28T16:11:52+0200</time>
      </trkpt>
      <trkpt lat="44.94275" lon="6.56154">
        <ele>1404.9</ele>
        <time>2022-08-28T16:11:53+0200</time>
      </trkpt>
      <trkpt lat="44.94275" lon="6.56145">
        <ele>1405.2</ele>
        <time>2022-08-28T16:11:54+0200</time>
      </trkpt>
      <trkpt lat="44.94275" lon="6.56137">
        <ele>1405.3</ele>
        <time>2022-08-28T16:11:55+0200</time>
      </trkpt>
      <trkpt lat="44.94277" lon="6.5613">
        <ele>1405.1</ele>
        <time>2022-08-28T16:11:56+0200</time>
      </trkpt>
      <trkpt lat="44.94281" lon="6.56124">
        <ele>1404.7</ele>
        <time>2022-08-28T16:11:57+0200</time>
      </trkpt>
      <trkpt lat="44.94282" lon="6.56117">
        <ele>1404.5</ele>
        <time>2022-08-28T16:11:58+0200</time>
      </trkpt>
      <trkpt lat="44.94283" lon="6.56108">
        <ele>1404.5</ele>
        <time>2022-08-28T16:11:59+0200</time>
      </trkpt>
      <trkpt lat="44.94284" lon="6.56101">
        <ele>1404.3</ele>
        <time>2022-08-28T16:12:00+0200</time>
      </trkpt>
      <trkpt lat="44.94285" lon="6.56092">
        <ele>1404.2</ele>
        <time>2022-08-28T16:12:01+0200</time>
      </trkpt>
      <trkpt lat="44.94287" lon="6.56082">
        <ele>1404.1</ele>
        <time>2022-08-28T16:12:02+0200</time>
      </trkpt>
      <trkpt lat="44.94289" lon="6.56073">
        <ele>1404</ele>
        <time>2022-08-28T16:12:03+0200</time>
      </trkpt>
      <trkpt lat="44.94289" lon="6.56064">
        <ele>1404.1</ele>
        <time>2022-08-28T16:12:04+0200</time>
      </trkpt>
      <trkpt lat="44.9429" lon="6.56055">
        <ele>1404.2</ele>
        <time>2022-08-28T16:12:05+0200</time>
      </trkpt>
      <trkpt lat="44.94292" lon="6.56046">
        <ele>1403.8</ele>
        <time>2022-08-28T16:12:06+0200</time>
      </trkpt>
      <trkpt lat="44.94295" lon="6.56035">
        <ele>1403.2</ele>
        <time>2022-08-28T16:12:07+0200</time>
      </trkpt>
      <trkpt lat="44.94298" lon="6.56024">
        <ele>1402.7</ele>
        <time>2022-08-28T16:12:08+0200</time>
      </trkpt>
      <trkpt lat="44.943" lon="6.56012">
        <ele>1402.1</ele>
        <time>2022-08-28T16:12:09+0200</time>
      </trkpt>
      <trkpt lat="44.943" lon="6.56001">
        <ele>1401.6</ele>
        <time>2022-08-28T16:12:10+0200</time>
      </trkpt>
      <trkpt lat="44.94301" lon="6.55991">
        <ele>1401.2</ele>
        <time>2022-08-28T16:12:11+0200</time>
      </trkpt>
      <trkpt lat="44.94303" lon="6.55981">
        <ele>1400.6</ele>
        <time>2022-08-28T16:12:12+0200</time>
      </trkpt>
      <trkpt lat="44.94305" lon="6.5597">
        <ele>1400</ele>
        <time>2022-08-28T16:12:13+0200</time>
      </trkpt>
      <trkpt lat="44.94307" lon="6.5596">
        <ele>1399.4</ele>
        <time>2022-08-28T16:12:14+0200</time>
      </trkpt>
      <trkpt lat="44.94309" lon="6.55949">
        <ele>1398.8</ele>
        <time>2022-08-28T16:12:15+0200</time>
      </trkpt>
      <trkpt lat="44.9431" lon="6.55937">
        <ele>1398.2</ele>
        <time>2022-08-28T16:12:16+0200</time>
      </trkpt>
      <trkpt lat="44.94311" lon="6.55924">
        <ele>1397.7</ele>
        <time>2022-08-28T16:12:17+0200</time>
      </trkpt>
      <trkpt lat="44.94314" lon="6.55912">
        <ele>1397.1</ele>
        <time>2022-08-28T16:12:18+0200</time>
      </trkpt>
      <trkpt lat="44.94317" lon="6.559">
        <ele>1396.7</ele>
        <time>2022-08-28T16:12:19+0200</time>
      </trkpt>
      <trkpt lat="44.94321" lon="6.5589">
        <ele>1396.3</ele>
        <time>2022-08-28T16:12:20+0200</time>
      </trkpt>
      <trkpt lat="44.94327" lon="6.55882">
        <ele>1395.7</ele>
        <time>2022-08-28T16:12:21+0200</time>
      </trkpt>
      <trkpt lat="44.94332" lon="6.55874">
        <ele>1395.1</ele>
        <time>2022-08-28T16:12:22+0200</time>
      </trkpt>
      <trkpt lat="44.94338" lon="6.55863">
        <ele>1394.7</ele>
        <time>2022-08-28T16:12:23+0200</time>
      </trkpt>
      <trkpt lat="44.94343" lon="6.55852">
        <ele>1394.3</ele>
        <time>2022-08-28T16:12:24+0200</time>
      </trkpt>
      <trkpt lat="44.94347" lon="6.5584">
        <ele>1394</ele>
        <time>2022-08-28T16:12:25+0200</time>
      </trkpt>
      <trkpt lat="44.94349" lon="6.55828">
        <ele>1394</ele>
        <time>2022-08-28T16:12:26+0200</time>
      </trkpt>
      <trkpt lat="44.94354" lon="6.55818">
        <ele>1393.9</ele>
        <time>2022-08-28T16:12:27+0200</time>
      </trkpt>
      <trkpt lat="44.94359" lon="6.55809">
        <ele>1394</ele>
        <time>2022-08-28T16:12:28+0200</time>
      </trkpt>
      <trkpt lat="44.94363" lon="6.55799">
        <ele>1393.6</ele>
        <time>2022-08-28T16:12:29+0200</time>
      </trkpt>
      <trkpt lat="44.94368" lon="6.55791">
        <ele>1393.1</ele>
        <time>2022-08-28T16:12:30+0200</time>
      </trkpt>
      <trkpt lat="44.94372" lon="6.55784">
        <ele>1392.8</ele>
        <time>2022-08-28T16:12:31+0200</time>
      </trkpt>
      <trkpt lat="44.94375" lon="6.55777">
        <ele>1392.5</ele>
        <time>2022-08-28T16:12:32+0200</time>
      </trkpt>
      <trkpt lat="44.94378" lon="6.5577">
        <ele>1392.6</ele>
        <time>2022-08-28T16:12:33+0200</time>
      </trkpt>
      <trkpt lat="44.94383" lon="6.55767">
        <ele>1392.6</ele>
        <time>2022-08-28T16:12:34+0200</time>
      </trkpt>
      <trkpt lat="44.94387" lon="6.55772">
        <ele>1392.3</ele>
        <time>2022-08-28T16:12:36+0200</time>
      </trkpt>
      <trkpt lat="44.94393" lon="6.55775">
        <ele>1392.1</ele>
        <time>2022-08-28T16:13:12+0200</time>
      </trkpt>
      <trkpt lat="44.94398" lon="6.55778">
        <ele>1392</ele>
        <time>2022-08-28T16:13:14+0200</time>
      </trkpt>
      <trkpt lat="44.94403" lon="6.55783">
        <ele>1391.8</ele>
        <time>2022-08-28T16:13:16+0200</time>
      </trkpt>
      <trkpt lat="44.94408" lon="6.55789">
        <ele>1391.4</ele>
        <time>2022-08-28T16:13:18+0200</time>
      </trkpt>
      <trkpt lat="44.94412" lon="6.55795">
        <ele>1391</ele>
        <time>2022-08-28T16:13:19+0200</time>
      </trkpt>
      <trkpt lat="44.94418" lon="6.558">
        <ele>1390.4</ele>
        <time>2022-08-28T16:13:20+0200</time>
      </trkpt>
      <trkpt lat="44.94423" lon="6.55806">
        <ele>1390</ele>
        <time>2022-08-28T16:13:21+0200</time>
      </trkpt>
      <trkpt lat="44.94427" lon="6.55813">
        <ele>1390.1</ele>
        <time>2022-08-28T16:13:22+0200</time>
      </trkpt>
      <trkpt lat="44.94429" lon="6.55823">
        <ele>1390.1</ele>
        <time>2022-08-28T16:13:23+0200</time>
      </trkpt>
      <trkpt lat="44.9443" lon="6.55832">
        <ele>1390.1</ele>
        <time>2022-08-28T16:13:24+0200</time>
      </trkpt>
      <trkpt lat="44.94432" lon="6.55842">
        <ele>1389.9</ele>
        <time>2022-08-28T16:13:25+0200</time>
      </trkpt>
      <trkpt lat="44.94433" lon="6.55852">
        <ele>1389.8</ele>
        <time>2022-08-28T16:13:26+0200</time>
      </trkpt>
      <trkpt lat="44.94435" lon="6.55862">
        <ele>1389.7</ele>
        <time>2022-08-28T16:13:27+0200</time>
      </trkpt>
      <trkpt lat="44.94435" lon="6.55872">
        <ele>1389.5</ele>
        <time>2022-08-28T16:13:28+0200</time>
      </trkpt>
      <trkpt lat="44.94436" lon="6.55882">
        <ele>1389.4</ele>
        <time>2022-08-28T16:13:29+0200</time>
      </trkpt>
      <trkpt lat="44.94438" lon="6.55893">
        <ele>1389.1</ele>
        <time>2022-08-28T16:13:30+0200</time>
      </trkpt>
      <trkpt lat="44.94438" lon="6.55903">
        <ele>1388.8</ele>
        <time>2022-08-28T16:13:31+0200</time>
      </trkpt>
      <trkpt lat="44.9444" lon="6.55913">
        <ele>1388.4</ele>
        <time>2022-08-28T16:13:32+0200</time>
      </trkpt>
      <trkpt lat="44.94442" lon="6.55924">
        <ele>1388.1</ele>
        <time>2022-08-28T16:13:33+0200</time>
      </trkpt>
      <trkpt lat="44.94445" lon="6.55934">
        <ele>1388</ele>
        <time>2022-08-28T16:13:34+0200</time>
      </trkpt>
      <trkpt lat="44.94449" lon="6.55944">
        <ele>1387.8</ele>
        <time>2022-08-28T16:13:35+0200</time>
      </trkpt>
      <trkpt lat="44.9445" lon="6.55954">
        <ele>1387.4</ele>
        <time>2022-08-28T16:13:36+0200</time>
      </trkpt>
      <trkpt lat="44.94452" lon="6.55964">
        <ele>1387</ele>
        <time>2022-08-28T16:13:37+0200</time>
      </trkpt>
      <trkpt lat="44.94454" lon="6.55975">
        <ele>1386.6</ele>
        <time>2022-08-28T16:13:38+0200</time>
      </trkpt>
      <trkpt lat="44.94457" lon="6.55985">
        <ele>1386.1</ele>
        <time>2022-08-28T16:13:39+0200</time>
      </trkpt>
      <trkpt lat="44.9446" lon="6.55996">
        <ele>1385.6</ele>
        <time>2022-08-28T16:13:40+0200</time>
      </trkpt>
      <trkpt lat="44.94463" lon="6.56007">
        <ele>1385.2</ele>
        <time>2022-08-28T16:13:41+0200</time>
      </trkpt>
      <trkpt lat="44.94468" lon="6.56016">
        <ele>1384.7</ele>
        <time>2022-08-28T16:13:42+0200</time>
      </trkpt>
      <trkpt lat="44.94471" lon="6.56024">
        <ele>1384.2</ele>
        <time>2022-08-28T16:13:43+0200</time>
      </trkpt>
      <trkpt lat="44.94476" lon="6.56032">
        <ele>1383.9</ele>
        <time>2022-08-28T16:13:44+0200</time>
      </trkpt>
      <trkpt lat="44.94481" lon="6.5604">
        <ele>1383.7</ele>
        <time>2022-08-28T16:13:45+0200</time>
      </trkpt>
      <trkpt lat="44.94486" lon="6.56047">
        <ele>1383.5</ele>
        <time>2022-08-28T16:13:46+0200</time>
      </trkpt>
      <trkpt lat="44.94492" lon="6.56054">
        <ele>1383.3</ele>
        <time>2022-08-28T16:13:47+0200</time>
      </trkpt>
      <trkpt lat="44.94498" lon="6.56059">
        <ele>1383</ele>
        <time>2022-08-28T16:13:48+0200</time>
      </trkpt>
      <trkpt lat="44.94503" lon="6.56066">
        <ele>1382.5</ele>
        <time>2022-08-28T16:13:49+0200</time>
      </trkpt>
      <trkpt lat="44.94504" lon="6.56073">
        <ele>1382.2</ele>
        <time>2022-08-28T16:13:50+0200</time>
      </trkpt>
      <trkpt lat="44.94505" lon="6.56085">
        <ele>1381.8</ele>
        <time>2022-08-28T16:13:52+0200</time>
      </trkpt>
      <trkpt lat="44.94504" lon="6.56093">
        <ele>1381.6</ele>
        <time>2022-08-28T16:13:53+0200</time>
      </trkpt>
      <trkpt lat="44.94505" lon="6.56101">
        <ele>1381.3</ele>
        <time>2022-08-28T16:13:54+0200</time>
      </trkpt>
      <trkpt lat="44.94506" lon="6.56109">
        <ele>1381.1</ele>
        <time>2022-08-28T16:13:55+0200</time>
      </trkpt>
      <trkpt lat="44.94505" lon="6.56117">
        <ele>1381</ele>
        <time>2022-08-28T16:13:56+0200</time>
      </trkpt>
      <trkpt lat="44.94504" lon="6.56125">
        <ele>1380.9</ele>
        <time>2022-08-28T16:13:57+0200</time>
      </trkpt>
      <trkpt lat="44.94503" lon="6.56132">
        <ele>1380.9</ele>
        <time>2022-08-28T16:14:00+0200</time>
      </trkpt>
      <trkpt lat="44.94502" lon="6.56139">
        <ele>1380.9</ele>
        <time>2022-08-28T16:14:03+0200</time>
      </trkpt>
      <trkpt lat="44.945" lon="6.56147">
        <ele>1380.7</ele>
        <time>2022-08-28T16:14:06+0200</time>
      </trkpt>
      <trkpt lat="44.945" lon="6.56155">
        <ele>1380.5</ele>
        <time>2022-08-28T16:14:08+0200</time>
      </trkpt>
      <trkpt lat="44.94499" lon="6.56165">
        <ele>1380.1</ele>
        <time>2022-08-28T16:14:12+0200</time>
      </trkpt>
      <trkpt lat="44.94497" lon="6.56172">
        <ele>1380.3</ele>
        <time>2022-08-28T16:14:14+0200</time>
      </trkpt>
      <trkpt lat="44.94498" lon="6.56178">
        <ele>1380.2</ele>
        <time>2022-08-28T16:14:20+0200</time>
      </trkpt>
      <trkpt lat="44.94434" lon="6.56379">
        <ele>1380.9</ele>
        <time>2022-08-28T16:35:30+0200</time>
      </trkpt>
      <trkpt lat="44.94429" lon="6.56378">
        <ele>1381.5</ele>
        <time>2022-08-28T16:35:36+0200</time>
      </trkpt>
      <trkpt lat="44.94425" lon="6.56382">
        <ele>1381.7</ele>
        <time>2022-08-28T16:35:38+0200</time>
      </trkpt>
      <trkpt lat="44.94419" lon="6.56383">
        <ele>1382.2</ele>
        <time>2022-08-28T16:35:41+0200</time>
      </trkpt>
      <trkpt lat="44.94415" lon="6.56379">
        <ele>1382.9</ele>
        <time>2022-08-28T16:35:44+0200</time>
      </trkpt>
      <trkpt lat="44.9441" lon="6.56376">
        <ele>1383.6</ele>
        <time>2022-08-28T16:35:49+0200</time>
      </trkpt>
      <trkpt lat="44.94407" lon="6.5637">
        <ele>1384.4</ele>
        <time>2022-08-28T16:35:51+0200</time>
      </trkpt>
      <trkpt lat="44.94407" lon="6.56361">
        <ele>1385</ele>
        <time>2022-08-28T16:35:53+0200</time>
      </trkpt>
      <trkpt lat="44.94406" lon="6.56353">
        <ele>1385.5</ele>
        <time>2022-08-28T16:35:55+0200</time>
      </trkpt>
      <trkpt lat="44.94401" lon="6.56349">
        <ele>1386.1</ele>
        <time>2022-08-28T16:35:57+0200</time>
      </trkpt>
      <trkpt lat="44.94396" lon="6.56348">
        <ele>1386.7</ele>
        <time>2022-08-28T16:35:59+0200</time>
      </trkpt>
      <trkpt lat="44.94389" lon="6.5635">
        <ele>1387.3</ele>
        <time>2022-08-28T16:36:03+0200</time>
      </trkpt>
      <trkpt lat="44.94383" lon="6.56356">
        <ele>1387.8</ele>
        <time>2022-08-28T16:36:05+0200</time>
      </trkpt>
      <trkpt lat="44.94375" lon="6.56358">
        <ele>1388.5</ele>
        <time>2022-08-28T16:36:07+0200</time>
      </trkpt>
      <trkpt lat="44.94367" lon="6.56359">
        <ele>1389.3</ele>
        <time>2022-08-28T16:36:09+0200</time>
      </trkpt>
      <trkpt lat="44.9436" lon="6.56355">
        <ele>1390.1</ele>
        <time>2022-08-28T16:36:10+0200</time>
      </trkpt>
      <trkpt lat="44.94355" lon="6.56352">
        <ele>1390.7</ele>
        <time>2022-08-28T16:36:11+0200</time>
      </trkpt>
      <trkpt lat="44.94349" lon="6.56349">
        <ele>1391.4</ele>
        <time>2022-08-28T16:36:12+0200</time>
      </trkpt>
      <trkpt lat="44.94347" lon="6.56357">
        <ele>1391.5</ele>
        <time>2022-08-28T16:36:13+0200</time>
      </trkpt>
      <trkpt lat="44.94345" lon="6.56368">
        <ele>1391.5</ele>
        <time>2022-08-28T16:36:14+0200</time>
      </trkpt>
      <trkpt lat="44.94346" lon="6.5638">
        <ele>1391</ele>
        <time>2022-08-28T16:36:15+0200</time>
      </trkpt>
      <trkpt lat="44.94344" lon="6.56389">
        <ele>1390.8</ele>
        <time>2022-08-28T16:36:16+0200</time>
      </trkpt>
      <trkpt lat="44.94344" lon="6.56399">
        <ele>1390.5</ele>
        <time>2022-08-28T16:36:17+0200</time>
      </trkpt>
      <trkpt lat="44.94343" lon="6.56408">
        <ele>1390.3</ele>
        <time>2022-08-28T16:36:18+0200</time>
      </trkpt>
      <trkpt lat="44.94343" lon="6.56418">
        <ele>1389.9</ele>
        <time>2022-08-28T16:36:19+0200</time>
      </trkpt>
      <trkpt lat="44.94341" lon="6.56426">
        <ele>1389.7</ele>
        <time>2022-08-28T16:36:20+0200</time>
      </trkpt>
      <trkpt lat="44.9434" lon="6.56435">
        <ele>1389.4</ele>
        <time>2022-08-28T16:36:21+0200</time>
      </trkpt>
      <trkpt lat="44.94339" lon="6.56445">
        <ele>1389.1</ele>
        <time>2022-08-28T16:36:22+0200</time>
      </trkpt>
      <trkpt lat="44.94338" lon="6.56453">
        <ele>1389</ele>
        <time>2022-08-28T16:36:23+0200</time>
      </trkpt>
      <trkpt lat="44.94336" lon="6.56463">
        <ele>1388.9</ele>
        <time>2022-08-28T16:36:24+0200</time>
      </trkpt>
      <trkpt lat="44.94334" lon="6.56471">
        <ele>1389</ele>
        <time>2022-08-28T16:36:25+0200</time>
      </trkpt>
      <trkpt lat="44.94329" lon="6.56474">
        <ele>1389.3</ele>
        <time>2022-08-28T16:36:26+0200</time>
      </trkpt>
      <trkpt lat="44.94324" lon="6.56479">
        <ele>1389.5</ele>
        <time>2022-08-28T16:36:27+0200</time>
      </trkpt>
      <trkpt lat="44.94319" lon="6.56483">
        <ele>1389.8</ele>
        <time>2022-08-28T16:36:28+0200</time>
      </trkpt>
      <trkpt lat="44.94314" lon="6.56489">
        <ele>1389.9</ele>
        <time>2022-08-28T16:36:29+0200</time>
      </trkpt>
      <trkpt lat="44.94309" lon="6.56496">
        <ele>1389.9</ele>
        <time>2022-08-28T16:36:30+0200</time>
      </trkpt>
      <trkpt lat="44.94305" lon="6.56502">
        <ele>1390</ele>
        <time>2022-08-28T16:36:31+0200</time>
      </trkpt>
      <trkpt lat="44.94299" lon="6.56506">
        <ele>1390.2</ele>
        <time>2022-08-28T16:36:32+0200</time>
      </trkpt>
      <trkpt lat="44.94294" lon="6.5651">
        <ele>1390.4</ele>
        <time>2022-08-28T16:36:33+0200</time>
      </trkpt>
      <trkpt lat="44.9429" lon="6.56511">
        <ele>1390.7</ele>
        <time>2022-08-28T16:36:34+0200</time>
      </trkpt>
      <trkpt lat="44.94285" lon="6.56513">
        <ele>1391</ele>
        <time>2022-08-28T16:36:35+0200</time>
      </trkpt>
      <trkpt lat="44.94279" lon="6.56517">
        <ele>1391.1</ele>
        <time>2022-08-28T16:36:36+0200</time>
      </trkpt>
      <trkpt lat="44.94274" lon="6.56522">
        <ele>1391</ele>
        <time>2022-08-28T16:36:37+0200</time>
      </trkpt>
      <trkpt lat="44.9427" lon="6.56526">
        <ele>1391.1</ele>
        <time>2022-08-28T16:36:38+0200</time>
      </trkpt>
      <trkpt lat="44.94265" lon="6.5653">
        <ele>1391.1</ele>
        <time>2022-08-28T16:36:39+0200</time>
      </trkpt>
      <trkpt lat="44.94256" lon="6.56539">
        <ele>1391.2</ele>
        <time>2022-08-28T16:36:41+0200</time>
      </trkpt>
      <trkpt lat="44.94251" lon="6.56544">
        <ele>1391.2</ele>
        <time>2022-08-28T16:36:42+0200</time>
      </trkpt>
      <trkpt lat="44.94246" lon="6.5655">
        <ele>1390.9</ele>
        <time>2022-08-28T16:36:43+0200</time>
      </trkpt>
      <trkpt lat="44.94241" lon="6.56556">
        <ele>1390.7</ele>
        <time>2022-08-28T16:36:44+0200</time>
      </trkpt>
      <trkpt lat="44.94236" lon="6.56562">
        <ele>1390.6</ele>
        <time>2022-08-28T16:36:45+0200</time>
      </trkpt>
      <trkpt lat="44.94231" lon="6.56566">
        <ele>1390.6</ele>
        <time>2022-08-28T16:36:46+0200</time>
      </trkpt>
      <trkpt lat="44.94227" lon="6.5657">
        <ele>1390.6</ele>
        <time>2022-08-28T16:36:47+0200</time>
      </trkpt>
      <trkpt lat="44.94222" lon="6.56575">
        <ele>1390.6</ele>
        <time>2022-08-28T16:36:48+0200</time>
      </trkpt>
      <trkpt lat="44.94215" lon="6.5658">
        <ele>1390.8</ele>
        <time>2022-08-28T16:36:49+0200</time>
      </trkpt>
      <trkpt lat="44.9421" lon="6.56584">
        <ele>1390.8</ele>
        <time>2022-08-28T16:36:50+0200</time>
      </trkpt>
      <trkpt lat="44.94204" lon="6.56588">
        <ele>1390.8</ele>
        <time>2022-08-28T16:36:51+0200</time>
      </trkpt>
      <trkpt lat="44.94199" lon="6.56592">
        <ele>1390.8</ele>
        <time>2022-08-28T16:36:52+0200</time>
      </trkpt>
      <trkpt lat="44.94194" lon="6.56595">
        <ele>1390.8</ele>
        <time>2022-08-28T16:36:53+0200</time>
      </trkpt>
      <trkpt lat="44.94189" lon="6.56602">
        <ele>1390.3</ele>
        <time>2022-08-28T16:36:54+0200</time>
      </trkpt>
      <trkpt lat="44.94185" lon="6.56606">
        <ele>1390.2</ele>
        <time>2022-08-28T16:36:55+0200</time>
      </trkpt>
      <trkpt lat="44.94181" lon="6.56612">
        <ele>1389.9</ele>
        <time>2022-08-28T16:36:56+0200</time>
      </trkpt>
      <trkpt lat="44.94173" lon="6.56616">
        <ele>1390.2</ele>
        <time>2022-08-28T16:36:57+0200</time>
      </trkpt>
      <trkpt lat="44.94166" lon="6.5662">
        <ele>1390.5</ele>
        <time>2022-08-28T16:36:58+0200</time>
      </trkpt>
      <trkpt lat="44.9416" lon="6.56623">
        <ele>1390.8</ele>
        <time>2022-08-28T16:36:59+0200</time>
      </trkpt>
      <trkpt lat="44.9415" lon="6.56621">
        <ele>1391.9</ele>
        <time>2022-08-28T16:37:01+0200</time>
      </trkpt>
      <trkpt lat="44.94141" lon="6.56623">
        <ele>1392.5</ele>
        <time>2022-08-28T16:37:03+0200</time>
      </trkpt>
      <trkpt lat="44.94134" lon="6.56625">
        <ele>1393.1</ele>
        <time>2022-08-28T16:37:05+0200</time>
      </trkpt>
      <trkpt lat="44.94127" lon="6.56629">
        <ele>1393.4</ele>
        <time>2022-08-28T16:37:07+0200</time>
      </trkpt>
      <trkpt lat="44.9412" lon="6.56631">
        <ele>1393.9</ele>
        <time>2022-08-28T16:37:09+0200</time>
      </trkpt>
      <trkpt lat="44.94115" lon="6.56631">
        <ele>1394.5</ele>
        <time>2022-08-28T16:37:10+0200</time>
      </trkpt>
      <trkpt lat="44.94105" lon="6.56628">
        <ele>1395.9</ele>
        <time>2022-08-28T16:37:12+0200</time>
      </trkpt>
      <trkpt lat="44.941" lon="6.5663">
        <ele>1396.3</ele>
        <time>2022-08-28T16:37:13+0200</time>
      </trkpt>
      <trkpt lat="44.94091" lon="6.56634">
        <ele>1396.9</ele>
        <time>2022-08-28T16:37:15+0200</time>
      </trkpt>
      <trkpt lat="44.94084" lon="6.56641">
        <ele>1396.7</ele>
        <time>2022-08-28T16:37:17+0200</time>
      </trkpt>
      <trkpt lat="44.94079" lon="6.56645">
        <ele>1397</ele>
        <time>2022-08-28T16:37:18+0200</time>
      </trkpt>
      <trkpt lat="44.94075" lon="6.5665">
        <ele>1397.1</ele>
        <time>2022-08-28T16:37:19+0200</time>
      </trkpt>
      <trkpt lat="44.94071" lon="6.56655">
        <ele>1397.2</ele>
        <time>2022-08-28T16:37:20+0200</time>
      </trkpt>
      <trkpt lat="44.94067" lon="6.56662">
        <ele>1397.1</ele>
        <time>2022-08-28T16:37:21+0200</time>
      </trkpt>
      <trkpt lat="44.94061" lon="6.56668">
        <ele>1397</ele>
        <time>2022-08-28T16:37:22+0200</time>
      </trkpt>
      <trkpt lat="44.94059" lon="6.56676">
        <ele>1396.3</ele>
        <time>2022-08-28T16:37:23+0200</time>
      </trkpt>
      <trkpt lat="44.94055" lon="6.56683">
        <ele>1395.9</ele>
        <time>2022-08-28T16:37:24+0200</time>
      </trkpt>
      <trkpt lat="44.94051" lon="6.56687">
        <ele>1395.7</ele>
        <time>2022-08-28T16:37:25+0200</time>
      </trkpt>
      <trkpt lat="44.94041" lon="6.56698">
        <ele>1395.5</ele>
        <time>2022-08-28T16:37:27+0200</time>
      </trkpt>
      <trkpt lat="44.94037" lon="6.56704">
        <ele>1395.4</ele>
        <time>2022-08-28T16:37:28+0200</time>
      </trkpt>
      <trkpt lat="44.94032" lon="6.56709">
        <ele>1395.4</ele>
        <time>2022-08-28T16:37:29+0200</time>
      </trkpt>
      <trkpt lat="44.94026" lon="6.56715">
        <ele>1395.5</ele>
        <time>2022-08-28T16:37:30+0200</time>
      </trkpt>
      <trkpt lat="44.94021" lon="6.56724">
        <ele>1394.6</ele>
        <time>2022-08-28T16:37:31+0200</time>
      </trkpt>
      <trkpt lat="44.94016" lon="6.56733">
        <ele>1394</ele>
        <time>2022-08-28T16:37:32+0200</time>
      </trkpt>
      <trkpt lat="44.9401" lon="6.56742">
        <ele>1393.2</ele>
        <time>2022-08-28T16:37:33+0200</time>
      </trkpt>
      <trkpt lat="44.94004" lon="6.56748">
        <ele>1392.8</ele>
        <time>2022-08-28T16:37:34+0200</time>
      </trkpt>
      <trkpt lat="44.93999" lon="6.56757">
        <ele>1392.2</ele>
        <time>2022-08-28T16:37:35+0200</time>
      </trkpt>
      <trkpt lat="44.93995" lon="6.56767">
        <ele>1391.2</ele>
        <time>2022-08-28T16:37:36+0200</time>
      </trkpt>
      <trkpt lat="44.9399" lon="6.56774">
        <ele>1390.9</ele>
        <time>2022-08-28T16:37:37+0200</time>
      </trkpt>
      <trkpt lat="44.93986" lon="6.56779">
        <ele>1390.8</ele>
        <time>2022-08-28T16:37:39+0200</time>
      </trkpt>
      <trkpt lat="44.93982" lon="6.56787">
        <ele>1390.5</ele>
        <time>2022-08-28T16:37:41+0200</time>
      </trkpt>
      <trkpt lat="44.93978" lon="6.56797">
        <ele>1389.6</ele>
        <time>2022-08-28T16:37:43+0200</time>
      </trkpt>
      <trkpt lat="44.93975" lon="6.56804">
        <ele>1388.9</ele>
        <time>2022-08-28T16:37:44+0200</time>
      </trkpt>
      <trkpt lat="44.93972" lon="6.56811">
        <ele>1388.3</ele>
        <time>2022-08-28T16:37:45+0200</time>
      </trkpt>
      <trkpt lat="44.93969" lon="6.56817">
        <ele>1387.7</ele>
        <time>2022-08-28T16:37:46+0200</time>
      </trkpt>
      <trkpt lat="44.93965" lon="6.56824">
        <ele>1387.1</ele>
        <time>2022-08-28T16:37:47+0200</time>
      </trkpt>
      <trkpt lat="44.93959" lon="6.56828">
        <ele>1387.2</ele>
        <time>2022-08-28T16:37:48+0200</time>
      </trkpt>
      <trkpt lat="44.93953" lon="6.56831">
        <ele>1387.4</ele>
        <time>2022-08-28T16:37:49+0200</time>
      </trkpt>
      <trkpt lat="44.93945" lon="6.56833">
        <ele>1387.9</ele>
        <time>2022-08-28T16:37:51+0200</time>
      </trkpt>
      <trkpt lat="44.93934" lon="6.56837">
        <ele>1389.2</ele>
        <time>2022-08-28T16:37:53+0200</time>
      </trkpt>
      <trkpt lat="44.9393" lon="6.56842">
        <ele>1389.4</ele>
        <time>2022-08-28T16:37:54+0200</time>
      </trkpt>
      <trkpt lat="44.93929" lon="6.56848">
        <ele>1389.2</ele>
        <time>2022-08-28T16:37:55+0200</time>
      </trkpt>
      <trkpt lat="44.93924" lon="6.56855">
        <ele>1389.3</ele>
        <time>2022-08-28T16:37:57+0200</time>
      </trkpt>
      <trkpt lat="44.93921" lon="6.56863">
        <ele>1389.2</ele>
        <time>2022-08-28T16:37:59+0200</time>
      </trkpt>
      <trkpt lat="44.93919" lon="6.56872">
        <ele>1388.9</ele>
        <time>2022-08-28T16:38:02+0200</time>
      </trkpt>
      <trkpt lat="44.93914" lon="6.5688">
        <ele>1389.2</ele>
        <time>2022-08-28T16:38:05+0200</time>
      </trkpt>
      <trkpt lat="44.93913" lon="6.56886">
        <ele>1389.1</ele>
        <time>2022-08-28T16:38:07+0200</time>
      </trkpt>
      <trkpt lat="44.9391" lon="6.56892">
        <ele>1389.1</ele>
        <time>2022-08-28T16:38:09+0200</time>
      </trkpt>
      <trkpt lat="44.93907" lon="6.569">
        <ele>1388.3</ele>
        <time>2022-08-28T16:38:11+0200</time>
      </trkpt>
      <trkpt lat="44.93906" lon="6.56907">
        <ele>1387.4</ele>
        <time>2022-08-28T16:38:13+0200</time>
      </trkpt>
      <trkpt lat="44.93903" lon="6.56917">
        <ele>1386.4</ele>
        <time>2022-08-28T16:38:15+0200</time>
      </trkpt>
      <trkpt lat="44.93899" lon="6.56928">
        <ele>1385.2</ele>
        <time>2022-08-28T16:38:17+0200</time>
      </trkpt>
      <trkpt lat="44.93895" lon="6.56933">
        <ele>1385</ele>
        <time>2022-08-28T16:38:18+0200</time>
      </trkpt>
      <trkpt lat="44.93887" lon="6.56942">
        <ele>1385</ele>
        <time>2022-08-28T16:38:20+0200</time>
      </trkpt>
      <trkpt lat="44.93881" lon="6.5695">
        <ele>1384.4</ele>
        <time>2022-08-28T16:38:21+0200</time>
      </trkpt>
      <trkpt lat="44.93872" lon="6.56956">
        <ele>1384.9</ele>
        <time>2022-08-28T16:38:22+0200</time>
      </trkpt>
      <trkpt lat="44.93865" lon="6.56964">
        <ele>1384.3</ele>
        <time>2022-08-28T16:38:23+0200</time>
      </trkpt>
      <trkpt lat="44.93861" lon="6.5697">
        <ele>1383.8</ele>
        <time>2022-08-28T16:38:24+0200</time>
      </trkpt>
      <trkpt lat="44.93859" lon="6.56978">
        <ele>1382.8</ele>
        <time>2022-08-28T16:38:25+0200</time>
      </trkpt>
      <trkpt lat="44.93857" lon="6.56989">
        <ele>1381.2</ele>
        <time>2022-08-28T16:38:26+0200</time>
      </trkpt>
      <trkpt lat="44.93851" lon="6.56999">
        <ele>1380.8</ele>
        <time>2022-08-28T16:38:28+0200</time>
      </trkpt>
      <trkpt lat="44.93844" lon="6.57008">
        <ele>1380.5</ele>
        <time>2022-08-28T16:38:29+0200</time>
      </trkpt>
      <trkpt lat="44.93837" lon="6.57015">
        <ele>1380.5</ele>
        <time>2022-08-28T16:38:30+0200</time>
      </trkpt>
      <trkpt lat="44.9383" lon="6.5702">
        <ele>1381.1</ele>
        <time>2022-08-28T16:38:31+0200</time>
      </trkpt>
      <trkpt lat="44.93825" lon="6.57026">
        <ele>1381.2</ele>
        <time>2022-08-28T16:38:32+0200</time>
      </trkpt>
      <trkpt lat="44.93822" lon="6.57031">
        <ele>1380.9</ele>
        <time>2022-08-28T16:38:33+0200</time>
      </trkpt>
      <trkpt lat="44.9382" lon="6.57038">
        <ele>1380.2</ele>
        <time>2022-08-28T16:38:34+0200</time>
      </trkpt>
      <trkpt lat="44.93816" lon="6.57043">
        <ele>1380.2</ele>
        <time>2022-08-28T16:38:35+0200</time>
      </trkpt>
      <trkpt lat="44.93813" lon="6.57048">
        <ele>1379.9</ele>
        <time>2022-08-28T16:38:36+0200</time>
      </trkpt>
      <trkpt lat="44.93812" lon="6.57054">
        <ele>1378.8</ele>
        <time>2022-08-28T16:38:38+0200</time>
      </trkpt>
      <trkpt lat="44.93814" lon="6.57063">
        <ele>1376.6</ele>
        <time>2022-08-28T16:38:39+0200</time>
      </trkpt>
      <trkpt lat="44.93814" lon="6.57072">
        <ele>1374.8</ele>
        <time>2022-08-28T16:38:40+0200</time>
      </trkpt>
      <trkpt lat="44.93813" lon="6.57079">
        <ele>1373.5</ele>
        <time>2022-08-28T16:38:41+0200</time>
      </trkpt>
      <trkpt lat="44.93809" lon="6.57093">
        <ele>1372.1</ele>
        <time>2022-08-28T16:38:43+0200</time>
      </trkpt>
      <trkpt lat="44.93805" lon="6.57099">
        <ele>1371.9</ele>
        <time>2022-08-28T16:38:44+0200</time>
      </trkpt>
      <trkpt lat="44.93797" lon="6.57107">
        <ele>1372.5</ele>
        <time>2022-08-28T16:38:46+0200</time>
      </trkpt>
      <trkpt lat="44.93791" lon="6.57112">
        <ele>1373.1</ele>
        <time>2022-08-28T16:38:47+0200</time>
      </trkpt>
      <trkpt lat="44.93785" lon="6.57121">
        <ele>1372.6</ele>
        <time>2022-08-28T16:38:48+0200</time>
      </trkpt>
      <trkpt lat="44.93781" lon="6.57128">
        <ele>1371.9</ele>
        <time>2022-08-28T16:38:49+0200</time>
      </trkpt>
      <trkpt lat="44.93777" lon="6.57137">
        <ele>1370.7</ele>
        <time>2022-08-28T16:38:50+0200</time>
      </trkpt>
      <trkpt lat="44.93774" lon="6.57149">
        <ele>1369.8</ele>
        <time>2022-08-28T16:38:51+0200</time>
      </trkpt>
      <trkpt lat="44.93772" lon="6.5716">
        <ele>1368.9</ele>
        <time>2022-08-28T16:38:52+0200</time>
      </trkpt>
      <trkpt lat="44.93771" lon="6.57171">
        <ele>1367.9</ele>
        <time>2022-08-28T16:38:53+0200</time>
      </trkpt>
      <trkpt lat="44.9377" lon="6.57182">
        <ele>1367</ele>
        <time>2022-08-28T16:38:54+0200</time>
      </trkpt>
      <trkpt lat="44.93769" lon="6.57189">
        <ele>1366.5</ele>
        <time>2022-08-28T16:38:55+0200</time>
      </trkpt>
      <trkpt lat="44.9377" lon="6.572">
        <ele>1365.6</ele>
        <time>2022-08-28T16:38:57+0200</time>
      </trkpt>
      <trkpt lat="44.93769" lon="6.5721">
        <ele>1365.2</ele>
        <time>2022-08-28T16:38:59+0200</time>
      </trkpt>
      <trkpt lat="44.93767" lon="6.57218">
        <ele>1365</ele>
        <time>2022-08-28T16:39:01+0200</time>
      </trkpt>
      <trkpt lat="44.93765" lon="6.57229">
        <ele>1364.8</ele>
        <time>2022-08-28T16:39:03+0200</time>
      </trkpt>
      <trkpt lat="44.93763" lon="6.57241">
        <ele>1364.7</ele>
        <time>2022-08-28T16:39:05+0200</time>
      </trkpt>
      <trkpt lat="44.93764" lon="6.57252">
        <ele>1364.4</ele>
        <time>2022-08-28T16:39:07+0200</time>
      </trkpt>
      <trkpt lat="44.93763" lon="6.57262">
        <ele>1364.1</ele>
        <time>2022-08-28T16:39:09+0200</time>
      </trkpt>
      <trkpt lat="44.93762" lon="6.57269">
        <ele>1363.9</ele>
        <time>2022-08-28T16:39:10+0200</time>
      </trkpt>
      <trkpt lat="44.9376" lon="6.57277">
        <ele>1363.7</ele>
        <time>2022-08-28T16:39:11+0200</time>
      </trkpt>
      <trkpt lat="44.93759" lon="6.57284">
        <ele>1363.7</ele>
        <time>2022-08-28T16:39:12+0200</time>
      </trkpt>
      <trkpt lat="44.93761" lon="6.57292">
        <ele>1363.6</ele>
        <time>2022-08-28T16:39:13+0200</time>
      </trkpt>
      <trkpt lat="44.93762" lon="6.57298">
        <ele>1363.6</ele>
        <time>2022-08-28T16:39:14+0200</time>
      </trkpt>
      <trkpt lat="44.93757" lon="6.57309">
        <ele>1363.8</ele>
        <time>2022-08-28T16:39:16+0200</time>
      </trkpt>
      <trkpt lat="44.93753" lon="6.57313">
        <ele>1363.9</ele>
        <time>2022-08-28T16:39:17+0200</time>
      </trkpt>
      <trkpt lat="44.93754" lon="6.5732">
        <ele>1363.9</ele>
        <time>2022-08-28T16:39:18+0200</time>
      </trkpt>
      <trkpt lat="44.93753" lon="6.57329">
        <ele>1363.9</ele>
        <time>2022-08-28T16:39:20+0200</time>
      </trkpt>
      <trkpt lat="44.93753" lon="6.57336">
        <ele>1363.9</ele>
        <time>2022-08-28T16:39:22+0200</time>
      </trkpt>
      <trkpt lat="44.93754" lon="6.57345">
        <ele>1363.9</ele>
        <time>2022-08-28T16:39:24+0200</time>
      </trkpt>
      <trkpt lat="44.93751" lon="6.57352">
        <ele>1364</ele>
        <time>2022-08-28T16:39:26+0200</time>
      </trkpt>
      <trkpt lat="44.93749" lon="6.57361">
        <ele>1364.1</ele>
        <time>2022-08-28T16:39:28+0200</time>
      </trkpt>
      <trkpt lat="44.93746" lon="6.57366">
        <ele>1364.1</ele>
        <time>2022-08-28T16:39:29+0200</time>
      </trkpt>
      <trkpt lat="44.93744" lon="6.57372">
        <ele>1364</ele>
        <time>2022-08-28T16:39:30+0200</time>
      </trkpt>
      <trkpt lat="44.93748" lon="6.57386">
        <ele>1363.3</ele>
        <time>2022-08-28T16:39:32+0200</time>
      </trkpt>
      <trkpt lat="44.93751" lon="6.57394">
        <ele>1362.9</ele>
        <time>2022-08-28T16:39:33+0200</time>
      </trkpt>
      <trkpt lat="44.93753" lon="6.57403">
        <ele>1362.9</ele>
        <time>2022-08-28T16:39:34+0200</time>
      </trkpt>
      <trkpt lat="44.93753" lon="6.57415">
        <ele>1362.9</ele>
        <time>2022-08-28T16:39:34+0200</time>
      </trkpt>
      <trkpt lat="44.93748" lon="6.57421">
        <ele>1363</ele>
        <time>2022-08-28T16:39:35+0200</time>
      </trkpt>
      <trkpt lat="44.93745" lon="6.57426">
        <ele>1363</ele>
        <time>2022-08-28T16:39:36+0200</time>
      </trkpt>
      <trkpt lat="44.93741" lon="6.57431">
        <ele>1363.2</ele>
        <time>2022-08-28T16:39:37+0200</time>
      </trkpt>
      <trkpt lat="44.93736" lon="6.57434">
        <ele>1363.4</ele>
        <time>2022-08-28T16:39:38+0200</time>
      </trkpt>
      <trkpt lat="44.93732" lon="6.57439">
        <ele>1363.5</ele>
        <time>2022-08-28T16:39:39+0200</time>
      </trkpt>
      <trkpt lat="44.9373" lon="6.57444">
        <ele>1363.5</ele>
        <time>2022-08-28T16:39:40+0200</time>
      </trkpt>
      <trkpt lat="44.93726" lon="6.5745">
        <ele>1363.4</ele>
        <time>2022-08-28T16:39:41+0200</time>
      </trkpt>
      <trkpt lat="44.9372" lon="6.57458">
        <ele>1363.4</ele>
        <time>2022-08-28T16:39:43+0200</time>
      </trkpt>
      <trkpt lat="44.93715" lon="6.57465">
        <ele>1363.6</ele>
        <time>2022-08-28T16:39:44+0200</time>
      </trkpt>
      <trkpt lat="44.93711" lon="6.57469">
        <ele>1363.8</ele>
        <time>2022-08-28T16:39:45+0200</time>
      </trkpt>
      <trkpt lat="44.93708" lon="6.57476">
        <ele>1363.7</ele>
        <time>2022-08-28T16:39:46+0200</time>
      </trkpt>
      <trkpt lat="44.93706" lon="6.57484">
        <ele>1363.6</ele>
        <time>2022-08-28T16:39:47+0200</time>
      </trkpt>
      <trkpt lat="44.93702" lon="6.57492">
        <ele>1363.5</ele>
        <time>2022-08-28T16:39:48+0200</time>
      </trkpt>
      <trkpt lat="44.93699" lon="6.57498">
        <ele>1363.5</ele>
        <time>2022-08-28T16:39:49+0200</time>
      </trkpt>
      <trkpt lat="44.93694" lon="6.57505">
        <ele>1363.4</ele>
        <time>2022-08-28T16:39:50+0200</time>
      </trkpt>
      <trkpt lat="44.9369" lon="6.57513">
        <ele>1363.4</ele>
        <time>2022-08-28T16:39:51+0200</time>
      </trkpt>
      <trkpt lat="44.93686" lon="6.5752">
        <ele>1363.4</ele>
        <time>2022-08-28T16:39:52+0200</time>
      </trkpt>
      <trkpt lat="44.93682" lon="6.57528">
        <ele>1363.2</ele>
        <time>2022-08-28T16:39:53+0200</time>
      </trkpt>
      <trkpt lat="44.93675" lon="6.57536">
        <ele>1363.8</ele>
        <time>2022-08-28T16:39:54+0200</time>
      </trkpt>
      <trkpt lat="44.93671" lon="6.57543">
        <ele>1364</ele>
        <time>2022-08-28T16:39:55+0200</time>
      </trkpt>
      <trkpt lat="44.93669" lon="6.5755">
        <ele>1364</ele>
        <time>2022-08-28T16:39:56+0200</time>
      </trkpt>
      <trkpt lat="44.93665" lon="6.57556">
        <ele>1364.5</ele>
        <time>2022-08-28T16:39:57+0200</time>
      </trkpt>
      <trkpt lat="44.93662" lon="6.57561">
        <ele>1364.7</ele>
        <time>2022-08-28T16:39:58+0200</time>
      </trkpt>
      <trkpt lat="44.93662" lon="6.57568">
        <ele>1363.9</ele>
        <time>2022-08-28T16:39:59+0200</time>
      </trkpt>
      <trkpt lat="44.93661" lon="6.57578">
        <ele>1363.2</ele>
        <time>2022-08-28T16:40:00+0200</time>
      </trkpt>
      <trkpt lat="44.93659" lon="6.57587">
        <ele>1362.9</ele>
        <time>2022-08-28T16:40:01+0200</time>
      </trkpt>
      <trkpt lat="44.93653" lon="6.57596">
        <ele>1363.7</ele>
        <time>2022-08-28T16:40:03+0200</time>
      </trkpt>
      <trkpt lat="44.9365" lon="6.57605">
        <ele>1363.9</ele>
        <time>2022-08-28T16:40:05+0200</time>
      </trkpt>
      <trkpt lat="44.93647" lon="6.57618">
        <ele>1363.7</ele>
        <time>2022-08-28T16:40:07+0200</time>
      </trkpt>
      <trkpt lat="44.93646" lon="6.57627">
        <ele>1363.2</ele>
        <time>2022-08-28T16:40:08+0200</time>
      </trkpt>
      <trkpt lat="44.93645" lon="6.57635">
        <ele>1363</ele>
        <time>2022-08-28T16:40:09+0200</time>
      </trkpt>
      <trkpt lat="44.93643" lon="6.57642">
        <ele>1363</ele>
        <time>2022-08-28T16:40:10+0200</time>
      </trkpt>
      <trkpt lat="44.93642" lon="6.5765">
        <ele>1362.9</ele>
        <time>2022-08-28T16:40:11+0200</time>
      </trkpt>
      <trkpt lat="44.93643" lon="6.57657">
        <ele>1362.5</ele>
        <time>2022-08-28T16:40:12+0200</time>
      </trkpt>
      <trkpt lat="44.93642" lon="6.57669">
        <ele>1362.3</ele>
        <time>2022-08-28T16:40:14+0200</time>
      </trkpt>
      <trkpt lat="44.93645" lon="6.57681">
        <ele>1361.3</ele>
        <time>2022-08-28T16:40:16+0200</time>
      </trkpt>
      <trkpt lat="44.93644" lon="6.57688">
        <ele>1361.2</ele>
        <time>2022-08-28T16:40:17+0200</time>
      </trkpt>
      <trkpt lat="44.93644" lon="6.57701">
        <ele>1361</ele>
        <time>2022-08-28T16:40:19+0200</time>
      </trkpt>
      <trkpt lat="44.93647" lon="6.57707">
        <ele>1360.6</ele>
        <time>2022-08-28T16:40:20+0200</time>
      </trkpt>
      <trkpt lat="44.93646" lon="6.57721">
        <ele>1360.7</ele>
        <time>2022-08-28T16:40:22+0200</time>
      </trkpt>
      <trkpt lat="44.93646" lon="6.57729">
        <ele>1360.5</ele>
        <time>2022-08-28T16:40:23+0200</time>
      </trkpt>
      <trkpt lat="44.93643" lon="6.57741">
        <ele>1360.7</ele>
        <time>2022-08-28T16:40:25+0200</time>
      </trkpt>
      <trkpt lat="44.93642" lon="6.57748">
        <ele>1360.7</ele>
        <time>2022-08-28T16:40:26+0200</time>
      </trkpt>
      <trkpt lat="44.93643" lon="6.57755">
        <ele>1360.6</ele>
        <time>2022-08-28T16:40:27+0200</time>
      </trkpt>
      <trkpt lat="44.93645" lon="6.57765">
        <ele>1360.5</ele>
        <time>2022-08-28T16:40:28+0200</time>
      </trkpt>
      <trkpt lat="44.93647" lon="6.57777">
        <ele>1360.5</ele>
        <time>2022-08-28T16:40:29+0200</time>
      </trkpt>
      <trkpt lat="44.93649" lon="6.57788">
        <ele>1360.3</ele>
        <time>2022-08-28T16:40:30+0200</time>
      </trkpt>
      <trkpt lat="44.93649" lon="6.578">
        <ele>1360.1</ele>
        <time>2022-08-28T16:40:31+0200</time>
      </trkpt>
      <trkpt lat="44.93649" lon="6.5781">
        <ele>1360.1</ele>
        <time>2022-08-28T16:40:32+0200</time>
      </trkpt>
      <trkpt lat="44.93649" lon="6.57819">
        <ele>1359.9</ele>
        <time>2022-08-28T16:40:33+0200</time>
      </trkpt>
      <trkpt lat="44.93654" lon="6.57831">
        <ele>1358.9</ele>
        <time>2022-08-28T16:40:35+0200</time>
      </trkpt>
      <trkpt lat="44.93657" lon="6.57839">
        <ele>1358.4</ele>
        <time>2022-08-28T16:40:38+0200</time>
      </trkpt>
      <trkpt lat="44.93654" lon="6.5785">
        <ele>1358.8</ele>
        <time>2022-08-28T16:40:40+0200</time>
      </trkpt>
      <trkpt lat="44.93651" lon="6.57856">
        <ele>1359.2</ele>
        <time>2022-08-28T16:40:41+0200</time>
      </trkpt>
      <trkpt lat="44.93649" lon="6.57863">
        <ele>1359.5</ele>
        <time>2022-08-28T16:40:42+0200</time>
      </trkpt>
      <trkpt lat="44.93646" lon="6.5787">
        <ele>1359.7</ele>
        <time>2022-08-28T16:40:43+0200</time>
      </trkpt>
      <trkpt lat="44.93644" lon="6.57876">
        <ele>1359.9</ele>
        <time>2022-08-28T16:40:44+0200</time>
      </trkpt>
      <trkpt lat="44.93641" lon="6.57883">
        <ele>1360</ele>
        <time>2022-08-28T16:40:45+0200</time>
      </trkpt>
      <trkpt lat="44.93637" lon="6.57892">
        <ele>1360.2</ele>
        <time>2022-08-28T16:40:46+0200</time>
      </trkpt>
      <trkpt lat="44.93635" lon="6.57901">
        <ele>1360.3</ele>
        <time>2022-08-28T16:40:47+0200</time>
      </trkpt>
      <trkpt lat="44.93633" lon="6.57912">
        <ele>1360.2</ele>
        <time>2022-08-28T16:40:48+0200</time>
      </trkpt>
      <trkpt lat="44.93631" lon="6.57922">
        <ele>1360.3</ele>
        <time>2022-08-28T16:40:49+0200</time>
      </trkpt>
      <trkpt lat="44.93629" lon="6.57933">
        <ele>1360.2</ele>
        <time>2022-08-28T16:40:50+0200</time>
      </trkpt>
      <trkpt lat="44.93627" lon="6.57941">
        <ele>1360.3</ele>
        <time>2022-08-28T16:40:51+0200</time>
      </trkpt>
      <trkpt lat="44.93625" lon="6.57947">
        <ele>1360.3</ele>
        <time>2022-08-28T16:40:52+0200</time>
      </trkpt>
      <trkpt lat="44.93624" lon="6.57955">
        <ele>1359.9</ele>
        <time>2022-08-28T16:40:53+0200</time>
      </trkpt>
      <trkpt lat="44.93623" lon="6.57961">
        <ele>1359.5</ele>
        <time>2022-08-28T16:40:54+0200</time>
      </trkpt>
      <trkpt lat="44.93621" lon="6.5797">
        <ele>1359.1</ele>
        <time>2022-08-28T16:40:55+0200</time>
      </trkpt>
      <trkpt lat="44.93621" lon="6.57981">
        <ele>1358.4</ele>
        <time>2022-08-28T16:40:56+0200</time>
      </trkpt>
      <trkpt lat="44.93619" lon="6.5799">
        <ele>1357.8</ele>
        <time>2022-08-28T16:40:57+0200</time>
      </trkpt>
      <trkpt lat="44.93617" lon="6.57999">
        <ele>1357.5</ele>
        <time>2022-08-28T16:40:58+0200</time>
      </trkpt>
      <trkpt lat="44.93616" lon="6.58009">
        <ele>1356.6</ele>
        <time>2022-08-28T16:40:59+0200</time>
      </trkpt>
      <trkpt lat="44.93614" lon="6.58017">
        <ele>1356</ele>
        <time>2022-08-28T16:41:00+0200</time>
      </trkpt>
      <trkpt lat="44.93613" lon="6.58026">
        <ele>1355.1</ele>
        <time>2022-08-28T16:41:01+0200</time>
      </trkpt>
      <trkpt lat="44.93611" lon="6.58035">
        <ele>1354.6</ele>
        <time>2022-08-28T16:41:02+0200</time>
      </trkpt>
      <trkpt lat="44.93609" lon="6.58045">
        <ele>1354</ele>
        <time>2022-08-28T16:41:03+0200</time>
      </trkpt>
      <trkpt lat="44.93606" lon="6.58055">
        <ele>1353.6</ele>
        <time>2022-08-28T16:41:04+0200</time>
      </trkpt>
      <trkpt lat="44.93604" lon="6.58064">
        <ele>1353.6</ele>
        <time>2022-08-28T16:41:05+0200</time>
      </trkpt>
      <trkpt lat="44.93602" lon="6.58073">
        <ele>1353.5</ele>
        <time>2022-08-28T16:41:06+0200</time>
      </trkpt>
      <trkpt lat="44.936" lon="6.58081">
        <ele>1353.5</ele>
        <time>2022-08-28T16:41:07+0200</time>
      </trkpt>
      <trkpt lat="44.93598" lon="6.58089">
        <ele>1353.4</ele>
        <time>2022-08-28T16:41:08+0200</time>
      </trkpt>
      <trkpt lat="44.93594" lon="6.58098">
        <ele>1353.3</ele>
        <time>2022-08-28T16:41:09+0200</time>
      </trkpt>
      <trkpt lat="44.93592" lon="6.58106">
        <ele>1353.1</ele>
        <time>2022-08-28T16:41:10+0200</time>
      </trkpt>
      <trkpt lat="44.93588" lon="6.58113">
        <ele>1353</ele>
        <time>2022-08-28T16:41:11+0200</time>
      </trkpt>
      <trkpt lat="44.93585" lon="6.58122">
        <ele>1353</ele>
        <time>2022-08-28T16:41:12+0200</time>
      </trkpt>
      <trkpt lat="44.93582" lon="6.58132">
        <ele>1353.1</ele>
        <time>2022-08-28T16:41:13+0200</time>
      </trkpt>
      <trkpt lat="44.93579" lon="6.58142">
        <ele>1353.2</ele>
        <time>2022-08-28T16:41:14+0200</time>
      </trkpt>
      <trkpt lat="44.93577" lon="6.58152">
        <ele>1353</ele>
        <time>2022-08-28T16:41:15+0200</time>
      </trkpt>
      <trkpt lat="44.93576" lon="6.58164">
        <ele>1352.6</ele>
        <time>2022-08-28T16:41:16+0200</time>
      </trkpt>
      <trkpt lat="44.93575" lon="6.58174">
        <ele>1352.5</ele>
        <time>2022-08-28T16:41:17+0200</time>
      </trkpt>
      <trkpt lat="44.93576" lon="6.58187">
        <ele>1352.4</ele>
        <time>2022-08-28T16:41:18+0200</time>
      </trkpt>
      <trkpt lat="44.93576" lon="6.58198">
        <ele>1352.2</ele>
        <time>2022-08-28T16:41:19+0200</time>
      </trkpt>
      <trkpt lat="44.93577" lon="6.58209">
        <ele>1352.1</ele>
        <time>2022-08-28T16:41:20+0200</time>
      </trkpt>
      <trkpt lat="44.93578" lon="6.5822">
        <ele>1352</ele>
        <time>2022-08-28T16:41:21+0200</time>
      </trkpt>
      <trkpt lat="44.9358" lon="6.5823">
        <ele>1351.8</ele>
        <time>2022-08-28T16:41:22+0200</time>
      </trkpt>
      <trkpt lat="44.9358" lon="6.5824">
        <ele>1351.4</ele>
        <time>2022-08-28T16:41:23+0200</time>
      </trkpt>
      <trkpt lat="44.9358" lon="6.58249">
        <ele>1351.2</ele>
        <time>2022-08-28T16:41:24+0200</time>
      </trkpt>
      <trkpt lat="44.93581" lon="6.58257">
        <ele>1351.1</ele>
        <time>2022-08-28T16:41:25+0200</time>
      </trkpt>
      <trkpt lat="44.93584" lon="6.58264">
        <ele>1351</ele>
        <time>2022-08-28T16:41:26+0200</time>
      </trkpt>
      <trkpt lat="44.93583" lon="6.58271">
        <ele>1351</ele>
        <time>2022-08-28T16:41:27+0200</time>
      </trkpt>
      <trkpt lat="44.93581" lon="6.58278">
        <ele>1351</ele>
        <time>2022-08-28T16:41:28+0200</time>
      </trkpt>
      <trkpt lat="44.9358" lon="6.58284">
        <ele>1351.2</ele>
        <time>2022-08-28T16:41:29+0200</time>
      </trkpt>
      <trkpt lat="44.93582" lon="6.58297">
        <ele>1351.6</ele>
        <time>2022-08-28T16:41:31+0200</time>
      </trkpt>
      <trkpt lat="44.93579" lon="6.58309">
        <ele>1351.8</ele>
        <time>2022-08-28T16:41:33+0200</time>
      </trkpt>
      <trkpt lat="44.93578" lon="6.58318">
        <ele>1351.8</ele>
        <time>2022-08-28T16:41:34+0200</time>
      </trkpt>
      <trkpt lat="44.93576" lon="6.58324">
        <ele>1351.7</ele>
        <time>2022-08-28T16:41:35+0200</time>
      </trkpt>
      <trkpt lat="44.93573" lon="6.58332">
        <ele>1351.6</ele>
        <time>2022-08-28T16:41:36+0200</time>
      </trkpt>
      <trkpt lat="44.9357" lon="6.58337">
        <ele>1351.5</ele>
        <time>2022-08-28T16:41:37+0200</time>
      </trkpt>
      <trkpt lat="44.93566" lon="6.58343">
        <ele>1351.4</ele>
        <time>2022-08-28T16:41:38+0200</time>
      </trkpt>
      <trkpt lat="44.93562" lon="6.58348">
        <ele>1351.2</ele>
        <time>2022-08-28T16:41:39+0200</time>
      </trkpt>
      <trkpt lat="44.93555" lon="6.58357">
        <ele>1351</ele>
        <time>2022-08-28T16:41:40+0200</time>
      </trkpt>
      <trkpt lat="44.93549" lon="6.58364">
        <ele>1351.1</ele>
        <time>2022-08-28T16:41:42+0200</time>
      </trkpt>
      <trkpt lat="44.93548" lon="6.58371">
        <ele>1351.2</ele>
        <time>2022-08-28T16:41:44+0200</time>
      </trkpt>
      <trkpt lat="44.93551" lon="6.5838">
        <ele>1351.6</ele>
        <time>2022-08-28T16:41:46+0200</time>
      </trkpt>
      <trkpt lat="44.93556" lon="6.58387">
        <ele>1351.9</ele>
        <time>2022-08-28T16:41:48+0200</time>
      </trkpt>
      <trkpt lat="44.93559" lon="6.58392">
        <ele>1352</ele>
        <time>2022-08-28T16:41:49+0200</time>
      </trkpt>
      <trkpt lat="44.93565" lon="6.58402">
        <ele>1352.2</ele>
        <time>2022-08-28T16:41:50+0200</time>
      </trkpt>
      <trkpt lat="44.93568" lon="6.58406">
        <ele>1352.3</ele>
        <time>2022-08-28T16:41:51+0200</time>
      </trkpt>
      <trkpt lat="44.93567" lon="6.58414">
        <ele>1352.4</ele>
        <time>2022-08-28T16:41:53+0200</time>
      </trkpt>
      <trkpt lat="44.93562" lon="6.58419">
        <ele>1352.4</ele>
        <time>2022-08-28T16:41:55+0200</time>
      </trkpt>
      <trkpt lat="44.93559" lon="6.58424">
        <ele>1352.7</ele>
        <time>2022-08-28T16:41:56+0200</time>
      </trkpt>
      <trkpt lat="44.93555" lon="6.58428">
        <ele>1352.8</ele>
        <time>2022-08-28T16:41:57+0200</time>
      </trkpt>
      <trkpt lat="44.9355" lon="6.5843">
        <ele>1352.9</ele>
        <time>2022-08-28T16:41:58+0200</time>
      </trkpt>
      <trkpt lat="44.93542" lon="6.58435">
        <ele>1353.1</ele>
        <time>2022-08-28T16:42:00+0200</time>
      </trkpt>
      <trkpt lat="44.93532" lon="6.58435">
        <ele>1353.1</ele>
        <time>2022-08-28T16:42:02+0200</time>
      </trkpt>
      <trkpt lat="44.93527" lon="6.58436">
        <ele>1353.1</ele>
        <time>2022-08-28T16:42:03+0200</time>
      </trkpt>
      <trkpt lat="44.93521" lon="6.58438">
        <ele>1353.1</ele>
        <time>2022-08-28T16:42:04+0200</time>
      </trkpt>
      <trkpt lat="44.93515" lon="6.5844">
        <ele>1353.1</ele>
        <time>2022-08-28T16:42:05+0200</time>
      </trkpt>
      <trkpt lat="44.93507" lon="6.58443">
        <ele>1353.1</ele>
        <time>2022-08-28T16:42:07+0200</time>
      </trkpt>
      <trkpt lat="44.93501" lon="6.58442">
        <ele>1352.9</ele>
        <time>2022-08-28T16:42:08+0200</time>
      </trkpt>
      <trkpt lat="44.93495" lon="6.5844">
        <ele>1352.5</ele>
        <time>2022-08-28T16:42:09+0200</time>
      </trkpt>
      <trkpt lat="44.93489" lon="6.58442">
        <ele>1352.5</ele>
        <time>2022-08-28T16:42:10+0200</time>
      </trkpt>
      <trkpt lat="44.93483" lon="6.58443">
        <ele>1352.3</ele>
        <time>2022-08-28T16:42:11+0200</time>
      </trkpt>
      <trkpt lat="44.93473" lon="6.58443">
        <ele>1352</ele>
        <time>2022-08-28T16:42:13+0200</time>
      </trkpt>
      <trkpt lat="44.93467" lon="6.58446">
        <ele>1351.9</ele>
        <time>2022-08-28T16:42:14+0200</time>
      </trkpt>
      <trkpt lat="44.93461" lon="6.58448">
        <ele>1351.9</ele>
        <time>2022-08-28T16:42:15+0200</time>
      </trkpt>
      <trkpt lat="44.93453" lon="6.5845">
        <ele>1351.8</ele>
        <time>2022-08-28T16:42:16+0200</time>
      </trkpt>
      <trkpt lat="44.93443" lon="6.58454">
        <ele>1351.7</ele>
        <time>2022-08-28T16:42:17+0200</time>
      </trkpt>
      <trkpt lat="44.93435" lon="6.58461">
        <ele>1352.1</ele>
        <time>2022-08-28T16:42:18+0200</time>
      </trkpt>
      <trkpt lat="44.93427" lon="6.58466">
        <ele>1351.8</ele>
        <time>2022-08-28T16:42:19+0200</time>
      </trkpt>
      <trkpt lat="44.9342" lon="6.58471">
        <ele>1351.3</ele>
        <time>2022-08-28T16:42:20+0200</time>
      </trkpt>
      <trkpt lat="44.93413" lon="6.58476">
        <ele>1351.2</ele>
        <time>2022-08-28T16:42:21+0200</time>
      </trkpt>
      <trkpt lat="44.93407" lon="6.5848">
        <ele>1351.4</ele>
        <time>2022-08-28T16:42:22+0200</time>
      </trkpt>
      <trkpt lat="44.93402" lon="6.58482">
        <ele>1351.5</ele>
        <time>2022-08-28T16:42:23+0200</time>
      </trkpt>
      <trkpt lat="44.93396" lon="6.58486">
        <ele>1351.5</ele>
        <time>2022-08-28T16:42:24+0200</time>
      </trkpt>
      <trkpt lat="44.93391" lon="6.58492">
        <ele>1351.3</ele>
        <time>2022-08-28T16:42:25+0200</time>
      </trkpt>
      <trkpt lat="44.93386" lon="6.58498">
        <ele>1351.2</ele>
        <time>2022-08-28T16:42:26+0200</time>
      </trkpt>
      <trkpt lat="44.93382" lon="6.58502">
        <ele>1351.3</ele>
        <time>2022-08-28T16:42:27+0200</time>
      </trkpt>
      <trkpt lat="44.93377" lon="6.58505">
        <ele>1351.5</ele>
        <time>2022-08-28T16:42:28+0200</time>
      </trkpt>
      <trkpt lat="44.93372" lon="6.58508">
        <ele>1351.5</ele>
        <time>2022-08-28T16:42:29+0200</time>
      </trkpt>
      <trkpt lat="44.93367" lon="6.58509">
        <ele>1351.6</ele>
        <time>2022-08-28T16:42:30+0200</time>
      </trkpt>
      <trkpt lat="44.93363" lon="6.58512">
        <ele>1351.6</ele>
        <time>2022-08-28T16:42:31+0200</time>
      </trkpt>
      <trkpt lat="44.93357" lon="6.58513">
        <ele>1351.9</ele>
        <time>2022-08-28T16:42:33+0200</time>
      </trkpt>
      <trkpt lat="44.93353" lon="6.58517">
        <ele>1351.9</ele>
        <time>2022-08-28T16:42:34+0200</time>
      </trkpt>
      <trkpt lat="44.93345" lon="6.58523">
        <ele>1351.7</ele>
        <time>2022-08-28T16:42:36+0200</time>
      </trkpt>
      <trkpt lat="44.93339" lon="6.58525">
        <ele>1351.5</ele>
        <time>2022-08-28T16:42:37+0200</time>
      </trkpt>
      <trkpt lat="44.93334" lon="6.58527">
        <ele>1351.1</ele>
        <time>2022-08-28T16:42:38+0200</time>
      </trkpt>
      <trkpt lat="44.93329" lon="6.58532">
        <ele>1351.8</ele>
        <time>2022-08-28T16:42:39+0200</time>
      </trkpt>
      <trkpt lat="44.93324" lon="6.58535">
        <ele>1352.9</ele>
        <time>2022-08-28T16:42:40+0200</time>
      </trkpt>
      <trkpt lat="44.93318" lon="6.58539">
        <ele>1353.5</ele>
        <time>2022-08-28T16:42:41+0200</time>
      </trkpt>
      <trkpt lat="44.93314" lon="6.58543">
        <ele>1353.6</ele>
        <time>2022-08-28T16:42:42+0200</time>
      </trkpt>
      <trkpt lat="44.93307" lon="6.58545">
        <ele>1354.1</ele>
        <time>2022-08-28T16:42:43+0200</time>
      </trkpt>
      <trkpt lat="44.93301" lon="6.58548">
        <ele>1354.8</ele>
        <time>2022-08-28T16:42:44+0200</time>
      </trkpt>
      <trkpt lat="44.93296" lon="6.58553">
        <ele>1354.9</ele>
        <time>2022-08-28T16:42:45+0200</time>
      </trkpt>
      <trkpt lat="44.93293" lon="6.58559">
        <ele>1354.7</ele>
        <time>2022-08-28T16:42:46+0200</time>
      </trkpt>
      <trkpt lat="44.93288" lon="6.58566">
        <ele>1354.7</ele>
        <time>2022-08-28T16:42:47+0200</time>
      </trkpt>
      <trkpt lat="44.93283" lon="6.58571">
        <ele>1354.7</ele>
        <time>2022-08-28T16:42:48+0200</time>
      </trkpt>
      <trkpt lat="44.93279" lon="6.5858">
        <ele>1353.6</ele>
        <time>2022-08-28T16:42:50+0200</time>
      </trkpt>
      <trkpt lat="44.93275" lon="6.58584">
        <ele>1353.5</ele>
        <time>2022-08-28T16:42:51+0200</time>
      </trkpt>
      <trkpt lat="44.93273" lon="6.58591">
        <ele>1353.2</ele>
        <time>2022-08-28T16:42:52+0200</time>
      </trkpt>
      <trkpt lat="44.9327" lon="6.58598">
        <ele>1352.6</ele>
        <time>2022-08-28T16:42:53+0200</time>
      </trkpt>
      <trkpt lat="44.93268" lon="6.58604">
        <ele>1352</ele>
        <time>2022-08-28T16:42:54+0200</time>
      </trkpt>
      <trkpt lat="44.93267" lon="6.58611">
        <ele>1351.2</ele>
        <time>2022-08-28T16:42:55+0200</time>
      </trkpt>
      <trkpt lat="44.93271" lon="6.58624">
        <ele>1351.1</ele>
        <time>2022-08-28T16:42:57+0200</time>
      </trkpt>
      <trkpt lat="44.93273" lon="6.58634">
        <ele>1351.4</ele>
        <time>2022-08-28T16:42:58+0200</time>
      </trkpt>
      <trkpt lat="44.93276" lon="6.58641">
        <ele>1351.9</ele>
        <time>2022-08-28T16:42:59+0200</time>
      </trkpt>
      <trkpt lat="44.93278" lon="6.58648">
        <ele>1352.4</ele>
        <time>2022-08-28T16:43:00+0200</time>
      </trkpt>
      <trkpt lat="44.93279" lon="6.58658">
        <ele>1352.8</ele>
        <time>2022-08-28T16:43:01+0200</time>
      </trkpt>
      <trkpt lat="44.93275" lon="6.58665">
        <ele>1352.7</ele>
        <time>2022-08-28T16:43:02+0200</time>
      </trkpt>
      <trkpt lat="44.93268" lon="6.58672">
        <ele>1352.2</ele>
        <time>2022-08-28T16:43:04+0200</time>
      </trkpt>
      <trkpt lat="44.93263" lon="6.58683">
        <ele>1352</ele>
        <time>2022-08-28T16:43:06+0200</time>
      </trkpt>
      <trkpt lat="44.93261" lon="6.5869">
        <ele>1352</ele>
        <time>2022-08-28T16:43:07+0200</time>
      </trkpt>
      <trkpt lat="44.93258" lon="6.58697">
        <ele>1351.9</ele>
        <time>2022-08-28T16:43:08+0200</time>
      </trkpt>
      <trkpt lat="44.93255" lon="6.58704">
        <ele>1351.8</ele>
        <time>2022-08-28T16:43:09+0200</time>
      </trkpt>
      <trkpt lat="44.93252" lon="6.5871">
        <ele>1351.7</ele>
        <time>2022-08-28T16:43:10+0200</time>
      </trkpt>
      <trkpt lat="44.93251" lon="6.58718">
        <ele>1351.9</ele>
        <time>2022-08-28T16:43:11+0200</time>
      </trkpt>
      <trkpt lat="44.93249" lon="6.58729">
        <ele>1352.2</ele>
        <time>2022-08-28T16:43:13+0200</time>
      </trkpt>
      <trkpt lat="44.9325" lon="6.58741">
        <ele>1352.7</ele>
        <time>2022-08-28T16:43:15+0200</time>
      </trkpt>
      <trkpt lat="44.93247" lon="6.58746">
        <ele>1352.5</ele>
        <time>2022-08-28T16:43:16+0200</time>
      </trkpt>
      <trkpt lat="44.93241" lon="6.5875">
        <ele>1352</ele>
        <time>2022-08-28T16:43:18+0200</time>
      </trkpt>
      <trkpt lat="44.93236" lon="6.58753">
        <ele>1351.7</ele>
        <time>2022-08-28T16:43:19+0200</time>
      </trkpt>
      <trkpt lat="44.93232" lon="6.58757">
        <ele>1351.6</ele>
        <time>2022-08-28T16:43:20+0200</time>
      </trkpt>
      <trkpt lat="44.93228" lon="6.58761">
        <ele>1351.4</ele>
        <time>2022-08-28T16:43:21+0200</time>
      </trkpt>
      <trkpt lat="44.93223" lon="6.58767">
        <ele>1351.3</ele>
        <time>2022-08-28T16:43:22+0200</time>
      </trkpt>
      <trkpt lat="44.93218" lon="6.58771">
        <ele>1351</ele>
        <time>2022-08-28T16:43:23+0200</time>
      </trkpt>
      <trkpt lat="44.93214" lon="6.58776">
        <ele>1350.9</ele>
        <time>2022-08-28T16:43:24+0200</time>
      </trkpt>
      <trkpt lat="44.93208" lon="6.58781">
        <ele>1350.6</ele>
        <time>2022-08-28T16:43:25+0200</time>
      </trkpt>
      <trkpt lat="44.93205" lon="6.58787">
        <ele>1350.5</ele>
        <time>2022-08-28T16:43:26+0200</time>
      </trkpt>
      <trkpt lat="44.932" lon="6.58795">
        <ele>1350.2</ele>
        <time>2022-08-28T16:43:27+0200</time>
      </trkpt>
      <trkpt lat="44.93194" lon="6.58804">
        <ele>1349.8</ele>
        <time>2022-08-28T16:43:28+0200</time>
      </trkpt>
      <trkpt lat="44.9319" lon="6.58814">
        <ele>1349.5</ele>
        <time>2022-08-28T16:43:29+0200</time>
      </trkpt>
      <trkpt lat="44.93184" lon="6.58823">
        <ele>1348.9</ele>
        <time>2022-08-28T16:43:30+0200</time>
      </trkpt>
      <trkpt lat="44.9318" lon="6.58833">
        <ele>1348.3</ele>
        <time>2022-08-28T16:43:31+0200</time>
      </trkpt>
      <trkpt lat="44.93176" lon="6.58846">
        <ele>1348.1</ele>
        <time>2022-08-28T16:43:32+0200</time>
      </trkpt>
      <trkpt lat="44.93175" lon="6.58859">
        <ele>1348.4</ele>
        <time>2022-08-28T16:43:33+0200</time>
      </trkpt>
      <trkpt lat="44.93174" lon="6.58866">
        <ele>1348.6</ele>
        <time>2022-08-28T16:43:34+0200</time>
      </trkpt>
      <trkpt lat="44.93171" lon="6.58874">
        <ele>1348.3</ele>
        <time>2022-08-28T16:43:37+0200</time>
      </trkpt>
      <trkpt lat="44.93164" lon="6.58866">
        <ele>1347.2</ele>
        <time>2022-08-28T16:43:39+0200</time>
      </trkpt>
      <trkpt lat="44.93158" lon="6.58864">
        <ele>1347.3</ele>
        <time>2022-08-28T16:43:40+0200</time>
      </trkpt>
      <trkpt lat="44.93152" lon="6.58864">
        <ele>1347.4</ele>
        <time>2022-08-28T16:43:41+0200</time>
      </trkpt>
      <trkpt lat="44.93142" lon="6.58872">
        <ele>1346.9</ele>
        <time>2022-08-28T16:43:43+0200</time>
      </trkpt>
      <trkpt lat="44.93139" lon="6.58876">
        <ele>1346.4</ele>
        <time>2022-08-28T16:43:44+0200</time>
      </trkpt>
      <trkpt lat="44.93135" lon="6.58882">
        <ele>1346.9</ele>
        <time>2022-08-28T16:43:45+0200</time>
      </trkpt>
      <trkpt lat="44.93131" lon="6.58888">
        <ele>1347.1</ele>
        <time>2022-08-28T16:43:46+0200</time>
      </trkpt>
      <trkpt lat="44.93127" lon="6.58893">
        <ele>1347.7</ele>
        <time>2022-08-28T16:43:47+0200</time>
      </trkpt>
      <trkpt lat="44.93124" lon="6.58898">
        <ele>1348.2</ele>
        <time>2022-08-28T16:43:48+0200</time>
      </trkpt>
      <trkpt lat="44.9312" lon="6.58904">
        <ele>1348.3</ele>
        <time>2022-08-28T16:43:49+0200</time>
      </trkpt>
      <trkpt lat="44.93117" lon="6.5891">
        <ele>1348.2</ele>
        <time>2022-08-28T16:43:50+0200</time>
      </trkpt>
      <trkpt lat="44.93115" lon="6.58917">
        <ele>1347.5</ele>
        <time>2022-08-28T16:43:51+0200</time>
      </trkpt>
      <trkpt lat="44.93112" lon="6.58922">
        <ele>1347.1</ele>
        <time>2022-08-28T16:43:52+0200</time>
      </trkpt>
      <trkpt lat="44.93112" lon="6.58931">
        <ele>1346</ele>
        <time>2022-08-28T16:43:54+0200</time>
      </trkpt>
      <trkpt lat="44.93106" lon="6.58927">
        <ele>1347.3</ele>
        <time>2022-08-28T16:43:56+0200</time>
      </trkpt>
      <trkpt lat="44.93101" lon="6.58929">
        <ele>1348.1</ele>
        <time>2022-08-28T16:43:57+0200</time>
      </trkpt>
      <trkpt lat="44.93096" lon="6.5893">
        <ele>1348.8</ele>
        <time>2022-08-28T16:43:58+0200</time>
      </trkpt>
      <trkpt lat="44.93088" lon="6.58935">
        <ele>1349.6</ele>
        <time>2022-08-28T16:43:59+0200</time>
      </trkpt>
      <trkpt lat="44.93085" lon="6.5894">
        <ele>1349.4</ele>
        <time>2022-08-28T16:44:00+0200</time>
      </trkpt>
      <trkpt lat="44.93079" lon="6.58949">
        <ele>1349.1</ele>
        <time>2022-08-28T16:44:01+0200</time>
      </trkpt>
      <trkpt lat="44.93075" lon="6.58957">
        <ele>1348.4</ele>
        <time>2022-08-28T16:44:03+0200</time>
      </trkpt>
      <trkpt lat="44.9307" lon="6.58964">
        <ele>1348.2</ele>
        <time>2022-08-28T16:44:04+0200</time>
      </trkpt>
      <trkpt lat="44.93064" lon="6.58971">
        <ele>1348</ele>
        <time>2022-08-28T16:44:05+0200</time>
      </trkpt>
      <trkpt lat="44.93057" lon="6.58975">
        <ele>1348.3</ele>
        <time>2022-08-28T16:44:06+0200</time>
      </trkpt>
      <trkpt lat="44.93051" lon="6.58979">
        <ele>1348.4</ele>
        <time>2022-08-28T16:44:07+0200</time>
      </trkpt>
      <trkpt lat="44.93044" lon="6.58985">
        <ele>1348.1</ele>
        <time>2022-08-28T16:44:08+0200</time>
      </trkpt>
      <trkpt lat="44.93036" lon="6.58989">
        <ele>1348.6</ele>
        <time>2022-08-28T16:44:09+0200</time>
      </trkpt>
      <trkpt lat="44.93028" lon="6.58991">
        <ele>1349.3</ele>
        <time>2022-08-28T16:44:10+0200</time>
      </trkpt>
      <trkpt lat="44.93022" lon="6.58994">
        <ele>1350</ele>
        <time>2022-08-28T16:44:11+0200</time>
      </trkpt>
      <trkpt lat="44.93014" lon="6.58996">
        <ele>1351</ele>
        <time>2022-08-28T16:44:12+0200</time>
      </trkpt>
      <trkpt lat="44.93007" lon="6.59002">
        <ele>1351.4</ele>
        <time>2022-08-28T16:44:13+0200</time>
      </trkpt>
      <trkpt lat="44.93001" lon="6.59008">
        <ele>1351.3</ele>
        <time>2022-08-28T16:44:14+0200</time>
      </trkpt>
      <trkpt lat="44.92993" lon="6.59012">
        <ele>1352.1</ele>
        <time>2022-08-28T16:44:15+0200</time>
      </trkpt>
      <trkpt lat="44.92985" lon="6.59018">
        <ele>1352.6</ele>
        <time>2022-08-28T16:44:16+0200</time>
      </trkpt>
      <trkpt lat="44.92978" lon="6.59022">
        <ele>1353.1</ele>
        <time>2022-08-28T16:44:17+0200</time>
      </trkpt>
      <trkpt lat="44.92969" lon="6.59029">
        <ele>1353.5</ele>
        <time>2022-08-28T16:44:18+0200</time>
      </trkpt>
      <trkpt lat="44.92961" lon="6.59037">
        <ele>1353.6</ele>
        <time>2022-08-28T16:44:19+0200</time>
      </trkpt>
      <trkpt lat="44.92954" lon="6.59043">
        <ele>1354.1</ele>
        <time>2022-08-28T16:44:20+0200</time>
      </trkpt>
      <trkpt lat="44.92947" lon="6.59049">
        <ele>1354.1</ele>
        <time>2022-08-28T16:44:21+0200</time>
      </trkpt>
      <trkpt lat="44.92941" lon="6.59054">
        <ele>1354.2</ele>
        <time>2022-08-28T16:44:22+0200</time>
      </trkpt>
      <trkpt lat="44.92933" lon="6.5906">
        <ele>1353.9</ele>
        <time>2022-08-28T16:44:24+0200</time>
      </trkpt>
      <trkpt lat="44.92928" lon="6.59063">
        <ele>1354.1</ele>
        <time>2022-08-28T16:44:25+0200</time>
      </trkpt>
      <trkpt lat="44.92924" lon="6.59069">
        <ele>1353.7</ele>
        <time>2022-08-28T16:44:26+0200</time>
      </trkpt>
      <trkpt lat="44.92919" lon="6.59074">
        <ele>1353.6</ele>
        <time>2022-08-28T16:44:27+0200</time>
      </trkpt>
      <trkpt lat="44.92913" lon="6.59079">
        <ele>1353.8</ele>
        <time>2022-08-28T16:44:28+0200</time>
      </trkpt>
      <trkpt lat="44.92905" lon="6.59085">
        <ele>1354.2</ele>
        <time>2022-08-28T16:44:29+0200</time>
      </trkpt>
      <trkpt lat="44.92899" lon="6.5909">
        <ele>1354.6</ele>
        <time>2022-08-28T16:44:30+0200</time>
      </trkpt>
      <trkpt lat="44.92891" lon="6.59098">
        <ele>1354.9</ele>
        <time>2022-08-28T16:44:31+0200</time>
      </trkpt>
      <trkpt lat="44.92885" lon="6.59106">
        <ele>1355.2</ele>
        <time>2022-08-28T16:44:32+0200</time>
      </trkpt>
      <trkpt lat="44.92876" lon="6.59115">
        <ele>1356.5</ele>
        <time>2022-08-28T16:44:33+0200</time>
      </trkpt>
      <trkpt lat="44.92871" lon="6.59121">
        <ele>1356.8</ele>
        <time>2022-08-28T16:44:34+0200</time>
      </trkpt>
      <trkpt lat="44.92867" lon="6.59126">
        <ele>1357</ele>
        <time>2022-08-28T16:44:35+0200</time>
      </trkpt>
      <trkpt lat="44.92863" lon="6.59135">
        <ele>1356.3</ele>
        <time>2022-08-28T16:44:36+0200</time>
      </trkpt>
      <trkpt lat="44.92861" lon="6.59142">
        <ele>1355.7</ele>
        <time>2022-08-28T16:44:37+0200</time>
      </trkpt>
      <trkpt lat="44.92855" lon="6.59148">
        <ele>1356.7</ele>
        <time>2022-08-28T16:44:38+0200</time>
      </trkpt>
      <trkpt lat="44.92852" lon="6.59161">
        <ele>1355.6</ele>
        <time>2022-08-28T16:44:39+0200</time>
      </trkpt>
      <trkpt lat="44.92848" lon="6.59173">
        <ele>1354.5</ele>
        <time>2022-08-28T16:44:40+0200</time>
      </trkpt>
      <trkpt lat="44.92842" lon="6.59182">
        <ele>1354.8</ele>
        <time>2022-08-28T16:44:41+0200</time>
      </trkpt>
      <trkpt lat="44.92837" lon="6.59187">
        <ele>1355.3</ele>
        <time>2022-08-28T16:44:42+0200</time>
      </trkpt>
      <trkpt lat="44.92833" lon="6.59189">
        <ele>1356.4</ele>
        <time>2022-08-28T16:44:43+0200</time>
      </trkpt>
      <trkpt lat="44.92826" lon="6.59193">
        <ele>1358.8</ele>
        <time>2022-08-28T16:44:44+0200</time>
      </trkpt>
      <trkpt lat="44.92821" lon="6.59198">
        <ele>1359.7</ele>
        <time>2022-08-28T16:44:45+0200</time>
      </trkpt>
      <trkpt lat="44.92817" lon="6.59201">
        <ele>1360.6</ele>
        <time>2022-08-28T16:44:46+0200</time>
      </trkpt>
      <trkpt lat="44.92814" lon="6.59207">
        <ele>1360.4</ele>
        <time>2022-08-28T16:44:47+0200</time>
      </trkpt>
      <trkpt lat="44.92811" lon="6.59212">
        <ele>1360.1</ele>
        <time>2022-08-28T16:44:48+0200</time>
      </trkpt>
      <trkpt lat="44.92808" lon="6.59219">
        <ele>1360.1</ele>
        <time>2022-08-28T16:44:49+0200</time>
      </trkpt>
      <trkpt lat="44.92804" lon="6.59225">
        <ele>1360</ele>
        <time>2022-08-28T16:44:50+0200</time>
      </trkpt>
      <trkpt lat="44.92802" lon="6.59231">
        <ele>1359.4</ele>
        <time>2022-08-28T16:44:51+0200</time>
      </trkpt>
      <trkpt lat="44.92796" lon="6.59241">
        <ele>1359.4</ele>
        <time>2022-08-28T16:44:53+0200</time>
      </trkpt>
      <trkpt lat="44.92792" lon="6.59244">
        <ele>1360.1</ele>
        <time>2022-08-28T16:44:54+0200</time>
      </trkpt>
      <trkpt lat="44.92788" lon="6.59249">
        <ele>1360.3</ele>
        <time>2022-08-28T16:44:55+0200</time>
      </trkpt>
      <trkpt lat="44.92783" lon="6.59254">
        <ele>1360.9</ele>
        <time>2022-08-28T16:44:56+0200</time>
      </trkpt>
      <trkpt lat="44.9278" lon="6.59259">
        <ele>1360.4</ele>
        <time>2022-08-28T16:44:57+0200</time>
      </trkpt>
      <trkpt lat="44.92778" lon="6.59266">
        <ele>1359.4</ele>
        <time>2022-08-28T16:44:58+0200</time>
      </trkpt>
      <trkpt lat="44.92774" lon="6.59272">
        <ele>1359.1</ele>
        <time>2022-08-28T16:44:59+0200</time>
      </trkpt>
      <trkpt lat="44.92767" lon="6.5928">
        <ele>1359.6</ele>
        <time>2022-08-28T16:45:00+0200</time>
      </trkpt>
      <trkpt lat="44.92763" lon="6.59286">
        <ele>1359.6</ele>
        <time>2022-08-28T16:45:01+0200</time>
      </trkpt>
      <trkpt lat="44.92758" lon="6.59294">
        <ele>1359.3</ele>
        <time>2022-08-28T16:45:02+0200</time>
      </trkpt>
      <trkpt lat="44.92753" lon="6.59303">
        <ele>1358.6</ele>
        <time>2022-08-28T16:45:03+0200</time>
      </trkpt>
      <trkpt lat="44.92745" lon="6.59315">
        <ele>1357.7</ele>
        <time>2022-08-28T16:45:04+0200</time>
      </trkpt>
      <trkpt lat="44.9274" lon="6.59324">
        <ele>1357</ele>
        <time>2022-08-28T16:45:05+0200</time>
      </trkpt>
      <trkpt lat="44.92734" lon="6.59336">
        <ele>1355.5</ele>
        <time>2022-08-28T16:45:06+0200</time>
      </trkpt>
      <trkpt lat="44.92727" lon="6.59348">
        <ele>1354.7</ele>
        <time>2022-08-28T16:45:07+0200</time>
      </trkpt>
      <trkpt lat="44.92723" lon="6.59356">
        <ele>1354.1</ele>
        <time>2022-08-28T16:45:08+0200</time>
      </trkpt>
      <trkpt lat="44.92718" lon="6.59366">
        <ele>1353.4</ele>
        <time>2022-08-28T16:45:09+0200</time>
      </trkpt>
      <trkpt lat="44.92713" lon="6.59377">
        <ele>1352.2</ele>
        <time>2022-08-28T16:45:10+0200</time>
      </trkpt>
      <trkpt lat="44.92713" lon="6.59404">
        <ele>1345.3</ele>
        <time>2022-08-28T16:45:11+0200</time>
      </trkpt>
      <trkpt lat="44.92709" lon="6.59422">
        <ele>1342.1</ele>
        <time>2022-08-28T16:45:12+0200</time>
      </trkpt>
      <trkpt lat="44.92705" lon="6.59437">
        <ele>1340.1</ele>
        <time>2022-08-28T16:45:13+0200</time>
      </trkpt>
      <trkpt lat="44.92702" lon="6.59453">
        <ele>1337.8</ele>
        <time>2022-08-28T16:45:14+0200</time>
      </trkpt>
      <trkpt lat="44.92697" lon="6.59466">
        <ele>1336.6</ele>
        <time>2022-08-28T16:45:15+0200</time>
      </trkpt>
      <trkpt lat="44.92694" lon="6.59478">
        <ele>1335.4</ele>
        <time>2022-08-28T16:45:16+0200</time>
      </trkpt>
      <trkpt lat="44.92689" lon="6.59489">
        <ele>1335.2</ele>
        <time>2022-08-28T16:45:17+0200</time>
      </trkpt>
      <trkpt lat="44.92683" lon="6.595">
        <ele>1334.9</ele>
        <time>2022-08-28T16:45:18+0200</time>
      </trkpt>
      <trkpt lat="44.92679" lon="6.59508">
        <ele>1334.7</ele>
        <time>2022-08-28T16:45:19+0200</time>
      </trkpt>
      <trkpt lat="44.92673" lon="6.59516">
        <ele>1334.8</ele>
        <time>2022-08-28T16:45:20+0200</time>
      </trkpt>
      <trkpt lat="44.92667" lon="6.59528">
        <ele>1334</ele>
        <time>2022-08-28T16:45:21+0200</time>
      </trkpt>
      <trkpt lat="44.92661" lon="6.59538">
        <ele>1334.4</ele>
        <time>2022-08-28T16:45:22+0200</time>
      </trkpt>
      <trkpt lat="44.92654" lon="6.59548">
        <ele>1335</ele>
        <time>2022-08-28T16:45:23+0200</time>
      </trkpt>
      <trkpt lat="44.92647" lon="6.59557">
        <ele>1335.5</ele>
        <time>2022-08-28T16:45:24+0200</time>
      </trkpt>
      <trkpt lat="44.9264" lon="6.59563">
        <ele>1336.3</ele>
        <time>2022-08-28T16:45:25+0200</time>
      </trkpt>
      <trkpt lat="44.92633" lon="6.59565">
        <ele>1338.8</ele>
        <time>2022-08-28T16:45:26+0200</time>
      </trkpt>
      <trkpt lat="44.92626" lon="6.59569">
        <ele>1340.4</ele>
        <time>2022-08-28T16:45:27+0200</time>
      </trkpt>
      <trkpt lat="44.92621" lon="6.59574">
        <ele>1341.5</ele>
        <time>2022-08-28T16:45:28+0200</time>
      </trkpt>
      <trkpt lat="44.92619" lon="6.59586">
        <ele>1339.8</ele>
        <time>2022-08-28T16:45:29+0200</time>
      </trkpt>
      <trkpt lat="44.92616" lon="6.59597">
        <ele>1338.3</ele>
        <time>2022-08-28T16:45:30+0200</time>
      </trkpt>
      <trkpt lat="44.92613" lon="6.5961">
        <ele>1336.7</ele>
        <time>2022-08-28T16:45:31+0200</time>
      </trkpt>
      <trkpt lat="44.9261" lon="6.59621">
        <ele>1335.5</ele>
        <time>2022-08-28T16:45:32+0200</time>
      </trkpt>
      <trkpt lat="44.92607" lon="6.5963">
        <ele>1335.1</ele>
        <time>2022-08-28T16:45:33+0200</time>
      </trkpt>
      <trkpt lat="44.92604" lon="6.59642">
        <ele>1334</ele>
        <time>2022-08-28T16:45:34+0200</time>
      </trkpt>
      <trkpt lat="44.926" lon="6.5965">
        <ele>1333.8</ele>
        <time>2022-08-28T16:45:35+0200</time>
      </trkpt>
      <trkpt lat="44.92594" lon="6.5966">
        <ele>1333.9</ele>
        <time>2022-08-28T16:45:36+0200</time>
      </trkpt>
      <trkpt lat="44.92589" lon="6.5967">
        <ele>1333.5</ele>
        <time>2022-08-28T16:45:37+0200</time>
      </trkpt>
      <trkpt lat="44.92587" lon="6.59684">
        <ele>1331.7</ele>
        <time>2022-08-28T16:45:38+0200</time>
      </trkpt>
      <trkpt lat="44.92583" lon="6.59695">
        <ele>1331</ele>
        <time>2022-08-28T16:45:39+0200</time>
      </trkpt>
      <trkpt lat="44.92578" lon="6.59708">
        <ele>1330.7</ele>
        <time>2022-08-28T16:45:40+0200</time>
      </trkpt>
      <trkpt lat="44.9257" lon="6.59717">
        <ele>1331.3</ele>
        <time>2022-08-28T16:45:41+0200</time>
      </trkpt>
      <trkpt lat="44.92563" lon="6.59724">
        <ele>1332</ele>
        <time>2022-08-28T16:45:42+0200</time>
      </trkpt>
      <trkpt lat="44.92556" lon="6.59731">
        <ele>1332.9</ele>
        <time>2022-08-28T16:45:43+0200</time>
      </trkpt>
      <trkpt lat="44.9255" lon="6.59743">
        <ele>1332.4</ele>
        <time>2022-08-28T16:45:44+0200</time>
      </trkpt>
      <trkpt lat="44.92545" lon="6.59757">
        <ele>1330.6</ele>
        <time>2022-08-28T16:45:45+0200</time>
      </trkpt>
      <trkpt lat="44.92541" lon="6.59769">
        <ele>1329.1</ele>
        <time>2022-08-28T16:45:46+0200</time>
      </trkpt>
      <trkpt lat="44.92535" lon="6.59781">
        <ele>1328.3</ele>
        <time>2022-08-28T16:45:47+0200</time>
      </trkpt>
      <trkpt lat="44.92527" lon="6.59785">
        <ele>1330.4</ele>
        <time>2022-08-28T16:45:48+0200</time>
      </trkpt>
      <trkpt lat="44.9252" lon="6.5979">
        <ele>1332.6</ele>
        <time>2022-08-28T16:45:49+0200</time>
      </trkpt>
      <trkpt lat="44.92514" lon="6.59799">
        <ele>1332.8</ele>
        <time>2022-08-28T16:45:50+0200</time>
      </trkpt>
      <trkpt lat="44.92509" lon="6.59808">
        <ele>1332.8</ele>
        <time>2022-08-28T16:45:51+0200</time>
      </trkpt>
      <trkpt lat="44.92505" lon="6.59817">
        <ele>1332.1</ele>
        <time>2022-08-28T16:45:52+0200</time>
      </trkpt>
      <trkpt lat="44.92499" lon="6.59826">
        <ele>1331.8</ele>
        <time>2022-08-28T16:45:53+0200</time>
      </trkpt>
      <trkpt lat="44.92495" lon="6.59827">
        <ele>1334</ele>
        <time>2022-08-28T16:45:54+0200</time>
      </trkpt>
      <trkpt lat="44.92492" lon="6.59833">
        <ele>1333.8</ele>
        <time>2022-08-28T16:45:55+0200</time>
      </trkpt>
      <trkpt lat="44.9249" lon="6.59845">
        <ele>1331.9</ele>
        <time>2022-08-28T16:45:56+0200</time>
      </trkpt>
      <trkpt lat="44.92485" lon="6.59851">
        <ele>1333.4</ele>
        <time>2022-08-28T16:45:57+0200</time>
      </trkpt>
      <trkpt lat="44.92482" lon="6.59856">
        <ele>1333.3</ele>
        <time>2022-08-28T16:45:58+0200</time>
      </trkpt>
      <trkpt lat="44.92474" lon="6.5986">
        <ele>1336.1</ele>
        <time>2022-08-28T16:46:00+0200</time>
      </trkpt>
      <trkpt lat="44.92466" lon="6.59865">
        <ele>1339.2</ele>
        <time>2022-08-28T16:46:02+0200</time>
      </trkpt>
      <trkpt lat="44.92462" lon="6.59869">
        <ele>1340.8</ele>
        <time>2022-08-28T16:46:02+0200</time>
      </trkpt>
      <trkpt lat="44.92458" lon="6.59874">
        <ele>1341.8</ele>
        <time>2022-08-28T16:46:03+0200</time>
      </trkpt>
      <trkpt lat="44.92455" lon="6.5988">
        <ele>1341.7</ele>
        <time>2022-08-28T16:46:04+0200</time>
      </trkpt>
      <trkpt lat="44.92453" lon="6.59888">
        <ele>1340.9</ele>
        <time>2022-08-28T16:46:05+0200</time>
      </trkpt>
      <trkpt lat="44.92449" lon="6.59896">
        <ele>1341.1</ele>
        <time>2022-08-28T16:46:07+0200</time>
      </trkpt>
      <trkpt lat="44.92449" lon="6.59907">
        <ele>1338.5</ele>
        <time>2022-08-28T16:46:08+0200</time>
      </trkpt>
      <trkpt lat="44.92448" lon="6.59918">
        <ele>1335.9</ele>
        <time>2022-08-28T16:46:08+0200</time>
      </trkpt>
      <trkpt lat="44.92446" lon="6.59928">
        <ele>1334.7</ele>
        <time>2022-08-28T16:46:09+0200</time>
      </trkpt>
      <trkpt lat="44.92445" lon="6.5994">
        <ele>1332.8</ele>
        <time>2022-08-28T16:46:10+0200</time>
      </trkpt>
      <trkpt lat="44.92442" lon="6.59952">
        <ele>1332</ele>
        <time>2022-08-28T16:46:11+0200</time>
      </trkpt>
      <trkpt lat="44.92441" lon="6.59966">
        <ele>1330.2</ele>
        <time>2022-08-28T16:46:12+0200</time>
      </trkpt>
      <trkpt lat="44.92439" lon="6.59977">
        <ele>1329</ele>
        <time>2022-08-28T16:46:13+0200</time>
      </trkpt>
      <trkpt lat="44.92436" lon="6.59986">
        <ele>1329.2</ele>
        <time>2022-08-28T16:46:14+0200</time>
      </trkpt>
      <trkpt lat="44.92436" lon="6.59996">
        <ele>1327.2</ele>
        <time>2022-08-28T16:46:15+0200</time>
      </trkpt>
      <trkpt lat="44.92438" lon="6.60006">
        <ele>1325.2</ele>
        <time>2022-08-28T16:46:16+0200</time>
      </trkpt>
      <trkpt lat="44.92441" lon="6.60014">
        <ele>1323</ele>
        <time>2022-08-28T16:46:17+0200</time>
      </trkpt>
      <trkpt lat="44.92445" lon="6.60024">
        <ele>1320.3</ele>
        <time>2022-08-28T16:46:19+0200</time>
      </trkpt>
      <trkpt lat="44.9245" lon="6.6003">
        <ele>1319</ele>
        <time>2022-08-28T16:46:20+0200</time>
      </trkpt>
      <trkpt lat="44.92452" lon="6.60041">
        <ele>1318</ele>
        <time>2022-08-28T16:46:21+0200</time>
      </trkpt>
      <trkpt lat="44.92457" lon="6.60058">
        <ele>1316.1</ele>
        <time>2022-08-28T16:46:22+0200</time>
      </trkpt>
      <trkpt lat="44.92461" lon="6.60069">
        <ele>1315.2</ele>
        <time>2022-08-28T16:46:23+0200</time>
      </trkpt>
      <trkpt lat="44.92465" lon="6.60081">
        <ele>1314.6</ele>
        <time>2022-08-28T16:46:24+0200</time>
      </trkpt>
      <trkpt lat="44.9247" lon="6.6009">
        <ele>1314.1</ele>
        <time>2022-08-28T16:46:25+0200</time>
      </trkpt>
      <trkpt lat="44.92471" lon="6.60099">
        <ele>1314</ele>
        <time>2022-08-28T16:46:26+0200</time>
      </trkpt>
      <trkpt lat="44.92472" lon="6.60106">
        <ele>1314</ele>
        <time>2022-08-28T16:46:27+0200</time>
      </trkpt>
      <trkpt lat="44.92474" lon="6.60112">
        <ele>1314.2</ele>
        <time>2022-08-28T16:46:28+0200</time>
      </trkpt>
      <trkpt lat="44.92475" lon="6.60119">
        <ele>1314.4</ele>
        <time>2022-08-28T16:46:29+0200</time>
      </trkpt>
      <trkpt lat="44.92478" lon="6.60127">
        <ele>1314.7</ele>
        <time>2022-08-28T16:46:30+0200</time>
      </trkpt>
      <trkpt lat="44.9248" lon="6.60136">
        <ele>1314.9</ele>
        <time>2022-08-28T16:46:31+0200</time>
      </trkpt>
      <trkpt lat="44.92482" lon="6.60142">
        <ele>1315.2</ele>
        <time>2022-08-28T16:46:32+0200</time>
      </trkpt>
      <trkpt lat="44.92486" lon="6.60149">
        <ele>1315.7</ele>
        <time>2022-08-28T16:46:35+0200</time>
      </trkpt>
      <trkpt lat="44.92486" lon="6.60158">
        <ele>1315.8</ele>
        <time>2022-08-28T16:46:37+0200</time>
      </trkpt>
      <trkpt lat="44.92486" lon="6.60168">
        <ele>1316</ele>
        <time>2022-08-28T16:46:39+0200</time>
      </trkpt>
      <trkpt lat="44.92483" lon="6.60178">
        <ele>1316.3</ele>
        <time>2022-08-28T16:46:41+0200</time>
      </trkpt>
      <trkpt lat="44.92481" lon="6.60189">
        <ele>1316.6</ele>
        <time>2022-08-28T16:46:43+0200</time>
      </trkpt>
      <trkpt lat="44.92479" lon="6.60201">
        <ele>1317</ele>
        <time>2022-08-28T16:46:45+0200</time>
      </trkpt>
      <trkpt lat="44.92478" lon="6.6021">
        <ele>1317.2</ele>
        <time>2022-08-28T16:46:47+0200</time>
      </trkpt>
      <trkpt lat="44.92477" lon="6.60219">
        <ele>1317.4</ele>
        <time>2022-08-28T16:46:49+0200</time>
      </trkpt>
      <trkpt lat="44.9248" lon="6.60226">
        <ele>1318</ele>
        <time>2022-08-28T16:46:51+0200</time>
      </trkpt>
      <trkpt lat="44.92484" lon="6.60237">
        <ele>1318.8</ele>
        <time>2022-08-28T16:46:53+0200</time>
      </trkpt>
      <trkpt lat="44.92485" lon="6.60248">
        <ele>1319.3</ele>
        <time>2022-08-28T16:46:55+0200</time>
      </trkpt>
      <trkpt lat="44.92487" lon="6.60253">
        <ele>1319.7</ele>
        <time>2022-08-28T16:46:56+0200</time>
      </trkpt>
      <trkpt lat="44.92489" lon="6.60261">
        <ele>1320.2</ele>
        <time>2022-08-28T16:46:57+0200</time>
      </trkpt>
      <trkpt lat="44.92492" lon="6.60268">
        <ele>1320.8</ele>
        <time>2022-08-28T16:46:58+0200</time>
      </trkpt>
      <trkpt lat="44.92497" lon="6.60274">
        <ele>1321.6</ele>
        <time>2022-08-28T16:46:59+0200</time>
      </trkpt>
      <trkpt lat="44.92502" lon="6.60282">
        <ele>1322.4</ele>
        <time>2022-08-28T16:47:00+0200</time>
      </trkpt>
      <trkpt lat="44.92507" lon="6.60289">
        <ele>1323.2</ele>
        <time>2022-08-28T16:47:01+0200</time>
      </trkpt>
      <trkpt lat="44.92513" lon="6.60296">
        <ele>1324.1</ele>
        <time>2022-08-28T16:47:02+0200</time>
      </trkpt>
      <trkpt lat="44.92519" lon="6.60303">
        <ele>1324.9</ele>
        <time>2022-08-28T16:47:03+0200</time>
      </trkpt>
      <trkpt lat="44.92523" lon="6.60309">
        <ele>1325.5</ele>
        <time>2022-08-28T16:47:04+0200</time>
      </trkpt>
      <trkpt lat="44.92527" lon="6.60315">
        <ele>1325.9</ele>
        <time>2022-08-28T16:47:05+0200</time>
      </trkpt>
      <trkpt lat="44.9253" lon="6.6032">
        <ele>1326.3</ele>
        <time>2022-08-28T16:47:06+0200</time>
      </trkpt>
      <trkpt lat="44.92535" lon="6.60327">
        <ele>1327</ele>
        <time>2022-08-28T16:47:08+0200</time>
      </trkpt>
      <trkpt lat="44.92539" lon="6.60334">
        <ele>1327.7</ele>
        <time>2022-08-28T16:47:10+0200</time>
      </trkpt>
      <trkpt lat="44.92542" lon="6.60339">
        <ele>1328.1</ele>
        <time>2022-08-28T16:47:11+0200</time>
      </trkpt>
      <trkpt lat="44.92543" lon="6.60349">
        <ele>1328.5</ele>
        <time>2022-08-28T16:47:13+0200</time>
      </trkpt>
      <trkpt lat="44.92543" lon="6.60358">
        <ele>1328.6</ele>
        <time>2022-08-28T16:47:15+0200</time>
      </trkpt>
      <trkpt lat="44.92541" lon="6.60371">
        <ele>1329.2</ele>
        <time>2022-08-28T16:47:17+0200</time>
      </trkpt>
      <trkpt lat="44.92538" lon="6.60378">
        <ele>1329.4</ele>
        <time>2022-08-28T16:47:18+0200</time>
      </trkpt>
      <trkpt lat="44.92536" lon="6.60384">
        <ele>1329.4</ele>
        <time>2022-08-28T16:47:19+0200</time>
      </trkpt>
      <trkpt lat="44.92533" lon="6.60392">
        <ele>1329.2</ele>
        <time>2022-08-28T16:47:20+0200</time>
      </trkpt>
      <trkpt lat="44.92531" lon="6.60399">
        <ele>1329</ele>
        <time>2022-08-28T16:47:21+0200</time>
      </trkpt>
      <trkpt lat="44.92528" lon="6.60405">
        <ele>1328.6</ele>
        <time>2022-08-28T16:47:22+0200</time>
      </trkpt>
      <trkpt lat="44.92525" lon="6.60411">
        <ele>1328.5</ele>
        <time>2022-08-28T16:47:23+0200</time>
      </trkpt>
      <trkpt lat="44.9252" lon="6.60421">
        <ele>1328.4</ele>
        <time>2022-08-28T16:47:25+0200</time>
      </trkpt>
      <trkpt lat="44.92516" lon="6.60428">
        <ele>1328.4</ele>
        <time>2022-08-28T16:47:26+0200</time>
      </trkpt>
      <trkpt lat="44.92513" lon="6.60435">
        <ele>1328.3</ele>
        <time>2022-08-28T16:47:27+0200</time>
      </trkpt>
      <trkpt lat="44.9251" lon="6.60441">
        <ele>1328.3</ele>
        <time>2022-08-28T16:47:28+0200</time>
      </trkpt>
      <trkpt lat="44.92507" lon="6.60448">
        <ele>1328.1</ele>
        <time>2022-08-28T16:47:29+0200</time>
      </trkpt>
      <trkpt lat="44.92504" lon="6.60457">
        <ele>1327.6</ele>
        <time>2022-08-28T16:47:31+0200</time>
      </trkpt>
      <trkpt lat="44.92502" lon="6.60464">
        <ele>1327.3</ele>
        <time>2022-08-28T16:47:32+0200</time>
      </trkpt>
      <trkpt lat="44.92499" lon="6.6047">
        <ele>1326.9</ele>
        <time>2022-08-28T16:47:33+0200</time>
      </trkpt>
      <trkpt lat="44.92495" lon="6.60477">
        <ele>1326.7</ele>
        <time>2022-08-28T16:47:34+0200</time>
      </trkpt>
      <trkpt lat="44.92491" lon="6.60487">
        <ele>1326.5</ele>
        <time>2022-08-28T16:47:35+0200</time>
      </trkpt>
      <trkpt lat="44.92487" lon="6.60499">
        <ele>1326.5</ele>
        <time>2022-08-28T16:47:36+0200</time>
      </trkpt>
      <trkpt lat="44.92483" lon="6.60509">
        <ele>1326.7</ele>
        <time>2022-08-28T16:47:37+0200</time>
      </trkpt>
      <trkpt lat="44.92479" lon="6.60518">
        <ele>1326.3</ele>
        <time>2022-08-28T16:47:38+0200</time>
      </trkpt>
      <trkpt lat="44.92475" lon="6.60527">
        <ele>1325.8</ele>
        <time>2022-08-28T16:47:39+0200</time>
      </trkpt>
      <trkpt lat="44.92474" lon="6.60536">
        <ele>1325.9</ele>
        <time>2022-08-28T16:47:40+0200</time>
      </trkpt>
      <trkpt lat="44.9247" lon="6.60542">
        <ele>1325.8</ele>
        <time>2022-08-28T16:47:41+0200</time>
      </trkpt>
      <trkpt lat="44.92468" lon="6.60551">
        <ele>1326.2</ele>
        <time>2022-08-28T16:47:43+0200</time>
      </trkpt>
      <trkpt lat="44.92466" lon="6.60557">
        <ele>1326.4</ele>
        <time>2022-08-28T16:47:47+0200</time>
      </trkpt>
      <trkpt lat="44.92465" lon="6.60565">
        <ele>1327.3</ele>
        <time>2022-08-28T16:47:49+0200</time>
      </trkpt>
      <trkpt lat="44.92464" lon="6.60576">
        <ele>1328.3</ele>
        <time>2022-08-28T16:47:51+0200</time>
      </trkpt>
      <trkpt lat="44.92463" lon="6.60582">
        <ele>1328.8</ele>
        <time>2022-08-28T16:47:56+0200</time>
      </trkpt>
      <trkpt lat="44.92459" lon="6.60588">
        <ele>1328.4</ele>
        <time>2022-08-28T16:47:59+0200</time>
      </trkpt>
      <trkpt lat="44.92455" lon="6.60593">
        <ele>1327.8</ele>
        <time>2022-08-28T16:48:02+0200</time>
      </trkpt>
      <trkpt lat="44.92452" lon="6.60599">
        <ele>1327.5</ele>
        <time>2022-08-28T16:48:04+0200</time>
      </trkpt>
      <trkpt lat="44.92447" lon="6.60607">
        <ele>1327</ele>
        <time>2022-08-28T16:48:06+0200</time>
      </trkpt>
      <trkpt lat="44.92444" lon="6.60614">
        <ele>1327.3</ele>
        <time>2022-08-28T16:48:07+0200</time>
      </trkpt>
      <trkpt lat="44.92442" lon="6.60619">
        <ele>1327.5</ele>
        <time>2022-08-28T16:48:08+0200</time>
      </trkpt>
      <trkpt lat="44.92439" lon="6.60626">
        <ele>1327.8</ele>
        <time>2022-08-28T16:48:09+0200</time>
      </trkpt>
      <trkpt lat="44.92436" lon="6.60632">
        <ele>1327.8</ele>
        <time>2022-08-28T16:48:10+0200</time>
      </trkpt>
      <trkpt lat="44.92433" lon="6.6064">
        <ele>1328.1</ele>
        <time>2022-08-28T16:48:11+0200</time>
      </trkpt>
      <trkpt lat="44.92431" lon="6.60647">
        <ele>1328.2</ele>
        <time>2022-08-28T16:48:12+0200</time>
      </trkpt>
      <trkpt lat="44.92428" lon="6.60652">
        <ele>1328.2</ele>
        <time>2022-08-28T16:48:13+0200</time>
      </trkpt>
      <trkpt lat="44.92425" lon="6.60658">
        <ele>1328.3</ele>
        <time>2022-08-28T16:48:14+0200</time>
      </trkpt>
      <trkpt lat="44.92424" lon="6.60664">
        <ele>1328.7</ele>
        <time>2022-08-28T16:48:15+0200</time>
      </trkpt>
      <trkpt lat="44.9242" lon="6.60675">
        <ele>1329.3</ele>
        <time>2022-08-28T16:48:17+0200</time>
      </trkpt>
      <trkpt lat="44.92417" lon="6.60684">
        <ele>1329.9</ele>
        <time>2022-08-28T16:48:19+0200</time>
      </trkpt>
      <trkpt lat="44.92414" lon="6.60695">
        <ele>1330.7</ele>
        <time>2022-08-28T16:48:21+0200</time>
      </trkpt>
      <trkpt lat="44.92411" lon="6.60705">
        <ele>1331.1</ele>
        <time>2022-08-28T16:48:23+0200</time>
      </trkpt>
      <trkpt lat="44.92408" lon="6.60714">
        <ele>1331.4</ele>
        <time>2022-08-28T16:48:25+0200</time>
      </trkpt>
      <trkpt lat="44.92405" lon="6.60724">
        <ele>1331.9</ele>
        <time>2022-08-28T16:48:27+0200</time>
      </trkpt>
      <trkpt lat="44.92402" lon="6.60733">
        <ele>1332.2</ele>
        <time>2022-08-28T16:48:29+0200</time>
      </trkpt>
      <trkpt lat="44.92398" lon="6.60744">
        <ele>1332.5</ele>
        <time>2022-08-28T16:48:31+0200</time>
      </trkpt>
      <trkpt lat="44.92393" lon="6.60754">
        <ele>1332.6</ele>
        <time>2022-08-28T16:48:33+0200</time>
      </trkpt>
      <trkpt lat="44.92389" lon="6.60763">
        <ele>1332.5</ele>
        <time>2022-08-28T16:48:35+0200</time>
      </trkpt>
      <trkpt lat="44.92384" lon="6.60774">
        <ele>1332.3</ele>
        <time>2022-08-28T16:48:37+0200</time>
      </trkpt>
      <trkpt lat="44.92382" lon="6.6078">
        <ele>1332.4</ele>
        <time>2022-08-28T16:48:38+0200</time>
      </trkpt>
      <trkpt lat="44.9238" lon="6.60787">
        <ele>1332.4</ele>
        <time>2022-08-28T16:48:39+0200</time>
      </trkpt>
      <trkpt lat="44.92376" lon="6.60797">
        <ele>1332.6</ele>
        <time>2022-08-28T16:48:41+0200</time>
      </trkpt>
      <trkpt lat="44.92371" lon="6.60806">
        <ele>1332.7</ele>
        <time>2022-08-28T16:48:43+0200</time>
      </trkpt>
      <trkpt lat="44.92369" lon="6.60817">
        <ele>1333.1</ele>
        <time>2022-08-28T16:48:45+0200</time>
      </trkpt>
      <trkpt lat="44.92364" lon="6.60827">
        <ele>1333</ele>
        <time>2022-08-28T16:48:47+0200</time>
      </trkpt>
      <trkpt lat="44.92362" lon="6.60833">
        <ele>1333</ele>
        <time>2022-08-28T16:48:48+0200</time>
      </trkpt>
      <trkpt lat="44.92359" lon="6.60838">
        <ele>1332.9</ele>
        <time>2022-08-28T16:48:49+0200</time>
      </trkpt>
      <trkpt lat="44.92356" lon="6.60845">
        <ele>1332.8</ele>
        <time>2022-08-28T16:48:50+0200</time>
      </trkpt>
      <trkpt lat="44.92354" lon="6.60851">
        <ele>1332.8</ele>
        <time>2022-08-28T16:48:51+0200</time>
      </trkpt>
      <trkpt lat="44.92352" lon="6.60858">
        <ele>1332.8</ele>
        <time>2022-08-28T16:48:52+0200</time>
      </trkpt>
      <trkpt lat="44.92349" lon="6.60866">
        <ele>1332.8</ele>
        <time>2022-08-28T16:48:54+0200</time>
      </trkpt>
      <trkpt lat="44.92347" lon="6.60874">
        <ele>1333</ele>
        <time>2022-08-28T16:48:56+0200</time>
      </trkpt>
      <trkpt lat="44.92345" lon="6.60881">
        <ele>1332.9</ele>
        <time>2022-08-28T16:48:58+0200</time>
      </trkpt>
      <trkpt lat="44.9234" lon="6.6089">
        <ele>1332.8</ele>
        <time>2022-08-28T16:49:00+0200</time>
      </trkpt>
      <trkpt lat="44.92337" lon="6.60895">
        <ele>1332.6</ele>
        <time>2022-08-28T16:49:01+0200</time>
      </trkpt>
      <trkpt lat="44.92335" lon="6.60901">
        <ele>1332.6</ele>
        <time>2022-08-28T16:49:02+0200</time>
      </trkpt>
      <trkpt lat="44.92332" lon="6.60907">
        <ele>1332.5</ele>
        <time>2022-08-28T16:49:03+0200</time>
      </trkpt>
      <trkpt lat="44.9233" lon="6.60913">
        <ele>1332.3</ele>
        <time>2022-08-28T16:49:04+0200</time>
      </trkpt>
      <trkpt lat="44.92326" lon="6.60919">
        <ele>1332.1</ele>
        <time>2022-08-28T16:49:05+0200</time>
      </trkpt>
      <trkpt lat="44.92323" lon="6.60925">
        <ele>1331.8</ele>
        <time>2022-08-28T16:49:06+0200</time>
      </trkpt>
      <trkpt lat="44.92319" lon="6.60931">
        <ele>1331.5</ele>
        <time>2022-08-28T16:49:07+0200</time>
      </trkpt>
      <trkpt lat="44.92316" lon="6.60938">
        <ele>1331.3</ele>
        <time>2022-08-28T16:49:08+0200</time>
      </trkpt>
      <trkpt lat="44.92313" lon="6.60946">
        <ele>1331.2</ele>
        <time>2022-08-28T16:49:09+0200</time>
      </trkpt>
      <trkpt lat="44.92311" lon="6.60954">
        <ele>1331.4</ele>
        <time>2022-08-28T16:49:10+0200</time>
      </trkpt>
      <trkpt lat="44.92307" lon="6.60962">
        <ele>1331.5</ele>
        <time>2022-08-28T16:49:11+0200</time>
      </trkpt>
      <trkpt lat="44.92305" lon="6.60969">
        <ele>1331.6</ele>
        <time>2022-08-28T16:49:12+0200</time>
      </trkpt>
      <trkpt lat="44.92303" lon="6.60976">
        <ele>1331.7</ele>
        <time>2022-08-28T16:49:13+0200</time>
      </trkpt>
      <trkpt lat="44.923" lon="6.60983">
        <ele>1331.7</ele>
        <time>2022-08-28T16:49:14+0200</time>
      </trkpt>
      <trkpt lat="44.92297" lon="6.60989">
        <ele>1331.4</ele>
        <time>2022-08-28T16:49:15+0200</time>
      </trkpt>
      <trkpt lat="44.92294" lon="6.60995">
        <ele>1331.2</ele>
        <time>2022-08-28T16:49:16+0200</time>
      </trkpt>
      <trkpt lat="44.92291" lon="6.61001">
        <ele>1330.9</ele>
        <time>2022-08-28T16:49:17+0200</time>
      </trkpt>
      <trkpt lat="44.92288" lon="6.61008">
        <ele>1330.8</ele>
        <time>2022-08-28T16:49:18+0200</time>
      </trkpt>
      <trkpt lat="44.92285" lon="6.61017">
        <ele>1330.6</ele>
        <time>2022-08-28T16:49:19+0200</time>
      </trkpt>
      <trkpt lat="44.92283" lon="6.61025">
        <ele>1330.6</ele>
        <time>2022-08-28T16:49:20+0200</time>
      </trkpt>
      <trkpt lat="44.9228" lon="6.61033">
        <ele>1330.5</ele>
        <time>2022-08-28T16:49:21+0200</time>
      </trkpt>
      <trkpt lat="44.92277" lon="6.61042">
        <ele>1330.5</ele>
        <time>2022-08-28T16:49:22+0200</time>
      </trkpt>
      <trkpt lat="44.92275" lon="6.61049">
        <ele>1330.4</ele>
        <time>2022-08-28T16:49:23+0200</time>
      </trkpt>
      <trkpt lat="44.92273" lon="6.61057">
        <ele>1330.5</ele>
        <time>2022-08-28T16:49:24+0200</time>
      </trkpt>
      <trkpt lat="44.92273" lon="6.61064">
        <ele>1330.9</ele>
        <time>2022-08-28T16:49:25+0200</time>
      </trkpt>
      <trkpt lat="44.92271" lon="6.61072">
        <ele>1331.2</ele>
        <time>2022-08-28T16:49:26+0200</time>
      </trkpt>
      <trkpt lat="44.9227" lon="6.61079">
        <ele>1331.5</ele>
        <time>2022-08-28T16:49:27+0200</time>
      </trkpt>
      <trkpt lat="44.92268" lon="6.61085">
        <ele>1331.6</ele>
        <time>2022-08-28T16:49:28+0200</time>
      </trkpt>
      <trkpt lat="44.92266" lon="6.61092">
        <ele>1331.4</ele>
        <time>2022-08-28T16:49:29+0200</time>
      </trkpt>
      <trkpt lat="44.92264" lon="6.61098">
        <ele>1331.3</ele>
        <time>2022-08-28T16:49:30+0200</time>
      </trkpt>
      <trkpt lat="44.92261" lon="6.61106">
        <ele>1331.1</ele>
        <time>2022-08-28T16:49:31+0200</time>
      </trkpt>
      <trkpt lat="44.92259" lon="6.61112">
        <ele>1331</ele>
        <time>2022-08-28T16:49:32+0200</time>
      </trkpt>
      <trkpt lat="44.92257" lon="6.61119">
        <ele>1331.1</ele>
        <time>2022-08-28T16:49:33+0200</time>
      </trkpt>
      <trkpt lat="44.92255" lon="6.61126">
        <ele>1331</ele>
        <time>2022-08-28T16:49:34+0200</time>
      </trkpt>
      <trkpt lat="44.92253" lon="6.61132">
        <ele>1331</ele>
        <time>2022-08-28T16:49:35+0200</time>
      </trkpt>
      <trkpt lat="44.9225" lon="6.61137">
        <ele>1330.9</ele>
        <time>2022-08-28T16:49:36+0200</time>
      </trkpt>
      <trkpt lat="44.92247" lon="6.61145">
        <ele>1330.8</ele>
        <time>2022-08-28T16:49:37+0200</time>
      </trkpt>
      <trkpt lat="44.92244" lon="6.61152">
        <ele>1330.5</ele>
        <time>2022-08-28T16:49:38+0200</time>
      </trkpt>
      <trkpt lat="44.9224" lon="6.61159">
        <ele>1330.1</ele>
        <time>2022-08-28T16:49:39+0200</time>
      </trkpt>
      <trkpt lat="44.92237" lon="6.61167">
        <ele>1329.7</ele>
        <time>2022-08-28T16:49:40+0200</time>
      </trkpt>
      <trkpt lat="44.92233" lon="6.61174">
        <ele>1329.4</ele>
        <time>2022-08-28T16:49:41+0200</time>
      </trkpt>
      <trkpt lat="44.92229" lon="6.6118">
        <ele>1329</ele>
        <time>2022-08-28T16:49:42+0200</time>
      </trkpt>
      <trkpt lat="44.92224" lon="6.61187">
        <ele>1328.8</ele>
        <time>2022-08-28T16:49:43+0200</time>
      </trkpt>
      <trkpt lat="44.92219" lon="6.61193">
        <ele>1328.2</ele>
        <time>2022-08-28T16:49:44+0200</time>
      </trkpt>
      <trkpt lat="44.92214" lon="6.612">
        <ele>1327.5</ele>
        <time>2022-08-28T16:49:45+0200</time>
      </trkpt>
      <trkpt lat="44.9221" lon="6.61208">
        <ele>1327.2</ele>
        <time>2022-08-28T16:49:46+0200</time>
      </trkpt>
      <trkpt lat="44.92208" lon="6.61219">
        <ele>1327.2</ele>
        <time>2022-08-28T16:49:47+0200</time>
      </trkpt>
      <trkpt lat="44.92207" lon="6.61229">
        <ele>1327.3</ele>
        <time>2022-08-28T16:49:48+0200</time>
      </trkpt>
      <trkpt lat="44.92206" lon="6.61237">
        <ele>1327.5</ele>
        <time>2022-08-28T16:49:49+0200</time>
      </trkpt>
      <trkpt lat="44.92206" lon="6.61246">
        <ele>1327.8</ele>
        <time>2022-08-28T16:49:50+0200</time>
      </trkpt>
      <trkpt lat="44.92205" lon="6.61254">
        <ele>1327.8</ele>
        <time>2022-08-28T16:49:51+0200</time>
      </trkpt>
      <trkpt lat="44.92205" lon="6.61261">
        <ele>1327.7</ele>
        <time>2022-08-28T16:49:52+0200</time>
      </trkpt>
      <trkpt lat="44.92205" lon="6.61268">
        <ele>1327.9</ele>
        <time>2022-08-28T16:49:53+0200</time>
      </trkpt>
      <trkpt lat="44.92205" lon="6.61274">
        <ele>1327.9</ele>
        <time>2022-08-28T16:49:54+0200</time>
      </trkpt>
      <trkpt lat="44.92206" lon="6.61282">
        <ele>1328</ele>
        <time>2022-08-28T16:49:55+0200</time>
      </trkpt>
      <trkpt lat="44.92207" lon="6.6129">
        <ele>1328</ele>
        <time>2022-08-28T16:49:56+0200</time>
      </trkpt>
      <trkpt lat="44.92206" lon="6.61302">
        <ele>1327.7</ele>
        <time>2022-08-28T16:49:58+0200</time>
      </trkpt>
      <trkpt lat="44.92209" lon="6.61311">
        <ele>1327.9</ele>
        <time>2022-08-28T16:50:00+0200</time>
      </trkpt>
      <trkpt lat="44.92214" lon="6.61305">
        <ele>1328.8</ele>
        <time>2022-08-28T16:50:02+0200</time>
      </trkpt>
      <trkpt lat="44.92216" lon="6.61294">
        <ele>1329.4</ele>
        <time>2022-08-28T16:50:05+0200</time>
      </trkpt>
      <trkpt lat="44.92218" lon="6.61287">
        <ele>1330</ele>
        <time>2022-08-28T16:50:07+0200</time>
      </trkpt>
      <trkpt lat="44.9222" lon="6.61278">
        <ele>1330.5</ele>
        <time>2022-08-28T16:50:09+0200</time>
      </trkpt>
      <trkpt lat="44.92226" lon="6.6128">
        <ele>1331.4</ele>
        <time>2022-08-28T16:50:12+0200</time>
      </trkpt>
      <trkpt lat="44.92227" lon="6.61288">
        <ele>1331.3</ele>
        <time>2022-08-28T16:50:14+0200</time>
      </trkpt>
      <trkpt lat="44.92229" lon="6.61295">
        <ele>1331.3</ele>
        <time>2022-08-28T16:50:15+0200</time>
      </trkpt>
      <trkpt lat="44.92229" lon="6.61307">
        <ele>1330.9</ele>
        <time>2022-08-28T16:50:17+0200</time>
      </trkpt>
      <trkpt lat="44.92229" lon="6.61315">
        <ele>1330.7</ele>
        <time>2022-08-28T16:50:18+0200</time>
      </trkpt>
      <trkpt lat="44.92229" lon="6.61324">
        <ele>1330.3</ele>
        <time>2022-08-28T16:50:19+0200</time>
      </trkpt>
      <trkpt lat="44.9223" lon="6.61333">
        <ele>1330.1</ele>
        <time>2022-08-28T16:50:20+0200</time>
      </trkpt>
      <trkpt lat="44.92229" lon="6.61342">
        <ele>1329.7</ele>
        <time>2022-08-28T16:50:21+0200</time>
      </trkpt>
      <trkpt lat="44.92228" lon="6.61351">
        <ele>1329.4</ele>
        <time>2022-08-28T16:50:22+0200</time>
      </trkpt>
      <trkpt lat="44.92228" lon="6.61361">
        <ele>1329</ele>
        <time>2022-08-28T16:50:23+0200</time>
      </trkpt>
      <trkpt lat="44.92226" lon="6.61372">
        <ele>1328.8</ele>
        <time>2022-08-28T16:50:24+0200</time>
      </trkpt>
      <trkpt lat="44.92223" lon="6.61382">
        <ele>1328.2</ele>
        <time>2022-08-28T16:50:25+0200</time>
      </trkpt>
      <trkpt lat="44.9222" lon="6.61391">
        <ele>1327.8</ele>
        <time>2022-08-28T16:50:26+0200</time>
      </trkpt>
      <trkpt lat="44.92216" lon="6.614">
        <ele>1327.6</ele>
        <time>2022-08-28T16:50:27+0200</time>
      </trkpt>
      <trkpt lat="44.92212" lon="6.6141">
        <ele>1327.3</ele>
        <time>2022-08-28T16:50:28+0200</time>
      </trkpt>
      <trkpt lat="44.92207" lon="6.6142">
        <ele>1327</ele>
        <time>2022-08-28T16:50:29+0200</time>
      </trkpt>
      <trkpt lat="44.92203" lon="6.6143">
        <ele>1326.7</ele>
        <time>2022-08-28T16:50:30+0200</time>
      </trkpt>
      <trkpt lat="44.92198" lon="6.61439">
        <ele>1326.3</ele>
        <time>2022-08-28T16:50:31+0200</time>
      </trkpt>
      <trkpt lat="44.92195" lon="6.61451">
        <ele>1326</ele>
        <time>2022-08-28T16:50:32+0200</time>
      </trkpt>
      <trkpt lat="44.92191" lon="6.61461">
        <ele>1325.4</ele>
        <time>2022-08-28T16:50:33+0200</time>
      </trkpt>
      <trkpt lat="44.92188" lon="6.61473">
        <ele>1324.9</ele>
        <time>2022-08-28T16:50:34+0200</time>
      </trkpt>
      <trkpt lat="44.92185" lon="6.61485">
        <ele>1324.6</ele>
        <time>2022-08-28T16:50:35+0200</time>
      </trkpt>
      <trkpt lat="44.92182" lon="6.61496">
        <ele>1324.2</ele>
        <time>2022-08-28T16:50:36+0200</time>
      </trkpt>
      <trkpt lat="44.9218" lon="6.61509">
        <ele>1324.3</ele>
        <time>2022-08-28T16:50:37+0200</time>
      </trkpt>
      <trkpt lat="44.92176" lon="6.61519">
        <ele>1323.7</ele>
        <time>2022-08-28T16:50:38+0200</time>
      </trkpt>
      <trkpt lat="44.9217" lon="6.61527">
        <ele>1322.6</ele>
        <time>2022-08-28T16:50:39+0200</time>
      </trkpt>
      <trkpt lat="44.92163" lon="6.61535">
        <ele>1322.1</ele>
        <time>2022-08-28T16:50:40+0200</time>
      </trkpt>
      <trkpt lat="44.92157" lon="6.61542">
        <ele>1321.6</ele>
        <time>2022-08-28T16:50:41+0200</time>
      </trkpt>
      <trkpt lat="44.92151" lon="6.61548">
        <ele>1321</ele>
        <time>2022-08-28T16:50:42+0200</time>
      </trkpt>
      <trkpt lat="44.92145" lon="6.61554">
        <ele>1320.1</ele>
        <time>2022-08-28T16:50:43+0200</time>
      </trkpt>
      <trkpt lat="44.92138" lon="6.61563">
        <ele>1320</ele>
        <time>2022-08-28T16:50:44+0200</time>
      </trkpt>
      <trkpt lat="44.92132" lon="6.61573">
        <ele>1320</ele>
        <time>2022-08-28T16:50:45+0200</time>
      </trkpt>
      <trkpt lat="44.92125" lon="6.61581">
        <ele>1319.7</ele>
        <time>2022-08-28T16:50:46+0200</time>
      </trkpt>
      <trkpt lat="44.92119" lon="6.61592">
        <ele>1319.9</ele>
        <time>2022-08-28T16:50:47+0200</time>
      </trkpt>
      <trkpt lat="44.92112" lon="6.616">
        <ele>1319.6</ele>
        <time>2022-08-28T16:50:48+0200</time>
      </trkpt>
      <trkpt lat="44.92106" lon="6.61606">
        <ele>1319.4</ele>
        <time>2022-08-28T16:50:49+0200</time>
      </trkpt>
      <trkpt lat="44.921" lon="6.61616">
        <ele>1319.8</ele>
        <time>2022-08-28T16:50:50+0200</time>
      </trkpt>
      <trkpt lat="44.92095" lon="6.61625">
        <ele>1319.9</ele>
        <time>2022-08-28T16:50:51+0200</time>
      </trkpt>
      <trkpt lat="44.92088" lon="6.61633">
        <ele>1319.4</ele>
        <time>2022-08-28T16:50:52+0200</time>
      </trkpt>
      <trkpt lat="44.92081" lon="6.6164">
        <ele>1318.8</ele>
        <time>2022-08-28T16:50:53+0200</time>
      </trkpt>
      <trkpt lat="44.92077" lon="6.61647">
        <ele>1319.2</ele>
        <time>2022-08-28T16:50:54+0200</time>
      </trkpt>
      <trkpt lat="44.9207" lon="6.61655">
        <ele>1319.2</ele>
        <time>2022-08-28T16:50:55+0200</time>
      </trkpt>
      <trkpt lat="44.92063" lon="6.61664">
        <ele>1319.2</ele>
        <time>2022-08-28T16:50:56+0200</time>
      </trkpt>
      <trkpt lat="44.92058" lon="6.61673">
        <ele>1319.7</ele>
        <time>2022-08-28T16:50:57+0200</time>
      </trkpt>
      <trkpt lat="44.92052" lon="6.61681">
        <ele>1320.4</ele>
        <time>2022-08-28T16:50:58+0200</time>
      </trkpt>
      <trkpt lat="44.92045" lon="6.61686">
        <ele>1320.3</ele>
        <time>2022-08-28T16:50:59+0200</time>
      </trkpt>
      <trkpt lat="44.92039" lon="6.61691">
        <ele>1319.9</ele>
        <time>2022-08-28T16:51:00+0200</time>
      </trkpt>
      <trkpt lat="44.92033" lon="6.61698">
        <ele>1319.8</ele>
        <time>2022-08-28T16:51:01+0200</time>
      </trkpt>
      <trkpt lat="44.92027" lon="6.61706">
        <ele>1320</ele>
        <time>2022-08-28T16:51:02+0200</time>
      </trkpt>
      <trkpt lat="44.92022" lon="6.61712">
        <ele>1320.3</ele>
        <time>2022-08-28T16:51:03+0200</time>
      </trkpt>
      <trkpt lat="44.92017" lon="6.61717">
        <ele>1320.1</ele>
        <time>2022-08-28T16:51:04+0200</time>
      </trkpt>
      <trkpt lat="44.92011" lon="6.61721">
        <ele>1319.7</ele>
        <time>2022-08-28T16:51:05+0200</time>
      </trkpt>
      <trkpt lat="44.92003" lon="6.61725">
        <ele>1318.8</ele>
        <time>2022-08-28T16:51:06+0200</time>
      </trkpt>
      <trkpt lat="44.91994" lon="6.61728">
        <ele>1318.5</ele>
        <time>2022-08-28T16:51:07+0200</time>
      </trkpt>
      <trkpt lat="44.91986" lon="6.61729">
        <ele>1318.2</ele>
        <time>2022-08-28T16:51:08+0200</time>
      </trkpt>
      <trkpt lat="44.91978" lon="6.6173">
        <ele>1317.9</ele>
        <time>2022-08-28T16:51:09+0200</time>
      </trkpt>
      <trkpt lat="44.91971" lon="6.61729">
        <ele>1317.5</ele>
        <time>2022-08-28T16:51:10+0200</time>
      </trkpt>
      <trkpt lat="44.91964" lon="6.61728">
        <ele>1317.4</ele>
        <time>2022-08-28T16:51:11+0200</time>
      </trkpt>
      <trkpt lat="44.91957" lon="6.61728">
        <ele>1317.4</ele>
        <time>2022-08-28T16:51:12+0200</time>
      </trkpt>
      <trkpt lat="44.91948" lon="6.61729">
        <ele>1317.5</ele>
        <time>2022-08-28T16:51:13+0200</time>
      </trkpt>
      <trkpt lat="44.91941" lon="6.61729">
        <ele>1317.4</ele>
        <time>2022-08-28T16:51:14+0200</time>
      </trkpt>
      <trkpt lat="44.91934" lon="6.6173">
        <ele>1317.3</ele>
        <time>2022-08-28T16:51:15+0200</time>
      </trkpt>
      <trkpt lat="44.91927" lon="6.61731">
        <ele>1317.2</ele>
        <time>2022-08-28T16:51:16+0200</time>
      </trkpt>
      <trkpt lat="44.91921" lon="6.61732">
        <ele>1317.2</ele>
        <time>2022-08-28T16:51:17+0200</time>
      </trkpt>
      <trkpt lat="44.91915" lon="6.61732">
        <ele>1317</ele>
        <time>2022-08-28T16:51:18+0200</time>
      </trkpt>
      <trkpt lat="44.91909" lon="6.61733">
        <ele>1316.9</ele>
        <time>2022-08-28T16:51:19+0200</time>
      </trkpt>
      <trkpt lat="44.91902" lon="6.61736">
        <ele>1316.9</ele>
        <time>2022-08-28T16:51:20+0200</time>
      </trkpt>
      <trkpt lat="44.91895" lon="6.61739">
        <ele>1317</ele>
        <time>2022-08-28T16:51:21+0200</time>
      </trkpt>
      <trkpt lat="44.91889" lon="6.61741">
        <ele>1317</ele>
        <time>2022-08-28T16:51:22+0200</time>
      </trkpt>
      <trkpt lat="44.91882" lon="6.61742">
        <ele>1316.8</ele>
        <time>2022-08-28T16:51:23+0200</time>
      </trkpt>
      <trkpt lat="44.91876" lon="6.61743">
        <ele>1316.8</ele>
        <time>2022-08-28T16:51:24+0200</time>
      </trkpt>
      <trkpt lat="44.9187" lon="6.61744">
        <ele>1316.7</ele>
        <time>2022-08-28T16:51:25+0200</time>
      </trkpt>
      <trkpt lat="44.91866" lon="6.61746">
        <ele>1316.7</ele>
        <time>2022-08-28T16:51:26+0200</time>
      </trkpt>
      <trkpt lat="44.91861" lon="6.61747">
        <ele>1316.6</ele>
        <time>2022-08-28T16:51:27+0200</time>
      </trkpt>
      <trkpt lat="44.91856" lon="6.61748">
        <ele>1316.4</ele>
        <time>2022-08-28T16:51:28+0200</time>
      </trkpt>
      <trkpt lat="44.9185" lon="6.61746">
        <ele>1315.8</ele>
        <time>2022-08-28T16:51:29+0200</time>
      </trkpt>
      <trkpt lat="44.91842" lon="6.61749">
        <ele>1315.6</ele>
        <time>2022-08-28T16:51:30+0200</time>
      </trkpt>
      <trkpt lat="44.91838" lon="6.61755">
        <ele>1315.9</ele>
        <time>2022-08-28T16:51:31+0200</time>
      </trkpt>
      <trkpt lat="44.91833" lon="6.61761">
        <ele>1316.2</ele>
        <time>2022-08-28T16:51:32+0200</time>
      </trkpt>
      <trkpt lat="44.91829" lon="6.61767">
        <ele>1316.4</ele>
        <time>2022-08-28T16:51:33+0200</time>
      </trkpt>
      <trkpt lat="44.91824" lon="6.61773">
        <ele>1316.6</ele>
        <time>2022-08-28T16:51:34+0200</time>
      </trkpt>
      <trkpt lat="44.91819" lon="6.6178">
        <ele>1316.6</ele>
        <time>2022-08-28T16:51:35+0200</time>
      </trkpt>
      <trkpt lat="44.91814" lon="6.61786">
        <ele>1316.5</ele>
        <time>2022-08-28T16:51:36+0200</time>
      </trkpt>
      <trkpt lat="44.91809" lon="6.61792">
        <ele>1316.3</ele>
        <time>2022-08-28T16:51:37+0200</time>
      </trkpt>
      <trkpt lat="44.91804" lon="6.61797">
        <ele>1316.2</ele>
        <time>2022-08-28T16:51:38+0200</time>
      </trkpt>
      <trkpt lat="44.91799" lon="6.618">
        <ele>1315.9</ele>
        <time>2022-08-28T16:51:39+0200</time>
      </trkpt>
      <trkpt lat="44.91793" lon="6.61805">
        <ele>1315.6</ele>
        <time>2022-08-28T16:51:40+0200</time>
      </trkpt>
      <trkpt lat="44.91788" lon="6.61809">
        <ele>1315.3</ele>
        <time>2022-08-28T16:51:41+0200</time>
      </trkpt>
      <trkpt lat="44.91782" lon="6.61812">
        <ele>1314.9</ele>
        <time>2022-08-28T16:51:42+0200</time>
      </trkpt>
      <trkpt lat="44.91777" lon="6.61815">
        <ele>1314.6</ele>
        <time>2022-08-28T16:51:43+0200</time>
      </trkpt>
      <trkpt lat="44.91772" lon="6.61819">
        <ele>1314.4</ele>
        <time>2022-08-28T16:51:44+0200</time>
      </trkpt>
      <trkpt lat="44.91768" lon="6.61822">
        <ele>1314.1</ele>
        <time>2022-08-28T16:51:45+0200</time>
      </trkpt>
      <trkpt lat="44.91762" lon="6.61827">
        <ele>1313.9</ele>
        <time>2022-08-28T16:51:46+0200</time>
      </trkpt>
      <trkpt lat="44.91756" lon="6.61835">
        <ele>1313.7</ele>
        <time>2022-08-28T16:51:47+0200</time>
      </trkpt>
      <trkpt lat="44.91751" lon="6.61841">
        <ele>1313.3</ele>
        <time>2022-08-28T16:51:48+0200</time>
      </trkpt>
      <trkpt lat="44.91743" lon="6.61846">
        <ele>1312.7</ele>
        <time>2022-08-28T16:51:50+0200</time>
      </trkpt>
      <trkpt lat="44.91739" lon="6.61852">
        <ele>1312.5</ele>
        <time>2022-08-28T16:51:51+0200</time>
      </trkpt>
      <trkpt lat="44.91735" lon="6.6186">
        <ele>1312.3</ele>
        <time>2022-08-28T16:51:52+0200</time>
      </trkpt>
      <trkpt lat="44.91732" lon="6.61869">
        <ele>1312.3</ele>
        <time>2022-08-28T16:51:53+0200</time>
      </trkpt>
      <trkpt lat="44.91729" lon="6.61877">
        <ele>1312.3</ele>
        <time>2022-08-28T16:51:54+0200</time>
      </trkpt>
      <trkpt lat="44.91732" lon="6.61883">
        <ele>1312.8</ele>
        <time>2022-08-28T16:51:56+0200</time>
      </trkpt>
      <trkpt lat="44.91732" lon="6.6189">
        <ele>1313.1</ele>
        <time>2022-08-28T16:51:59+0200</time>
      </trkpt>
      <trkpt lat="44.91734" lon="6.61898">
        <ele>1313.4</ele>
        <time>2022-08-28T16:52:01+0200</time>
      </trkpt>
      <trkpt lat="44.91738" lon="6.61902">
        <ele>1314</ele>
        <time>2022-08-28T16:52:04+0200</time>
      </trkpt>
      <trkpt lat="44.91741" lon="6.61909">
        <ele>1314.6</ele>
        <time>2022-08-28T16:52:07+0200</time>
      </trkpt>
      <trkpt lat="44.91746" lon="6.61912">
        <ele>1315.2</ele>
        <time>2022-08-28T16:52:09+0200</time>
      </trkpt>
      <trkpt lat="44.9175" lon="6.61915">
        <ele>1315.9</ele>
        <time>2022-08-28T16:52:11+0200</time>
      </trkpt>
      <trkpt lat="44.91755" lon="6.61918">
        <ele>1316.6</ele>
        <time>2022-08-28T16:52:14+0200</time>
      </trkpt>
      <trkpt lat="44.91761" lon="6.6192">
        <ele>1317.2</ele>
        <time>2022-08-28T16:52:17+0200</time>
      </trkpt>
      <trkpt lat="44.91766" lon="6.61922">
        <ele>1317.9</ele>
        <time>2022-08-28T16:52:20+0200</time>
      </trkpt>
      <trkpt lat="44.91774" lon="6.61923">
        <ele>1318.7</ele>
        <time>2022-08-28T16:52:23+0200</time>
      </trkpt>
      <trkpt lat="44.91779" lon="6.61925">
        <ele>1319.4</ele>
        <time>2022-08-28T16:52:25+0200</time>
      </trkpt>
      <trkpt lat="44.91785" lon="6.61927">
        <ele>1320.1</ele>
        <time>2022-08-28T16:52:28+0200</time>
      </trkpt>
      <trkpt lat="44.91789" lon="6.61931">
        <ele>1320.7</ele>
        <time>2022-08-28T16:52:31+0200</time>
      </trkpt>
      <trkpt lat="44.91794" lon="6.61934">
        <ele>1321.3</ele>
        <time>2022-08-28T16:52:34+0200</time>
      </trkpt>
      <trkpt lat="44.91798" lon="6.61937">
        <ele>1321.9</ele>
        <time>2022-08-28T16:52:36+0200</time>
      </trkpt>
      <trkpt lat="44.91802" lon="6.6194">
        <ele>1322.4</ele>
        <time>2022-08-28T16:52:38+0200</time>
      </trkpt>
      <trkpt lat="44.91809" lon="6.61942">
        <ele>1323.4</ele>
        <time>2022-08-28T16:52:41+0200</time>
      </trkpt>
      <trkpt lat="44.91814" lon="6.61943">
        <ele>1324.2</ele>
        <time>2022-08-28T16:52:44+0200</time>
      </trkpt>
      <trkpt lat="44.91819" lon="6.61945">
        <ele>1325</ele>
        <time>2022-08-28T16:52:47+0200</time>
      </trkpt>
      <trkpt lat="44.91825" lon="6.61944">
        <ele>1325.7</ele>
        <time>2022-08-28T16:52:50+0200</time>
      </trkpt>
      <trkpt lat="44.9183" lon="6.61944">
        <ele>1326.5</ele>
        <time>2022-08-28T16:52:55+0200</time>
      </trkpt>
      <trkpt lat="44.91835" lon="6.61941">
        <ele>1327.1</ele>
        <time>2022-08-28T16:52:58+0200</time>
      </trkpt>
      <trkpt lat="44.9184" lon="6.61942">
        <ele>1327.9</ele>
        <time>2022-08-28T16:53:01+0200</time>
      </trkpt>
      <trkpt lat="44.91845" lon="6.61946">
        <ele>1328.7</ele>
        <time>2022-08-28T16:53:04+0200</time>
      </trkpt>
      <trkpt lat="44.91847" lon="6.61953">
        <ele>1329.6</ele>
        <time>2022-08-28T16:53:08+0200</time>
      </trkpt>
      <trkpt lat="44.91842" lon="6.61957">
        <ele>1329</ele>
        <time>2022-08-28T16:53:11+0200</time>
      </trkpt>
      <trkpt lat="44.91837" lon="6.61958">
        <ele>1328.1</ele>
        <time>2022-08-28T16:53:27+0200</time>
      </trkpt>
    </trkseg>
  </trk>
</gpx>